ECMWFFLT1_925_thetae_000.txt.gz
Theta_e
357 356 355 356 356 355 353 353 356 355 355 357 359 358 357 359 359 357 358 361 362 364 363 363 366 366 364 364 362 361 361 361 360 359 358 357 356 354 354 353 353 352 352 351 349 348 347 346 344 343 342 342 342 341 340 339 337 336 337 337 337 337 337
356 355 355 355 355 355 354 353 356 356 356 358 359 357 356 359 360 358 359 363 366 366 364 363 366 367 366 366 364 362 362 361 361 360 358 357 357 356 354 354 353 352 352 351 349 348 347 345 344 343 343 342 341 341 340 339 338 337 336 336 337 337 337
355 355 355 356 356 356 355 355 357 357 356 356 356 357 358 358 361 361 361 363 367 367 365 363 366 367 366 367 366 363 364 363 362 360 358 356 356 355 354 355 354 352 353 352 350 349 346 345 344 343 342 342 342 341 340 339 338 337 336 337 336 336 337
355 355 355 357 357 357 356 356 358 358 354 354 355 356 358 359 362 364 364 364 366 366 366 364 366 368 368 368 367 365 366 365 362 361 358 356 355 355 354 355 355 352 353 353 352 349 347 345 345 344 342 342 342 341 340 339 338 338 337 337 336 336 336
355 354 354 357 357 357 357 355 357 357 352 352 354 356 358 361 363 364 365 365 362 363 365 364 364 368 369 369 368 367 367 366 364 362 360 357 356 356 355 356 355 353 353 354 352 349 348 345 344 344 344 343 343 341 340 339 338 338 338 337 337 336 335
354 355 355 355 355 357 358 355 354 354 351 350 352 356 359 360 361 361 363 364 362 361 364 365 364 367 370 369 368 368 368 367 366 364 362 360 359 358 357 356 354 353 354 354 351 349 349 346 344 344 344 343 342 341 340 340 339 338 338 338 337 337 336
354 355 357 355 355 356 356 355 353 351 352 351 351 356 358 357 358 358 358 362 362 362 364 365 365 367 369 369 368 369 369 367 366 365 364 363 361 359 358 355 352 353 354 353 349 348 348 346 344 345 345 343 342 341 340 340 339 337 337 337 337 337 337
354 356 357 357 356 354 354 355 354 351 352 352 351 356 358 356 356 357 357 359 361 362 362 363 364 367 370 369 368 369 368 368 367 365 363 364 362 361 358 353 350 352 353 350 347 345 344 341 341 343 344 343 343 342 341 340 339 336 335 335 336 337 337
355 359 359 357 354 354 354 355 356 354 355 355 354 356 358 358 357 357 357 359 361 363 363 360 362 367 370 369 368 368 368 368 367 364 363 364 361 359 355 352 352 352 350 346 343 341 338 336 338 341 341 341 341 341 341 340 338 336 335 336 337 338 337
358 360 361 358 354 356 354 352 357 359 359 360 360 358 360 360 359 358 359 359 361 363 363 361 360 364 370 370 368 369 369 366 365 363 363 361 359 357 353 351 352 349 344 340 338 336 336 337 339 339 338 337 337 337 338 339 339 337 335 336 338 338 337
361 360 362 359 357 357 355 354 360 364 364 365 364 362 361 362 362 361 361 362 362 362 364 363 360 361 367 369 369 369 369 366 364 362 360 358 356 355 350 350 351 347 342 338 334 334 335 333 331 330 328 329 331 333 335 336 337 338 337 337 338 338 337
364 363 363 362 360 358 358 361 365 367 368 369 366 364 363 364 364 363 364 364 364 362 364 364 362 361 364 367 369 369 368 364 361 359 357 355 355 352 345 347 349 346 343 339 334 334 334 328 323 321 323 323 324 329 332 333 336 338 339 338 337 338 337
364 363 362 361 361 361 363 367 368 369 371 370 368 366 365 366 364 365 366 365 364 364 365 365 364 363 363 366 369 370 367 362 358 357 354 352 353 347 339 340 341 341 342 340 336 334 331 326 321 320 323 323 323 326 330 333 337 339 340 339 337 337 338
361 360 362 362 362 364 366 369 370 372 371 371 369 368 368 368 366 366 367 367 366 365 365 366 366 366 367 367 369 369 365 359 356 354 351 351 350 344 336 332 330 334 340 339 336 335 331 329 323 320 322 325 327 329 330 334 338 340 340 340 338 338 338
361 358 359 361 363 366 368 370 372 372 371 371 370 369 369 368 368 368 368 367 367 365 365 366 367 369 368 368 368 365 360 356 353 351 349 349 348 340 333 330 330 336 341 339 337 335 333 333 327 321 322 326 330 333 333 335 339 340 339 338 338 339 339
360 357 358 359 362 365 367 368 370 372 372 372 371 371 370 370 370 369 368 368 368 367 366 366 368 369 368 367 364 359 355 353 350 348 348 348 347 340 335 335 337 340 340 337 336 334 333 333 327 322 324 328 333 337 337 337 339 339 337 335 336 337 338
358 357 358 358 361 364 366 367 369 371 372 372 373 372 371 371 371 370 368 367 368 368 367 366 369 370 368 366 360 354 352 349 347 347 347 347 346 343 341 342 340 337 334 332 332 332 334 334 328 326 331 335 337 339 338 338 337 337 336 334 333 334 336
361 360 360 359 361 363 364 364 367 370 370 369 372 373 372 372 372 370 369 368 368 369 368 367 369 368 368 367 360 354 350 347 345 345 345 345 345 345 346 344 338 332 329 329 329 331 333 331 328 330 335 339 339 338 338 337 337 337 335 333 333 334 335
359 361 363 362 362 363 362 362 365 368 369 369 371 372 371 372 372 371 370 369 369 368 368 369 368 367 368 366 360 356 351 346 343 343 343 343 344 346 347 342 336 333 329 329 330 331 331 331 333 336 339 340 339 337 337 338 338 336 334 333 334 335 335
356 359 361 361 361 361 361 361 363 365 367 368 368 368 369 370 371 371 370 369 369 368 368 369 368 367 367 363 359 356 352 347 344 342 342 342 341 343 345 341 337 333 331 332 334 334 334 336 338 340 340 340 339 338 338 339 338 336 334 335 335 335 336
355 357 358 360 361 360 360 359 360 363 365 364 365 366 367 368 369 369 368 368 369 368 368 369 368 367 365 362 358 355 352 349 346 343 342 342 341 342 343 342 339 335 335 337 338 337 338 340 340 340 340 340 338 338 340 339 337 335 334 334 332 332 335
350 353 353 357 359 360 361 359 360 362 362 362 363 364 365 365 365 366 366 367 369 369 369 369 367 366 363 359 357 354 351 349 347 345 344 342 342 342 342 343 341 340 340 341 340 339 339 339 340 340 340 339 337 338 340 338 335 335 334 332 330 331 335
348 351 352 354 357 360 361 358 359 359 359 360 361 361 360 360 360 361 362 365 368 369 369 369 367 364 361 358 356 353 350 348 346 345 344 344 343 344 344 344 344 344 344 342 340 340 340 339 340 340 340 339 338 338 339 337 335 334 333 333 332 333 335
347 350 353 355 357 359 358 356 356 357 358 359 358 356 356 357 358 361 363 366 368 368 368 368 366 362 359 358 355 351 348 347 345 344 345 345 345 345 345 345 345 345 345 343 341 340 340 340 340 340 340 339 338 338 337 336 335 332 331 331 330 331 334
346 348 353 356 355 355 356 356 356 358 358 359 358 357 359 360 362 365 366 366 367 367 367 366 364 361 359 356 353 350 348 346 345 344 345 345 346 345 345 345 345 344 344 343 343 342 340 340 339 339 339 337 337 337 335 335 334 331 328 327 326 327 332
349 350 352 355 356 358 360 361 360 358 358 360 362 364 364 364 365 367 367 366 366 365 365 363 361 360 358 355 353 350 349 348 347 345 345 345 344 344 343 343 343 343 343 343 342 341 339 338 338 338 338 336 335 335 333 333 333 330 327 327 327 329 331
353 354 354 357 358 359 360 359 356 354 358 364 366 366 366 367 367 367 366 365 363 362 361 361 360 358 356 354 352 350 350 349 348 347 345 344 343 342 341 342 341 341 341 340 339 339 338 336 336 336 335 334 334 333 332 332 334 334 333 331 330 330 330
352 354 355 358 359 357 354 354 355 356 361 366 367 366 367 367 368 367 365 363 360 359 360 360 359 357 355 353 352 351 350 349 348 347 345 343 342 340 340 339 338 338 337 336 335 336 336 335 334 333 333 333 332 332 334 335 336 336 334 332 330 329 328
350 350 350 351 351 349 349 355 359 361 362 364 363 364 365 366 368 367 364 362 360 359 359 359 358 357 355 353 351 351 350 349 348 346 343 341 340 339 338 337 336 335 334 333 333 335 335 335 334 333 334 334 332 334 339 337 334 333 332 330 329 329 329
345 344 343 342 342 341 348 359 364 363 360 360 361 362 363 365 367 367 366 365 362 359 359 359 358 356 354 351 351 350 349 348 346 343 341 340 339 337 336 335 334 335 334 333 334 336 336 334 334 333 333 332 332 336 340 337 333 332 331 330 330 330 329
342 340 340 343 343 341 343 354 360 358 356 357 358 361 363 363 364 365 366 363 359 358 359 358 356 354 352 350 350 349 347 346 344 341 339 338 337 336 336 335 334 335 335 335 335 336 334 333 333 333 332 331 332 337 339 338 336 335 333 330 330 330 329
349 346 344 346 350 347 341 344 349 351 353 354 353 355 358 360 362 363 361 357 356 357 357 356 355 352 350 349 348 347 346 345 343 340 339 337 337 337 337 336 336 336 336 336 335 335 334 333 334 334 333 333 334 337 338 337 336 336 334 332 330 328 327
352 351 350 351 353 351 344 343 345 348 351 352 350 350 351 354 357 358 356 355 356 355 354 354 353 351 349 348 347 345 345 344 342 340 339 337 337 337 337 337 337 337 337 337 335 335 335 335 335 334 333 333 334 336 337 337 336 336 335 332 329 327 326
352 353 353 352 353 353 347 344 345 348 351 353 352 351 351 352 354 354 354 354 354 353 352 351 350 349 348 347 346 345 344 343 341 340 339 338 337 337 337 337 337 337 337 336 336 336 335 335 335 333 333 333 334 335 337 337 336 335 333 331 330 329 329
351 352 353 352 353 353 350 348 347 348 350 352 351 352 353 353 353 352 353 353 352 351 350 349 348 349 348 347 346 345 343 342 341 340 339 338 336 336 337 337 338 338 338 337 336 336 336 335 334 333 332 331 331 332 333 333 333 333 332 330 330 330 329
347 348 350 351 351 351 352 351 349 349 350 351 351 351 351 351 351 351 351 351 351 350 349 348 349 349 347 347 346 344 343 342 341 340 339 338 336 333 331 331 332 333 334 333 332 333 334 334 334 333 332 330 330 329 330 331 333 333 331 329 328 327 326
342 343 345 347 349 351 352 351 351 350 351 350 350 350 350 350 349 349 349 350 350 350 349 348 348 348 347 346 345 344 343 342 341 341 340 339 337 334 330 328 327 326 327 327 326 326 328 330 331 331 331 330 331 331 329 328 329 329 328 327 327 326 325
333 338 340 341 344 348 350 351 351 350 350 350 350 349 349 349 348 348 348 348 348 349 348 347 346 345 344 344 343 343 343 343 343 342 341 340 339 337 334 333 330 326 323 322 323 324 325 326 326 327 326 327 330 330 327 325 326 326 327 327 325 324 323

ECMWFFLT1_925_thetae_003.txt.gz
Theta_e
349 347 348 352 352 352 355 359 359 358 357 355 356 356 356 356 357 357 357 359 361 363 364 364 362 362 361 361 361 360 361 361 361 360 358 358 358 358 356 356 355 353 353 353 351 350 349 347 345 343 342 342 342 342 342 342 340 339 339 338 338 339 338
348 348 346 349 352 353 355 357 359 360 358 356 356 356 357 357 356 356 357 360 362 362 364 364 363 362 362 362 361 361 360 360 361 360 359 358 359 358 356 355 354 352 352 351 349 349 348 346 344 343 343 342 342 342 342 342 340 339 339 338 338 338 338
348 351 349 349 353 355 356 356 358 359 358 357 357 357 357 357 356 356 358 361 361 362 363 365 364 364 364 363 361 361 361 361 361 360 359 358 358 357 355 354 353 351 350 350 349 349 347 346 345 344 344 343 342 342 342 340 340 339 338 338 338 337 337
344 350 350 350 353 357 357 356 356 359 358 357 357 357 357 358 357 357 359 360 361 362 364 365 365 365 364 364 362 361 361 361 361 360 359 358 356 356 355 353 353 351 349 349 349 349 347 346 346 346 345 344 343 342 341 340 339 339 339 338 338 337 337
341 344 348 350 353 357 359 356 356 358 357 356 356 356 357 358 358 359 360 359 360 361 363 364 364 364 364 364 362 361 361 361 361 360 359 358 356 355 353 351 351 350 348 349 350 350 348 346 346 346 344 344 343 342 340 340 339 339 339 338 338 338 337
340 344 350 352 353 357 359 356 355 357 356 356 355 355 358 359 358 359 360 359 359 361 363 364 363 363 363 364 362 361 361 361 361 361 359 357 356 354 351 350 351 350 349 352 352 351 349 345 344 345 344 343 343 342 341 340 340 339 339 339 338 338 337
339 346 352 352 353 356 359 357 356 356 356 355 355 357 359 358 356 356 358 359 358 360 364 364 362 362 363 363 363 362 362 361 361 361 360 358 356 354 352 352 350 349 352 354 354 352 348 342 341 342 343 343 343 343 342 341 341 340 339 339 339 339 338
340 348 351 351 352 354 358 358 356 355 355 354 355 357 357 355 353 354 356 358 356 357 361 360 359 361 362 363 363 363 363 362 361 362 360 357 356 354 354 354 351 351 353 352 351 350 345 340 339 339 339 340 342 343 343 343 342 341 340 339 339 340 339
341 349 351 350 349 350 356 359 357 357 356 355 354 354 354 353 353 353 355 357 355 355 357 356 355 358 362 364 364 364 365 363 362 361 359 357 357 357 357 356 355 352 351 347 345 347 345 340 338 337 335 336 339 342 343 343 342 341 340 339 338 338 338
352 354 353 352 349 351 355 356 358 360 359 356 354 353 354 353 352 352 353 353 353 353 354 353 351 353 358 364 366 366 367 365 363 361 359 358 358 358 359 359 356 352 348 342 338 341 342 339 337 335 332 333 339 343 344 343 343 342 339 337 336 337 338
357 356 355 358 357 356 356 359 365 368 365 361 355 352 354 353 352 352 351 351 350 351 352 351 350 350 354 362 367 367 368 366 364 362 361 358 356 358 359 358 355 350 346 338 333 338 341 338 336 334 331 332 338 342 344 343 343 342 338 336 336 337 338
354 356 356 361 363 361 362 367 372 374 371 364 354 350 354 354 352 350 350 350 349 350 351 351 352 351 352 360 365 365 367 366 364 364 363 358 356 358 359 356 352 348 345 335 330 338 342 338 336 334 332 332 333 337 342 343 342 340 337 336 337 337 339
351 355 359 364 365 365 370 374 374 375 373 365 354 351 353 354 353 350 351 351 349 349 351 353 354 351 349 357 365 365 366 366 364 365 363 359 359 360 357 354 350 346 342 331 328 335 339 338 337 333 331 331 328 330 337 339 338 336 335 336 338 338 339
348 352 360 368 368 367 371 373 374 374 371 364 357 353 353 354 355 353 351 352 351 350 352 354 354 352 349 355 363 365 366 366 364 363 362 361 361 359 356 353 348 343 337 329 327 332 333 334 336 333 332 331 330 330 331 333 335 335 334 336 338 339 339
346 352 361 368 369 369 370 370 373 373 370 365 361 357 355 356 358 358 354 354 354 353 353 353 354 354 353 354 359 365 368 367 365 364 364 363 361 357 354 352 348 342 334 329 329 331 331 332 334 334 334 333 333 333 333 334 336 336 334 336 338 340 340
339 349 357 360 364 368 368 368 370 371 371 371 367 363 362 361 361 361 358 357 357 357 354 355 357 359 357 354 356 363 368 369 366 365 364 362 360 356 354 351 347 341 332 329 331 333 333 334 337 338 337 337 337 336 336 336 335 334 334 336 338 341 341
334 339 343 344 353 364 370 370 370 371 374 373 371 370 368 366 364 362 362 362 362 361 358 357 362 365 363 359 361 366 369 367 365 364 362 360 358 355 353 351 346 338 332 332 335 335 336 338 340 341 339 338 339 339 338 337 335 335 336 336 338 341 342
337 337 337 342 353 365 371 371 371 374 373 372 373 371 369 368 368 366 365 365 364 364 360 360 364 365 364 367 370 370 368 364 363 362 359 358 357 355 353 350 344 339 340 343 341 340 341 341 341 341 338 338 339 340 339 337 335 336 337 337 337 338 340
338 335 336 350 357 362 367 368 370 374 375 373 371 372 370 371 371 368 368 367 367 366 363 364 367 367 368 371 371 368 365 363 363 361 358 358 356 354 353 350 346 345 347 349 348 346 346 344 342 341 340 340 341 339 338 337 336 337 337 335 336 337 338
337 333 339 352 353 353 363 369 370 373 376 375 371 370 372 372 372 371 370 368 369 368 367 367 370 372 372 370 370 367 365 363 362 361 360 358 356 355 354 351 348 347 348 350 350 349 348 345 344 343 342 341 341 339 337 337 337 338 336 333 333 336 337
339 342 349 354 353 355 364 369 370 371 375 375 371 371 373 373 374 373 369 368 370 371 370 372 373 374 371 369 368 367 365 363 362 360 360 359 358 357 356 353 351 349 348 348 348 348 348 345 344 344 342 342 342 340 339 337 336 337 336 332 331 335 336
338 346 351 354 358 362 367 368 366 368 372 372 370 371 372 373 373 370 366 368 372 372 373 373 373 373 371 368 366 364 363 362 361 361 360 360 359 358 357 356 354 352 349 348 347 347 347 345 343 342 343 342 342 341 340 338 335 336 335 332 333 336 336
338 341 344 350 356 362 367 367 366 369 373 372 370 371 373 372 371 369 368 371 374 374 374 374 373 373 372 369 366 363 362 360 360 360 359 359 359 358 357 357 356 354 352 349 347 345 345 344 343 343 344 343 342 341 340 338 336 336 335 333 334 336 335
338 335 340 347 352 359 366 367 367 369 370 371 370 371 373 372 371 372 372 374 375 376 375 373 372 372 371 369 366 363 361 359 358 358 357 357 357 356 356 355 354 354 352 350 347 345 343 343 343 343 343 343 342 342 340 339 338 337 335 334 335 335 336
338 336 342 348 353 359 365 365 365 367 369 370 370 371 372 372 372 373 373 375 376 375 374 372 371 370 368 366 363 361 359 357 357 356 356 355 355 354 353 352 352 351 350 348 348 346 343 342 342 342 341 341 341 341 340 340 341 339 336 335 334 334 336
342 340 343 347 352 360 364 364 366 368 368 368 368 369 369 370 371 373 373 375 374 373 373 372 369 367 365 362 360 359 358 358 357 357 356 355 354 353 352 351 349 348 348 347 346 345 344 343 342 342 342 341 341 341 340 339 341 339 336 335 334 333 334
345 346 347 350 357 361 364 365 366 365 365 367 367 367 368 369 371 373 373 374 374 373 372 370 367 365 362 360 359 358 357 357 357 357 356 354 353 352 351 349 348 348 348 347 345 343 343 343 343 342 341 341 340 340 339 338 338 337 335 334 334 332 332
348 349 349 355 360 362 362 362 362 362 362 363 364 366 367 370 372 373 373 372 371 371 369 367 366 364 362 360 359 357 357 356 356 356 355 354 354 352 349 347 348 349 349 346 344 343 343 342 341 339 339 338 337 337 337 337 336 335 335 333 332 330 329
351 351 356 360 360 360 361 362 363 366 366 365 366 367 369 371 372 371 370 369 367 367 368 367 365 363 360 359 357 356 355 355 355 355 354 354 353 351 348 347 348 349 348 344 341 341 341 340 338 336 336 336 336 336 336 336 335 334 333 332 332 331 330
357 357 359 360 359 359 361 362 365 366 362 359 357 356 360 365 367 365 364 366 366 365 365 365 363 361 359 357 355 353 353 354 354 353 353 352 351 349 348 347 346 346 345 341 338 339 339 339 338 336 335 335 335 335 335 338 338 335 333 333 333 333 331
356 355 355 356 360 363 363 364 366 365 362 361 358 356 357 361 363 364 364 365 365 364 364 362 361 359 357 355 353 353 353 353 353 352 352 351 349 347 346 345 344 343 341 338 337 337 339 339 338 337 336 335 335 334 334 338 340 338 335 333 332 331 329
350 349 351 353 355 358 360 361 363 363 364 365 364 364 365 364 365 366 367 366 366 365 363 360 358 357 355 354 354 353 352 353 352 351 350 349 347 345 344 343 342 341 339 336 335 337 339 339 337 336 335 334 333 333 334 336 337 337 335 332 330 329 329
350 348 348 349 349 350 352 353 354 354 355 356 356 360 364 366 368 367 366 365 364 362 360 358 355 355 355 355 354 353 353 352 350 349 348 347 346 345 344 342 340 339 338 336 335 337 338 337 335 333 333 333 332 332 334 335 336 336 335 333 331 330 330
355 352 349 347 348 349 349 351 353 354 356 356 354 355 358 362 363 363 363 362 360 359 358 356 355 354 354 354 353 352 351 349 347 346 346 346 345 344 342 340 337 337 338 337 336 337 337 335 334 333 333 333 333 332 333 335 336 336 336 336 335 332 330
356 355 352 349 348 350 352 354 356 357 359 359 359 358 359 360 360 360 360 359 358 357 356 354 353 353 352 351 351 351 349 347 346 346 345 344 343 342 342 341 339 339 339 338 339 338 337 335 336 335 334 333 333 333 334 335 336 337 337 336 334 331 329
350 352 353 351 349 350 353 356 356 357 358 358 359 359 359 359 358 358 357 356 355 355 354 353 352 351 350 349 348 348 347 346 345 344 344 343 342 340 338 338 339 340 339 338 338 337 336 336 336 335 334 335 334 333 333 333 333 333 334 334 332 330 329
347 348 351 352 351 352 353 353 354 356 356 355 356 357 357 357 356 355 355 355 354 354 353 352 351 350 349 348 347 347 346 344 344 344 342 342 342 339 337 337 337 337 336 336 336 335 334 334 334 333 333 333 333 331 330 332 332 331 331 332 331 329 329
341 343 346 349 351 352 353 352 353 354 354 354 355 354 354 354 354 353 354 354 353 352 352 352 351 350 350 348 347 346 345 344 344 343 342 342 341 339 338 338 336 334 332 332 333 333 330 330 331 332 332 331 331 330 329 330 331 331 330 331 330 328 327

ECMWFFLT1_925_thetae_006.txt.gz
Theta_e
348 350 350 352 353 354 356 358 358 359 358 359 360 359 359 358 359 360 361 364 366 366 367 365 364 364 363 362 362 362 363 362 362 361 359 358 356 357 358 357 355 355 356 354 353 352 350 349 348 345 343 342 342 342 342 341 340 341 340 338 339 339 338
346 350 351 352 352 354 356 357 357 358 359 360 361 360 359 359 359 361 361 364 366 366 367 366 366 365 363 362 361 362 363 362 362 361 360 359 357 357 358 357 355 354 355 354 353 352 349 348 347 344 342 342 342 342 342 342 341 340 340 339 338 339 339
347 353 355 353 355 356 355 356 358 358 358 358 359 359 359 359 360 361 361 364 366 367 367 367 366 364 363 362 361 361 362 362 363 362 361 360 358 357 357 356 355 354 354 354 352 351 349 347 346 344 343 342 342 343 342 342 342 340 339 339 338 338 338
352 355 354 352 355 357 357 357 359 360 358 357 357 357 358 359 360 360 361 364 366 367 368 367 366 365 363 363 362 362 362 362 363 362 361 360 359 358 357 356 355 354 353 352 350 349 349 347 346 344 343 343 342 342 342 343 342 340 339 340 339 338 338
354 352 350 352 353 357 358 356 357 357 356 356 356 356 358 360 360 360 361 363 365 366 367 367 365 365 364 364 364 363 363 362 363 363 361 360 359 358 357 356 355 353 353 352 349 349 349 348 346 344 344 344 343 342 342 342 342 340 339 339 339 339 338
354 351 352 352 351 355 357 353 353 354 354 357 358 356 358 359 359 358 359 361 362 364 366 366 366 364 364 364 364 364 363 363 363 362 360 360 359 358 357 356 355 353 352 351 350 350 349 348 347 346 345 344 343 343 342 342 341 340 339 339 339 339 338
352 352 353 353 349 352 354 353 353 353 353 358 359 357 357 358 358 357 357 359 360 362 365 366 366 365 364 364 363 364 363 362 363 362 360 360 359 358 357 355 355 353 351 350 349 350 349 348 347 347 346 344 344 343 343 342 341 341 341 340 339 339 338
352 356 354 353 350 348 351 354 353 353 355 359 360 358 357 357 357 357 357 358 358 361 364 364 365 365 365 364 364 364 363 363 363 363 361 360 359 358 356 355 355 353 351 350 350 350 349 348 348 347 346 345 344 344 343 341 341 341 341 341 340 339 339
350 355 352 349 344 344 351 356 356 356 358 359 359 359 359 358 357 357 357 357 358 362 363 363 364 364 365 365 365 364 364 363 363 363 362 360 359 357 356 355 354 352 351 350 350 350 350 349 348 346 345 344 344 344 343 342 341 340 340 341 340 340 339
356 355 353 348 346 352 356 358 363 364 362 362 361 360 360 359 358 358 357 357 358 360 361 361 363 364 365 365 364 365 364 363 363 363 362 361 359 357 355 354 353 352 351 350 351 351 351 351 349 345 344 344 344 344 343 342 342 341 341 340 341 340 340
366 362 361 357 357 360 359 360 367 370 369 366 362 360 360 359 359 358 356 356 357 358 359 361 361 362 364 364 364 364 364 363 363 363 362 361 359 357 355 354 353 352 352 352 353 353 353 353 350 346 344 344 344 344 343 343 344 343 342 341 341 340 340
364 365 364 361 364 363 361 363 368 370 370 367 361 361 360 359 359 358 358 358 358 358 358 360 361 361 363 363 363 363 364 363 363 363 362 362 359 357 356 354 353 354 354 354 354 355 354 353 351 348 344 342 341 342 343 344 344 343 342 341 339 338 338
364 365 364 362 366 367 367 370 369 368 368 364 360 361 361 360 359 360 358 359 358 357 356 359 362 362 361 362 362 362 364 363 363 363 363 361 360 358 356 354 353 355 356 354 353 354 354 353 351 348 345 342 339 339 341 343 344 343 342 341 338 336 336
364 363 364 367 368 369 372 372 370 369 367 364 362 361 361 361 360 358 357 357 357 357 356 357 359 359 359 360 362 363 364 364 363 363 362 361 360 358 356 354 354 356 357 355 353 353 354 352 351 349 346 343 341 339 340 343 344 343 342 340 336 335 336
358 355 360 368 371 372 372 370 371 370 369 368 365 361 360 360 359 357 356 356 356 356 355 356 356 356 357 359 362 364 364 365 364 364 363 361 359 358 356 355 355 357 358 356 353 354 354 352 351 349 347 345 344 343 343 343 343 342 340 337 333 334 337
347 344 351 365 375 378 378 378 379 381 380 376 369 361 359 358 357 356 356 355 355 354 353 355 354 354 355 358 360 363 365 366 367 365 364 362 359 358 358 357 357 359 359 356 353 354 354 352 350 348 346 346 346 345 345 343 341 340 338 334 330 331 336
341 339 346 362 372 374 380 385 387 389 388 381 371 362 357 357 358 356 355 354 353 352 352 353 354 354 354 354 357 361 365 367 368 367 366 364 361 360 359 359 359 358 358 356 354 354 352 350 349 347 344 345 346 345 344 342 340 338 336 331 328 330 335
345 347 353 364 370 373 378 381 383 385 384 377 370 362 356 356 357 356 354 352 352 351 351 354 356 355 354 354 357 363 367 368 369 369 367 366 364 362 360 360 359 359 359 357 357 355 352 348 347 344 342 344 345 343 342 340 337 336 334 330 328 330 335
343 346 353 361 367 372 374 371 372 377 378 372 369 364 358 356 357 356 355 353 351 350 351 357 359 356 354 355 358 365 369 368 369 369 368 367 366 364 364 362 361 360 360 359 357 354 351 347 344 342 341 342 343 341 339 338 336 335 333 330 329 330 334
345 343 348 354 358 362 369 373 372 372 372 370 367 365 360 357 357 358 356 354 353 351 351 356 360 358 357 356 357 364 368 369 370 370 368 368 368 366 365 363 361 360 359 358 356 354 352 348 345 344 343 343 343 341 340 339 338 336 334 331 329 328 330
350 349 349 355 361 365 374 381 377 373 372 368 364 365 364 360 358 358 358 357 356 354 352 355 361 362 359 357 361 367 370 369 370 370 369 369 368 367 365 362 361 360 358 357 355 354 352 350 348 347 344 343 343 342 341 341 340 338 335 332 330 328 327
342 344 344 351 364 376 382 380 375 373 373 369 367 367 366 363 360 359 359 358 358 360 356 357 366 368 365 366 369 372 371 370 370 370 369 368 367 366 364 362 361 359 358 356 354 354 353 350 349 348 345 343 343 342 342 341 339 338 335 333 332 331 330
334 338 341 342 354 372 379 374 370 372 372 373 372 369 367 367 364 363 363 360 362 365 362 364 373 373 372 375 374 371 370 370 369 369 367 366 365 365 363 362 361 359 357 355 353 352 351 350 349 347 345 344 343 343 342 341 339 337 337 336 334 332 331
332 335 340 339 345 363 372 372 369 368 370 374 373 368 369 370 367 368 368 364 366 369 368 374 379 376 375 376 374 371 370 369 368 367 366 365 364 363 362 362 361 359 358 355 352 350 349 349 348 346 345 344 344 343 341 341 339 337 337 337 336 334 332
333 333 337 338 340 352 365 368 366 364 365 370 372 370 371 371 369 371 371 369 370 372 372 378 380 377 375 375 373 371 370 368 367 366 365 364 363 363 362 361 361 360 358 356 354 351 350 349 347 345 345 346 345 343 341 341 340 338 337 337 336 334 333
340 337 336 339 334 340 360 369 369 368 364 365 370 372 372 371 373 375 374 372 374 374 374 378 377 375 373 372 370 370 368 367 366 365 364 364 363 362 361 361 360 359 358 356 355 353 351 349 346 345 345 345 344 343 342 342 342 340 337 336 335 334 334
348 345 340 338 333 345 366 374 373 369 365 366 371 373 373 375 377 377 376 376 376 374 373 377 376 373 371 369 368 366 366 365 364 363 363 363 362 361 360 359 357 357 356 354 353 351 349 348 345 344 344 343 343 343 342 342 343 341 339 337 336 335 334
347 346 345 345 347 357 368 371 371 369 367 370 374 373 374 377 378 378 378 378 378 376 374 375 375 372 370 368 366 364 364 362 361 362 362 361 360 359 357 355 353 352 351 350 349 347 347 346 344 343 343 343 343 343 342 342 341 340 340 338 337 336 334
348 347 347 349 354 363 368 368 369 369 369 371 373 374 375 378 379 379 379 378 377 374 372 372 371 368 366 365 363 361 361 360 360 361 360 358 357 355 354 352 350 348 348 348 347 346 345 344 343 343 343 342 342 341 341 340 339 338 338 338 336 335 334
347 346 345 344 349 358 366 371 373 371 368 369 371 372 374 377 379 378 377 376 373 370 369 367 366 364 363 362 360 360 360 360 360 359 357 356 355 353 352 351 349 349 349 347 346 346 345 344 343 343 342 340 339 338 339 339 337 336 336 336 335 333 333
356 355 356 355 354 356 361 370 375 373 370 372 373 374 375 376 375 375 374 373 370 368 367 366 364 363 362 360 360 360 360 359 358 357 356 355 354 352 350 349 349 350 349 345 344 344 344 342 341 340 339 339 338 337 339 339 337 335 334 334 333 333 333
356 356 358 357 354 355 358 364 366 367 369 372 372 373 374 372 372 373 372 370 368 367 366 365 363 362 361 359 359 359 359 358 356 356 355 354 352 350 349 349 350 350 347 343 341 342 342 341 339 338 337 338 337 337 339 341 339 336 335 334 334 333 333
352 354 355 352 351 353 356 358 360 361 363 364 365 366 367 368 370 370 368 366 365 364 363 361 360 359 358 357 356 356 357 356 355 354 354 351 350 349 348 347 347 346 344 340 339 340 341 340 339 338 338 337 336 336 339 342 341 338 337 336 335 333 333
353 355 352 348 348 350 351 352 355 357 357 357 359 360 360 363 367 367 365 366 364 362 360 358 357 357 356 355 354 355 355 354 353 353 351 350 349 348 347 346 345 344 341 339 337 339 340 340 339 338 337 336 335 335 338 340 340 339 337 335 335 333 332
352 352 351 349 350 353 354 354 356 357 357 356 359 362 363 365 367 366 365 364 361 359 357 356 355 355 355 354 354 353 353 352 352 351 350 348 347 345 344 345 345 342 339 337 337 338 339 339 338 336 335 334 334 335 337 338 339 338 336 334 334 333 330
349 349 349 350 350 352 353 353 354 356 357 358 360 364 365 366 366 365 362 360 358 357 356 355 355 355 354 353 353 352 351 350 349 350 349 345 343 340 339 340 343 341 338 337 338 338 338 338 337 336 336 336 335 335 335 335 337 338 336 335 335 334 332
350 351 351 351 353 355 356 357 357 359 359 359 360 361 361 360 360 360 360 358 357 355 355 355 354 353 353 353 351 350 350 349 347 348 347 343 340 338 336 335 337 338 337 336 337 336 336 336 336 335 335 335 334 334 335 335 336 336 336 336 336 335 333
345 348 350 350 353 356 358 358 358 358 358 359 358 358 357 355 355 356 358 357 355 354 354 354 353 353 352 351 350 349 348 347 347 347 346 343 340 339 337 335 334 332 332 334 335 335 335 335 334 333 333 333 333 333 334 334 334 335 336 337 336 333 331

ECMWFFLT1_925_thetae_009.txt.gz
Theta_e
348 348 350 351 352 352 354 356 355 354 354 356 358 357 357 357 358 359 361 362 362 363 363 362 362 362 362 362 361 360 360 360 360 360 359 357 356 356 355 354 353 353 353 354 354 355 354 353 353 351 349 347 344 342 340 338 338 338 339 338 339 338 335
349 350 350 352 353 354 356 357 355 354 355 355 357 357 357 357 357 359 361 362 363 363 364 363 363 363 363 362 361 361 361 361 361 360 359 357 356 356 354 353 353 353 354 353 354 354 354 353 352 351 349 344 342 341 340 339 338 339 339 338 339 338 336
350 351 351 353 356 356 357 358 356 354 355 355 357 357 357 356 357 358 361 363 363 364 365 364 363 363 363 363 362 361 361 361 361 360 360 358 357 356 355 353 353 354 354 353 353 354 353 353 352 350 348 344 342 342 341 340 340 340 340 338 339 338 337
352 352 352 353 356 357 357 359 357 355 354 355 356 357 356 356 356 357 360 363 364 364 365 365 364 364 363 363 363 362 362 361 361 361 360 359 358 357 356 354 354 354 354 353 353 353 353 352 352 350 348 344 342 341 340 339 338 339 340 339 338 338 337
350 351 352 354 355 355 355 356 355 355 354 354 354 356 356 356 356 358 360 362 364 364 365 365 364 364 363 362 362 362 362 361 361 361 360 359 359 358 357 356 355 355 354 354 353 352 351 351 351 350 346 343 341 340 340 339 338 338 340 339 337 337 337
349 349 351 353 352 354 354 354 354 353 353 354 355 355 356 356 356 358 359 362 363 364 365 365 364 364 364 362 362 362 362 362 361 361 360 360 359 359 358 356 355 355 355 354 353 352 351 350 350 348 345 342 341 341 340 341 340 339 339 339 337 336 336
347 347 350 352 351 352 352 352 351 352 352 354 354 357 357 357 357 358 359 361 363 364 365 365 365 364 364 363 362 362 362 362 362 361 360 360 359 359 358 357 356 355 355 355 354 353 352 350 349 346 344 342 342 342 341 341 341 340 339 339 339 338 337
346 348 351 352 352 351 351 352 351 350 352 353 353 357 358 358 358 358 359 361 362 365 365 365 365 365 364 363 362 362 362 362 362 361 361 360 360 359 358 357 356 355 355 355 354 354 352 350 349 347 344 343 342 342 342 341 341 340 339 338 339 340 339
346 350 353 352 351 351 351 352 352 350 353 353 352 356 358 358 359 359 359 361 362 363 365 365 365 365 364 364 362 362 362 361 362 362 361 361 360 360 358 357 357 355 355 354 353 353 351 350 349 347 345 344 343 342 342 341 341 341 340 338 338 339 339
350 352 354 352 351 351 351 352 354 354 356 355 353 355 357 358 359 359 358 360 362 363 364 365 365 365 364 364 363 362 361 362 362 361 361 361 360 359 359 358 357 356 355 354 353 352 351 349 349 348 346 344 344 343 342 342 341 341 341 340 338 338 338
354 352 353 353 350 350 352 355 357 359 358 356 354 355 357 357 358 358 358 358 360 362 363 364 365 364 364 363 363 363 362 362 362 361 362 361 360 360 359 358 357 356 355 354 353 352 351 350 349 348 346 345 344 343 342 342 341 341 341 340 340 339 338
354 353 352 352 352 351 354 359 359 359 359 355 354 356 356 356 357 357 357 358 358 360 362 363 364 364 364 364 363 363 363 362 361 361 361 361 361 360 359 358 357 356 355 354 353 352 351 351 349 349 347 346 345 344 343 342 342 341 341 341 340 340 339
352 353 351 352 355 355 357 361 360 361 360 356 355 357 357 355 357 357 357 357 357 358 360 361 363 364 364 363 363 362 363 362 361 361 361 361 361 360 359 358 357 356 355 354 353 352 351 351 350 349 348 347 346 344 343 342 342 342 341 341 341 341 340
351 351 353 356 358 359 361 363 361 362 361 358 356 357 358 357 356 357 357 356 357 357 358 360 362 364 364 363 363 362 363 363 362 361 361 361 361 360 359 358 356 356 355 354 353 352 351 351 351 350 348 347 346 345 343 342 343 343 341 341 340 340 340
354 352 356 361 361 362 364 364 365 365 363 361 358 357 359 358 357 357 357 357 357 356 357 360 361 362 364 364 363 362 362 363 362 361 361 361 361 360 359 358 356 356 355 354 353 352 351 352 351 351 349 347 346 345 343 343 343 343 342 341 340 340 340
354 353 356 359 360 361 363 365 366 366 366 365 361 358 359 359 357 358 357 356 357 356 357 360 361 362 363 364 363 362 362 363 362 362 361 361 361 360 359 358 356 355 354 354 353 353 353 353 353 353 350 348 346 345 344 344 343 343 342 342 341 340 340
354 354 355 358 361 360 362 364 365 365 367 366 361 358 358 359 358 358 358 357 356 356 356 358 360 361 362 363 364 362 362 362 362 362 361 361 361 361 360 358 357 355 353 353 353 353 353 354 355 354 352 349 347 345 345 344 344 343 343 343 342 340 340
355 356 355 358 363 361 360 363 363 363 365 362 359 358 358 359 358 358 358 358 357 356 357 357 359 360 361 362 363 362 362 362 362 362 361 362 361 361 361 359 358 355 354 354 354 353 354 354 355 355 353 351 348 346 345 344 343 343 343 344 343 341 339
354 357 358 358 361 360 357 357 359 361 361 358 357 357 358 359 358 358 358 358 357 357 356 357 358 359 360 361 361 362 362 361 362 362 362 362 361 361 361 360 358 356 355 355 355 355 354 354 355 355 353 351 349 346 345 343 342 342 343 343 343 341 338
354 356 359 360 361 360 358 358 359 359 357 356 357 357 357 358 358 358 358 358 357 358 357 357 357 358 361 361 360 361 361 362 363 362 362 363 362 361 361 360 359 358 356 356 358 357 355 354 355 354 353 351 349 348 346 345 344 343 343 343 343 342 338
358 359 359 361 364 363 363 365 366 365 361 357 358 358 358 358 358 358 358 357 357 356 356 357 356 357 359 359 359 361 361 362 363 362 363 363 362 362 361 360 359 359 357 358 358 357 356 355 354 353 352 351 349 348 347 346 345 345 343 343 342 340 337
355 359 357 360 366 369 370 370 369 370 369 364 362 361 358 357 357 358 357 356 355 355 355 355 355 355 356 357 358 359 360 362 363 363 364 364 364 363 362 361 360 359 359 359 358 358 357 355 353 351 350 349 347 346 345 344 344 343 342 341 340 338 336
347 353 352 355 360 361 363 365 365 365 368 369 367 364 359 357 356 356 356 355 354 354 353 353 353 355 355 355 356 356 358 360 363 364 365 365 365 365 363 363 362 360 360 359 358 357 357 354 351 350 349 347 345 344 343 342 342 341 340 339 337 335 334
332 336 342 347 353 356 356 361 365 364 365 368 368 365 362 358 356 355 355 355 353 353 352 352 353 355 355 355 355 354 356 359 362 365 366 366 366 366 365 364 363 361 361 359 357 357 355 353 351 350 349 346 344 343 343 342 341 340 339 338 337 335 333
337 334 336 336 337 346 354 358 362 363 364 364 365 365 364 360 356 355 354 354 353 353 352 351 353 355 356 355 354 354 356 360 363 365 366 367 367 366 365 364 363 362 360 358 356 355 353 352 352 350 349 347 345 344 343 343 342 340 340 339 337 336 334
354 351 350 348 342 342 349 358 364 366 366 364 363 364 364 362 359 355 354 355 353 353 353 352 352 355 356 356 355 356 358 362 365 366 367 367 367 366 365 364 362 361 359 356 354 353 352 352 351 350 349 347 346 344 343 343 342 340 340 339 337 335 334
357 353 352 355 356 354 355 361 366 368 367 366 365 364 364 364 362 359 356 355 354 354 354 353 352 354 358 359 359 360 362 365 366 367 367 367 366 366 364 363 362 360 358 355 353 351 350 350 349 348 347 346 345 344 344 343 342 340 339 337 336 336 334
362 361 356 355 358 360 363 366 366 365 367 368 367 367 367 366 365 363 360 358 357 355 355 355 355 359 363 365 365 365 366 366 366 366 366 366 365 364 363 362 361 360 358 356 354 352 350 349 348 346 346 346 345 344 344 342 342 341 339 338 337 336 335
360 365 367 368 365 360 363 369 368 364 363 365 365 367 369 368 368 366 364 363 361 358 359 362 364 366 368 368 367 367 367 366 366 365 365 364 364 363 362 361 360 360 359 357 355 353 351 349 347 345 345 345 345 344 343 342 341 341 340 339 337 337 336
353 352 354 360 360 355 357 364 363 355 353 357 359 361 362 364 367 368 367 367 365 364 368 371 371 371 370 368 367 366 366 365 365 364 364 363 362 361 360 360 359 359 357 355 354 352 349 347 345 345 344 344 343 343 343 342 340 340 340 340 338 337 336
350 349 347 348 350 351 352 355 354 349 348 352 356 357 359 358 357 359 365 369 371 371 371 369 367 366 365 364 364 365 364 364 363 363 362 361 360 359 357 357 356 355 353 351 350 349 347 344 344 344 343 343 343 343 342 341 339 338 338 339 338 337 336
349 349 348 347 347 348 347 347 350 350 349 349 351 354 357 356 352 350 353 359 363 363 359 355 353 353 354 355 357 358 359 358 357 356 356 355 355 356 354 352 352 350 349 348 347 346 345 344 343 343 342 341 342 342 341 340 339 338 337 338 338 337 336
350 350 350 348 347 347 345 346 352 354 349 346 349 352 353 352 351 349 348 350 353 354 352 350 349 349 350 352 352 352 352 351 352 353 353 353 353 353 351 349 348 347 347 346 345 344 343 342 342 342 340 340 340 340 339 339 339 338 337 337 337 336 336
350 350 349 347 347 348 347 347 351 352 348 346 349 352 351 349 349 348 348 348 347 347 348 348 348 349 349 350 351 351 351 351 351 352 352 351 351 351 350 349 347 345 344 344 343 342 341 340 340 339 339 339 339 340 340 339 338 336 336 335 335 334 334
350 348 346 346 345 346 348 348 348 350 349 348 349 351 352 349 346 346 347 348 347 348 347 346 348 351 351 352 353 353 352 352 352 351 349 348 348 347 347 347 345 343 342 342 342 341 340 339 339 338 338 338 339 340 340 339 337 336 335 334 333 332 332
350 349 347 347 346 345 346 348 348 349 349 348 348 351 352 348 343 343 345 344 345 347 348 349 351 354 354 355 354 353 353 352 349 346 344 343 342 341 340 341 342 341 339 340 341 341 339 339 338 337 337 337 337 339 340 339 337 336 336 335 333 332 332
347 350 348 347 348 348 347 346 348 350 350 348 349 350 352 349 344 343 344 343 343 346 349 351 352 353 354 354 353 352 352 350 345 342 340 339 339 339 337 336 337 337 337 339 340 340 339 339 338 337 337 336 336 337 338 337 336 336 335 334 333 333 333
341 345 346 345 346 348 347 346 346 346 347 348 349 350 353 352 350 349 349 348 348 350 352 352 352 352 353 352 351 351 351 348 343 340 338 337 337 337 335 332 330 330 332 335 337 338 338 337 336 336 336 335 334 335 338 338 337 335 335 334 334 334 333

ECMWFFLT1_925_thetae_012.txt.gz
Theta_e
343 344 345 348 351 351 352 352 351 350 351 351 352 352 352 353 354 354 354 356 356 356 357 357 358 357 357 357 357 358 358 358 357 357 356 356 355 354 353 353 354 354 355 355 356 356 356 357 356 356 355 351 349 348 348 346 342 341 342 342 340 336 333
344 345 345 347 349 351 353 352 350 350 351 352 352 352 353 352 353 354 355 356 356 356 357 357 358 358 358 357 357 358 358 358 358 357 357 356 355 355 354 353 354 354 355 354 355 355 355 355 355 356 355 351 349 349 348 344 342 342 342 341 340 336 335
345 346 346 347 349 351 353 353 351 351 351 352 353 352 353 353 353 354 355 356 356 356 357 357 358 358 358 358 358 358 358 358 358 357 357 356 356 355 354 354 354 355 355 354 354 354 353 354 355 355 355 351 349 348 347 344 342 342 341 340 339 337 337
345 347 347 347 349 349 352 353 352 352 351 352 353 353 354 354 354 355 355 356 356 357 357 357 358 358 358 358 358 358 358 358 358 358 357 357 356 356 356 355 355 355 355 354 353 352 353 354 354 354 353 351 349 348 347 344 342 341 340 339 338 337 338
346 346 347 348 349 348 349 352 352 352 352 352 354 354 354 354 355 355 355 356 357 357 358 358 358 358 358 359 359 358 358 358 358 358 358 358 357 356 357 356 356 355 354 354 353 352 353 353 353 354 352 351 350 348 347 344 341 339 339 338 338 337 338
346 346 347 347 348 348 348 349 350 351 352 352 354 354 354 354 354 356 356 357 358 358 358 358 359 359 359 359 359 359 359 358 358 358 358 358 358 357 357 356 356 355 354 353 353 352 352 353 353 353 352 351 350 348 346 344 340 338 338 338 338 338 338
345 346 347 347 348 348 348 348 349 350 351 352 353 354 355 354 355 356 356 358 358 359 359 359 359 360 359 359 360 359 359 359 359 359 359 358 358 358 357 357 356 355 354 353 352 352 352 353 353 353 352 351 350 347 344 342 340 339 339 338 338 338 338
346 347 347 347 348 348 348 349 348 349 351 351 353 354 355 355 355 355 357 358 359 359 360 360 360 360 360 360 360 360 359 359 359 359 359 359 359 358 357 357 356 355 354 353 352 353 353 353 353 352 352 351 349 345 342 341 341 340 339 339 339 338 338
345 347 346 347 347 347 349 349 349 350 350 351 352 354 355 355 355 355 356 358 359 360 360 361 361 361 361 361 360 360 360 360 360 359 360 360 359 359 358 357 356 355 354 353 353 353 353 353 353 352 351 351 349 345 343 342 341 340 339 339 339 339 338
345 346 347 347 346 348 349 349 351 353 353 353 351 353 355 355 355 355 356 358 359 360 361 361 362 361 361 361 361 360 360 360 360 360 360 360 359 359 359 357 357 356 355 354 353 353 353 353 352 352 351 350 349 346 344 342 341 340 339 338 337 338 337
346 346 347 348 347 349 350 350 353 355 356 354 351 353 354 354 355 355 355 358 359 360 361 361 362 362 362 361 361 361 361 360 360 360 360 360 360 359 359 358 357 356 355 355 354 354 353 352 352 351 351 350 348 346 344 342 341 340 339 339 337 337 336
346 347 346 348 349 350 351 353 354 355 356 354 351 353 354 353 355 355 355 357 358 360 362 362 362 362 362 362 362 361 361 360 360 360 360 360 360 359 359 358 357 357 356 355 354 354 353 352 351 350 350 350 348 347 344 342 341 340 340 340 338 337 336
346 347 347 348 348 350 353 354 355 355 354 353 351 352 354 354 355 355 355 356 357 359 361 362 363 363 362 363 362 361 361 360 360 360 360 360 360 359 359 358 357 357 356 355 354 354 354 353 352 350 350 349 348 346 344 342 342 341 341 340 339 338 336
349 346 345 348 348 350 355 355 355 355 354 353 351 350 354 355 354 355 355 355 357 359 360 361 362 363 363 363 362 362 361 360 360 360 360 360 360 359 359 359 358 357 356 356 354 354 353 353 352 351 350 348 347 345 343 342 342 342 341 341 340 338 336
351 347 345 348 349 350 353 353 354 355 353 353 351 350 352 354 355 355 355 355 356 358 360 361 362 362 363 363 362 362 361 361 360 360 360 360 360 360 359 359 358 357 356 356 354 354 353 352 352 351 350 349 347 345 344 343 342 342 342 341 340 339 338
351 348 347 347 349 351 351 353 354 354 354 355 353 351 351 353 355 356 355 356 356 358 359 361 362 363 362 363 362 362 362 361 360 360 360 360 359 360 359 359 358 357 356 356 355 353 353 352 351 351 350 349 347 346 344 343 343 342 342 341 340 339 339
352 351 352 350 350 350 350 352 355 354 355 357 354 351 351 352 354 355 356 356 356 357 359 360 361 362 362 362 362 362 362 361 361 360 360 360 359 359 359 359 358 357 357 356 355 354 353 352 351 350 350 349 348 346 345 344 343 343 342 342 341 339 339
354 355 357 358 357 356 354 355 356 356 356 354 352 352 352 353 354 354 355 356 356 357 357 359 361 361 362 362 362 362 362 361 361 361 360 360 359 359 359 359 358 358 357 356 355 354 353 352 351 351 350 349 348 347 346 345 344 343 343 342 341 340 339
356 355 358 361 361 360 357 355 356 357 355 352 351 352 353 354 354 354 355 355 356 356 356 358 360 360 361 362 362 362 361 360 361 361 360 360 359 359 359 359 358 357 356 356 355 354 353 352 351 351 351 350 349 348 347 346 345 344 343 343 341 340 340
354 354 355 357 358 357 355 354 355 355 353 351 351 352 354 355 354 355 355 355 356 356 355 356 357 359 360 361 361 362 361 361 361 360 360 360 360 359 359 359 358 357 356 355 355 353 353 353 352 352 351 350 350 348 347 347 346 345 344 343 342 341 340
352 353 353 354 356 356 354 356 357 356 353 351 351 353 354 355 355 355 355 355 355 355 355 356 356 357 359 359 361 361 361 361 361 360 360 360 360 360 359 359 358 357 356 355 354 353 353 353 352 352 352 351 350 349 348 347 346 346 344 343 343 341 340
347 350 351 353 355 356 356 356 354 353 353 351 352 354 353 355 356 355 356 356 355 355 355 355 356 357 358 359 360 361 361 361 361 360 360 360 360 360 359 359 359 358 357 355 354 353 353 352 353 353 352 352 351 350 349 348 346 346 345 344 343 342 340
339 346 352 353 352 352 350 348 348 350 351 350 352 354 353 354 356 356 356 356 356 356 355 354 355 356 357 358 359 360 361 361 361 360 360 360 360 360 359 360 359 358 358 355 354 354 353 352 353 353 353 353 352 351 350 348 347 346 345 344 344 342 340
339 344 350 351 351 351 347 345 346 347 348 350 351 352 354 355 355 356 357 356 356 356 355 355 355 355 356 357 358 359 360 360 360 360 360 359 360 360 359 359 359 359 358 356 355 355 354 353 353 353 352 353 352 352 351 349 348 347 345 344 344 343 341
350 347 347 347 349 351 348 346 347 346 346 349 350 352 354 354 355 356 356 356 357 356 355 355 355 355 356 356 357 358 359 360 361 360 360 360 360 359 360 360 359 359 358 357 356 355 354 354 353 352 353 353 352 352 350 349 348 347 346 344 343 343 341
359 355 353 351 351 353 349 347 351 354 352 351 351 352 353 353 354 355 355 355 356 355 355 356 355 355 356 355 356 358 358 359 360 360 360 360 360 360 360 360 359 359 358 357 357 356 355 354 353 353 353 352 352 351 350 349 348 346 346 345 344 344 342
354 353 352 351 353 356 354 349 350 355 356 356 357 357 355 355 354 354 354 356 355 355 356 356 356 356 356 355 355 356 357 358 359 359 360 360 360 361 360 360 360 359 358 358 357 356 355 354 353 352 351 350 350 349 348 348 347 345 344 344 343 343 342
353 355 352 349 350 353 353 353 354 355 358 359 360 361 361 359 356 354 353 354 353 354 355 355 355 355 355 355 355 355 356 357 358 359 360 360 361 361 361 361 360 359 358 357 356 356 355 353 352 351 349 348 347 347 347 346 345 344 343 342 341 341 341
352 354 351 348 348 348 350 353 354 351 354 359 360 362 363 362 360 358 357 357 355 354 354 354 354 355 354 354 354 354 355 356 356 359 360 360 362 362 362 361 360 359 358 356 355 354 352 351 350 349 348 346 346 346 345 344 344 343 342 342 340 339 339
348 349 348 347 346 345 346 350 352 351 354 359 360 361 362 362 360 357 357 360 360 356 355 354 352 352 352 352 353 353 354 354 356 359 360 362 363 362 361 361 359 357 355 353 351 349 347 347 347 346 346 346 344 344 344 344 343 343 342 341 340 339 338
347 347 348 346 345 344 345 347 349 350 352 355 358 360 361 361 359 353 351 358 363 361 358 356 354 354 355 355 356 356 356 357 359 361 362 363 363 362 362 360 356 353 352 350 347 346 346 346 345 344 345 345 344 343 344 344 343 342 341 340 340 339 337
346 345 346 346 346 345 344 345 347 350 351 351 350 353 357 360 360 358 356 359 363 363 361 359 358 359 359 360 360 360 360 360 361 362 363 362 362 361 358 355 353 353 351 347 344 345 346 345 343 343 344 344 343 343 343 343 342 342 341 340 339 338 336
346 345 344 345 346 346 345 346 348 350 351 349 349 349 350 354 356 357 357 357 359 358 357 357 359 360 360 361 361 360 360 360 360 359 358 357 356 356 355 355 355 352 347 344 345 345 345 342 342 343 343 343 343 343 342 342 341 341 341 340 339 336 333
347 345 343 343 345 346 346 347 349 351 350 348 348 348 349 350 352 353 354 356 357 357 357 356 356 357 357 357 358 358 357 356 356 354 352 351 354 355 355 354 352 348 345 347 347 344 342 341 342 342 342 343 342 342 341 340 340 340 339 339 338 337 334
346 345 344 344 345 346 346 347 348 350 350 349 347 348 348 349 350 352 353 354 355 356 356 354 353 353 352 352 353 354 354 354 353 351 348 348 350 350 349 349 348 346 346 347 346 344 343 342 342 342 342 342 342 341 340 338 338 338 337 335 336 336 335
344 343 343 344 345 345 346 348 348 348 348 348 347 347 347 347 347 349 350 350 352 353 352 350 350 351 350 349 348 347 348 348 346 344 342 341 339 339 338 340 343 344 344 344 345 345 346 345 343 342 342 342 341 342 341 338 337 337 336 334 333 334 334
340 342 343 343 344 345 345 346 348 348 348 348 347 345 346 346 347 347 347 347 349 350 350 349 349 349 348 347 345 344 344 342 339 338 336 334 334 333 332 333 337 340 343 344 345 344 344 344 344 343 342 342 342 340 338 336 335 335 335 334 333 333 333
336 339 341 341 342 343 344 344 345 345 346 346 346 345 345 344 345 345 346 346 345 346 347 347 348 348 348 346 344 343 342 339 337 336 335 333 333 334 334 334 333 334 337 342 343 343 342 342 341 341 341 341 341 339 336 335 335 334 335 334 333 333 333

ECMWFFLT1_925_thetae_015.txt.gz
Theta_e
343 345 347 348 348 348 348 349 348 348 348 348 349 349 350 351 352 353 353 353 353 353 353 353 354 354 355 355 354 354 354 354 354 354 354 354 353 353 352 352 353 353 354 354 353 353 353 352 352 352 353 354 355 355 355 351 347 345 344 344 345 342 339
341 344 345 347 349 348 349 348 347 347 347 348 349 349 350 350 351 352 353 354 353 353 353 353 354 354 355 355 355 355 355 355 355 355 355 355 354 354 353 353 354 354 354 353 351 352 352 352 352 353 354 355 355 356 355 351 346 344 344 344 344 342 339
340 342 344 346 349 349 349 348 347 347 347 348 349 348 350 350 351 352 352 353 354 353 354 354 354 354 354 355 355 355 356 355 356 356 355 355 354 354 354 353 353 354 353 352 352 352 352 353 354 354 355 355 356 356 355 351 346 344 344 344 343 342 340
340 341 343 345 348 348 349 349 348 347 347 348 348 349 349 350 350 352 352 353 353 353 354 354 354 355 354 355 355 355 356 356 355 356 355 355 355 354 354 354 354 353 353 353 352 353 353 353 354 355 355 355 356 356 354 351 347 345 345 344 342 341 341
342 341 341 342 346 348 349 349 348 347 347 347 348 348 349 349 350 351 351 352 353 353 354 354 354 355 355 354 355 355 355 356 356 356 355 355 355 355 354 354 354 353 353 353 353 353 353 353 354 354 355 355 356 355 355 352 348 346 346 345 343 341 341
343 342 342 341 343 346 347 348 347 347 347 347 348 349 349 349 350 351 351 352 352 353 354 354 354 355 355 355 355 355 355 355 356 355 355 355 355 355 355 354 354 354 353 353 353 353 353 353 353 354 355 355 355 355 355 352 349 347 347 347 344 341 341
342 342 343 341 342 343 345 346 347 347 347 348 348 348 349 350 350 350 351 352 352 353 353 354 355 355 356 356 355 355 355 355 355 355 356 355 356 355 355 355 354 354 354 353 353 353 353 354 354 354 354 354 355 355 354 353 349 347 348 346 344 341 342
343 343 343 343 342 342 343 345 347 347 347 348 348 349 349 350 350 350 351 352 352 353 354 354 354 355 355 356 356 356 355 355 355 355 356 356 356 356 356 355 355 354 354 354 354 353 353 354 354 354 354 353 353 354 354 353 350 348 348 346 343 341 341
343 343 343 343 342 342 343 344 345 346 347 348 348 348 349 350 351 351 351 352 352 353 354 354 354 355 355 356 356 356 356 356 356 356 356 356 356 356 356 355 355 355 354 354 354 354 354 354 354 353 353 353 353 353 353 353 350 348 348 346 343 341 340
344 343 343 344 343 343 344 343 345 348 349 349 348 348 350 350 351 351 351 352 353 353 354 354 355 355 355 356 356 356 356 356 356 356 356 356 356 356 356 356 355 355 355 355 354 354 354 353 353 353 353 352 352 352 352 352 350 348 347 346 343 341 339
345 345 344 344 343 345 345 345 347 349 351 350 348 349 350 351 351 352 352 353 353 353 354 354 355 355 356 356 356 356 357 356 357 356 356 356 356 356 356 356 356 355 355 355 354 354 354 353 353 352 352 352 352 352 351 351 350 348 347 345 343 341 338
345 346 345 345 345 345 346 348 349 349 351 350 348 349 350 351 352 352 352 353 353 354 354 354 355 355 356 356 356 357 357 357 357 357 357 357 356 357 357 356 356 356 355 355 355 354 353 353 352 352 352 351 351 351 351 350 349 348 346 345 343 341 339
344 345 344 344 345 345 346 350 351 350 350 349 348 349 350 351 352 352 353 353 353 354 355 355 356 356 356 357 357 357 357 357 357 357 357 357 357 357 357 357 356 356 356 355 355 354 353 353 352 352 352 351 351 351 350 350 349 348 346 344 342 340 339
344 344 344 344 344 346 348 350 351 351 350 348 347 348 350 351 352 352 353 353 354 355 356 356 356 357 357 358 357 358 358 357 358 358 357 357 357 357 357 357 357 357 356 355 355 354 354 353 352 352 352 351 351 351 350 349 348 347 345 343 341 340 340
343 342 343 344 344 346 349 349 350 351 350 350 348 348 349 351 352 353 353 353 354 355 356 357 357 357 358 358 358 358 358 358 358 358 358 358 358 358 358 357 357 357 356 356 355 355 354 353 353 352 351 351 351 350 349 349 348 347 345 343 341 341 340
342 341 341 343 344 346 348 348 350 351 350 352 350 349 349 350 352 353 352 353 354 354 356 357 358 358 358 358 359 359 358 359 359 358 359 358 358 358 358 358 357 357 357 356 356 355 354 354 353 352 351 351 350 350 349 348 348 347 346 344 343 342 340
341 341 342 343 343 345 347 348 349 351 352 353 351 349 349 350 352 353 352 353 353 354 356 357 358 359 359 359 359 359 359 359 359 359 359 358 359 358 358 358 358 357 357 356 356 355 355 354 353 352 352 351 350 349 349 348 348 347 346 345 344 343 341
344 341 342 344 344 345 347 348 349 351 351 351 349 349 349 350 351 352 352 353 353 354 356 357 358 359 359 360 360 360 360 359 359 359 359 359 359 359 358 358 358 358 357 356 356 355 355 354 354 353 352 351 350 349 348 348 348 347 346 345 344 343 341
350 345 344 344 345 345 345 346 347 350 350 348 347 348 349 350 351 352 353 353 353 354 355 357 358 358 359 360 359 360 360 360 360 359 359 359 359 358 359 358 358 358 357 356 356 355 354 354 353 353 352 351 350 349 348 348 348 347 346 345 344 342 340
358 354 351 348 348 346 345 347 347 347 347 346 346 348 349 350 351 352 353 353 353 354 355 356 358 358 359 359 359 360 360 360 360 360 359 359 359 358 359 358 358 358 357 356 356 355 354 354 353 353 352 351 351 350 349 349 348 347 346 345 344 342 340
367 363 358 356 354 348 346 348 349 349 347 345 346 348 348 349 351 351 352 353 353 353 354 356 357 357 358 359 359 360 360 360 360 360 360 359 358 359 358 358 358 358 357 357 356 355 355 353 353 352 352 351 351 350 350 349 349 348 347 346 344 341 340
354 354 353 359 362 359 355 349 346 347 347 345 346 348 348 349 350 350 352 353 353 354 354 355 356 357 358 358 359 360 360 360 360 360 360 359 359 359 358 358 358 357 357 357 355 355 355 353 353 352 352 351 351 350 350 349 349 349 348 346 344 341 340
345 345 348 355 360 356 350 345 344 345 345 346 347 348 348 349 349 350 351 352 353 354 354 354 355 356 357 358 358 359 359 360 360 360 360 359 359 358 358 358 358 357 357 356 355 355 355 353 353 352 352 352 351 350 350 350 349 349 348 347 344 340 339
349 348 349 354 361 358 347 342 344 345 345 347 348 347 348 349 349 350 351 351 352 353 353 354 354 355 356 357 358 359 359 360 360 360 359 359 359 359 358 358 358 357 357 356 355 355 355 354 353 353 352 352 351 351 351 350 350 350 348 347 344 341 340
350 349 348 349 356 360 354 347 343 345 347 347 348 348 349 349 350 351 351 351 352 353 353 354 354 354 355 356 357 358 359 359 360 360 360 359 359 359 359 358 358 358 357 356 356 355 354 354 353 353 352 352 352 352 351 350 350 350 349 347 344 341 339
349 348 349 347 347 352 351 348 347 347 346 345 346 349 349 349 351 351 351 352 352 352 353 353 353 354 354 355 356 357 358 359 360 360 360 359 359 359 359 359 358 357 357 356 356 355 354 353 353 353 352 352 352 352 351 351 350 350 349 347 345 342 339
346 345 347 346 345 349 349 348 350 349 347 346 347 347 347 350 351 351 352 353 352 352 353 353 354 354 354 354 355 356 357 358 359 360 360 359 359 359 358 359 358 358 357 357 356 355 354 353 352 352 352 352 352 352 351 351 351 350 349 348 346 342 339
346 347 348 346 346 347 347 348 350 352 353 354 353 350 348 349 351 351 352 353 352 353 354 353 354 354 353 354 354 354 356 357 358 359 359 359 359 359 358 358 358 358 358 357 356 355 354 353 352 352 351 351 351 352 351 351 351 351 350 349 347 344 340
347 348 349 349 348 345 345 349 350 350 353 356 357 357 353 350 351 351 351 352 353 354 354 354 354 354 354 354 354 354 355 356 357 358 359 359 359 358 358 358 358 358 358 357 356 355 354 353 352 350 350 350 350 351 350 349 349 349 349 349 347 346 343
345 346 346 347 347 344 344 347 348 349 352 354 356 359 358 354 352 351 350 352 353 353 354 354 354 354 354 354 354 354 354 355 356 357 358 359 359 358 358 358 358 358 358 357 356 355 353 351 350 349 348 349 349 348 345 345 347 348 348 347 347 346 345
343 344 345 345 344 344 344 345 348 349 350 352 353 355 356 357 356 353 352 353 353 354 355 353 354 354 354 354 354 354 354 354 355 356 357 358 358 358 358 358 358 357 357 356 355 353 350 349 348 348 349 348 346 344 342 343 346 347 346 345 346 346 345
344 344 344 345 345 345 344 345 348 348 348 350 352 353 354 355 355 355 356 356 356 355 355 354 353 353 353 354 354 353 353 353 354 355 357 357 358 358 358 358 358 357 356 355 353 351 349 348 348 349 349 346 343 342 340 342 345 345 344 344 344 344 344
345 345 345 345 346 345 345 346 348 348 347 347 348 349 351 353 353 354 357 358 359 358 356 354 354 353 352 353 353 353 354 353 353 354 356 356 358 358 358 359 358 356 354 353 351 350 348 348 348 348 346 344 341 341 341 342 342 342 342 342 343 342 342
344 344 344 344 345 346 346 347 348 348 347 346 346 346 347 348 350 352 354 356 357 357 357 356 354 353 353 353 353 353 353 353 353 354 355 356 358 358 358 358 357 355 353 352 352 350 349 348 347 346 344 343 340 339 340 339 338 338 341 342 342 341 340
342 342 342 343 345 346 347 348 348 348 348 346 346 346 346 346 347 348 350 352 354 354 354 355 354 354 354 354 354 354 354 354 355 355 355 356 358 358 358 358 357 355 353 353 353 352 350 348 345 343 343 342 340 340 339 336 335 339 342 342 342 341 339
341 341 340 342 343 344 346 347 347 347 347 346 345 345 346 346 346 347 348 349 350 351 352 352 353 353 353 353 353 353 353 353 353 354 355 355 355 353 351 351 353 353 352 351 351 351 352 350 346 343 342 341 341 343 343 340 340 341 341 341 341 341 339
340 341 341 341 342 343 344 345 345 345 344 344 345 345 345 345 345 345 346 347 348 349 350 351 351 352 352 352 351 352 352 350 350 350 352 351 350 347 344 344 346 347 348 349 348 350 352 351 347 344 342 341 342 343 343 342 342 341 340 340 341 340 338
336 338 339 340 341 342 343 344 343 342 342 344 346 345 344 344 345 345 346 346 347 347 348 349 350 350 350 348 348 348 347 346 345 345 344 343 343 342 342 340 336 334 336 340 343 345 347 347 345 343 342 343 343 343 340 340 341 341 340 339 339 338 337

ECMWFFLT1_925_thetae_018.txt.gz
Theta_e
344 346 346 347 348 347 348 348 347 346 346 346 346 347 348 348 349 349 349 350 350 350 350 349 350 350 350 351 351 351 351 351 351 351 351 351 351 351 351 351 351 351 351 351 351 351 351 350 351 352 353 353 354 353 352 351 352 352 354 355 353 348 344
343 345 346 346 347 347 348 348 346 346 346 346 346 346 347 348 349 350 349 350 350 350 350 350 350 351 351 351 351 351 351 351 351 351 351 351 351 351 351 351 351 351 351 351 351 351 350 349 351 352 353 353 353 353 352 351 352 353 354 354 351 346 343
342 343 344 345 347 347 348 347 346 346 346 346 347 346 346 347 348 350 350 350 350 350 350 350 350 351 350 351 352 351 351 351 351 351 351 351 351 351 351 351 351 351 351 351 350 350 349 349 351 353 353 353 353 353 352 351 352 354 354 353 349 345 343
340 341 343 344 346 347 347 348 346 346 346 346 347 347 347 347 348 349 350 350 350 350 350 350 350 351 351 351 351 351 351 351 351 351 351 352 351 352 352 351 351 351 351 351 351 350 350 350 351 353 353 353 352 352 351 352 353 354 354 353 349 345 343
340 340 341 342 344 346 346 347 346 345 345 346 347 347 347 347 347 348 349 350 351 351 351 351 351 351 351 352 352 352 352 352 352 352 352 352 352 352 352 352 352 352 352 352 352 351 351 351 352 353 353 352 352 352 351 352 354 354 355 354 349 344 343
341 340 340 340 341 344 345 345 345 345 345 345 346 347 347 347 347 348 349 350 350 351 351 351 351 351 351 352 352 353 353 352 352 352 352 353 353 353 353 353 352 352 353 352 352 352 351 352 353 352 352 352 352 352 352 353 354 354 355 354 350 345 342
341 341 340 339 340 341 343 344 344 345 345 346 345 346 347 347 348 348 348 350 350 351 351 351 351 352 352 352 352 353 353 353 353 353 353 353 353 353 353 353 353 353 353 353 352 352 352 352 352 352 352 352 352 352 352 353 354 354 355 354 351 346 343
342 343 340 339 339 339 342 343 345 344 344 345 345 346 347 347 347 348 348 349 350 351 351 352 352 352 352 352 352 353 353 354 354 353 354 353 353 354 353 353 353 353 353 353 353 353 352 352 352 352 352 352 352 353 353 353 354 354 354 354 352 347 345
340 343 341 340 338 337 341 343 344 344 344 345 345 345 346 347 347 348 348 349 349 350 351 351 352 352 352 353 352 353 353 353 354 354 354 354 354 354 354 354 354 353 353 353 353 353 352 352 353 352 352 352 352 353 353 353 353 353 354 353 352 349 346
342 343 343 342 340 339 340 341 344 347 347 346 345 346 346 346 347 347 348 348 349 350 350 351 352 352 352 353 352 353 353 353 353 354 354 354 354 354 354 354 354 354 353 353 353 353 352 353 353 352 352 352 352 353 353 353 353 353 353 353 352 351 347
345 345 344 344 343 343 342 342 346 349 349 347 344 345 346 346 347 347 347 348 348 349 350 350 351 352 352 353 353 353 354 353 354 353 354 354 354 354 354 354 354 353 353 353 353 353 353 353 352 353 353 352 352 353 353 352 352 352 352 352 352 351 349
347 347 347 347 347 345 344 344 346 348 350 347 345 346 346 345 347 347 347 349 348 349 350 350 351 352 352 353 353 353 354 354 354 354 354 354 354 354 354 354 354 354 353 353 353 353 353 353 353 353 352 352 352 352 353 353 352 352 351 352 352 351 349
347 346 346 346 345 345 346 347 347 348 348 347 344 345 346 346 346 347 348 348 349 349 350 350 351 351 352 352 353 353 354 354 354 354 354 354 354 354 354 354 355 354 354 354 354 353 353 353 353 352 352 352 352 352 352 352 352 351 351 351 351 350 349
344 346 345 346 346 347 350 349 348 348 347 345 344 344 346 346 346 347 348 348 348 349 349 350 351 351 352 352 352 353 354 354 355 354 354 354 354 354 355 354 355 354 354 354 354 353 353 353 353 352 352 352 352 352 352 352 351 351 350 350 350 349 349
345 343 342 345 347 349 349 349 349 349 347 345 345 345 345 346 346 347 348 348 349 349 350 350 351 351 352 352 353 353 354 354 354 354 355 355 354 355 355 355 355 354 354 354 354 354 353 353 353 352 352 352 352 352 352 351 350 350 350 350 349 349 348
346 341 339 340 345 346 346 347 347 348 348 348 346 346 345 346 347 347 348 348 349 349 350 350 351 352 352 353 353 353 354 354 354 355 355 355 355 355 355 355 355 355 355 354 354 354 354 353 353 352 352 352 352 351 351 351 350 350 350 349 349 349 348
355 348 342 337 339 342 344 345 346 347 349 350 347 345 345 346 347 348 348 349 349 349 350 350 351 352 352 353 353 353 354 354 354 355 355 355 355 355 355 355 355 355 355 355 355 354 354 353 353 352 352 351 351 351 351 350 350 350 350 349 349 348 348
373 367 353 341 339 343 345 345 346 347 349 347 344 343 344 346 347 348 348 349 349 350 351 351 351 352 352 353 353 354 354 354 354 355 355 355 355 355 355 356 355 355 355 355 355 354 354 354 353 353 352 352 351 351 350 350 350 350 350 348 348 348 348
368 367 356 346 344 347 347 343 343 345 345 344 343 342 344 346 346 348 349 349 350 350 351 351 352 352 353 354 354 354 355 355 355 355 355 356 356 356 356 356 355 356 356 355 355 355 354 354 353 353 352 352 351 351 351 350 350 350 349 348 348 347 348
358 358 354 351 351 350 348 344 343 344 342 341 342 342 344 346 346 348 349 349 350 351 351 352 352 353 354 354 354 355 355 355 356 355 356 356 356 356 356 356 356 356 356 356 355 355 355 354 354 353 352 352 351 351 350 350 350 349 349 348 347 347 347
356 355 354 353 353 354 354 351 347 346 342 339 341 343 344 345 346 347 348 349 350 351 351 352 353 353 354 355 355 356 355 356 356 356 356 356 356 357 356 356 357 356 356 356 356 355 355 354 354 354 353 352 352 351 350 350 349 349 348 347 347 347 347
354 351 352 351 352 356 357 351 344 343 341 339 341 344 344 345 346 347 348 350 350 351 351 352 353 354 355 355 356 356 356 357 357 357 357 357 357 357 357 356 357 356 356 356 356 355 355 355 354 354 353 353 352 351 351 350 349 348 347 347 347 346 346
351 349 351 349 349 351 349 343 337 337 339 339 342 344 344 346 346 347 349 349 350 351 351 352 353 354 354 355 356 357 357 357 357 357 357 357 357 357 357 357 357 357 357 356 356 356 355 355 354 354 353 353 352 351 351 350 349 348 347 347 347 346 344
347 349 349 346 348 350 347 345 341 338 340 342 343 343 344 346 347 347 349 350 350 351 351 352 353 354 355 356 356 357 357 357 358 358 358 358 358 357 357 357 357 357 357 357 356 356 355 355 355 354 354 353 352 352 352 351 350 349 347 347 346 345 344
346 347 347 345 348 350 348 347 344 341 342 343 343 344 344 346 347 348 349 350 351 351 351 352 353 353 354 355 355 357 357 357 358 358 358 358 358 358 358 358 357 357 357 357 357 356 356 356 355 354 354 353 352 352 351 351 350 349 348 347 346 344 344
346 347 347 345 347 348 348 347 345 345 345 343 343 345 345 346 347 348 349 350 351 351 352 351 352 353 353 354 355 356 357 358 358 358 359 359 358 358 358 358 358 357 357 357 357 356 356 356 355 354 354 353 352 352 351 351 350 349 348 348 346 345 344
344 345 345 345 346 348 349 348 348 349 349 347 345 345 346 347 347 347 348 349 350 351 352 352 352 352 352 353 355 356 357 358 358 358 358 359 359 358 358 358 358 357 357 357 357 356 356 356 355 355 354 353 352 352 352 351 349 348 348 348 346 345 344
344 343 344 344 344 346 348 349 349 349 349 351 350 347 346 347 347 348 348 348 349 350 351 351 352 352 352 353 354 355 356 357 357 358 358 358 359 358 358 358 358 357 357 357 356 356 356 356 355 354 354 354 352 352 352 351 350 349 348 347 347 345 344
344 345 344 344 344 345 346 348 348 348 347 349 351 351 349 348 347 348 348 348 350 349 349 350 351 351 352 352 353 354 355 356 357 358 358 358 358 358 358 358 358 357 357 357 356 356 356 355 355 354 353 353 353 352 352 351 350 349 348 348 347 345 343
344 345 344 344 344 344 344 346 347 347 346 346 347 350 351 350 350 349 348 349 350 349 350 351 350 351 352 352 352 353 354 355 356 357 357 358 358 358 358 358 358 357 357 357 356 356 356 355 355 354 353 353 352 351 351 350 349 349 349 348 347 345 343
344 345 345 344 344 344 345 346 345 345 345 345 345 346 347 349 350 348 348 350 352 351 351 351 351 351 352 352 352 352 353 353 355 356 357 358 358 358 358 358 357 357 357 357 357 356 356 356 354 353 353 352 351 351 350 349 349 349 349 348 347 344 342
345 345 345 345 345 345 345 345 345 345 345 345 345 345 345 346 346 346 347 350 352 353 353 352 352 352 352 352 352 352 352 352 353 354 356 357 358 358 358 358 357 357 357 357 357 356 356 356 354 353 353 352 351 350 346 346 348 349 348 347 346 344 343
345 345 346 346 346 346 346 346 346 346 345 345 345 345 345 345 345 345 347 348 350 352 353 353 352 351 351 352 352 352 352 352 352 353 355 356 357 358 358 358 357 357 357 357 356 356 356 355 354 353 352 352 351 348 344 343 344 343 344 344 343 341 341
344 344 344 345 346 347 347 347 346 346 346 346 345 345 345 345 345 345 346 348 348 350 352 353 352 352 351 351 351 351 351 351 352 353 353 355 356 357 357 358 357 357 357 357 357 357 356 355 354 352 352 352 350 346 343 342 340 339 340 341 340 337 337
343 342 342 343 344 346 347 347 346 346 345 344 344 344 344 344 345 345 346 347 348 349 350 350 350 351 351 351 351 351 351 351 351 351 352 354 355 356 357 357 357 357 357 357 357 357 356 356 354 353 353 352 349 345 342 340 340 340 340 340 339 338 338
342 342 341 342 343 344 345 345 345 344 343 343 344 344 344 343 343 344 345 346 347 348 349 349 349 349 348 348 348 349 350 351 351 351 352 352 353 355 356 356 356 356 355 356 356 357 357 356 355 354 353 352 349 346 342 341 343 345 345 344 343 344 344
340 341 341 341 342 343 343 343 343 343 343 343 343 344 343 343 342 343 343 345 346 346 347 348 348 347 345 345 344 345 347 348 349 350 351 351 352 353 354 354 352 350 349 351 353 355 356 355 354 353 352 350 347 344 343 344 346 348 348 347 345 346 345
338 339 340 341 342 342 343 343 343 344 343 343 344 344 343 343 343 343 342 343 345 345 345 345 345 345 344 344 344 344 344 344 345 345 346 347 349 351 351 351 348 345 345 347 350 352 354 353 352 351 351 349 346 343 345 347 347 347 347 346 344 344 343

ECMWFFLT1_925_thetae_021.txt.gz
Theta_e
348 349 349 349 350 350 351 352 353 354 353 353 353 353 353 353 353 354 354 354 354 354 355 353 353 354 353 353 353 353 354 354 353 353 352 353 352 352 352 351 351 351 351 352 351 350 350 350 350 351 352 352 351 352 352 352 352 353 353 352 351 351 352
348 348 348 349 349 350 351 352 354 354 353 353 353 352 352 353 353 354 354 354 353 354 355 354 353 353 353 353 353 353 353 354 354 353 353 353 352 351 351 350 350 350 349 350 350 350 350 350 350 351 352 352 352 351 351 351 351 352 353 352 352 352 353
346 347 348 348 349 350 350 351 353 353 352 352 352 352 352 352 353 354 354 354 353 353 354 354 353 353 353 353 353 353 353 354 354 353 353 353 352 352 352 351 350 350 350 349 350 350 350 351 351 351 351 351 351 351 350 351 351 352 353 353 352 352 352
345 346 347 349 350 350 350 350 351 352 351 351 351 351 352 352 353 353 353 354 354 354 354 354 353 353 353 353 353 353 353 353 354 354 353 354 353 353 353 352 351 351 351 350 350 351 351 351 351 351 351 351 351 351 350 351 352 352 353 353 352 352 352
344 345 346 348 349 350 349 349 350 351 351 350 351 351 351 352 351 352 352 353 353 353 354 353 353 353 353 353 353 354 353 353 353 354 354 354 354 354 353 352 352 352 352 351 350 350 351 351 351 351 351 351 351 350 350 352 352 352 353 353 352 352 353
342 343 345 346 346 348 348 347 349 351 350 350 350 351 351 351 350 351 352 352 353 353 353 354 353 353 353 353 353 354 354 353 353 353 353 354 354 354 353 352 352 352 352 352 351 351 351 351 351 351 351 351 351 351 352 352 352 351 352 353 352 352 353
343 343 343 345 344 345 347 346 348 350 350 349 349 350 350 350 350 350 351 352 352 353 354 354 353 354 354 353 353 354 354 354 353 352 353 354 353 353 353 353 352 352 352 352 351 351 351 351 351 351 351 352 352 352 352 352 351 351 351 352 352 352 353
344 346 343 343 343 343 345 346 347 348 349 350 349 350 349 349 350 350 350 351 352 352 353 353 353 354 354 353 354 354 354 354 354 353 354 354 354 354 354 353 353 352 352 352 352 351 351 351 351 351 351 352 352 352 352 352 351 350 351 351 352 353 353
342 346 345 342 340 341 344 345 347 349 350 351 350 350 350 349 349 350 350 350 351 352 352 352 353 353 354 354 354 354 354 354 355 354 354 354 354 355 354 354 354 352 352 353 353 352 351 351 351 351 352 352 352 352 352 352 351 351 351 351 351 353 354
343 347 347 344 340 341 342 344 347 350 351 353 351 350 350 350 349 350 349 350 350 351 352 352 353 354 354 354 354 354 355 355 355 355 355 355 355 355 355 355 355 354 353 353 354 353 352 351 352 352 352 352 353 353 352 352 352 351 351 351 351 352 353
344 348 348 346 344 344 342 343 349 352 353 353 352 350 350 350 350 349 350 350 350 350 352 352 353 354 354 354 354 354 355 356 356 355 355 355 355 355 355 355 356 355 354 354 355 355 353 352 352 353 353 353 353 353 352 352 352 352 351 351 351 352 352
343 347 349 349 349 348 346 348 351 353 354 354 352 351 351 350 351 350 349 350 350 350 351 352 353 354 354 354 354 355 355 356 356 355 356 356 355 356 356 355 356 356 356 355 355 355 354 353 353 353 353 353 353 353 353 352 352 352 351 351 351 352 352
343 344 346 348 349 349 351 354 354 354 354 353 350 351 351 350 350 349 350 351 350 350 351 352 353 354 354 354 354 355 356 356 356 356 356 356 356 356 356 356 356 356 356 356 355 356 355 355 354 353 353 353 353 353 353 352 352 352 352 352 352 352 352
341 340 343 345 347 350 353 355 355 355 354 352 351 351 350 350 350 350 351 351 350 350 351 352 354 355 355 355 355 356 356 356 356 356 357 357 357 357 357 357 357 356 357 356 356 356 356 355 355 354 354 354 353 354 353 353 353 352 352 352 352 352 352
339 336 339 344 348 350 352 354 355 356 354 351 351 351 350 350 351 351 351 351 351 350 350 352 354 355 356 356 356 357 357 357 357 357 357 357 357 358 357 357 357 357 357 357 356 356 356 356 355 355 355 355 354 354 354 354 353 352 352 352 352 352 352
339 336 336 340 347 350 351 352 353 355 355 353 352 352 351 350 351 351 350 351 351 351 351 353 354 354 354 355 357 358 357 356 357 358 357 356 357 357 357 358 358 358 357 357 356 356 356 356 356 356 356 356 355 355 355 355 354 353 352 352 351 351 351
343 344 341 340 343 345 346 350 351 352 354 354 353 352 351 351 351 350 350 350 351 351 351 352 353 353 353 356 356 357 356 355 356 357 357 357 357 357 357 358 358 358 358 357 357 357 356 356 356 356 356 356 356 356 356 355 354 353 352 352 351 351 351
353 358 356 350 345 342 342 344 347 350 350 348 350 351 350 351 351 350 350 350 350 351 351 352 352 352 353 356 356 355 355 355 356 357 357 358 358 357 357 358 358 358 358 358 358 357 357 357 357 357 356 356 356 355 355 355 355 353 352 352 351 351 351
348 351 351 349 346 343 342 340 341 345 347 346 347 349 348 349 350 350 350 350 351 351 351 352 353 353 354 356 355 354 354 356 357 358 358 358 358 358 358 358 358 359 358 359 358 358 357 357 357 357 356 356 356 356 355 355 354 353 352 352 351 351 351
348 347 345 345 345 343 344 344 342 342 345 346 346 346 346 347 349 351 351 351 352 351 351 353 352 353 355 355 355 354 355 356 357 358 359 359 359 359 359 359 359 359 359 359 359 358 358 358 357 357 357 356 356 356 356 355 354 353 352 352 351 351 350
355 351 348 350 351 349 349 349 346 343 344 344 343 344 346 347 348 349 350 351 352 351 351 352 352 353 355 355 355 355 356 357 358 358 359 359 359 359 359 359 359 359 359 359 359 358 358 357 358 357 357 357 356 356 355 355 354 353 352 352 351 351 349
353 351 351 353 353 353 354 353 350 347 345 343 343 344 345 346 346 348 349 349 351 353 353 353 354 355 355 356 356 356 357 357 359 359 359 359 359 360 359 360 360 360 360 359 359 358 358 358 358 357 357 357 356 356 355 355 354 353 352 351 351 350 349
351 350 351 351 351 353 355 355 355 353 347 344 342 343 344 345 346 347 349 349 351 353 354 355 357 356 356 356 357 357 358 358 359 360 359 359 360 360 360 360 360 360 360 360 359 359 358 358 357 358 357 357 357 356 356 355 354 353 352 352 351 350 348
348 348 349 349 350 353 355 355 356 353 348 344 343 344 345 346 346 348 351 352 352 354 356 357 357 357 357 357 358 358 358 359 359 360 360 360 360 360 360 360 360 360 360 359 360 359 358 358 358 357 357 357 357 356 356 355 354 353 352 351 350 350 348
348 347 349 351 351 353 355 355 355 352 347 345 346 347 347 348 349 351 353 354 354 356 357 357 356 357 357 358 358 359 358 358 359 360 360 360 360 360 360 360 360 360 360 360 360 359 359 358 358 358 358 357 357 357 356 356 355 353 352 351 350 350 348
347 347 349 352 352 353 355 356 356 353 350 351 352 350 349 350 351 352 355 355 355 355 355 356 357 358 358 358 359 359 358 358 359 360 360 360 360 360 360 361 360 360 360 360 360 359 359 359 358 358 358 358 357 357 356 356 355 354 352 351 350 350 348
345 346 347 349 352 354 355 356 356 356 354 355 354 351 351 352 353 355 356 356 356 355 355 356 356 356 357 358 358 359 359 360 360 360 360 361 360 361 360 361 360 360 360 360 359 359 359 359 359 358 358 358 358 357 356 355 355 354 352 351 350 350 349
343 345 346 348 350 353 355 354 353 353 353 353 353 352 351 353 355 357 357 357 358 357 356 356 355 354 355 357 357 359 360 360 360 361 361 361 361 362 361 361 361 360 361 361 360 360 359 360 359 359 359 359 358 358 357 356 355 354 352 351 350 350 349
343 344 345 347 349 352 353 352 351 351 351 350 351 352 353 354 356 358 358 359 358 355 354 356 355 354 355 356 358 359 360 360 360 360 361 362 362 362 362 362 362 362 362 361 361 361 360 360 360 360 359 359 359 358 358 356 354 353 352 351 351 350 350
344 344 344 346 348 350 351 350 349 349 349 349 350 351 353 356 358 358 357 357 354 351 352 355 355 355 356 355 356 358 359 360 360 360 361 362 362 362 363 363 362 362 362 362 361 361 361 361 361 360 360 360 360 359 357 356 355 353 351 351 350 350 350
344 345 345 346 347 347 348 348 349 348 348 349 349 349 351 353 354 354 353 353 354 353 353 353 354 356 357 357 357 358 358 359 360 360 361 362 362 363 363 363 363 363 363 363 362 361 361 361 361 361 360 360 360 359 358 357 355 353 351 351 350 350 350
345 346 346 346 346 347 347 347 348 348 348 348 348 348 349 349 350 351 351 352 354 355 355 354 354 356 357 358 358 358 358 359 361 361 362 362 362 363 363 363 364 364 363 362 362 361 361 361 361 361 360 360 360 360 359 357 355 353 351 349 349 350 349
345 346 347 347 347 347 348 348 348 348 348 347 347 347 347 348 348 349 350 351 353 355 356 356 356 357 357 357 356 356 356 358 359 359 361 362 362 362 363 363 363 363 363 363 362 361 361 361 360 361 360 360 360 360 359 357 354 352 349 348 349 349 349
344 345 347 347 347 348 348 348 348 347 347 347 347 347 347 347 348 348 349 351 352 354 354 355 356 357 357 357 356 356 355 356 356 355 357 359 361 361 362 362 363 363 363 362 362 362 361 361 361 360 360 360 360 360 359 356 352 349 347 347 346 343 342
343 345 346 347 348 348 348 347 347 346 346 345 345 346 346 346 347 348 349 350 351 353 354 354 354 356 356 356 357 356 355 356 356 355 356 357 358 359 360 361 362 362 363 362 361 362 362 361 362 361 361 361 361 359 358 355 352 349 348 347 345 343 342
342 344 345 346 347 347 347 346 345 345 344 344 344 344 345 346 346 346 347 348 350 352 354 354 354 355 354 355 355 354 355 356 356 357 357 357 357 358 358 358 358 360 361 361 361 360 360 361 361 361 361 361 361 359 356 355 353 350 347 346 346 347 348
341 343 344 345 346 347 347 345 345 345 345 345 344 344 344 344 345 345 346 347 348 349 351 352 352 352 351 351 349 348 350 352 352 353 353 354 355 356 357 357 357 357 357 357 358 358 357 357 357 358 359 359 360 359 357 355 353 350 347 346 346 348 350
341 342 343 344 344 345 345 345 346 346 347 347 346 346 345 344 344 345 346 346 347 348 348 349 350 349 349 348 346 344 345 347 347 347 349 350 351 352 353 354 356 356 355 355 355 355 355 354 354 354 355 356 357 358 357 355 352 349 348 346 346 347 347

ECMWFFLT1_925_thetae_024.txt.gz
Theta_e
350 352 353 354 356 355 356 358 359 361 361 361 362 361 361 361 360 361 362 362 363 363 364 363 361 360 359 360 359 359 361 361 362 362 362 362 361 360 361 360 360 359 358 359 359 359 359 359 359 359 361 362 361 360 359 359 359 358 358 357 356 356 356
349 350 352 353 355 356 356 358 361 362 361 361 362 361 361 361 360 362 362 362 363 363 364 363 362 361 360 359 359 359 360 361 361 361 361 362 361 361 361 361 361 360 359 358 358 359 360 360 360 360 361 362 361 360 360 359 359 358 357 357 357 357 357
347 349 351 353 355 357 357 358 360 361 361 361 361 361 362 361 361 362 361 362 363 364 364 363 363 362 360 360 360 360 360 361 361 361 362 362 362 361 361 361 361 360 359 359 358 358 359 361 361 361 361 361 360 360 360 359 359 359 358 358 358 357 357
348 349 351 353 355 357 357 356 359 362 361 360 361 361 361 362 362 362 362 362 363 363 363 363 363 362 361 361 361 361 361 361 361 361 362 362 361 361 361 361 361 360 360 359 359 358 359 361 362 362 361 360 360 360 360 360 359 359 359 359 358 357 358
348 349 350 353 354 356 357 355 357 361 360 359 360 361 361 362 362 362 362 362 362 363 363 362 362 362 361 362 361 361 362 361 361 362 362 361 361 361 361 360 361 360 359 360 360 360 360 360 361 362 362 361 360 360 360 360 360 359 360 360 359 358 358
344 348 350 351 352 354 356 354 356 359 359 358 359 360 361 361 361 361 361 361 361 362 362 362 362 362 362 361 361 361 362 362 362 362 363 362 361 361 361 361 360 360 360 360 360 360 360 360 360 360 362 361 360 360 360 361 360 360 360 360 360 358 358
340 347 350 351 351 352 354 353 354 357 358 357 357 359 360 360 360 360 360 360 360 361 362 361 361 361 362 361 361 361 362 362 362 362 362 362 361 361 361 361 360 360 360 360 360 360 361 361 360 360 361 361 361 360 360 361 361 360 361 361 360 360 360
338 347 350 350 350 350 352 353 354 355 357 356 356 357 358 358 359 359 359 360 360 360 360 360 360 360 361 361 361 361 362 362 362 362 362 361 361 361 361 361 361 360 360 360 360 361 361 361 361 361 361 361 361 361 361 362 362 362 361 361 361 361 360
338 348 351 350 347 348 350 352 355 355 356 356 356 355 356 357 357 357 358 359 358 358 358 358 359 360 361 361 361 361 361 361 361 361 361 361 361 360 360 361 361 361 360 360 360 361 361 361 362 361 362 361 361 362 361 362 364 362 361 362 362 362 360
344 352 353 349 346 347 348 349 353 356 356 357 357 356 356 356 356 356 356 357 357 357 357 357 358 359 361 361 361 361 361 361 361 361 361 360 360 360 360 360 361 361 361 360 359 360 361 361 361 362 363 362 362 363 362 363 364 364 362 362 363 362 360
350 354 353 351 348 347 346 348 355 357 358 360 359 356 356 356 355 355 355 356 356 356 356 357 357 358 360 360 360 360 360 360 360 360 360 360 359 359 359 359 360 360 360 360 360 359 361 361 362 362 363 363 362 363 363 363 364 364 363 362 362 361 360
351 353 354 353 351 350 348 350 354 358 360 361 358 357 356 356 356 355 354 355 355 355 355 356 357 357 359 359 360 360 360 360 360 359 360 360 359 359 358 358 358 359 360 360 360 359 360 361 362 362 363 364 363 363 363 363 364 364 363 362 361 361 360
350 351 353 352 352 352 353 354 354 358 361 360 357 356 356 356 356 355 355 355 354 354 355 356 356 357 358 359 359 359 359 360 360 360 359 359 359 358 358 358 358 358 359 360 360 360 360 361 362 362 362 364 364 363 363 363 363 364 364 362 361 361 361
343 343 349 351 353 356 357 357 357 359 360 359 357 356 356 356 355 355 355 355 354 354 354 355 356 357 357 358 359 360 360 360 360 360 359 359 360 359 359 358 358 358 358 360 360 360 360 360 362 363 362 363 364 363 363 363 363 364 364 363 361 361 361
336 332 338 347 355 359 359 359 360 359 358 358 356 355 355 354 355 355 355 355 355 354 354 355 356 357 358 359 360 361 361 360 361 361 361 360 360 360 360 360 360 359 359 360 361 361 361 360 361 363 363 363 363 364 363 363 364 363 363 363 362 361 361
331 330 329 336 351 361 361 361 362 360 360 359 357 355 354 354 355 355 354 355 355 354 354 354 356 358 358 359 360 361 361 361 361 361 362 362 361 362 361 360 360 360 360 361 361 362 361 361 361 363 363 363 363 364 363 363 363 362 360 361 362 361 361
329 331 330 330 344 356 360 361 362 362 361 360 359 358 355 355 356 355 355 354 355 355 354 354 356 358 358 359 361 362 362 363 363 363 363 363 362 363 363 362 362 362 361 361 362 363 362 362 362 362 363 363 363 363 363 362 361 361 359 358 359 360 361
330 333 332 332 343 354 356 356 359 362 359 357 358 358 356 356 356 355 354 354 354 354 354 354 355 358 359 360 361 362 363 364 364 364 364 364 364 363 364 364 363 363 363 363 363 363 363 363 362 363 362 363 363 363 363 362 360 359 359 358 357 357 359
331 333 331 332 343 354 353 349 351 355 356 354 354 355 355 356 356 355 354 354 354 355 355 353 355 358 360 362 362 364 365 366 365 365 365 366 365 364 365 365 364 364 364 364 364 364 364 363 363 362 362 362 363 363 363 362 360 358 357 358 357 356 357
333 335 335 335 338 343 348 351 352 351 353 354 351 351 352 353 355 355 354 354 354 354 355 355 355 358 362 363 363 365 367 367 366 366 366 366 366 365 366 365 365 365 364 364 364 364 363 363 362 362 362 361 362 362 362 362 361 359 357 357 357 356 355
335 335 337 340 343 346 354 361 359 355 354 353 350 349 350 352 353 353 354 354 354 354 355 356 356 358 362 363 364 366 367 367 367 366 366 367 366 366 366 365 365 365 364 364 364 363 362 362 361 361 361 360 361 360 361 362 361 359 358 356 356 356 355
333 335 340 348 353 359 364 365 362 359 359 357 352 350 349 350 351 352 353 353 353 354 356 358 357 358 361 364 365 365 366 367 366 366 366 366 366 366 366 365 365 365 364 364 364 363 362 361 361 361 360 360 360 360 360 361 360 359 358 357 356 356 355
338 344 350 354 357 361 364 364 364 364 363 361 357 351 349 348 349 350 351 352 354 355 356 358 359 360 361 364 365 365 366 367 366 366 365 365 366 366 366 366 366 365 365 364 364 363 362 362 361 360 360 360 359 360 360 360 359 358 357 356 356 356 355
347 349 352 355 357 361 362 364 365 364 364 364 359 353 349 349 348 350 351 352 354 356 358 359 360 362 363 365 364 364 365 365 365 365 365 365 367 366 366 366 366 365 365 365 364 364 363 362 362 361 360 360 359 360 360 359 360 359 357 356 356 355 355
352 352 354 358 359 360 362 364 364 363 361 360 358 354 350 349 349 350 352 352 353 356 358 360 359 361 362 363 363 363 364 364 364 365 365 365 366 366 366 366 365 365 365 365 364 364 363 362 362 361 361 360 359 359 359 359 359 359 358 357 356 355 355
354 354 355 358 358 359 361 363 364 363 360 359 360 357 353 351 350 351 353 353 353 354 357 359 359 359 360 361 361 362 363 364 364 365 365 366 366 365 365 365 365 364 365 365 364 364 363 362 361 361 361 360 360 360 359 359 359 359 358 357 356 356 354
352 354 354 357 358 359 361 362 363 362 361 362 362 359 355 354 352 353 356 356 356 355 356 358 360 359 360 361 361 362 363 364 364 365 365 365 366 365 364 364 364 364 365 364 364 364 364 363 362 361 361 361 360 360 359 359 359 359 358 357 356 356 354
351 353 354 356 357 358 360 361 361 360 360 360 360 357 356 357 356 357 358 358 358 356 354 356 359 360 362 363 362 361 364 365 365 366 366 365 366 365 364 363 364 365 364 364 364 364 365 364 363 361 360 360 360 360 360 359 359 359 358 357 356 355 354
350 351 352 354 355 356 358 359 358 359 359 359 360 359 356 356 358 360 360 361 363 360 357 357 360 362 364 365 363 362 364 366 366 366 366 366 365 365 365 365 364 364 365 365 365 365 365 365 364 362 361 360 360 360 360 360 360 359 358 357 356 355 354
349 349 351 352 353 353 355 356 357 357 357 358 360 363 361 360 362 365 365 367 367 363 361 361 363 364 365 365 364 363 363 365 366 366 366 366 366 365 366 365 365 365 366 366 365 365 365 364 363 363 362 362 361 360 361 361 361 361 359 358 357 355 355
348 349 350 352 352 353 354 355 356 356 356 356 357 359 362 364 365 367 366 365 364 363 362 361 362 364 364 363 364 364 363 364 366 367 366 365 366 366 366 366 366 366 366 366 365 364 364 363 363 363 362 363 362 361 361 361 362 363 361 359 358 356 354
349 350 351 351 352 353 354 355 355 355 355 355 355 355 357 358 360 361 361 361 362 364 363 361 361 362 363 362 363 363 363 364 365 367 367 366 366 366 367 366 367 367 366 365 364 364 364 363 363 362 363 364 363 362 362 362 363 365 363 360 358 356 355
348 349 351 351 352 352 353 354 355 354 354 354 354 355 355 356 357 357 358 360 361 363 364 363 362 363 364 364 365 364 364 364 364 365 367 366 366 366 366 366 366 366 366 365 364 364 364 363 363 363 363 363 363 362 363 363 364 365 364 360 357 355 354
348 349 351 351 351 351 352 352 352 353 352 352 353 353 354 355 356 357 358 359 361 361 363 363 363 363 364 364 364 363 363 363 363 364 365 366 366 365 364 364 363 363 364 364 364 364 364 363 364 363 363 363 363 363 364 364 364 365 364 359 356 353 351
347 349 350 350 350 349 349 349 350 350 351 350 351 352 352 352 353 354 356 357 358 360 361 361 363 364 363 362 361 361 360 361 362 361 361 362 363 364 364 364 363 362 363 363 363 363 363 363 363 363 363 363 362 362 364 364 364 365 364 361 358 355 353
347 349 350 349 348 348 348 348 348 349 349 349 349 349 350 350 350 351 352 353 355 357 358 360 361 362 362 362 363 362 361 361 362 361 360 361 361 361 363 363 362 361 361 362 363 363 363 362 363 363 363 363 363 364 364 364 364 365 364 362 360 357 356
345 347 348 348 348 348 348 348 348 348 348 347 347 347 348 348 349 349 350 351 353 354 356 357 359 359 359 358 358 358 361 362 362 362 362 362 362 362 361 361 361 361 360 360 361 362 362 362 362 362 362 363 363 363 364 364 364 363 363 363 362 359 356
343 345 346 347 348 349 349 349 350 349 348 348 348 348 348 348 349 350 350 350 351 352 354 356 356 354 354 353 352 353 355 357 357 357 358 358 359 359 359 359 360 360 359 358 357 357 358 359 359 360 360 360 359 359 359 360 362 362 363 363 362 360 358

ECMWFFLT1_925_thetae_027.txt.gz
Theta_e
343 345 349 354 357 357 358 362 362 362 362 362 364 361 360 361 361 363 365 367 368 367 367 367 366 365 365 364 363 362 362 362 362 361 360 360 360 360 360 362 364 363 360 359 360 361 359 357 355 356 358 361 361 360 359 360 361 361 361 360 359 358 358
343 344 348 351 355 357 358 361 364 364 363 363 364 362 361 362 362 364 365 367 369 369 369 368 367 366 366 364 364 363 363 362 363 363 362 362 361 361 360 361 363 363 361 358 358 360 360 359 357 358 359 361 362 362 361 360 362 361 359 359 360 359 358
343 341 344 347 350 357 359 360 363 364 363 363 364 363 363 362 363 364 365 368 370 370 370 368 368 366 365 364 364 364 364 364 364 363 363 362 362 361 360 361 362 363 362 360 358 358 360 362 360 359 359 361 362 363 362 361 362 362 359 359 359 359 359
342 338 341 345 349 357 359 358 362 364 364 363 363 365 364 364 364 365 366 368 370 370 370 369 368 366 365 365 365 364 364 364 365 364 363 363 363 362 361 362 362 363 363 362 360 358 358 361 362 362 360 361 362 363 361 360 360 361 360 360 360 359 359
342 342 343 343 348 356 360 358 360 364 364 362 364 364 364 365 365 365 366 367 369 369 369 369 367 366 365 365 365 364 364 365 365 365 364 363 364 363 362 362 363 363 363 363 362 359 358 360 363 363 363 362 363 362 361 361 360 360 362 360 360 359 359
339 341 343 343 343 350 358 358 359 363 363 362 364 365 364 365 365 365 366 366 367 369 369 368 367 367 366 365 364 365 364 364 365 364 364 365 363 364 363 363 364 364 362 362 362 361 361 360 361 363 363 363 362 360 360 361 360 360 361 361 361 360 359
338 340 341 342 341 347 356 359 358 362 363 362 362 364 364 364 364 363 364 365 366 367 368 368 367 367 367 366 364 365 364 364 365 365 365 365 364 364 365 365 364 364 363 362 361 362 362 362 361 362 364 364 363 360 359 361 361 361 361 362 362 362 360
339 343 342 342 344 347 354 358 358 360 363 362 361 364 364 363 364 363 364 364 364 365 366 365 366 367 368 366 365 365 364 364 365 365 365 365 365 365 366 365 365 364 363 362 361 361 363 364 364 363 363 364 364 362 360 361 363 362 361 362 363 363 362
340 343 342 343 343 344 348 354 358 360 362 363 361 363 364 364 363 364 363 364 363 363 364 363 364 366 367 367 366 366 366 365 365 366 365 365 364 364 364 365 365 365 363 362 362 363 363 363 364 364 364 364 364 364 362 361 363 363 361 361 363 364 362
340 343 344 342 343 345 347 351 359 361 361 365 363 361 363 363 364 363 363 363 362 362 363 363 362 364 367 367 366 366 365 365 365 366 365 364 363 363 364 363 365 365 364 363 361 362 363 364 364 366 366 364 364 365 364 363 363 364 363 362 363 364 363
348 350 349 345 346 349 347 353 363 365 367 369 365 361 362 363 362 362 363 363 363 362 362 361 360 362 366 367 366 365 366 365 365 364 365 364 363 363 363 362 362 363 364 364 361 359 362 364 365 366 367 366 365 364 365 364 364 365 365 363 363 364 364
347 352 353 350 348 350 352 357 366 369 370 369 363 359 361 363 362 361 363 362 362 360 361 361 361 361 364 366 365 364 365 365 364 363 365 365 363 362 362 360 359 360 363 364 361 359 360 364 365 365 367 367 366 365 366 366 365 365 365 364 363 364 364
343 349 353 353 352 353 356 361 363 366 368 365 362 360 360 361 361 361 362 362 361 360 360 361 361 360 362 365 364 364 365 365 364 364 364 365 363 361 361 359 358 358 361 362 363 362 359 362 365 366 367 368 367 365 366 367 366 366 366 365 363 364 364
340 347 351 352 354 357 359 360 362 365 365 362 361 361 359 359 359 360 361 361 360 359 360 361 361 360 363 364 365 365 366 365 365 364 364 364 364 362 360 361 359 357 358 362 363 363 361 361 364 365 366 367 368 367 367 367 367 366 367 366 365 364 365
335 339 345 351 356 359 360 362 363 363 364 363 361 361 360 359 359 359 359 360 359 359 359 359 361 361 363 364 364 366 366 365 366 366 365 363 363 364 362 360 359 358 358 361 364 364 362 362 362 365 367 367 368 368 367 367 367 367 367 367 366 364 364
332 331 336 345 355 361 360 361 364 366 366 366 363 361 360 359 359 358 359 359 358 358 358 357 360 361 362 363 365 366 366 366 366 367 366 364 364 365 364 362 360 360 360 361 362 363 364 363 363 364 366 367 368 368 367 367 367 366 365 366 367 365 364
332 333 334 336 345 357 362 361 363 366 369 368 368 363 361 360 359 358 357 358 357 358 357 357 358 361 361 362 364 365 367 367 367 368 368 366 365 367 367 364 363 362 361 361 362 363 364 364 363 364 365 366 367 367 368 367 367 366 365 364 364 365 365
333 334 335 334 336 344 355 358 361 366 366 363 364 363 360 360 360 359 357 357 356 358 357 356 357 360 361 363 364 365 367 368 368 368 369 368 367 367 368 367 365 364 363 363 363 363 364 365 365 364 363 365 366 367 367 368 367 365 364 363 361 361 364
334 333 334 337 336 335 341 348 354 361 358 356 358 360 359 359 358 359 358 357 356 357 356 356 356 359 362 363 363 366 368 369 369 369 369 370 369 368 369 368 366 365 365 365 364 364 365 365 366 365 364 365 366 366 367 367 367 365 364 363 361 359 360
336 336 336 336 335 336 341 344 347 353 353 351 347 349 352 356 357 358 356 357 356 356 357 356 357 358 362 364 364 366 369 371 370 370 371 371 370 369 368 368 367 366 365 366 365 364 366 366 367 366 366 365 366 367 367 367 367 367 364 362 361 359 359
337 337 336 335 341 350 356 356 354 353 354 352 349 346 347 349 353 356 357 357 356 356 358 359 358 359 362 365 365 365 369 372 372 371 371 372 371 370 369 369 369 368 366 366 366 365 366 367 367 367 366 366 366 366 366 366 365 366 365 363 361 360 358
332 332 334 337 345 354 359 360 358 356 357 357 353 348 346 346 349 353 356 357 356 356 359 361 360 361 362 365 366 366 369 372 373 373 372 372 372 371 370 370 371 369 367 367 366 367 367 367 367 367 366 367 366 364 364 364 364 365 365 365 362 360 359
334 334 340 346 350 355 359 361 362 361 361 362 358 352 349 346 345 349 353 356 356 357 358 359 361 362 362 365 366 367 369 371 372 373 372 372 373 372 370 371 371 370 369 367 367 367 367 366 366 365 365 365 365 364 362 363 363 363 363 364 363 362 360
347 348 352 354 354 357 359 362 366 365 364 364 361 357 356 352 348 349 354 356 356 358 358 360 361 361 362 363 367 368 370 372 372 373 373 372 373 373 371 370 371 371 370 368 367 367 366 366 366 364 364 364 364 363 364 363 363 362 362 362 362 362 359
353 352 354 354 353 357 361 364 367 366 363 361 360 360 360 359 356 353 353 356 357 358 359 360 361 361 360 363 366 369 371 372 373 373 373 373 373 372 372 371 370 371 370 369 368 366 366 366 366 366 366 365 364 363 363 363 363 363 362 362 362 362 360
354 351 352 352 356 360 360 362 365 367 365 365 367 365 363 361 358 355 356 357 357 357 360 359 359 361 362 362 365 369 370 371 372 373 373 373 373 372 372 371 370 370 370 369 368 366 366 366 366 365 366 365 364 363 362 363 363 362 362 361 361 361 360
352 353 351 354 359 361 360 360 365 366 364 365 368 366 364 363 360 357 356 358 357 357 358 360 360 362 363 363 363 367 370 371 371 373 373 373 372 371 370 370 370 370 369 369 368 367 367 367 365 365 366 365 365 364 364 363 363 362 362 361 360 361 360
350 352 352 355 359 360 360 362 365 365 363 365 365 364 363 362 361 359 359 359 359 358 357 360 362 363 364 366 364 366 368 370 371 372 373 372 372 371 370 368 368 369 369 369 368 367 368 368 367 366 366 365 366 366 365 364 363 362 361 361 360 360 359
350 352 353 356 358 358 359 360 363 363 363 362 365 367 367 363 361 362 361 359 361 359 357 359 362 364 366 366 365 366 366 368 371 371 370 370 371 370 370 369 368 369 369 369 368 368 368 368 368 366 366 366 366 365 364 364 362 362 361 361 360 360 359
351 352 353 355 357 356 356 360 362 362 362 362 363 367 369 368 363 363 364 366 367 365 362 360 361 364 365 365 366 366 365 366 369 370 370 371 370 371 371 369 369 369 370 370 369 368 368 368 367 367 366 365 364 364 363 363 363 362 362 361 360 359 359
350 351 352 355 356 355 356 358 359 359 360 361 361 363 367 369 368 368 370 371 370 369 367 364 363 367 367 367 369 367 366 366 368 370 370 371 370 370 371 370 369 369 369 368 367 367 367 367 366 366 367 365 364 363 362 361 362 362 362 361 361 360 359
350 351 352 354 355 355 357 357 357 357 358 358 358 360 362 363 365 367 368 367 367 369 368 367 367 369 369 370 371 369 367 367 369 370 371 370 370 370 369 369 369 368 367 367 366 365 367 365 364 365 366 365 365 365 363 362 361 362 363 363 362 361 359
350 351 352 353 355 355 356 357 358 357 358 357 358 359 359 360 361 362 362 363 365 367 368 367 367 367 367 368 369 369 369 368 367 369 369 369 370 368 367 367 367 367 366 366 365 365 366 365 364 365 365 364 365 364 363 363 362 363 364 365 363 361 359
350 351 352 353 353 354 355 357 357 356 357 357 357 357 358 359 360 360 362 363 364 365 367 367 366 367 368 368 368 368 368 368 368 368 368 368 368 367 367 367 366 365 365 365 365 365 364 364 365 364 363 363 363 364 364 364 364 363 364 365 365 362 359
350 351 352 353 352 352 352 353 354 355 355 356 356 355 356 357 358 359 361 362 363 365 365 365 365 366 367 367 366 367 367 367 366 366 366 367 366 365 366 365 365 365 364 364 365 365 364 365 364 365 365 365 364 364 365 365 365 364 364 364 365 364 361
351 352 353 351 350 351 350 351 352 353 352 352 353 353 354 355 355 356 356 358 361 364 364 366 366 366 366 366 366 365 364 365 364 364 365 365 363 363 364 363 363 364 364 363 365 364 363 363 364 363 363 363 364 365 365 366 365 366 364 363 363 364 362
349 352 352 351 350 351 351 350 351 351 350 350 351 350 351 352 352 353 354 355 357 359 361 362 363 364 364 366 365 364 363 364 365 364 365 364 363 363 364 363 363 362 362 360 361 361 361 360 360 360 360 360 361 361 362 363 363 362 361 361 360 359 359
347 349 350 351 351 352 352 352 351 351 351 351 351 351 351 351 350 350 351 352 353 355 357 357 358 358 359 360 359 360 360 361 362 361 361 362 362 362 362 362 362 362 363 361 359 357 357 356 355 356 356 356 355 354 355 357 357 357 357 357 356 354 353

ECMWFFLT1_925_thetae_030.txt.gz
Theta_e
343 349 352 350 352 353 354 357 358 358 358 361 363 362 361 361 361 363 364 364 364 363 363 362 362 362 362 362 361 361 361 360 361 360 360 359 357 355 357 359 361 360 360 361 361 360 360 359 358 357 357 357 358 359 358 358 359 360 361 360 359 358 357
340 348 352 350 352 354 356 359 360 359 359 362 364 362 361 361 361 362 364 365 365 364 363 362 362 363 362 362 362 361 361 360 360 360 360 360 358 356 356 357 360 362 361 361 361 361 360 359 358 357 357 357 358 359 359 358 358 359 361 361 360 359 358
340 344 351 352 352 355 356 358 358 358 359 360 363 362 362 362 362 363 364 365 366 365 365 363 363 363 363 363 362 362 361 360 360 361 360 360 359 357 356 356 359 362 362 361 361 361 361 359 358 357 357 358 359 360 360 359 359 359 361 362 360 359 359
344 341 346 352 355 355 355 354 355 358 358 359 364 364 363 364 363 363 364 365 366 367 367 365 363 363 363 363 363 362 361 360 360 361 360 359 359 357 356 356 358 360 362 362 361 360 360 360 359 358 358 358 359 360 361 361 360 360 360 361 361 361 360
347 343 343 352 354 353 354 354 356 360 359 360 365 364 363 363 363 363 365 366 367 367 368 367 365 365 365 364 365 363 362 361 360 360 360 359 358 357 357 357 358 359 361 363 362 359 358 360 361 359 358 357 359 361 362 362 361 361 361 361 360 360 360
347 344 345 351 351 351 351 350 352 359 361 362 363 365 364 362 361 363 365 367 368 369 369 368 367 365 366 366 366 364 362 361 360 359 360 359 359 359 357 357 358 359 360 362 363 361 357 358 361 361 359 358 359 361 363 363 362 361 362 361 359 359 360
347 343 346 350 350 350 350 350 353 357 362 360 360 364 364 362 362 362 364 368 369 370 370 369 368 366 366 367 366 364 363 363 361 360 360 360 359 360 359 358 358 358 360 360 361 362 360 357 358 361 362 360 360 361 363 363 362 361 362 362 360 360 360
347 347 346 347 346 345 349 353 353 353 357 357 356 362 364 362 363 362 364 368 369 370 370 369 369 367 367 368 366 363 364 364 363 360 360 360 360 360 360 361 360 359 360 361 360 361 361 358 357 359 363 363 361 361 362 363 362 361 362 362 361 360 360
348 348 344 343 343 343 347 350 351 352 355 354 354 360 364 364 363 363 365 367 367 369 370 369 369 368 367 367 365 364 364 364 363 362 361 361 362 361 360 361 362 359 360 362 362 362 361 360 358 358 361 363 363 362 362 362 362 360 361 362 362 361 360
348 350 348 346 346 349 351 351 355 357 357 356 358 363 366 364 364 363 364 365 366 368 369 369 369 368 367 367 365 365 364 364 364 364 364 364 364 363 361 362 362 361 360 361 363 363 361 361 361 359 359 361 363 364 362 361 361 361 361 361 362 361 361
354 354 352 350 351 355 355 355 360 363 361 362 364 365 366 365 365 364 363 365 366 367 368 369 368 368 367 367 366 365 364 364 365 365 365 364 363 363 362 362 362 362 362 362 363 363 362 361 361 361 360 360 362 364 363 362 361 361 361 361 362 362 361
361 359 356 355 356 358 357 359 363 364 367 369 367 365 366 365 365 365 363 365 365 365 367 367 367 368 367 368 367 365 366 365 364 364 365 364 362 362 362 361 362 363 365 364 362 362 362 361 361 362 362 361 361 363 364 362 362 362 361 361 362 362 362
361 359 359 358 360 363 365 367 369 369 370 371 366 363 365 366 365 365 365 364 364 364 364 365 366 366 366 368 368 366 366 366 363 362 363 363 361 360 361 361 361 363 364 365 364 362 361 361 361 361 363 362 361 361 363 363 362 362 361 362 362 363 362
353 352 355 359 364 370 371 371 378 380 374 370 366 363 364 364 365 366 366 365 364 363 363 364 365 365 366 368 368 367 365 365 364 362 361 362 361 360 360 360 360 361 362 364 365 363 361 362 362 361 362 363 363 362 362 363 363 362 362 362 362 363 363
344 343 347 356 364 371 371 371 382 387 379 371 367 364 363 363 364 366 366 364 365 363 362 363 364 364 365 367 368 368 366 365 365 362 361 361 361 360 359 359 360 360 360 363 364 364 361 361 362 363 362 363 364 364 363 363 363 363 363 362 362 363 363
339 339 342 351 358 366 372 376 383 388 385 379 371 366 364 362 364 366 365 364 364 364 363 362 363 364 363 365 368 368 366 366 365 363 362 361 361 361 360 359 360 360 360 361 362 363 363 361 361 363 364 364 364 365 365 364 364 363 362 362 362 362 362
337 339 343 351 358 363 369 375 379 384 386 382 375 369 364 363 363 364 363 363 363 363 363 362 364 364 363 364 367 368 367 366 365 365 363 361 361 362 360 360 360 361 360 360 360 362 363 362 361 361 364 365 366 367 367 366 364 364 363 362 361 360 361
337 341 343 352 362 368 367 367 373 377 376 372 370 367 364 365 362 361 361 361 362 362 362 362 363 365 364 364 366 367 368 367 367 366 365 364 363 362 362 362 361 361 361 360 360 361 362 363 362 361 362 365 367 368 368 367 366 364 365 364 362 361 360
336 336 337 344 356 362 360 359 366 370 367 364 364 363 362 362 362 361 361 359 360 361 361 360 361 364 366 365 365 368 369 368 368 367 367 366 364 363 364 363 362 362 362 361 360 360 362 363 363 362 361 363 366 367 368 368 368 366 366 366 364 362 361
336 337 339 338 339 348 358 365 368 366 362 360 361 359 359 358 359 361 360 358 359 360 360 360 360 362 365 366 366 368 369 369 369 369 368 368 366 365 365 365 364 363 362 362 362 361 362 364 364 364 362 362 364 367 368 368 368 368 367 366 365 364 362
335 336 337 339 345 357 367 371 366 361 357 354 353 353 353 356 358 359 358 358 359 359 359 360 359 360 365 367 366 368 370 370 370 370 369 369 369 368 366 366 366 365 363 363 363 362 362 363 364 364 364 363 363 365 367 367 367 368 368 367 366 365 363
339 343 343 350 361 368 370 365 359 360 360 358 354 350 347 349 352 356 357 357 357 358 360 362 361 360 364 368 367 367 370 371 371 371 371 370 370 370 368 368 367 367 366 364 363 363 362 363 364 365 364 365 364 364 365 366 366 367 368 367 367 366 365
351 355 353 355 360 365 368 366 365 365 364 361 358 354 350 348 347 349 354 356 356 358 359 362 364 363 363 367 368 367 369 371 371 372 371 371 372 372 370 369 369 369 368 366 364 365 364 364 364 364 364 365 365 365 364 364 365 366 366 367 367 366 366
354 354 352 354 359 363 366 365 363 362 361 360 357 356 355 354 353 353 357 358 357 358 359 362 365 364 364 367 368 367 369 370 371 373 373 373 374 374 372 371 370 370 369 367 366 365 365 365 364 364 364 365 366 367 366 364 365 365 365 366 367 367 366
354 354 352 355 360 361 360 360 361 362 364 364 367 366 362 360 359 360 362 362 359 359 361 361 363 364 365 367 369 368 368 369 371 373 374 374 375 375 374 372 371 371 370 369 367 365 364 365 366 365 366 365 366 367 367 366 365 364 365 366 366 367 366
351 352 352 354 358 358 358 360 364 367 366 366 369 369 366 365 366 364 364 364 362 360 361 362 361 362 363 366 367 368 368 369 371 373 375 375 375 375 374 372 371 371 371 370 368 366 365 365 366 367 367 367 367 367 367 367 367 365 366 366 365 365 365
351 352 352 352 355 359 359 360 364 366 365 365 366 367 367 367 366 365 365 364 363 361 360 360 361 361 362 363 365 368 370 368 370 374 375 375 375 375 374 373 372 371 371 371 370 368 367 366 365 367 368 368 368 367 367 366 366 366 366 365 364 363 363
351 353 354 352 355 359 358 358 363 364 362 363 364 366 370 371 368 366 365 365 364 362 359 360 362 362 363 363 363 366 370 371 371 374 375 375 376 375 374 373 373 371 372 371 371 370 369 368 367 366 367 367 367 367 367 366 366 366 366 365 364 363 362
352 353 354 353 355 358 357 358 362 363 362 364 364 363 368 373 373 367 363 364 364 361 358 360 364 363 364 365 364 364 368 372 373 373 375 375 376 376 375 374 373 373 372 372 371 372 371 371 370 368 368 367 367 368 367 367 367 366 365 365 364 363 363
351 352 353 353 355 356 356 358 362 362 361 363 363 363 367 372 373 367 366 370 371 367 363 361 363 365 366 366 366 365 367 371 374 374 374 375 375 375 376 374 373 373 373 372 372 372 372 372 372 370 370 369 368 368 367 367 367 367 366 365 364 363 363
350 352 353 353 355 357 356 358 360 359 359 360 361 362 365 368 371 372 373 373 372 372 371 367 364 367 368 367 369 368 367 370 373 373 374 374 375 375 376 374 373 373 373 373 373 372 373 373 372 372 371 370 369 368 367 366 366 367 367 366 365 364 363
350 352 352 353 355 356 355 357 359 357 357 359 359 361 362 364 367 369 369 369 369 371 372 370 368 369 368 368 369 369 368 369 371 372 373 372 372 373 374 373 373 373 373 374 373 372 372 372 371 371 371 370 369 368 367 366 365 365 366 367 366 365 364
350 352 353 354 355 355 355 358 358 357 357 358 359 360 361 362 363 364 365 366 367 368 370 371 370 370 371 371 370 370 370 369 370 372 372 371 371 372 372 372 372 372 372 372 371 371 371 370 370 369 368 368 368 368 367 367 366 365 365 366 366 364 363
351 353 353 354 354 354 355 356 357 357 357 358 358 358 359 361 362 362 363 364 365 365 367 369 368 369 369 369 369 370 370 369 369 371 370 371 371 370 370 371 370 370 370 370 369 369 368 368 368 368 367 366 366 366 367 367 366 364 362 360 360 360 358
351 352 353 353 354 353 353 354 355 356 356 356 356 357 357 358 359 359 361 363 364 365 366 366 367 367 367 367 367 368 368 368 368 368 368 370 370 368 368 368 367 368 368 367 367 366 366 367 367 366 365 366 365 366 368 367 363 358 354 354 356 356 355
351 353 353 353 351 351 351 352 353 354 353 354 356 356 357 357 357 358 359 361 364 366 366 366 366 367 367 367 367 367 367 367 368 367 366 368 369 368 368 367 367 367 367 364 363 363 362 363 363 361 362 362 361 360 360 358 354 352 352 353 353 353 352
350 352 353 352 351 352 351 350 351 352 351 353 355 355 355 355 354 354 356 358 361 363 364 366 368 369 369 368 365 365 366 367 368 368 366 366 367 368 367 368 365 363 362 361 360 359 358 357 356 355 355 354 353 351 350 349 347 347 349 349 349 348 348
349 351 352 352 353 354 352 352 352 351 351 353 353 352 352 352 351 351 353 355 357 358 358 360 363 364 365 365 363 362 363 364 365 366 365 364 364 363 364 366 365 364 362 357 352 351 351 350 348 348 347 347 345 343 342 341 340 340 340 340 340 339 339

ECMWFFLT1_925_thetae_033.txt.gz
Theta_e
353 355 355 355 356 357 357 357 355 354 355 357 357 357 358 358 357 357 357 357 357 357 357 356 357 358 357 356 356 356 356 356 357 357 356 355 354 355 355 354 354 356 357 356 356 356 355 355 355 356 356 356 357 359 359 360 361 359 359 359 359 358 358
352 353 354 354 356 358 358 356 355 353 354 358 359 358 358 358 357 358 358 357 357 357 358 357 357 358 358 357 356 356 357 357 357 358 357 356 356 357 357 356 355 355 356 356 356 357 357 357 356 356 357 357 357 359 360 360 360 360 359 359 359 359 358
351 352 353 354 355 358 358 356 354 354 354 358 359 359 359 358 358 358 358 358 358 358 358 358 358 358 358 358 357 357 357 358 358 358 358 357 357 358 358 358 356 355 355 356 356 357 357 359 359 358 357 358 358 359 359 360 359 359 359 359 360 359 358
351 351 352 353 355 356 358 357 355 354 354 357 359 359 359 359 358 358 358 359 358 358 358 359 358 358 358 358 358 358 358 358 358 358 358 358 357 357 358 359 358 356 356 355 357 357 357 359 359 359 358 357 358 358 359 359 359 359 358 358 360 360 359
351 351 352 352 353 354 356 357 356 354 354 356 358 359 359 359 359 359 359 359 359 359 359 359 359 359 359 359 359 358 358 358 359 358 358 358 358 357 356 357 358 359 358 357 357 358 359 358 359 359 358 357 358 358 358 357 358 358 357 357 359 360 360
351 351 352 352 352 352 354 355 355 354 355 355 356 358 359 360 360 360 361 361 360 360 359 359 360 360 359 359 359 359 359 359 359 358 358 358 358 358 356 355 356 357 359 359 359 359 360 360 359 359 359 357 357 357 357 357 357 358 358 357 358 359 360
350 352 352 352 352 352 352 352 354 354 355 355 356 358 359 360 361 361 361 362 362 361 360 360 360 360 360 360 359 359 359 359 359 358 358 358 358 358 357 355 354 354 356 358 359 360 360 361 361 359 359 358 358 358 357 357 357 358 359 359 359 360 360
348 351 351 351 352 352 352 352 352 353 354 356 357 360 360 360 361 361 361 362 363 362 362 361 361 360 361 361 360 360 359 359 359 358 358 358 358 358 356 356 355 354 354 356 359 360 359 360 361 361 360 358 358 358 358 358 359 359 359 360 359 360 361
346 349 350 351 350 351 352 352 351 352 354 355 356 359 361 361 362 362 362 362 363 364 363 362 362 361 361 361 361 360 360 360 359 359 359 359 358 358 357 356 355 355 355 355 357 359 360 359 360 360 360 359 358 359 359 359 359 359 360 360 360 360 360
343 348 351 350 350 351 352 351 352 353 355 354 355 356 360 362 362 362 362 362 362 363 363 363 363 362 361 361 361 361 360 360 360 359 359 358 358 358 357 356 356 355 355 355 355 358 360 360 359 358 360 361 359 358 358 359 360 360 361 361 361 360 360
344 348 352 351 350 353 352 352 355 356 357 356 355 356 359 362 363 362 362 363 363 363 363 364 364 363 362 361 361 362 361 361 361 360 359 359 358 358 357 357 357 356 355 355 356 357 359 361 361 358 359 361 361 360 358 359 360 361 361 361 361 361 360
345 347 352 353 351 352 351 353 357 359 360 359 356 357 359 361 363 362 361 362 363 365 365 365 365 364 363 362 362 362 362 362 361 361 360 359 358 358 358 357 357 357 356 356 356 357 358 360 361 360 358 359 360 361 360 359 359 360 361 361 361 361 360
346 345 350 352 350 352 354 356 358 359 362 360 357 356 358 361 362 362 362 361 362 366 367 366 367 366 365 363 363 362 362 362 362 361 360 359 358 357 357 357 357 357 358 357 356 358 358 359 360 360 359 358 358 360 361 360 359 360 361 362 361 361 361
347 346 349 351 349 353 356 357 359 360 360 357 355 355 355 359 362 362 362 362 361 365 367 368 368 368 367 365 364 363 363 362 362 361 360 359 358 357 356 356 356 356 357 358 357 357 358 359 360 361 360 359 358 358 360 361 361 360 361 362 361 361 361
348 348 350 350 351 355 357 357 360 361 359 357 354 354 355 358 362 363 362 363 363 364 366 368 369 368 368 366 365 364 363 362 362 361 360 360 359 358 357 356 356 356 356 358 358 358 358 359 360 361 361 360 359 358 359 361 362 361 361 361 361 361 360
351 353 354 353 354 357 357 359 361 360 361 359 355 355 358 361 363 364 363 363 363 364 365 366 368 368 368 367 366 365 363 363 362 361 360 361 360 359 358 357 358 358 357 357 358 358 358 358 359 360 361 361 360 359 359 359 361 361 361 361 360 360 360
351 352 353 355 358 359 359 362 365 362 362 363 359 359 362 364 364 364 364 364 364 363 364 365 367 368 368 368 367 365 364 363 362 361 361 361 361 360 359 359 358 358 358 358 359 359 359 359 359 360 361 361 361 361 360 360 360 361 361 361 360 360 360
356 361 362 365 370 371 368 370 373 370 365 362 362 362 362 363 365 365 365 365 365 364 363 363 365 366 367 367 367 366 366 364 362 362 361 360 361 361 360 359 359 358 358 358 359 361 361 360 360 360 360 360 360 361 361 361 360 360 360 361 361 361 360
356 368 373 377 380 377 374 375 380 378 370 364 364 364 363 363 364 365 365 364 365 365 364 363 363 364 365 366 367 367 367 366 364 363 363 361 360 360 360 360 358 358 358 358 360 361 362 362 361 360 360 360 361 361 361 361 361 361 360 360 361 361 361
353 357 364 369 373 374 376 381 381 374 367 365 366 365 363 363 363 364 364 365 364 364 364 364 363 363 365 365 366 367 367 367 366 364 364 363 361 360 360 360 359 358 358 359 359 360 362 363 362 361 361 361 361 361 361 361 361 361 361 361 361 361 361
361 361 365 369 372 374 377 380 380 372 364 362 362 361 362 363 363 363 363 362 364 363 363 363 363 363 365 364 364 366 367 367 367 365 365 364 363 362 361 361 361 359 359 359 359 360 361 362 362 362 361 360 361 361 362 361 361 362 362 362 362 361 362
362 366 368 369 371 374 373 370 370 368 361 356 355 354 355 358 359 361 362 361 361 362 361 363 363 362 364 365 364 365 367 367 367 366 366 365 364 364 362 361 362 361 360 360 359 359 359 360 361 362 362 361 361 361 361 362 362 363 363 363 363 363 363
358 364 365 363 363 365 363 361 361 362 358 356 357 357 356 357 357 358 359 360 360 360 361 361 362 362 363 365 365 365 366 368 367 366 366 366 366 365 364 362 362 362 361 361 360 360 360 360 360 361 362 362 362 361 361 361 362 364 364 365 365 365 364
353 358 359 357 357 358 359 361 363 364 365 365 365 366 365 364 362 361 361 361 359 358 359 361 362 361 362 364 366 365 366 368 368 367 367 366 366 366 365 364 363 363 363 362 361 361 360 360 360 360 361 361 362 362 362 361 361 362 364 365 366 366 366
353 354 354 353 357 359 360 364 365 365 366 364 363 366 367 367 365 364 365 365 363 359 357 358 360 362 362 364 365 366 367 368 368 368 368 368 367 367 367 366 365 364 364 364 363 362 361 361 361 361 361 361 361 362 362 362 362 361 362 364 365 367 367
356 355 352 353 357 359 359 363 364 363 363 361 362 365 367 369 369 367 365 365 365 364 361 358 359 360 360 362 364 366 367 368 369 369 369 368 368 368 368 368 367 366 366 366 365 364 363 362 361 362 361 361 361 362 362 363 363 362 362 363 364 365 366
354 353 352 354 357 357 357 360 361 361 360 362 363 363 363 367 371 372 369 364 363 364 362 360 360 359 359 361 363 366 368 368 370 370 369 369 369 369 369 370 369 368 368 367 367 366 365 364 363 362 363 363 362 362 362 362 363 363 364 363 363 364 364
352 353 353 354 356 355 356 359 361 360 362 363 362 360 362 365 369 372 372 368 367 366 363 362 363 360 359 362 363 365 367 368 369 370 370 370 370 370 371 371 370 370 369 368 368 368 366 366 364 363 364 364 364 364 363 363 363 363 364 364 364 364 364
352 353 353 354 355 355 356 359 361 359 360 361 360 360 362 364 368 372 372 370 372 370 365 363 365 362 360 362 365 367 368 368 369 370 371 371 371 371 372 373 372 371 370 369 369 369 368 367 366 365 364 363 364 365 366 365 365 365 365 365 365 365 365
351 351 352 352 355 355 354 357 359 358 357 358 359 360 361 363 368 372 372 370 371 371 367 365 368 367 364 363 365 368 368 369 369 371 372 372 373 372 373 373 373 372 371 370 370 369 369 368 367 366 365 364 364 365 366 367 367 367 366 366 366 366 365
350 351 352 352 354 354 354 356 358 357 357 358 359 360 361 363 365 367 368 368 368 370 369 368 370 371 367 364 366 368 369 369 370 371 372 373 373 373 373 373 373 373 372 371 370 370 370 370 369 368 368 366 366 366 366 367 368 367 367 368 367 367 366
350 350 351 353 355 354 354 356 356 357 358 358 357 358 359 361 362 363 365 366 366 368 368 369 372 373 370 367 366 368 370 371 371 372 373 373 374 374 374 374 374 373 373 373 372 371 371 371 371 371 370 369 368 368 367 366 367 367 368 368 367 366 364
351 349 350 353 355 353 353 355 356 357 358 356 355 356 357 359 361 362 362 363 364 366 367 369 371 372 372 370 368 369 372 373 373 374 374 374 375 375 375 375 374 374 374 373 373 373 372 372 372 372 371 371 370 370 369 368 367 366 365 364 364 364 362
351 350 350 352 353 353 352 353 355 357 356 355 355 356 356 357 358 360 361 363 363 365 366 367 368 370 371 371 370 369 370 372 374 375 375 375 375 375 375 376 375 374 374 373 374 374 373 372 372 371 371 370 370 370 369 367 364 362 360 359 360 360 359
349 349 350 352 353 352 351 351 353 354 353 352 353 353 355 356 357 358 361 362 363 365 366 366 366 368 369 369 369 369 369 370 374 375 374 374 374 374 374 374 374 374 373 371 372 372 372 372 371 370 369 368 368 368 367 362 357 357 357 357 356 356 355
348 348 349 351 352 352 350 350 352 352 350 351 352 353 354 355 356 357 358 359 361 364 365 365 366 368 368 368 368 369 368 368 371 373 373 373 372 370 369 368 370 372 369 366 366 367 368 369 367 366 366 364 361 361 360 356 353 352 351 351 350 350 349
347 348 348 350 352 354 351 350 351 351 351 351 352 352 353 354 354 354 355 356 357 359 361 364 368 368 367 366 367 369 369 369 369 370 371 371 370 367 362 359 359 360 359 357 358 359 360 360 359 358 358 357 354 352 349 346 345 343 342 341 341 340 341
346 348 348 349 352 354 353 352 352 351 351 351 350 350 350 350 350 352 353 353 354 356 359 362 364 364 363 363 365 366 367 367 367 366 367 369 368 363 357 350 346 346 347 348 349 349 348 348 347 345 344 343 343 342 339 337 336 335 335 335 335 334 335

ECMWFFLT1_925_thetae_036.txt.gz
Theta_e
352 353 354 355 355 354 354 353 351 351 352 351 351 352 352 352 351 352 352 353 354 353 353 354 354 354 354 354 354 354 353 353 353 353 353 353 354 354 353 352 352 351 351 350 350 351 352 352 352 353 354 355 355 355 354 354 355 356 358 358 357 358 358
352 354 354 354 354 354 355 353 351 352 352 351 352 352 351 351 352 352 351 353 353 353 353 354 353 354 354 354 354 353 353 353 353 353 354 353 353 353 353 352 352 351 351 351 350 350 352 352 353 353 353 354 355 355 355 354 355 356 359 360 358 358 359
352 353 355 354 355 355 354 354 352 352 352 352 352 352 352 352 352 353 352 352 353 353 352 353 353 354 354 353 353 353 353 353 352 353 353 354 354 353 353 352 352 352 352 352 351 351 351 352 352 353 353 354 355 355 355 355 354 355 358 360 359 358 359
353 354 355 354 355 355 354 354 352 351 352 353 353 353 353 353 353 353 353 352 353 353 353 353 353 354 353 353 353 353 353 353 353 353 353 354 354 354 353 352 352 352 352 352 352 351 352 352 352 353 353 353 354 355 355 355 354 355 357 359 360 358 358
354 354 356 355 355 354 354 354 352 352 352 353 353 353 354 354 354 354 353 353 353 354 353 353 353 354 354 353 353 353 353 353 353 353 353 353 354 354 354 353 352 352 351 351 352 353 354 354 353 354 354 353 354 354 355 356 355 356 356 358 360 360 358
355 355 356 355 354 355 354 353 353 351 353 353 354 354 355 355 354 354 354 355 354 354 354 354 354 354 355 354 354 353 354 354 353 354 354 354 353 355 354 354 353 353 352 352 352 354 355 355 355 354 355 354 355 355 355 356 356 356 357 358 359 360 359
353 355 356 355 354 355 354 353 353 352 352 353 353 355 355 355 356 355 355 355 355 355 354 355 355 354 355 355 355 355 354 354 355 354 355 354 354 355 354 354 354 353 353 352 352 354 356 356 356 355 355 355 355 356 356 356 356 357 357 358 359 359 359
352 355 354 355 354 354 354 353 353 352 352 353 354 355 355 355 356 356 356 356 355 356 355 355 356 355 355 355 355 356 355 354 355 354 355 355 356 356 355 355 355 355 355 355 354 354 354 356 356 356 356 356 357 357 357 357 357 356 358 358 359 359 358
352 353 353 353 353 353 354 354 353 352 352 353 355 356 356 356 357 356 356 357 356 357 356 355 356 355 355 356 355 356 356 355 356 356 356 356 356 356 356 355 355 356 357 357 356 355 354 354 355 355 356 357 357 357 357 357 356 356 357 357 358 357 358
352 352 351 353 352 353 355 354 354 354 352 353 354 356 357 356 357 357 357 357 357 357 357 356 357 357 356 356 356 356 356 356 356 356 356 357 356 356 356 356 356 355 356 357 357 357 355 354 355 355 356 357 357 357 357 357 357 356 357 357 356 357 356
351 352 351 352 351 352 354 355 356 356 353 353 353 355 357 356 358 358 357 358 357 357 357 356 357 356 357 357 356 356 356 356 357 357 356 356 356 357 356 356 356 355 355 355 356 357 358 357 356 357 357 357 357 357 358 358 358 357 357 357 356 357 356
350 351 351 353 352 352 353 355 357 357 354 353 353 354 356 356 358 358 357 358 359 358 359 358 357 358 357 357 357 357 357 356 356 357 357 357 356 356 357 356 356 355 355 354 354 355 356 357 358 358 358 358 357 358 358 358 358 357 357 357 357 357 357
350 350 350 352 351 352 354 354 356 358 355 353 352 354 355 355 357 358 358 359 359 360 360 358 359 358 358 358 358 357 357 357 357 357 356 357 356 357 357 356 356 356 355 355 354 354 354 355 357 357 357 358 357 358 359 358 358 358 357 357 357 358 358
350 349 350 352 351 353 355 354 355 356 355 353 353 354 355 356 357 357 358 360 359 360 360 360 360 359 359 359 358 358 358 357 358 357 357 357 357 357 356 356 356 356 355 355 354 354 354 353 355 356 357 357 357 357 358 359 359 359 358 358 358 358 358
350 348 349 349 350 352 353 353 354 355 355 354 352 353 355 357 358 358 359 359 360 360 361 361 361 361 360 360 359 359 359 358 358 357 357 358 357 357 356 356 356 356 355 355 354 354 354 353 353 355 356 357 357 356 357 358 359 358 358 358 358 359 359
348 347 348 349 350 351 352 353 354 353 355 354 352 352 354 356 359 360 359 360 360 361 361 361 362 361 361 361 360 360 359 359 359 359 358 358 358 357 357 356 356 356 356 355 355 354 354 354 353 354 355 356 357 358 357 358 358 358 358 358 358 358 359
345 347 347 347 348 350 351 352 354 354 356 355 353 352 353 355 358 360 360 360 360 361 362 362 362 362 362 361 361 360 360 360 359 359 359 359 358 358 358 357 357 356 356 356 355 355 355 354 354 354 355 355 356 357 357 358 357 357 357 358 358 358 358
344 347 347 348 350 351 352 352 353 356 356 355 353 353 353 354 357 358 360 361 360 361 362 363 364 363 363 363 363 362 362 360 360 360 359 359 359 359 358 358 357 356 356 355 355 355 355 355 354 354 354 356 356 357 357 357 357 357 357 357 358 358 358
350 351 350 351 350 351 351 351 352 354 354 354 354 354 354 355 356 358 359 360 361 360 361 363 365 365 364 364 363 363 362 362 361 361 360 360 359 359 359 358 357 356 355 355 355 355 355 355 356 355 355 355 356 357 357 357 357 357 357 357 357 358 359
366 366 364 363 363 364 366 365 361 355 351 353 355 353 354 355 356 359 359 360 361 360 360 363 363 366 365 365 365 365 364 363 363 361 361 361 360 359 359 359 358 357 356 355 355 355 355 355 356 356 356 355 355 357 357 357 358 357 357 358 357 358 359
366 367 368 369 372 376 377 378 372 360 353 353 354 355 355 356 357 358 359 360 361 361 361 362 362 364 366 366 367 366 365 365 364 362 362 361 360 360 359 359 358 357 357 356 355 355 355 355 356 356 356 356 356 356 356 357 357 357 358 358 358 358 358
360 361 362 364 368 370 371 370 366 360 357 356 358 358 357 358 359 360 360 360 362 362 361 362 362 363 364 365 366 366 365 365 365 363 363 362 361 360 359 359 359 358 358 357 356 356 356 356 356 356 356 357 357 356 357 357 357 358 358 359 359 359 359
357 359 362 362 363 365 363 363 362 361 361 363 365 365 363 360 360 360 362 362 362 363 363 362 362 362 363 364 365 366 366 366 366 364 363 362 361 360 360 359 359 359 358 358 357 357 356 356 357 357 357 358 358 357 358 357 357 358 358 358 359 359 360
355 358 360 360 361 360 360 360 361 362 362 363 363 364 366 366 363 361 362 361 361 362 362 362 363 362 362 362 363 365 366 366 366 366 364 363 362 361 360 360 359 359 358 358 357 357 356 356 356 357 357 359 359 359 359 358 358 358 359 359 360 359 360
355 357 356 357 359 359 358 360 361 360 361 360 359 360 362 366 366 365 366 364 363 361 361 361 361 362 362 362 362 364 365 365 366 366 365 365 363 363 362 361 359 359 359 358 358 358 357 357 356 356 358 358 358 359 360 360 359 359 359 359 360 360 360
354 356 355 355 357 357 357 359 360 360 359 358 358 359 359 361 365 367 368 368 366 364 361 361 361 361 362 363 362 362 363 364 366 365 365 366 364 364 363 362 361 360 360 359 359 358 358 357 357 357 357 357 358 359 359 360 360 360 360 359 359 360 360
351 353 354 355 356 356 357 358 358 359 358 358 359 359 359 361 365 368 371 369 368 367 364 363 363 362 361 360 362 363 363 364 365 365 365 366 364 364 364 363 362 361 361 360 360 359 359 359 357 358 357 357 358 358 358 359 359 360 360 360 360 360 360
350 351 352 353 355 355 355 356 356 356 358 358 359 360 361 364 366 369 371 369 369 370 368 365 364 363 361 360 359 361 364 363 363 365 366 365 365 365 364 364 364 363 362 361 361 360 360 360 359 359 359 358 358 358 359 359 359 359 360 360 361 361 360
349 350 352 352 354 354 354 355 355 355 357 357 357 360 360 361 364 366 366 366 367 368 368 367 364 363 363 361 359 361 363 363 364 365 365 366 366 365 364 365 364 364 363 362 362 362 361 361 361 360 360 360 360 360 360 360 360 361 360 361 361 361 361
347 349 350 351 353 353 353 353 355 356 356 356 355 356 358 359 361 362 363 363 365 366 367 368 366 364 364 363 360 361 363 364 365 365 365 366 366 366 366 365 365 366 364 364 364 364 364 363 363 363 362 361 362 361 361 362 362 362 362 361 362 361 362
347 348 349 349 351 353 352 353 355 355 355 354 354 355 356 356 358 359 361 361 363 364 366 367 368 369 368 364 361 363 364 365 365 366 367 368 367 367 367 366 367 367 366 366 366 365 365 365 364 365 364 363 363 363 363 362 363 363 363 364 364 363 363
346 346 346 348 350 352 352 352 353 354 353 353 352 353 354 355 356 357 358 360 361 363 364 366 368 371 372 367 363 364 365 366 367 368 369 369 368 368 367 368 368 368 367 367 367 366 366 366 365 365 365 365 364 364 364 364 363 364 365 366 365 365 365
346 345 345 347 349 351 351 350 351 352 351 351 351 352 352 354 354 354 356 359 362 362 363 364 366 369 371 368 364 365 367 367 367 369 370 369 370 369 369 369 369 369 369 368 368 368 367 367 367 367 366 366 366 365 366 366 365 364 365 366 365 365 365
345 345 345 346 348 351 351 349 350 351 350 349 350 351 352 353 354 355 357 359 361 362 363 364 364 367 371 369 367 367 368 368 369 370 371 371 371 370 371 371 370 370 370 370 369 369 369 368 367 368 368 367 367 367 367 366 365 363 363 362 362 362 362
341 342 345 346 347 350 351 350 349 351 349 348 350 350 351 353 354 354 355 357 359 362 364 364 364 366 369 370 370 370 370 370 371 371 372 372 369 367 367 369 370 371 371 370 371 370 370 369 369 369 369 368 368 368 367 365 364 363 361 361 360 359 358
338 339 343 345 346 349 351 351 350 350 350 349 349 349 350 351 352 353 353 354 357 360 362 364 365 366 367 369 371 372 372 372 372 372 372 370 366 361 359 360 364 368 367 367 368 371 371 371 370 370 369 368 368 368 367 366 364 361 358 357 357 355 354
338 338 342 344 344 348 351 351 350 350 349 348 348 349 349 350 350 350 352 355 357 359 362 364 365 366 365 367 369 371 373 374 373 373 371 366 363 361 357 353 353 356 357 360 363 367 369 369 370 369 368 366 365 364 362 360 358 355 354 353 351 348 345
338 338 342 343 343 347 350 351 350 349 348 348 347 347 348 349 349 349 352 356 358 359 360 362 362 362 363 365 366 368 370 372 373 371 367 361 358 358 356 351 345 342 344 349 354 357 360 360 361 360 359 359 359 359 356 351 348 346 345 344 341 339 337

ECMWFFLT1_925_thetae_042.txt.gz
Theta_e
348 349 349 349 349 348 349 348 347 346 347 348 349 349 350 350 350 351 351 351 352 351 351 351 353 353 352 352 352 352 352 352 352 352 352 352 352 351 351 351 351 351 351 351 350 351 351 351 350 349 350 349 349 349 348 348 349 349 350 350 348 347 348
348 348 349 350 350 348 348 348 346 346 347 347 349 349 349 350 350 351 351 352 352 351 352 352 352 353 353 353 353 352 353 353 352 352 352 352 352 352 352 351 351 351 351 351 350 351 351 351 350 349 350 350 349 349 348 348 348 349 350 350 350 349 349
346 347 348 349 350 350 349 348 347 347 347 347 348 349 349 349 350 351 351 352 351 352 352 352 352 353 353 353 353 353 353 353 353 352 352 352 352 351 351 351 351 351 351 351 351 350 351 350 350 350 350 350 350 348 348 348 348 349 350 351 351 350 349
346 346 347 348 349 350 350 349 348 347 347 347 348 349 349 349 350 351 351 351 352 351 352 352 352 352 353 353 353 353 353 353 353 353 352 352 352 351 352 351 352 352 351 351 351 350 350 350 349 350 350 350 349 349 348 348 348 348 349 350 351 351 350
346 345 347 347 349 349 349 350 348 347 347 347 347 348 348 349 350 351 351 351 352 352 352 352 352 353 352 353 353 353 353 353 353 353 352 352 352 352 352 352 352 352 351 351 351 350 350 349 349 349 349 350 350 349 349 349 348 348 348 350 351 352 351
345 345 347 347 347 349 349 349 348 347 347 348 347 348 348 349 350 350 352 351 351 351 352 352 352 352 352 353 353 353 353 353 353 352 353 352 352 352 351 352 352 352 351 351 351 351 350 350 349 348 348 349 349 350 349 349 349 349 349 350 351 351 352
345 345 346 346 347 348 348 348 348 347 347 348 347 348 349 348 350 350 351 352 351 352 352 352 352 353 353 353 353 353 353 353 353 352 352 352 352 352 352 352 351 351 352 351 351 351 351 350 349 348 348 348 349 349 348 349 348 349 349 350 351 352 352
346 346 345 346 347 347 348 348 348 348 348 347 347 348 348 348 349 350 351 352 352 352 352 352 352 352 353 353 353 353 353 353 353 353 353 353 352 352 352 352 352 351 351 351 351 351 351 350 350 349 349 348 348 348 348 348 348 349 349 350 351 352 352
344 345 344 346 345 345 348 348 348 349 348 348 348 348 348 349 349 350 350 350 351 352 352 352 352 352 353 353 353 353 353 353 353 353 353 352 352 352 352 352 352 352 352 351 351 351 351 351 350 350 350 349 349 348 348 348 348 349 349 349 351 351 351
344 345 345 346 346 347 348 348 349 350 348 348 348 348 348 349 349 349 350 351 351 352 352 352 352 352 352 353 353 353 353 353 353 353 352 353 352 352 352 352 352 352 351 351 351 351 350 351 350 351 351 351 350 350 348 349 349 349 349 349 350 351 351
343 345 345 346 346 347 349 350 352 352 350 348 348 348 348 348 349 349 350 350 350 351 352 352 352 352 352 352 353 353 353 353 353 353 353 353 352 352 352 352 352 352 352 352 351 351 351 350 351 351 351 351 351 351 349 349 350 350 350 350 350 351 351
341 345 346 346 347 348 350 352 354 353 351 349 348 349 348 348 349 349 349 350 350 350 351 351 352 352 352 352 352 353 353 353 353 352 352 352 352 352 352 352 352 352 352 351 351 351 351 351 351 351 351 351 351 351 350 350 350 350 350 351 351 352 352
342 342 345 347 347 349 353 353 354 354 352 349 348 348 348 349 349 349 350 350 350 350 350 351 351 351 351 352 352 352 352 352 353 352 352 352 352 352 352 352 352 351 351 352 351 352 351 351 352 351 351 351 351 351 351 350 351 350 350 351 351 352 352
343 341 343 347 348 350 354 354 354 355 352 349 349 349 349 349 349 349 350 349 349 350 350 351 351 351 351 352 351 352 352 351 352 352 352 352 352 352 351 352 352 351 351 351 351 351 351 351 351 352 351 352 351 351 351 351 351 351 351 351 352 352 352
340 341 342 345 349 351 353 354 355 354 353 351 349 349 349 349 349 349 349 349 350 350 351 350 351 351 351 351 351 351 351 352 352 352 351 352 351 351 351 351 351 351 351 351 351 351 351 351 351 351 352 352 352 352 351 352 352 352 352 352 352 352 353
335 342 343 345 348 350 351 353 354 353 354 353 349 349 350 350 350 350 350 350 350 350 350 351 351 351 351 351 351 351 352 351 352 351 352 351 351 351 351 351 352 351 351 352 352 351 352 352 352 352 352 352 352 352 352 352 352 351 351 352 352 352 353
338 344 345 345 348 350 351 353 354 354 355 354 350 350 350 350 350 351 350 351 351 350 351 350 351 351 351 351 351 351 351 351 351 352 352 352 352 351 351 352 351 352 352 352 352 352 352 352 352 352 352 352 352 353 353 353 353 352 352 352 352 353 353
344 346 346 348 348 351 352 351 353 354 353 351 350 349 350 350 351 351 351 351 351 351 351 351 351 351 351 352 351 351 352 351 351 352 352 352 352 351 352 352 352 352 352 352 352 352 352 352 352 352 352 352 352 352 353 353 353 353 353 353 353 353 353
348 347 346 349 350 351 352 351 352 353 351 349 349 349 350 350 351 351 351 352 352 352 352 352 352 351 352 352 352 352 352 352 352 352 353 352 353 353 353 353 352 353 352 352 353 353 353 353 352 352 352 352 352 352 352 352 352 352 353 353 353 353 354
348 348 347 350 350 350 352 351 352 350 349 349 349 349 350 351 352 352 352 353 352 353 353 353 353 353 353 352 352 353 352 353 352 352 353 353 353 353 353 353 353 353 353 353 353 353 353 353 353 353 353 353 352 352 351 352 352 351 352 352 352 352 353
354 351 352 352 351 351 353 354 354 351 349 349 350 350 351 351 352 352 352 353 353 354 354 354 354 353 354 353 353 353 353 353 354 353 353 353 353 353 354 353 353 353 353 354 353 354 353 353 353 353 353 353 353 353 352 352 352 351 351 351 351 351 352
362 355 354 353 353 355 354 353 352 350 350 349 349 350 350 351 352 352 353 354 354 354 354 354 355 354 354 355 354 354 354 354 354 354 354 354 354 354 354 353 354 353 354 354 354 353 354 353 354 354 353 353 353 353 352 352 352 352 351 351 351 351 351
360 359 357 353 351 350 348 347 348 349 350 350 350 350 350 351 352 352 353 353 354 355 355 355 356 356 355 355 355 355 355 354 355 355 355 355 354 354 354 354 354 354 354 354 354 354 354 354 353 353 353 353 353 353 353 352 352 352 352 352 351 351 351
356 358 359 356 351 346 345 347 349 350 350 349 350 350 350 351 352 353 353 354 354 355 356 356 356 356 356 356 356 356 356 355 355 356 355 355 355 355 355 355 355 355 354 354 354 354 354 354 354 354 354 353 353 353 353 353 352 353 352 352 352 352 352
353 355 356 355 354 351 349 349 350 350 351 350 349 350 350 351 352 353 353 354 355 355 356 356 356 356 357 357 357 357 356 356 357 356 356 356 356 356 356 356 356 356 355 355 355 355 355 355 354 354 354 354 353 353 353 353 353 353 353 353 353 352 352
352 354 354 354 355 355 354 354 353 353 353 352 351 350 351 351 352 353 354 355 355 356 356 356 357 356 358 357 358 358 357 357 358 357 357 357 357 356 356 356 356 356 356 356 356 355 355 355 355 355 354 354 354 354 353 353 353 353 353 353 353 352 352
349 351 353 353 354 355 356 356 357 357 357 357 355 351 350 351 352 353 355 354 355 356 356 357 357 357 357 358 358 359 359 359 358 358 358 358 358 358 357 357 357 357 357 357 357 356 356 356 356 356 355 355 355 354 354 354 354 354 353 353 353 353 352
346 348 350 351 352 352 353 354 355 356 358 360 360 355 351 352 354 355 356 355 355 357 357 357 357 357 358 359 358 359 359 359 359 359 359 359 359 359 359 358 358 358 358 357 357 357 357 356 356 356 356 356 355 355 354 355 354 354 354 353 354 353 352
343 345 347 349 349 349 349 350 351 352 355 358 361 359 356 357 358 358 358 358 359 360 360 359 359 358 358 358 358 359 360 360 361 360 360 361 360 360 359 359 359 358 359 358 358 357 357 357 357 357 356 356 356 355 355 355 354 355 354 354 354 354 353
340 343 345 347 348 348 347 347 348 349 351 354 358 359 359 359 360 358 358 360 362 363 363 363 362 362 361 359 359 359 359 361 361 361 361 361 361 361 361 361 360 360 359 359 358 358 358 358 357 357 357 356 356 356 356 355 355 355 355 355 355 355 355
338 340 343 344 347 347 346 347 348 348 349 352 354 357 359 359 359 358 357 359 361 362 363 364 364 365 366 364 362 360 359 359 360 362 362 362 362 362 362 362 361 361 360 360 359 358 358 358 357 357 357 356 356 356 356 356 356 355 355 355 355 355 355
335 338 341 343 346 346 345 347 347 348 348 350 352 355 357 358 359 358 358 358 359 360 361 362 362 363 365 365 367 365 363 360 359 360 362 363 363 363 363 362 362 361 360 360 360 359 359 358 358 357 357 356 357 356 356 356 356 356 356 356 356 355 356
334 335 338 341 344 346 345 345 346 346 346 347 349 352 355 357 357 358 358 358 358 358 359 359 360 362 363 364 366 367 366 364 361 359 360 360 361 362 363 363 363 362 361 360 360 359 359 358 357 357 357 356 357 357 357 356 357 357 357 357 356 357 357
333 333 336 339 343 345 345 344 344 345 344 345 348 350 353 355 355 356 357 357 358 359 360 360 359 362 363 365 365 367 367 365 362 360 358 359 360 362 362 362 362 362 361 361 360 360 359 359 358 358 357 358 357 357 357 357 357 357 358 358 358 358 359
333 332 334 337 340 344 345 344 343 344 343 344 347 351 353 354 355 356 357 357 359 360 361 361 362 363 364 364 367 368 365 362 362 360 359 358 359 358 359 360 361 361 362 361 361 361 360 360 360 359 359 359 358 358 359 359 359 360 360 359 360 360 360
332 332 332 335 339 342 345 344 343 344 343 344 348 352 353 354 356 357 358 359 360 361 361 362 363 363 364 366 367 366 364 363 362 361 359 357 356 354 354 355 357 360 361 361 361 361 361 361 361 361 361 360 360 360 360 360 360 361 361 361 361 361 361
332 332 332 334 337 340 342 343 343 343 343 344 348 351 353 354 355 357 357 358 358 359 360 362 362 362 363 366 367 367 365 363 362 359 357 356 355 355 353 353 354 357 360 360 361 361 362 362 362 362 362 362 362 361 360 360 361 362 362 361 361 361 360
330 332 332 333 335 337 339 342 343 342 342 345 348 351 352 353 354 355 356 356 356 357 358 360 360 360 361 364 367 367 365 363 359 356 354 353 353 355 355 354 352 350 352 357 360 361 362 363 363 364 364 364 364 363 361 360 359 360 360 359 359 358 357

ECMWFFLT1_925_thetae_045.txt.gz
Theta_e
350 350 350 350 349 349 348 349 351 351 351 352 353 352 352 352 352 353 353 353 353 353 353 352 352 352 351 351 351 350 351 351 350 350 351 350 350 350 350 349 349 349 350 352 351 351 350 349 349 349 349 350 350 350 349 350 349 349 350 349 352 354 354
350 350 349 349 349 349 349 349 350 351 351 352 352 352 352 352 353 353 354 354 354 354 353 352 353 352 352 352 351 351 351 351 351 350 351 351 350 350 350 349 349 348 348 350 351 350 349 349 349 348 349 350 350 350 349 349 349 350 350 349 353 357 356
348 349 349 350 349 349 350 350 350 350 350 351 352 352 352 353 354 354 354 354 354 354 354 353 353 353 352 352 353 352 351 352 352 351 352 352 351 351 351 350 349 349 348 349 350 350 349 349 349 348 349 349 350 350 349 349 349 349 350 349 352 356 357
348 348 348 350 350 350 350 350 350 350 350 350 351 352 353 353 354 354 354 354 354 354 354 354 354 354 354 353 353 353 352 352 353 352 353 353 352 352 353 352 350 351 350 349 350 350 350 350 350 349 349 349 350 350 349 350 349 349 349 349 351 356 357
347 348 348 350 350 351 350 349 350 350 349 349 350 351 353 353 353 353 354 354 354 354 354 354 354 354 355 354 354 354 354 353 353 353 353 354 354 354 353 353 352 351 351 350 350 350 350 350 350 350 350 350 350 350 350 350 349 350 349 349 352 355 357
345 347 349 349 349 350 350 348 350 351 349 349 349 351 352 352 353 353 353 354 354 354 354 354 354 355 355 355 355 355 355 354 353 353 354 354 355 354 353 353 353 352 352 351 351 351 350 350 351 350 350 350 350 351 351 350 350 350 349 349 351 354 357
344 347 348 349 348 349 349 348 349 350 349 349 349 350 351 351 352 352 353 353 354 354 355 355 354 355 356 355 355 356 355 355 355 354 355 355 354 354 354 354 353 353 353 352 351 351 351 351 351 350 350 350 350 350 350 350 350 350 350 349 350 352 354
344 347 347 348 348 348 348 348 349 350 350 349 349 350 351 351 351 352 352 353 354 354 354 355 354 355 356 355 356 357 356 356 356 355 355 355 355 355 354 354 353 353 352 352 352 351 351 351 351 351 350 350 350 350 349 349 349 350 351 350 350 351 353
344 347 347 346 346 346 348 349 350 351 351 350 350 350 350 351 351 351 352 353 353 354 354 354 354 355 356 356 356 356 356 356 356 356 355 355 355 355 355 354 354 353 352 353 353 352 352 351 351 351 351 351 350 350 349 349 349 349 350 350 349 350 352
345 348 348 346 346 347 348 349 350 352 351 352 351 351 350 351 351 351 352 353 353 353 354 354 354 355 356 356 356 356 356 356 356 356 356 355 355 355 355 355 355 354 353 353 353 353 352 351 351 351 351 351 350 350 349 349 349 350 350 349 349 349 350
345 350 350 347 347 348 348 350 353 354 354 354 352 351 351 351 352 352 352 353 352 353 354 354 354 355 355 356 355 356 356 356 356 356 356 355 355 355 355 355 355 354 354 354 354 354 353 352 351 351 351 351 351 350 349 349 349 350 350 350 350 349 350
343 348 352 350 349 349 350 352 355 356 357 355 352 351 352 351 352 352 352 353 353 353 354 354 354 355 355 355 355 356 356 356 356 356 356 356 355 355 355 355 355 355 354 354 354 354 354 353 352 352 352 351 351 350 350 350 350 350 350 351 351 351 350
341 345 349 350 349 350 354 356 357 358 358 355 352 351 352 352 352 351 353 353 353 353 354 354 355 355 355 355 355 356 356 356 356 356 356 356 355 355 355 355 355 355 354 354 354 354 354 354 353 352 351 351 351 351 350 350 350 350 350 351 352 352 351
336 338 344 348 350 352 355 357 359 358 356 354 352 352 351 352 351 351 353 353 353 354 354 354 355 355 355 355 356 356 356 356 356 356 356 356 356 355 355 355 355 355 355 354 354 354 354 354 353 353 352 352 352 352 351 351 351 351 351 350 351 352 352
337 334 337 343 349 353 355 356 357 358 356 354 353 353 352 351 352 352 353 353 353 353 354 355 355 356 356 356 356 357 357 356 356 357 356 356 356 355 355 355 355 355 355 355 354 354 354 354 354 354 353 353 353 353 353 354 353 353 352 351 352 352 353
344 336 334 338 345 351 353 354 356 358 358 356 354 353 352 352 352 353 353 353 353 353 354 355 356 356 356 356 357 357 357 356 356 356 356 355 355 355 355 355 355 355 355 355 355 354 355 355 355 355 354 354 354 354 355 355 354 352 351 351 352 353 354
352 343 335 334 340 347 351 352 355 358 358 357 356 354 353 353 353 352 352 352 353 353 353 355 356 356 355 356 356 357 357 356 356 356 355 355 355 355 354 355 355 355 355 355 355 355 355 355 355 355 355 355 355 355 355 355 353 351 351 350 351 352 354
357 352 342 335 335 344 350 350 354 357 355 354 355 354 353 354 353 352 352 352 353 353 353 355 355 355 355 356 356 357 356 356 356 356 355 355 355 354 354 355 355 356 355 355 355 355 355 355 355 355 355 355 355 355 355 355 353 351 351 351 350 351 352
357 357 350 339 335 339 346 348 350 354 353 353 354 353 353 353 353 352 352 352 353 352 353 354 354 355 355 356 356 356 356 356 356 356 356 355 355 354 354 355 355 355 355 355 355 355 355 355 355 355 355 355 355 355 355 355 354 352 351 351 351 350 351
356 357 353 344 335 336 343 348 351 353 354 354 354 353 353 353 353 353 352 353 353 353 353 353 354 355 356 356 356 356 355 355 356 356 356 355 354 354 355 355 355 356 355 355 355 356 356 355 355 356 356 355 355 355 355 355 354 353 352 351 351 351 351
355 357 356 348 339 340 347 352 353 353 355 355 353 353 353 353 353 353 353 353 354 353 354 354 355 356 356 356 356 356 355 356 356 356 356 356 355 355 355 355 356 356 355 355 356 356 356 355 356 356 356 356 356 356 355 355 354 353 352 352 351 351 351
354 355 355 351 344 347 351 351 352 353 354 353 353 353 354 353 353 353 353 353 353 354 355 355 356 356 356 356 356 356 355 356 356 356 356 356 356 356 356 356 356 356 355 355 356 356 356 356 356 356 356 356 356 356 356 355 354 353 352 352 351 351 351
353 353 354 350 346 351 354 352 352 353 353 353 353 353 353 353 353 353 353 353 353 355 355 355 356 356 356 356 356 356 356 356 356 356 356 357 357 357 357 357 357 356 356 356 356 356 357 357 356 356 357 357 356 356 356 356 355 353 352 352 352 351 351
350 352 353 351 349 352 354 353 353 353 353 353 353 353 353 353 353 354 354 354 355 355 355 356 356 357 357 356 356 356 357 356 356 357 357 357 357 357 357 357 357 357 357 356 357 357 357 357 357 357 357 357 357 357 357 357 356 354 353 353 352 352 351
348 351 354 354 352 351 353 355 353 353 354 353 353 353 354 353 355 355 356 356 355 356 356 356 357 357 357 357 356 357 357 357 357 357 357 358 358 357 357 357 357 357 357 357 357 357 357 357 357 358 358 357 357 357 356 357 357 355 354 353 353 352 352
347 348 353 356 357 355 355 356 356 353 353 353 354 354 354 355 356 357 358 358 357 357 357 357 357 358 357 357 357 358 358 357 358 358 358 358 358 357 357 358 357 358 358 358 357 358 358 358 358 358 358 358 358 357 356 356 357 356 355 354 353 353 352
346 349 352 355 357 359 357 356 355 353 353 355 355 354 355 356 356 358 360 359 357 357 357 358 358 359 359 359 359 359 358 358 358 358 358 359 358 358 358 358 358 358 358 358 358 358 359 359 358 359 359 359 359 358 357 357 356 356 356 354 354 353 352
343 347 351 353 355 357 359 359 358 355 355 355 355 355 356 356 358 360 361 359 358 358 358 359 360 360 360 360 360 359 359 359 359 359 359 359 359 359 360 359 359 359 359 359 359 359 360 360 360 359 359 359 359 359 358 358 357 356 356 355 354 354 353
340 343 348 351 353 355 358 360 361 361 358 355 353 354 355 356 360 361 361 360 360 359 359 360 360 359 360 360 360 360 361 361 360 359 359 360 361 360 360 361 360 360 360 360 360 361 361 361 361 360 360 361 360 360 359 359 358 357 356 355 355 355 354
336 340 344 349 352 353 356 358 360 362 361 358 356 356 355 358 361 362 362 362 360 359 359 359 358 359 360 361 361 362 362 361 361 360 360 361 361 361 362 362 361 362 362 362 361 362 362 362 362 361 361 361 362 361 360 360 359 358 356 356 356 355 354
333 338 341 346 350 351 354 357 358 360 360 361 361 360 358 360 363 363 364 362 358 357 359 358 358 359 361 362 362 362 362 362 363 362 362 362 362 362 363 363 363 363 363 362 362 362 363 362 362 362 362 362 362 362 362 361 360 360 358 357 356 356 355
331 336 338 343 348 349 352 356 357 358 359 360 361 362 362 363 363 364 363 360 357 358 358 358 360 361 362 363 362 362 363 364 364 364 363 363 363 363 363 363 364 364 364 363 362 363 363 363 363 362 362 362 363 363 363 363 362 361 359 358 356 356 356
328 334 336 340 345 348 350 352 354 356 357 357 358 360 361 362 362 361 360 359 359 359 359 359 361 361 362 362 361 360 362 363 364 365 366 365 365 365 364 364 365 365 365 364 364 363 363 363 363 363 362 363 363 364 364 363 363 361 361 359 357 356 356
327 332 334 337 342 346 348 350 352 353 354 354 355 357 358 359 359 359 360 361 361 361 362 364 365 366 366 365 363 362 362 362 362 364 365 367 367 366 366 366 366 366 366 365 365 364 364 364 363 363 363 363 364 364 364 364 363 362 361 360 359 357 356
326 329 331 335 340 344 346 349 351 352 353 353 354 356 357 357 357 358 360 360 360 361 362 363 365 366 367 368 369 367 364 363 363 363 364 365 365 365 365 365 365 366 366 365 365 365 365 365 365 365 364 364 364 364 365 365 364 362 361 360 359 358 357
325 326 328 332 337 341 344 347 349 351 353 353 353 354 355 356 357 358 359 360 360 359 359 360 362 364 365 367 370 369 367 366 365 364 363 362 360 359 358 358 360 363 364 364 364 363 363 364 364 364 365 364 364 363 364 364 364 363 361 359 359 358 358
322 323 326 330 335 338 341 344 346 349 350 351 352 353 353 354 355 356 357 359 360 360 359 360 363 365 366 367 369 368 366 366 364 361 359 357 354 353 352 351 353 356 359 361 362 361 362 362 362 362 363 363 362 361 360 361 361 361 360 360 359 358 358
319 320 323 327 333 337 339 341 344 346 347 349 350 352 352 352 353 354 355 356 359 360 361 362 364 366 367 367 366 365 364 363 360 357 355 353 353 352 351 349 348 348 350 355 358 359 359 360 360 361 361 361 361 360 359 359 359 358 359 360 360 359 359

ECMWFFLT1_925_thetae_048.txt.gz
Theta_e
348 349 351 353 355 355 355 356 358 359 359 359 360 359 358 357 357 358 358 359 361 361 361 359 359 358 358 358 357 357 357 357 357 357 357 356 354 355 356 355 354 354 352 352 352 354 356 357 357 357 359 359 358 359 358 358 357 357 356 356 357 357 356
346 348 350 352 354 355 355 358 360 360 359 358 359 358 358 358 358 359 359 360 361 361 361 360 359 359 358 358 358 358 358 358 358 357 357 357 357 356 356 356 355 355 354 352 353 355 358 359 358 358 358 358 358 358 358 358 357 357 357 356 357 356 357
344 346 348 350 353 354 354 357 359 358 358 358 359 358 359 358 358 360 359 360 361 362 362 360 360 359 359 358 358 358 359 358 357 358 357 357 358 356 357 357 357 356 357 355 354 356 358 359 359 358 358 358 357 357 358 358 358 357 357 357 357 356 357
343 345 346 349 352 355 354 354 357 359 358 357 358 358 358 358 359 359 360 361 361 361 361 361 360 360 359 359 359 359 360 359 359 359 358 357 358 357 357 358 358 357 358 358 356 356 357 358 358 359 359 357 357 357 358 357 357 358 358 358 357 356 357
342 343 345 349 351 354 354 353 356 357 357 357 357 358 358 359 359 359 360 360 361 361 361 360 360 359 359 359 359 359 359 359 359 359 359 357 358 359 357 358 359 358 358 358 358 357 357 357 358 359 360 359 357 357 357 358 357 358 358 358 357 356 356
339 341 343 346 349 352 353 353 355 357 357 355 357 357 358 358 358 358 359 360 360 360 360 360 360 359 359 359 359 359 360 360 360 359 359 359 358 359 359 358 359 358 358 359 359 359 359 358 358 359 359 358 356 355 356 357 357 356 358 358 357 357 355
337 341 342 341 345 349 351 352 354 356 355 355 355 357 358 357 358 357 358 359 359 360 359 360 359 359 359 359 359 359 359 360 360 359 359 359 358 359 359 359 359 359 359 359 359 359 359 360 359 358 359 358 357 356 356 357 358 356 357 359 359 358 357
337 339 340 341 341 345 348 352 354 355 355 355 355 356 356 356 357 357 357 358 358 358 359 358 358 359 360 359 359 359 359 360 360 359 359 359 358 359 360 360 360 359 359 359 359 359 360 360 359 359 359 358 358 358 357 359 359 358 357 358 359 359 358
336 339 341 342 339 341 347 352 355 355 355 355 354 356 356 356 356 356 357 357 358 358 357 357 358 359 359 360 360 359 360 359 360 360 359 359 358 359 360 360 360 360 360 359 359 360 360 359 359 359 359 359 359 359 360 360 360 359 358 359 360 361 358
335 341 346 345 341 342 348 352 355 356 356 356 355 355 356 356 356 356 356 357 357 357 356 357 358 358 360 360 360 360 360 360 360 360 360 359 358 359 359 359 359 360 360 359 358 359 360 360 359 360 360 360 360 361 360 361 361 360 359 360 361 361 360
337 344 349 347 344 346 348 352 356 357 357 358 356 355 356 356 356 356 356 356 356 356 356 356 357 358 359 360 360 360 360 360 360 359 360 359 358 358 358 358 358 359 360 360 358 358 359 360 359 360 361 362 361 360 361 361 361 361 360 359 360 361 361
342 347 353 352 350 350 351 354 357 358 359 359 356 355 356 356 357 356 356 356 356 356 356 356 357 358 358 360 360 360 360 361 361 359 360 360 358 358 358 357 357 358 359 360 359 358 359 360 360 360 361 362 361 361 362 361 361 362 361 359 358 359 359
341 342 349 352 351 352 353 357 359 359 360 359 356 355 355 357 356 355 355 356 355 355 356 357 358 357 359 360 360 360 360 361 360 359 360 360 359 358 358 357 357 357 359 360 359 358 358 359 361 360 361 362 361 361 361 362 362 362 362 360 358 359 360
343 338 341 347 350 352 354 357 360 359 359 358 356 355 355 356 355 355 356 355 356 356 356 356 358 358 359 360 360 360 361 361 361 361 360 361 360 359 358 358 358 358 359 360 360 359 358 358 361 361 361 362 361 361 360 361 362 362 362 362 359 358 359
349 343 341 343 348 353 355 356 360 362 360 358 357 356 355 356 356 355 355 356 355 356 356 357 358 358 359 360 360 361 361 360 361 361 361 361 361 361 359 360 359 358 359 360 360 359 358 358 359 361 361 361 361 361 360 361 361 361 362 362 361 359 358
354 353 351 349 347 350 353 357 361 363 363 361 358 356 356 356 356 355 356 356 356 356 356 357 358 358 359 361 361 362 361 361 361 362 362 361 361 362 361 360 361 360 360 361 360 360 359 359 358 359 361 361 361 361 360 360 360 360 359 359 360 360 359
356 357 358 358 356 353 352 353 358 363 363 361 359 358 356 356 356 356 356 357 356 356 356 357 359 359 360 361 361 362 362 362 362 363 363 362 363 363 363 362 362 361 362 362 361 362 361 360 360 359 359 361 360 361 360 360 360 359 358 356 355 357 360
356 358 358 359 361 361 357 352 352 359 360 359 358 357 355 357 357 356 356 356 356 356 356 357 359 359 361 361 362 362 363 363 363 363 364 364 363 364 363 363 363 362 363 362 362 362 361 361 361 360 359 359 359 360 360 360 360 358 356 353 351 352 356
352 353 356 358 359 360 360 355 348 352 358 358 357 356 356 357 357 357 356 356 356 356 356 358 359 360 362 361 362 363 364 364 364 364 365 365 365 364 364 363 363 363 363 362 362 362 362 362 362 361 361 360 359 359 360 360 359 358 355 353 350 349 351
346 348 351 354 356 357 359 358 351 348 355 358 356 355 356 357 357 357 356 357 357 357 357 358 359 361 362 362 362 364 365 365 365 365 365 366 364 364 365 364 363 363 363 362 362 363 362 362 362 362 362 361 360 360 359 360 359 358 356 354 352 350 350
341 343 346 351 356 357 358 360 353 347 349 357 356 354 355 356 356 357 357 357 357 357 357 359 361 362 363 363 364 366 366 366 366 365 366 365 365 365 365 364 364 363 363 362 362 363 363 362 362 362 362 361 361 360 360 359 359 358 357 356 353 352 352
336 338 343 348 354 357 359 360 355 346 345 353 355 354 355 356 356 357 356 357 357 358 358 359 361 363 363 364 364 365 365 366 366 365 366 366 365 365 364 364 364 363 363 362 362 362 362 363 362 362 362 362 361 360 360 359 359 358 358 356 355 354 353
331 334 341 349 353 357 359 358 354 347 345 350 354 354 354 356 356 356 355 356 357 358 358 359 362 363 363 364 363 365 365 365 365 365 365 365 365 365 365 364 364 364 362 362 361 361 362 362 362 362 361 362 362 361 360 360 359 358 357 356 356 354 354
328 334 343 351 355 358 359 356 352 348 348 353 354 352 354 356 356 355 356 355 357 358 359 360 361 363 363 364 363 364 365 364 364 364 365 365 365 364 364 364 364 363 362 362 361 360 360 361 362 362 361 361 362 362 361 361 361 359 358 356 355 355 354
327 334 347 355 355 357 359 358 353 348 350 354 354 352 354 355 355 355 357 356 357 358 360 361 361 362 363 363 362 364 364 364 364 364 364 365 364 364 364 363 363 363 363 362 361 360 360 361 361 362 361 361 361 362 361 361 361 360 358 357 356 354 354
325 334 348 355 354 356 359 359 355 352 352 354 353 353 355 355 355 357 358 358 358 359 360 360 361 362 363 363 363 363 364 363 363 364 363 365 365 364 363 363 363 362 363 362 361 361 360 360 360 361 361 361 361 362 361 361 361 361 359 358 357 356 355
326 335 348 354 355 356 359 359 356 353 353 353 354 355 356 356 357 358 359 359 358 359 360 360 361 361 362 362 362 362 363 363 363 364 363 364 364 363 363 363 362 363 362 362 361 360 360 361 360 361 361 361 362 362 362 362 361 362 361 359 358 357 355
325 334 344 351 355 357 359 360 357 353 353 354 355 355 356 356 358 360 360 359 360 359 358 360 361 362 362 362 362 362 363 362 362 363 363 363 364 364 362 362 362 362 363 362 361 361 362 362 361 361 362 362 362 363 363 363 361 362 361 360 359 358 356
323 330 338 346 354 357 358 361 361 356 353 355 356 355 355 358 360 362 362 361 361 360 359 359 361 362 363 363 362 362 363 363 363 363 363 363 364 363 362 362 362 362 363 363 362 363 363 364 364 363 363 363 363 363 363 364 363 361 361 361 359 358 357
322 328 334 341 351 356 357 361 364 363 357 355 357 357 357 360 362 363 363 363 362 360 360 361 363 364 365 364 363 363 364 364 364 365 364 364 364 364 364 364 363 364 364 364 365 364 364 364 364 364 364 363 364 363 364 364 364 363 361 360 359 359 358
323 327 329 335 346 353 357 359 361 362 362 359 358 359 358 361 365 366 365 364 364 361 361 363 365 366 366 365 363 364 365 364 365 365 365 364 364 365 365 364 364 365 365 365 365 364 365 365 365 363 364 364 364 365 365 365 366 365 364 361 360 358 358
323 325 327 331 340 348 356 360 359 361 364 363 361 360 360 362 365 366 366 366 364 362 364 366 367 368 367 367 366 365 366 365 366 366 365 365 365 366 366 366 367 367 366 366 365 365 365 366 365 364 364 365 364 365 366 366 366 367 366 364 361 359 359
322 323 324 328 336 344 352 358 360 362 363 364 363 363 363 364 366 366 369 368 366 365 367 369 370 369 368 368 367 367 367 367 367 368 367 366 366 367 368 367 367 368 368 367 367 365 365 366 365 364 364 365 365 365 365 366 367 367 367 366 362 360 359
322 321 322 326 333 342 349 354 359 361 362 362 363 364 366 368 368 369 370 369 367 368 369 370 370 369 369 368 367 368 369 368 367 368 368 368 367 367 368 368 368 368 369 368 367 367 366 366 366 365 364 365 364 365 366 367 368 368 368 367 365 361 359
321 320 321 324 331 339 345 350 354 358 360 361 362 363 364 366 367 367 369 368 368 369 370 369 369 369 368 368 368 367 368 368 368 368 368 369 369 367 366 366 366 367 369 369 368 367 367 367 367 366 365 365 366 366 367 367 367 368 367 367 366 365 362
320 320 319 322 327 334 343 347 349 353 357 359 360 362 362 364 364 365 366 367 368 369 370 370 369 368 368 367 366 365 366 367 367 366 368 369 369 364 361 361 363 365 366 366 366 367 366 367 368 367 367 366 365 366 367 367 367 367 366 365 366 365 364
320 320 319 321 325 331 339 344 347 350 354 356 357 358 359 361 362 362 364 366 368 369 369 370 369 369 368 368 369 369 369 368 368 367 368 369 369 365 360 358 359 360 362 363 364 365 367 366 366 367 367 366 365 365 365 366 365 366 365 365 365 363 362
320 320 319 321 324 329 336 342 345 348 351 353 354 355 355 356 358 359 361 363 364 366 368 369 369 368 368 368 371 373 373 371 370 371 369 369 369 367 364 361 358 356 355 358 361 363 364 364 365 366 366 366 365 364 365 364 363 363 363 363 362 361 360

ECMWFFLT1_925_thetae_051.txt.gz
Theta_e
346 345 351 354 353 352 354 358 361 361 361 361 361 359 358 357 357 358 359 362 364 365 364 363 363 362 360 360 358 358 357 355 355 354 352 350 347 347 352 354 353 349 348 349 351 351 351 352 353 354 357 358 358 359 359 361 361 359 359 359 359 358 358
346 345 349 353 353 352 354 357 362 363 361 362 362 360 359 358 359 359 360 363 365 365 365 364 364 363 361 361 360 360 359 358 358 357 355 354 353 351 353 353 353 352 349 348 350 351 351 352 354 354 357 359 359 359 359 361 361 360 358 358 359 359 359
345 346 347 352 353 353 354 356 360 362 361 361 362 361 360 360 360 360 361 363 365 366 366 365 365 364 362 362 362 361 361 360 359 358 356 355 356 354 353 354 354 353 352 350 349 351 352 353 355 355 356 358 359 358 358 359 360 360 359 358 359 359 360
347 346 345 350 353 354 355 355 359 363 361 362 362 362 361 361 361 362 362 363 365 366 367 366 365 364 363 363 362 362 362 360 360 360 357 356 356 356 354 355 356 355 354 354 351 350 351 354 357 357 357 357 356 357 357 358 358 359 359 359 359 358 358
346 345 346 349 350 354 356 354 357 363 362 361 363 363 362 362 361 361 362 363 365 366 367 366 364 364 364 362 362 362 362 362 361 360 359 357 357 357 356 355 357 356 354 355 354 352 352 355 357 358 358 357 357 355 356 357 358 358 359 359 359 357 357
342 343 345 347 348 353 355 354 355 361 362 361 362 363 362 362 362 362 362 363 365 366 366 366 364 364 364 363 361 362 362 362 362 361 361 358 358 358 358 356 358 358 356 356 356 355 355 356 357 358 358 357 355 355 355 357 358 358 358 359 359 358 356
337 339 343 347 347 349 352 352 353 356 360 360 361 362 362 362 362 362 362 363 364 366 366 365 364 363 364 363 361 362 363 363 363 363 361 360 358 359 360 359 358 359 357 356 356 356 356 358 357 357 358 357 354 353 354 356 356 356 358 358 359 359 358
334 338 340 344 347 348 349 352 353 355 357 358 360 361 362 361 362 362 362 363 364 364 365 365 363 364 364 363 361 363 363 363 364 363 361 360 359 359 360 360 359 359 358 357 357 357 357 358 358 357 358 358 356 354 354 355 356 356 356 357 359 360 359
333 335 339 342 344 346 347 348 353 355 355 357 358 361 361 361 361 362 362 362 363 364 364 364 362 363 364 363 362 362 363 363 363 362 361 360 359 359 359 359 360 360 360 357 357 357 358 358 358 358 359 359 356 355 355 356 357 357 356 356 358 360 358
333 335 338 341 342 346 347 347 351 357 356 358 359 360 361 361 361 362 362 361 362 364 363 362 362 362 364 363 362 362 362 363 362 362 361 359 358 358 357 359 360 360 361 359 356 356 358 359 359 359 361 361 359 358 356 357 358 359 358 357 357 359 359
334 337 338 340 342 345 345 347 353 358 360 361 360 360 361 361 361 361 361 361 362 362 363 362 360 360 363 362 361 361 362 361 361 361 361 358 357 358 357 357 357 358 360 360 357 355 357 360 360 360 362 362 361 360 360 359 360 360 359 357 357 359 359
335 337 341 342 344 345 345 351 356 363 366 363 359 358 361 360 361 361 361 360 361 361 361 361 359 360 363 363 360 360 361 360 359 360 361 359 357 356 357 357 355 356 359 360 358 356 355 360 361 361 362 364 362 362 362 361 361 361 360 357 357 358 359
336 337 340 342 342 344 351 359 363 364 366 362 358 358 359 360 360 360 361 360 360 360 361 360 360 359 361 362 360 360 360 360 359 359 359 359 357 356 356 356 354 355 357 359 359 356 354 357 361 362 362 365 364 363 363 363 363 363 363 359 357 357 359
339 338 341 344 346 349 354 359 364 365 362 361 359 358 358 360 360 359 361 360 360 360 359 359 359 359 361 362 360 361 361 359 360 359 359 360 358 357 356 357 355 353 355 357 359 358 355 355 360 362 362 363 365 363 363 365 364 364 364 363 359 357 358
341 342 341 344 349 352 354 356 363 365 363 361 361 358 357 358 359 359 359 360 360 359 360 360 359 358 361 362 362 362 362 361 360 360 360 360 359 358 357 357 357 355 355 357 359 358 356 353 356 360 361 362 364 364 363 364 364 363 364 365 363 359 358
351 351 347 348 352 353 352 354 359 364 365 365 361 359 357 359 359 360 360 360 361 359 358 359 360 359 361 362 363 363 363 362 362 361 361 361 361 360 358 357 358 356 356 357 360 359 357 355 354 357 360 362 363 364 363 362 363 363 363 364 364 362 358
353 354 353 355 358 358 358 355 355 361 366 366 363 359 358 358 359 359 359 359 360 359 359 360 360 360 361 363 363 364 364 364 363 363 363 363 363 362 361 360 359 359 357 357 360 361 359 358 355 355 358 360 361 362 362 361 360 361 362 362 362 362 360
350 351 352 355 356 359 361 357 355 358 361 363 362 360 357 358 359 358 359 360 360 359 359 360 360 361 361 363 364 365 366 366 365 366 365 364 364 364 363 361 361 360 360 359 361 363 362 361 359 357 357 359 359 360 361 361 360 359 361 360 358 358 359
348 347 348 350 351 354 358 358 358 359 359 361 362 360 358 357 358 360 358 358 359 359 358 359 361 362 362 364 365 366 366 366 367 367 367 366 366 367 365 364 363 363 362 362 362 364 365 363 361 360 359 358 359 359 359 359 359 359 359 360 357 355 355
344 344 345 347 348 350 353 357 360 363 363 363 360 360 358 357 358 360 358 358 359 359 359 360 361 363 364 364 366 368 367 368 368 368 368 368 367 368 367 366 365 365 364 364 364 365 366 365 362 362 362 361 360 360 360 358 358 360 359 358 358 355 353
340 340 342 343 345 347 350 354 359 363 363 362 360 358 359 357 357 359 358 358 359 359 360 361 362 363 364 364 367 368 368 369 368 368 370 369 369 369 369 367 367 366 365 364 364 365 367 365 363 363 363 362 361 361 362 360 357 359 360 359 358 356 354
336 337 338 341 342 345 348 353 358 361 362 362 360 358 356 356 356 357 358 358 359 359 359 361 362 363 364 365 367 369 369 369 369 370 371 371 369 370 370 368 368 367 366 365 364 365 367 366 365 365 364 364 362 361 361 360 359 359 360 360 359 357 356
332 333 335 337 339 342 346 352 358 360 361 363 360 355 354 357 357 356 358 357 358 361 360 360 362 364 365 366 367 369 370 370 370 371 371 371 370 371 370 370 369 369 367 365 363 364 366 366 365 364 364 365 364 362 361 360 359 359 360 360 360 358 357
328 330 333 335 337 340 345 353 358 359 360 362 360 353 353 357 357 356 358 358 359 361 360 361 362 364 366 367 367 369 370 370 370 371 371 372 372 370 371 370 370 369 368 366 363 362 364 365 365 364 363 365 365 364 363 360 359 360 359 359 359 359 357
326 329 331 333 335 339 344 351 356 359 359 361 359 353 351 356 357 356 358 359 358 360 361 361 362 365 366 368 367 370 370 370 371 371 372 372 371 370 370 370 369 369 368 366 364 361 361 363 364 364 363 362 364 365 363 360 358 359 359 359 359 358 358
324 326 329 331 333 337 341 348 355 360 360 361 359 352 350 356 358 357 359 359 359 360 361 362 363 365 367 368 367 369 370 371 371 371 372 373 371 370 371 370 369 369 368 366 363 361 361 360 361 363 363 361 362 363 364 362 359 360 360 359 359 358 357
324 326 328 329 332 334 338 345 355 360 361 359 358 352 352 356 357 358 361 360 359 361 361 362 363 366 368 368 368 370 370 371 371 371 371 372 371 370 370 369 368 368 368 366 364 361 361 359 360 361 361 361 360 362 362 362 362 361 361 360 360 358 358
323 325 327 328 330 331 335 342 352 360 360 358 355 353 354 356 359 361 361 360 360 362 360 362 365 366 369 368 368 369 370 370 370 372 371 371 371 370 369 368 367 367 367 366 364 363 362 361 359 360 360 359 360 360 362 363 363 362 362 361 361 360 358
321 322 325 327 328 328 332 339 349 359 363 359 356 354 355 356 360 363 362 361 361 361 361 364 365 366 369 369 368 369 370 370 371 370 371 371 371 370 369 368 367 367 368 367 365 364 364 363 363 362 360 360 361 361 362 363 363 363 362 362 362 361 360
320 321 323 325 325 326 330 338 348 359 364 362 358 355 354 357 362 363 362 361 362 361 361 364 366 367 369 369 368 369 370 369 370 370 370 370 370 370 369 368 367 367 367 367 366 366 366 366 365 364 363 361 362 361 362 364 364 364 363 362 363 362 361
319 320 322 323 324 325 329 336 347 358 364 363 360 355 356 359 361 363 364 362 362 363 362 365 367 367 369 368 367 368 369 370 370 370 369 370 370 369 368 368 367 367 368 368 367 366 367 366 366 366 365 363 363 362 362 364 365 365 365 364 362 362 362
319 320 321 323 324 325 328 334 346 360 364 364 361 355 357 360 360 363 365 364 364 364 364 365 367 368 369 369 368 368 369 369 369 369 368 369 370 369 369 368 367 368 367 368 368 367 367 367 366 366 366 365 364 365 364 364 365 366 366 366 364 362 362
319 319 321 322 324 325 328 332 345 361 365 364 363 358 357 359 361 365 366 365 365 364 364 367 369 370 370 369 367 369 369 369 369 369 369 369 369 369 368 368 367 367 367 368 367 367 367 366 366 365 365 365 365 366 365 365 366 367 367 366 365 363 362
319 320 320 322 324 326 327 331 342 358 365 365 366 367 364 363 364 366 367 367 366 365 367 370 370 370 370 370 368 369 370 370 369 370 369 369 368 368 368 367 367 367 368 367 366 366 366 365 365 365 365 364 365 366 367 367 367 368 369 368 366 364 363
319 319 320 322 324 325 326 330 339 354 363 363 364 367 370 370 368 367 368 368 366 366 369 371 371 372 371 370 369 368 369 369 369 369 368 369 367 367 368 367 366 367 368 366 365 365 365 366 366 366 365 365 366 366 367 368 368 368 368 368 367 365 363
319 319 320 322 323 324 326 328 336 352 362 362 363 365 366 368 369 369 368 367 366 369 371 372 372 372 371 370 369 369 368 367 368 368 368 368 366 363 362 362 363 364 367 367 366 366 365 365 366 366 366 366 367 367 367 368 368 368 368 369 368 366 365
320 319 320 321 323 325 325 326 334 350 359 359 362 364 363 364 366 366 365 366 367 368 370 371 370 370 370 369 368 368 368 368 367 368 369 369 368 364 360 359 360 361 363 365 365 365 365 365 365 366 366 366 367 367 366 366 368 368 368 368 368 368 366
320 319 319 321 323 325 325 325 333 348 355 354 356 360 360 361 363 363 365 366 367 367 369 370 369 368 368 368 367 368 368 368 367 369 368 368 369 367 365 363 362 360 359 362 364 365 366 365 365 366 367 368 368 366 366 366 367 367 367 367 367 367 366

ECMWFFLT1_925_thetae_054.txt.gz
Theta_e
353 355 355 355 356 356 357 358 360 362 361 361 360 357 355 355 355 356 356 360 359 359 357 352 353 355 351 349 348 346 346 344 342 342 342 342 342 344 347 347 347 347 348 350 351 351 351 352 354 354 355 355 357 359 359 360 360 360 360 359 359 358 358
355 355 351 350 353 355 357 359 361 361 358 360 359 357 355 355 356 357 358 360 362 361 358 354 355 356 352 348 347 347 346 345 343 342 342 342 341 342 346 349 350 349 348 348 350 350 349 350 352 353 355 355 356 358 359 360 361 361 362 361 359 359 359
352 354 352 350 354 357 357 360 361 359 358 358 358 357 356 355 356 357 358 362 363 362 361 357 356 357 354 350 349 347 346 346 345 343 342 342 341 341 343 347 350 352 350 347 348 350 349 349 350 352 353 355 357 358 359 359 361 362 362 360 359 360 361
353 354 353 352 354 356 356 358 359 358 357 358 357 358 359 356 357 357 359 362 364 364 363 361 359 358 356 352 350 349 347 347 347 345 343 342 342 342 341 344 349 351 352 349 346 348 350 351 351 351 354 355 357 359 359 359 360 362 362 361 359 360 360
355 352 352 354 354 356 357 358 360 359 359 359 359 360 359 358 358 358 358 361 364 366 365 364 361 361 358 354 353 352 349 348 348 347 345 344 344 343 341 344 347 350 352 351 348 346 348 351 352 352 354 355 357 359 359 359 359 361 362 360 360 359 359
352 350 354 355 354 356 357 357 358 359 359 359 360 360 359 359 358 357 358 360 365 366 366 365 364 362 361 359 357 356 353 350 349 348 347 346 346 346 344 344 347 349 350 352 351 348 347 350 353 353 355 355 357 359 359 359 358 359 360 360 360 359 359
344 352 357 355 353 355 354 353 356 357 359 359 358 360 360 358 357 357 357 360 364 366 367 366 364 363 362 362 359 358 357 355 352 351 351 350 348 349 350 349 349 351 352 351 352 352 350 350 352 354 356 357 357 358 357 358 357 358 359 360 359 359 359
341 351 355 355 354 354 352 353 356 358 359 358 356 360 361 358 357 357 357 360 363 366 366 365 365 364 363 362 360 358 359 359 355 354 354 353 351 351 353 352 351 352 354 353 352 353 352 351 352 354 357 358 358 357 357 356 357 358 358 359 359 360 360
342 347 353 354 353 351 353 353 356 358 359 356 356 360 360 357 356 356 356 359 362 366 366 366 366 364 364 364 361 360 361 360 359 356 356 356 354 352 354 355 355 353 354 355 354 355 354 353 353 355 357 359 358 357 355 355 356 357 358 358 358 359 360
342 345 348 353 351 352 355 356 358 358 358 356 356 358 360 359 356 357 357 359 361 364 367 366 366 365 365 365 362 362 361 361 361 360 358 357 356 354 354 356 357 355 356 357 356 355 356 356 355 355 357 358 359 358 356 354 355 356 357 358 357 358 358
340 346 346 346 351 355 356 356 359 359 358 357 355 357 359 359 358 357 358 359 360 364 367 367 366 366 366 365 362 361 362 362 362 360 360 358 356 356 355 356 358 358 357 358 357 356 357 357 356 357 357 358 359 359 356 355 355 355 356 356 357 357 357
343 349 347 344 350 356 357 357 357 360 361 359 355 355 357 359 359 357 358 358 358 363 366 366 366 365 366 365 363 361 362 363 361 362 361 359 358 357 357 357 359 359 358 358 357 357 357 358 358 358 358 358 359 359 357 355 355 355 356 356 356 357 358
346 345 347 347 349 356 360 360 359 361 362 359 356 355 357 360 360 358 358 357 358 361 365 367 365 365 365 365 364 361 362 362 361 362 362 360 358 357 357 357 358 358 359 359 358 357 356 358 358 358 359 358 358 360 359 357 355 356 356 357 357 357 358
351 344 343 347 351 359 364 362 361 364 362 358 355 355 357 358 359 359 359 359 361 362 364 366 366 364 365 365 363 363 363 362 361 362 362 360 358 356 357 357 357 358 360 360 359 358 356 357 359 359 360 360 360 360 361 358 357 356 356 358 358 357 358
353 350 349 353 360 365 366 362 365 366 362 358 356 355 357 358 359 361 360 362 363 362 363 366 364 364 365 365 364 363 362 363 363 361 361 360 358 356 357 357 357 357 358 360 360 359 358 356 358 360 360 360 362 362 362 361 359 359 358 359 359 357 357
349 350 350 353 356 360 363 364 366 368 366 362 358 356 357 359 361 362 363 363 364 362 363 365 365 364 364 365 365 363 362 363 362 361 361 361 359 357 357 356 357 357 357 358 359 359 359 357 356 360 361 361 363 364 363 362 362 361 360 360 359 358 356
348 348 348 350 351 353 359 361 363 366 367 367 364 360 358 360 363 362 361 362 363 363 363 363 364 364 363 365 365 362 362 363 362 361 361 360 360 358 357 357 357 357 357 359 359 359 360 357 355 358 361 361 363 365 365 364 363 363 362 362 360 359 356
346 347 346 349 350 351 354 355 359 363 363 362 362 363 362 362 362 360 360 361 361 362 362 362 364 364 364 364 364 363 363 362 362 361 361 360 361 360 358 357 358 358 357 357 358 358 359 358 357 356 359 362 363 364 365 364 362 362 362 363 362 361 358
343 343 345 347 348 349 350 350 354 358 360 361 359 357 357 357 359 359 360 360 361 362 361 361 362 363 362 364 365 364 364 363 363 362 360 361 362 360 359 358 358 360 358 358 359 359 358 359 358 356 357 360 362 362 363 364 362 361 361 362 363 360 359
340 340 342 343 344 345 347 348 350 352 356 360 361 358 357 355 354 357 359 358 359 361 361 361 362 363 363 364 365 365 364 364 364 363 362 362 362 362 361 360 359 360 360 358 358 358 360 360 359 358 356 357 360 361 361 363 362 361 360 361 362 360 359
337 337 339 340 341 342 343 345 347 349 352 357 360 360 359 356 352 355 358 357 357 360 362 362 363 363 363 365 366 367 366 365 365 364 364 363 363 363 363 361 361 361 361 359 358 359 361 361 359 360 357 357 358 360 361 361 361 360 360 360 360 360 358
334 334 335 337 338 339 341 343 344 347 349 352 357 360 360 358 354 352 355 357 357 358 360 362 364 364 364 365 367 368 367 367 366 366 366 364 364 365 364 363 362 361 360 359 358 359 361 362 362 361 360 358 357 358 359 359 359 360 360 360 359 360 360
330 331 333 334 336 337 339 340 342 344 346 349 354 358 359 359 354 349 352 355 355 355 359 361 365 366 364 366 368 369 369 368 367 368 367 366 366 367 365 365 363 362 361 360 359 359 361 363 364 363 362 361 359 359 359 359 359 359 359 359 359 358 359
328 329 330 332 335 336 337 338 340 342 345 347 352 356 359 361 356 349 351 355 354 356 356 359 364 367 366 366 367 368 369 368 368 368 369 369 368 367 367 365 364 363 363 362 362 361 362 364 365 364 364 362 362 361 360 360 359 360 359 358 358 358 359
327 328 329 330 332 333 334 336 338 340 343 346 350 354 359 361 359 353 352 356 355 356 355 357 363 367 367 366 366 367 369 368 369 370 370 370 369 368 368 368 366 365 364 363 362 361 363 364 365 365 364 363 362 363 362 361 360 360 360 359 358 358 359
325 326 328 328 329 330 331 334 335 338 341 344 347 352 357 362 362 357 356 357 356 356 356 358 362 365 367 366 366 368 370 370 370 370 370 370 370 369 370 369 368 366 364 364 364 363 362 363 364 366 366 363 363 364 363 362 360 360 360 359 359 359 359
324 325 326 326 327 328 329 331 333 336 339 341 345 349 355 361 365 361 359 358 358 357 357 360 361 363 366 367 365 368 371 371 371 371 372 372 371 371 371 370 370 368 367 365 364 362 361 361 363 365 366 364 363 363 364 363 362 360 360 360 359 358 359
323 324 324 325 326 326 327 329 331 334 336 339 343 348 353 359 364 361 361 361 360 358 358 360 362 362 366 367 366 368 370 371 372 372 373 373 372 372 371 371 371 370 368 366 366 364 361 360 361 363 365 365 363 362 363 364 364 362 361 360 360 358 358
321 322 323 323 324 325 325 327 329 332 334 336 341 346 351 359 364 362 362 365 362 359 359 361 363 364 367 368 367 368 371 371 372 372 372 373 373 371 371 371 370 371 369 367 366 365 362 361 361 361 362 364 364 363 362 363 364 364 362 361 359 359 358
320 321 322 322 323 323 324 326 328 330 332 335 340 345 352 362 367 364 366 367 362 359 362 362 363 366 369 369 369 370 372 372 372 372 371 372 373 371 371 371 371 371 370 369 367 366 364 363 362 361 361 362 363 362 362 361 362 363 363 362 360 359 359
319 320 321 321 321 322 323 325 327 329 331 335 339 344 353 365 369 368 370 368 362 360 363 363 365 367 370 371 369 370 372 372 372 373 372 372 372 372 372 371 371 372 371 370 368 367 366 364 364 363 361 361 361 361 360 360 361 363 362 362 361 361 360
319 319 320 320 321 322 323 324 326 328 330 334 337 341 353 367 372 369 369 368 363 361 363 365 368 369 371 371 370 370 372 373 372 373 372 372 372 372 372 372 372 371 372 370 369 368 366 366 365 364 363 361 361 361 361 359 362 363 363 362 362 362 361
320 320 320 321 322 322 322 323 325 328 330 332 335 340 351 367 374 370 368 367 364 362 365 368 369 370 371 372 371 371 372 372 372 372 372 371 372 372 372 372 371 371 371 371 368 368 368 366 366 365 364 363 362 362 362 361 363 365 365 364 363 362 362
321 321 321 321 322 321 321 323 325 327 329 331 334 339 351 367 376 372 367 366 365 364 367 370 370 371 372 372 371 372 372 372 372 372 372 372 371 371 371 370 369 369 370 370 368 368 367 367 366 366 366 365 364 363 364 363 363 365 366 366 364 364 363
321 321 321 322 321 321 321 322 324 326 328 330 334 342 357 367 371 371 368 366 365 365 370 371 371 370 373 373 371 370 371 371 371 371 371 371 371 369 368 369 369 369 369 368 368 368 367 367 367 367 366 366 365 365 365 365 364 364 365 366 366 366 365
321 321 322 322 321 320 321 322 324 326 328 330 335 348 362 365 364 365 367 366 365 366 370 372 373 371 371 371 370 369 369 371 371 370 369 369 368 365 364 363 366 368 369 368 368 368 368 366 366 367 366 365 366 365 365 366 365 364 365 367 367 367 366
321 321 322 322 321 320 320 321 324 326 327 330 339 351 359 360 359 359 360 362 361 361 362 364 367 371 372 370 369 368 369 370 370 369 370 369 367 363 360 359 360 363 366 367 368 368 367 366 367 366 365 365 365 366 366 365 366 366 366 368 369 369 368
321 321 322 322 321 320 320 321 323 325 327 332 342 351 353 355 355 353 353 356 357 356 357 354 354 361 368 370 370 369 368 369 370 369 370 370 366 362 361 360 357 358 361 364 366 366 365 366 365 365 365 365 366 367 366 366 367 368 368 368 368 368 369

ECMWFFLT1_925_thetae_057.txt.gz
Theta_e
356 356 355 355 355 354 354 353 351 350 352 354 355 354 354 354 355 355 354 353 352 352 353 354 355 352 349 349 349 345 344 345 346 347 349 346 343 342 342 342 343 343 347 350 352 352 353 353 354 354 356 355 354 356 358 358 358 357 357 356 356 356 356
355 355 354 355 355 356 355 353 352 351 352 353 354 354 355 355 355 356 355 354 353 352 352 353 355 353 349 348 349 347 345 346 346 346 348 347 344 342 339 340 342 343 344 346 348 350 349 351 354 354 354 355 354 353 356 358 359 358 358 357 356 356 356
354 355 354 355 355 355 355 353 352 352 352 353 355 355 354 354 355 355 355 356 354 353 352 352 353 354 351 348 348 348 346 346 347 346 346 346 345 343 341 339 339 341 343 345 346 347 347 349 353 354 353 354 354 353 354 356 358 358 358 358 357 355 354
354 355 354 354 355 355 354 353 353 354 354 354 355 356 355 354 355 355 355 356 355 354 353 351 351 353 352 350 348 349 348 346 346 346 345 344 344 343 343 342 339 339 342 344 346 347 346 348 351 353 353 353 354 354 354 355 357 358 358 359 359 357 355
354 354 353 353 355 355 356 354 355 354 355 355 356 356 355 354 354 355 355 356 356 355 354 352 350 351 352 351 349 348 348 347 346 345 344 342 342 343 344 345 342 341 340 341 345 347 346 346 348 351 353 353 353 354 354 355 357 359 358 358 360 359 357
354 352 353 355 355 356 357 356 355 356 355 357 356 357 356 355 355 355 355 357 357 356 356 354 352 351 351 351 350 348 348 347 346 344 343 342 340 341 342 344 345 346 344 342 344 347 349 348 347 348 351 351 352 354 355 355 357 359 359 358 359 359 357
353 352 354 356 356 356 356 357 357 357 357 357 356 356 356 355 355 355 356 357 358 357 357 356 353 352 351 351 350 349 348 348 346 345 343 342 341 339 339 340 343 345 347 347 346 346 348 350 350 348 349 349 351 353 354 356 357 358 359 359 359 359 357
353 354 355 354 354 356 356 357 357 357 356 356 356 357 357 356 355 355 356 357 358 359 358 357 356 354 353 352 351 350 348 348 346 345 344 342 341 340 339 338 339 341 345 348 349 348 346 347 349 349 350 350 351 352 353 356 357 358 359 359 359 360 358
354 354 353 353 352 353 355 356 357 358 356 356 355 356 356 356 355 355 356 357 359 361 359 359 358 356 354 353 352 351 349 347 347 346 345 344 342 341 340 339 338 339 342 345 347 350 349 346 345 348 351 351 351 352 353 355 357 358 358 359 359 359 358
355 355 354 353 352 353 354 355 358 357 356 356 355 356 357 357 356 356 356 357 359 361 361 361 360 358 357 355 354 353 351 349 348 346 345 345 343 342 341 340 339 339 340 343 344 347 350 349 346 346 350 353 352 353 353 354 356 358 357 357 357 358 358
353 355 355 353 353 355 356 356 359 358 357 357 357 358 358 358 358 357 356 357 359 361 362 363 362 361 359 358 357 356 353 350 349 347 346 346 344 343 342 342 341 341 340 343 346 347 349 351 349 348 350 353 353 353 353 354 355 357 357 356 356 357 358
354 354 355 354 354 356 358 358 358 358 358 357 357 359 359 359 358 358 357 357 358 361 363 364 364 363 362 360 360 358 356 354 351 349 347 346 345 344 344 344 344 344 344 344 347 349 350 351 351 350 350 353 354 354 355 355 356 357 356 356 356 357 357
353 353 355 356 355 355 357 356 358 359 358 357 357 359 359 359 359 357 357 357 357 359 362 363 364 364 364 363 361 360 359 356 354 353 350 348 347 346 346 346 346 347 347 347 348 351 352 352 352 352 351 353 354 355 356 356 356 356 356 355 355 356 358
349 351 352 355 357 360 359 357 357 360 358 357 358 358 360 360 358 358 358 357 357 357 360 362 364 364 365 364 363 361 360 358 357 355 353 351 350 349 349 348 348 349 350 350 351 352 353 353 354 353 353 353 354 355 356 357 357 356 355 354 354 356 357
347 348 349 349 352 358 362 362 362 362 359 355 356 357 359 359 359 357 357 357 357 358 357 360 363 364 365 364 363 363 361 360 358 357 356 354 352 351 350 350 349 350 352 353 352 352 354 354 355 355 354 354 355 355 356 358 358 357 356 355 354 354 355
343 345 346 346 347 349 352 357 362 367 367 361 356 356 357 358 358 358 358 357 357 357 358 359 361 364 365 365 365 364 362 360 359 359 357 356 354 353 352 352 351 351 352 355 354 354 354 354 356 356 356 356 357 357 358 358 358 358 356 355 354 354 355
340 341 342 342 343 344 345 348 351 359 364 361 357 358 358 357 358 357 358 358 357 358 358 359 361 363 365 365 366 364 364 361 360 360 358 358 356 355 354 354 353 353 354 356 356 356 355 355 356 356 356 356 357 357 358 359 359 359 357 356 355 354 355
337 338 339 339 340 341 342 343 345 348 354 357 357 357 358 358 359 358 357 357 357 358 359 358 360 362 364 365 365 365 364 362 361 360 359 359 358 356 355 355 354 355 356 357 358 357 356 356 357 357 357 357 357 358 358 358 359 359 359 357 356 355 355
333 334 335 336 338 339 340 341 343 344 347 351 352 353 355 356 357 358 358 358 358 358 357 357 358 360 363 365 365 365 364 363 361 361 360 359 359 358 357 356 356 356 356 357 358 358 357 358 357 357 358 358 358 358 359 359 359 359 359 358 357 356 355
330 330 331 332 334 336 336 338 341 341 342 344 346 349 354 354 355 356 357 357 357 358 357 357 356 356 360 364 365 365 365 363 362 361 361 360 360 359 358 356 357 357 356 358 359 359 358 359 358 357 358 358 358 358 359 360 359 359 360 360 360 358 356
329 328 329 329 331 333 334 335 336 337 339 340 342 345 349 353 355 355 353 353 355 356 356 358 358 357 358 362 365 365 365 364 363 361 362 361 360 360 359 358 357 357 357 357 358 359 359 359 358 357 358 359 359 359 359 360 360 360 361 360 360 360 358
326 326 327 328 329 330 331 332 333 334 337 338 340 342 345 348 352 354 356 354 353 354 355 356 357 358 358 360 364 365 364 364 363 362 362 361 361 361 360 359 358 357 358 358 357 359 359 359 359 358 357 359 359 360 360 361 361 361 361 361 361 361 361
323 324 325 326 327 328 328 329 330 332 334 336 337 340 343 346 347 350 355 356 354 353 355 356 356 356 357 360 364 365 365 364 363 363 362 362 362 361 361 360 358 358 358 358 358 359 359 359 359 359 358 358 359 361 361 361 361 362 362 361 361 361 362
321 322 324 325 325 326 326 327 328 329 332 334 336 338 340 342 343 346 351 356 357 355 354 355 357 357 358 361 364 365 365 364 363 363 363 362 362 361 362 361 359 358 358 358 358 358 358 359 359 359 358 358 358 359 360 361 361 361 361 362 361 361 361
322 321 322 323 324 324 324 325 327 327 329 331 333 335 337 338 341 344 348 353 358 358 355 355 357 357 359 361 364 365 365 364 364 364 363 362 362 361 362 362 361 359 358 358 358 357 358 359 359 358 359 358 357 357 358 359 360 361 361 360 360 360 360
322 320 320 321 322 323 323 324 325 326 327 329 331 332 334 336 339 343 346 350 354 358 358 356 356 357 359 361 363 365 365 365 364 363 363 363 363 362 362 362 361 360 359 359 359 358 358 359 359 360 359 359 359 358 357 357 358 359 360 360 360 360 360
322 320 319 320 321 322 322 323 324 325 326 327 328 330 332 334 337 341 345 348 351 355 359 359 356 356 358 363 364 365 366 366 365 364 363 364 363 363 362 362 363 362 360 360 359 358 358 358 359 360 360 359 360 360 359 358 358 358 358 359 359 359 359
323 321 320 319 320 320 321 323 324 324 325 326 327 328 331 333 335 339 342 346 350 354 358 361 360 356 356 361 365 366 366 366 365 365 364 364 364 364 364 363 363 363 361 361 360 359 358 359 359 360 361 362 361 361 361 360 360 358 358 358 359 359 358
323 322 320 319 319 320 321 323 323 323 323 324 326 328 329 331 334 336 340 344 347 351 357 363 364 359 354 358 363 365 366 367 367 366 366 365 365 365 365 365 364 364 363 361 360 360 359 359 360 361 362 362 362 362 362 362 361 360 360 358 359 359 358
322 322 321 320 319 320 321 322 322 322 323 324 325 327 328 330 333 335 338 341 344 349 358 366 367 361 355 357 361 364 366 367 368 367 366 366 367 366 366 365 365 364 364 362 361 360 360 359 361 362 363 363 363 364 362 362 362 362 361 360 360 359 358
322 321 321 321 320 320 322 322 322 322 322 323 324 326 327 329 332 334 337 340 343 349 358 367 370 362 355 357 362 364 366 367 368 368 368 367 368 368 367 367 367 366 365 365 363 362 361 360 361 361 362 363 364 364 363 363 363 362 362 362 360 360 359
322 322 322 321 320 321 322 322 322 322 323 323 324 326 327 329 331 333 335 339 344 351 361 369 372 364 356 359 362 363 366 368 369 369 369 369 369 369 368 367 368 368 367 366 364 363 362 362 360 360 361 362 362 364 363 363 363 363 363 363 362 361 360
322 322 322 321 321 321 322 322 322 322 322 323 324 326 327 328 331 334 337 342 350 358 363 368 370 365 360 362 364 364 366 369 369 370 370 370 370 370 369 369 368 369 369 368 366 365 364 363 362 360 360 360 361 363 364 363 363 364 363 363 363 363 362
321 322 322 321 321 322 322 322 321 321 322 323 324 325 326 329 332 338 343 350 356 360 360 365 369 365 362 364 366 366 367 368 370 370 371 371 370 370 370 370 370 369 370 369 368 366 365 364 363 361 360 359 359 361 362 363 363 363 363 363 362 363 362
320 321 322 321 321 322 322 321 321 322 322 323 324 325 327 330 335 341 348 354 357 356 358 364 368 365 364 366 366 366 368 369 369 371 370 371 371 371 371 371 369 369 370 369 369 368 366 365 364 362 361 359 358 359 360 361 361 362 362 361 361 361 362
320 321 321 321 321 322 320 320 320 321 322 323 325 327 329 333 337 344 351 355 355 355 356 362 368 366 365 368 367 367 369 370 370 371 371 371 370 370 371 371 370 370 369 369 370 369 368 367 365 363 361 360 359 359 359 359 360 361 361 360 360 359 360
320 321 321 322 322 321 320 319 320 321 322 324 326 328 331 334 338 343 350 354 355 355 355 359 364 368 368 369 369 368 368 369 370 370 371 371 372 371 369 367 366 367 369 369 370 370 369 367 365 364 363 362 361 360 359 358 359 361 362 362 362 360 360
320 321 321 322 322 320 319 319 320 320 322 325 327 328 330 333 337 341 346 351 353 354 354 355 359 364 365 366 367 366 366 367 367 364 360 361 364 367 366 363 361 361 364 366 369 370 370 368 367 365 364 363 361 361 361 359 359 360 361 362 362 362 362

ECMWFFLT1_925_thetae_060.txt.gz
Theta_e
355 355 353 352 352 350 351 350 348 349 350 349 350 351 348 348 347 345 348 350 350 350 351 352 352 351 350 351 350 348 346 345 346 346 345 344 344 342 342 343 345 347 349 350 350 349 351 353 355 355 354 355 356 357 355 354 355 355 356 356 357 356 354
355 354 354 352 352 351 350 349 348 349 349 350 351 351 351 349 349 347 347 349 350 350 351 351 352 351 350 350 350 348 345 345 345 346 345 344 343 342 343 343 343 344 347 347 347 348 350 352 353 354 355 355 355 356 356 356 356 355 355 355 356 357 355
356 354 354 352 352 352 351 349 348 349 349 350 351 351 351 351 350 349 348 348 349 350 351 351 352 352 350 350 350 348 345 345 346 346 345 344 342 342 345 345 343 342 344 346 345 348 350 351 351 352 353 354 354 355 356 358 358 356 355 355 355 356 356
355 355 353 353 353 351 351 349 348 349 350 350 351 351 352 352 351 351 349 349 350 350 350 352 351 351 351 349 350 348 345 344 344 345 345 344 341 340 343 345 344 342 343 345 345 347 349 350 351 351 352 353 354 354 355 356 357 357 357 355 355 354 355
355 355 354 354 354 352 351 350 348 349 350 350 351 351 352 353 352 352 350 350 350 350 350 351 352 352 351 350 349 348 346 344 344 345 345 345 343 340 341 344 344 343 343 344 344 346 348 350 350 351 351 352 353 354 354 354 355 357 357 357 356 354 353
355 354 355 354 353 354 352 350 350 349 349 351 351 351 352 353 353 353 353 352 350 351 350 351 352 352 352 350 349 349 347 345 344 344 345 346 345 343 342 343 344 342 343 342 343 344 347 349 350 349 348 350 352 353 353 353 354 355 356 357 357 356 354
353 353 354 353 353 353 352 351 351 349 350 351 351 352 353 353 354 353 354 353 351 351 351 350 351 352 352 351 349 349 348 346 344 344 344 345 347 346 344 342 342 342 341 342 342 343 345 346 347 345 344 346 351 353 353 353 353 353 354 356 358 357 355
354 353 353 353 352 353 353 353 351 350 350 350 352 353 353 353 354 354 354 354 353 352 351 351 351 352 352 352 350 349 348 347 345 344 343 345 345 347 346 344 342 341 339 340 340 341 342 342 342 343 342 344 349 351 352 352 353 353 354 355 357 357 357
352 353 352 352 353 352 353 352 351 352 351 349 351 353 353 353 353 354 355 355 354 353 353 351 351 350 352 352 351 350 348 347 347 345 344 343 344 344 345 345 344 342 341 339 338 338 339 340 340 340 342 343 346 348 350 352 353 353 353 353 356 357 357
353 351 352 352 351 353 353 352 352 352 351 351 352 352 353 353 353 353 354 354 354 354 353 353 351 351 351 351 351 350 348 347 347 346 345 344 344 343 343 344 344 343 343 341 340 339 338 338 338 339 342 345 346 347 348 351 352 353 353 353 354 356 357
355 353 354 353 352 352 353 353 355 353 352 352 352 353 354 354 353 353 353 354 355 355 354 353 353 351 351 350 350 351 349 348 347 346 346 345 343 343 342 342 341 341 343 342 343 342 341 340 340 340 343 347 348 348 348 349 351 352 353 353 353 354 356
349 351 353 354 354 355 355 355 356 354 353 353 353 353 354 354 353 353 353 354 355 355 355 355 353 353 351 350 350 350 349 349 347 346 346 345 344 343 342 341 341 340 341 342 343 343 344 343 343 342 344 345 348 349 349 349 350 351 352 352 353 355 355
341 343 345 346 347 351 357 360 359 358 354 353 354 354 354 355 354 354 354 353 354 355 356 355 355 354 353 351 351 350 350 349 347 347 346 346 345 344 342 341 340 339 338 338 339 342 343 344 345 345 344 344 345 346 349 350 351 351 352 352 353 355 356
335 336 339 340 340 343 347 351 356 361 357 354 354 353 354 355 354 354 354 353 354 355 356 356 356 355 355 353 351 351 351 350 349 347 346 346 345 344 343 342 341 340 339 338 338 339 340 341 343 345 345 345 345 345 346 349 351 352 352 353 354 355 356
332 332 333 335 336 339 340 340 344 349 351 353 354 354 355 354 355 355 355 354 354 355 356 357 357 357 356 355 354 354 353 351 350 349 348 347 346 345 345 343 342 341 339 339 338 338 339 339 340 343 345 346 346 346 347 349 351 352 352 353 354 355 355
329 329 331 331 332 334 335 336 337 339 341 344 345 349 354 356 356 356 355 354 354 355 357 358 358 358 358 357 356 355 355 354 352 351 350 348 347 346 345 344 343 342 341 341 339 339 340 340 341 343 344 345 347 348 348 349 351 352 352 353 353 354 355
329 328 328 328 329 330 331 331 332 334 337 339 340 343 346 350 354 357 356 355 355 355 357 359 360 360 360 359 359 357 357 356 356 354 353 351 349 348 347 345 344 343 343 342 341 341 341 341 342 343 344 346 347 348 350 351 351 352 352 353 353 353 355
329 327 326 326 328 328 327 327 329 331 333 335 338 340 341 343 349 354 356 356 356 355 357 359 361 362 361 361 361 360 360 359 358 357 356 354 353 351 349 347 345 344 344 343 343 343 344 344 344 345 346 347 349 350 350 352 352 352 353 353 354 354 354
326 325 325 325 327 328 327 326 327 329 330 333 336 338 339 342 346 350 353 356 357 355 356 357 359 361 362 362 363 362 362 362 360 360 358 357 356 354 352 351 348 347 346 345 344 345 346 347 346 347 348 349 351 351 352 352 352 353 353 354 354 355 355
325 324 323 323 324 327 327 326 326 328 328 330 333 335 338 341 342 344 347 351 355 357 357 356 357 358 359 361 362 363 363 363 362 361 360 359 358 356 355 353 351 350 348 347 347 347 348 349 348 349 349 350 351 352 353 354 354 353 354 354 354 355 355
324 323 321 321 322 324 325 325 325 326 327 329 330 332 335 337 338 339 342 346 350 354 358 357 356 357 357 359 360 362 363 363 363 362 361 359 359 357 356 355 354 352 351 349 349 349 349 350 351 351 351 351 352 353 354 354 354 354 354 354 355 355 356
324 323 320 319 320 322 322 323 323 324 326 327 327 330 332 333 334 336 339 342 345 349 354 356 356 357 357 357 359 360 361 363 363 363 362 360 360 359 358 357 356 354 353 351 351 350 351 351 352 352 352 353 353 353 355 354 354 355 355 355 355 356 356
324 323 322 320 320 320 321 321 322 324 325 325 326 328 329 330 331 333 335 338 342 346 351 354 356 356 356 357 357 357 360 361 363 364 363 362 361 359 359 359 357 356 355 354 353 352 353 353 354 354 353 354 354 354 355 355 355 355 356 355 356 356 357
324 322 322 321 320 320 320 320 322 323 324 324 325 326 327 328 331 332 333 337 340 343 347 351 354 355 356 356 356 356 357 359 362 363 363 362 362 360 360 359 358 357 356 355 355 353 354 354 355 355 355 355 355 355 355 356 356 356 356 356 356 356 356
324 322 322 321 320 320 319 320 321 322 322 323 324 324 325 327 329 331 333 335 338 340 343 348 352 354 355 355 356 356 356 356 360 363 363 363 362 361 361 360 359 358 357 356 356 355 355 355 355 356 356 357 357 356 356 356 356 356 357 357 357 357 357
322 322 322 321 321 320 320 320 321 322 322 322 323 324 325 326 328 330 332 333 335 337 340 344 348 351 354 355 355 356 356 356 359 362 363 363 363 362 362 361 360 359 358 357 356 355 356 355 356 357 357 357 357 357 356 357 357 357 357 357 357 357 358
319 321 322 322 321 321 320 320 321 322 321 321 322 323 324 325 327 328 330 332 333 335 337 341 343 346 350 354 356 357 356 356 358 361 363 364 363 363 362 361 360 360 359 358 357 357 356 356 356 357 357 357 357 357 357 357 357 358 357 358 357 358 358
318 319 321 322 322 321 321 320 320 321 322 321 322 323 324 325 326 328 329 330 332 334 335 337 339 342 346 350 355 358 359 357 357 361 362 364 364 362 362 361 361 360 359 359 357 357 357 356 356 357 357 357 357 357 357 357 357 357 358 358 359 358 358
317 318 320 322 322 321 321 321 320 321 322 321 322 323 324 324 325 327 328 330 332 334 335 336 338 341 345 349 354 359 361 360 358 360 362 363 363 363 362 361 361 361 360 359 358 358 357 356 356 356 357 357 357 357 358 357 356 358 357 357 359 359 359
317 318 319 321 321 321 321 321 321 321 321 321 321 322 324 325 326 327 328 330 332 333 334 336 338 341 345 349 355 361 364 364 360 360 361 363 363 363 362 362 361 361 360 359 358 358 357 357 356 356 356 357 358 357 358 358 357 357 357 357 357 358 359
316 317 319 320 320 321 321 321 321 321 320 320 321 322 324 325 326 327 328 330 332 334 335 338 340 342 347 353 358 362 364 365 363 361 362 363 362 363 363 361 361 361 360 360 360 359 358 357 357 356 356 357 358 357 357 358 358 358 357 357 357 356 357
316 316 318 319 319 320 321 321 321 321 320 320 320 322 324 325 326 327 328 330 333 336 339 341 343 347 352 357 359 360 362 364 364 362 363 363 363 363 363 362 362 361 361 361 360 359 359 358 357 357 357 356 357 357 358 358 359 358 358 358 358 357 356
316 316 317 317 318 320 321 321 321 321 320 319 320 321 323 325 326 327 328 331 334 338 342 345 348 352 355 356 356 357 360 363 363 362 364 365 364 364 364 363 362 362 361 361 361 360 359 358 358 357 356 357 358 358 358 359 360 359 359 359 359 359 358
315 315 315 316 317 319 321 321 321 321 319 319 319 321 323 325 325 326 327 330 334 338 342 346 351 354 355 354 355 357 360 363 363 362 363 365 365 364 364 364 362 363 362 361 362 361 360 359 358 358 357 357 357 358 359 359 360 360 360 360 360 360 360
313 314 315 315 316 318 320 321 321 320 319 319 319 321 324 325 325 324 326 329 333 336 338 343 349 354 354 353 354 358 361 363 363 362 363 365 365 365 364 365 364 363 363 363 362 362 361 361 359 359 358 357 357 358 358 359 360 360 360 360 360 361 361
313 314 314 315 316 317 320 321 321 319 318 318 319 321 324 325 323 323 326 328 331 333 334 337 344 351 353 354 354 357 361 363 362 361 363 365 365 365 366 365 365 364 364 364 363 363 362 362 361 361 359 359 358 358 358 358 359 359 360 361 361 361 360
312 313 314 315 315 317 320 321 320 318 317 318 319 322 324 324 323 323 325 327 329 331 332 334 340 348 353 353 353 355 359 362 362 362 364 365 365 367 366 365 364 365 365 365 365 364 364 363 362 361 361 360 360 359 358 358 359 359 359 361 361 361 361
312 313 314 315 317 319 321 321 320 317 316 317 320 323 324 323 322 323 325 326 329 331 331 333 339 347 352 353 352 353 356 360 362 363 364 366 366 367 366 363 362 362 364 365 366 366 365 366 365 364 363 362 361 360 360 359 358 358 359 359 360 361 361

ECMWFFLT1_925_thetae_063.txt.gz
Theta_e
353 353 352 351 350 350 351 350 348 349 348 347 347 344 343 344 344 346 348 348 349 349 349 349 350 350 349 349 349 349 348 348 348 346 345 344 343 345 347 348 349 349 349 349 349 350 349 349 351 353 354 354 354 353 353 353 353 354 355 356 356 357 355
354 354 353 351 351 350 350 350 348 349 349 348 347 346 343 344 344 346 348 348 349 348 349 350 350 349 349 349 349 348 348 348 347 347 345 344 343 344 346 347 347 348 347 347 348 349 348 348 350 352 354 354 354 353 353 352 352 353 354 356 356 356 355
354 355 354 352 352 351 351 350 348 348 349 349 348 347 345 344 344 345 347 348 348 348 349 350 350 350 349 349 348 348 347 347 348 348 346 344 342 344 345 345 346 346 346 346 347 349 348 348 349 352 354 355 354 354 353 354 353 352 353 355 356 356 355
355 355 353 353 352 351 351 349 348 349 349 349 349 348 346 344 344 344 346 348 348 348 349 350 350 350 350 349 349 348 348 347 347 347 347 345 342 343 344 344 345 345 345 345 345 347 348 348 349 351 353 355 355 354 353 354 354 354 354 355 355 355 355
357 356 354 354 353 351 352 350 348 349 348 349 349 349 348 346 344 345 345 347 348 348 348 349 350 350 350 349 349 348 347 347 346 346 346 346 345 344 344 343 344 344 344 343 343 344 346 347 347 348 351 352 354 354 353 354 353 354 355 356 356 355 355
355 356 354 354 353 352 351 350 349 348 348 349 349 349 348 347 346 345 345 346 348 348 348 349 350 350 350 349 349 348 348 347 346 345 346 346 346 346 344 344 343 344 343 342 341 342 343 345 346 347 349 350 352 353 353 353 353 353 355 356 357 356 355
351 355 355 354 353 352 350 349 350 348 348 348 348 349 350 348 347 346 345 345 347 348 348 348 349 350 350 349 348 349 348 348 346 345 345 346 346 346 345 344 344 343 342 341 342 342 342 343 344 345 346 349 350 351 351 352 353 353 354 355 356 355 356
346 353 355 355 352 352 351 350 350 348 349 348 348 350 349 349 349 347 346 346 346 347 348 348 349 349 350 349 349 349 348 348 348 346 345 345 345 346 345 344 343 343 341 342 343 343 342 342 342 344 346 348 350 350 350 350 351 352 353 353 354 354 356
339 345 351 353 352 352 351 350 349 348 348 349 348 349 350 350 350 349 349 348 346 347 347 348 349 349 350 350 349 349 348 348 348 347 345 345 345 346 345 344 343 342 341 342 343 344 343 342 342 343 345 347 349 349 349 348 347 349 352 352 353 353 353
334 336 341 345 349 353 351 350 350 348 348 349 348 349 349 350 351 350 350 349 348 348 347 348 349 349 350 350 349 349 348 348 347 347 346 345 344 345 345 345 343 342 342 341 343 344 344 343 342 343 344 345 347 349 349 347 345 346 349 351 352 351 351
331 331 333 335 338 342 345 347 350 349 348 348 348 350 350 350 350 351 351 350 350 350 349 348 349 349 350 350 350 349 348 349 348 347 346 345 344 344 344 345 345 343 342 341 342 343 343 342 342 343 344 344 345 346 346 344 342 343 347 348 349 350 351
329 328 330 330 330 333 334 337 340 343 347 348 348 349 349 350 351 351 351 352 351 350 350 349 349 349 349 350 350 350 349 349 348 347 347 346 344 344 343 344 345 345 344 343 342 343 342 342 341 341 342 343 343 343 342 340 339 340 343 345 347 350 351
327 327 327 327 328 328 329 331 332 334 338 343 347 349 349 351 350 351 352 352 352 352 351 351 350 349 350 350 351 350 350 349 348 348 348 346 345 345 343 343 343 343 345 344 344 343 342 341 340 340 340 340 340 340 339 339 337 337 341 344 346 348 350
326 326 326 326 326 326 327 329 329 331 333 336 340 344 347 350 351 351 352 352 352 353 352 352 351 350 351 350 350 351 350 350 349 348 347 347 346 346 344 343 342 342 343 343 343 344 343 343 342 340 340 339 339 339 338 339 339 338 341 345 348 349 350
324 324 325 325 325 326 326 327 327 328 330 332 334 337 340 345 350 352 352 352 352 353 353 354 352 351 351 350 350 350 351 351 350 349 348 347 346 346 345 344 343 342 342 341 341 342 342 343 343 342 342 341 341 340 340 341 341 341 341 344 347 349 350
324 323 323 323 324 325 324 325 326 327 329 329 331 333 335 339 343 349 352 352 352 353 353 354 353 353 352 351 350 351 350 351 350 349 349 347 347 346 346 345 344 343 342 341 341 340 340 341 342 342 343 343 343 343 343 343 342 343 342 344 345 347 349
323 322 322 322 323 323 323 324 325 326 328 329 329 330 332 335 338 341 346 351 353 352 352 354 354 353 353 353 351 351 350 350 350 350 350 348 348 347 346 345 344 343 343 342 340 340 340 339 339 340 341 341 343 343 344 344 344 344 344 343 344 345 348
323 322 322 321 321 322 322 322 324 325 326 328 328 329 330 332 334 335 338 344 349 353 353 354 355 355 354 353 353 352 351 350 350 349 350 349 348 347 347 346 345 345 344 342 341 341 340 339 338 338 338 339 339 340 342 343 343 344 344 344 344 345 347
322 321 321 321 321 323 322 322 323 324 325 327 327 328 329 330 331 332 333 337 343 350 353 354 355 354 354 354 354 353 353 352 351 351 350 349 349 348 347 346 346 345 345 344 343 342 341 340 339 338 338 338 338 339 340 340 341 342 343 344 344 345 347
323 322 322 321 321 321 322 322 323 323 324 325 326 327 328 329 329 330 331 334 338 345 351 355 356 355 356 355 355 355 355 353 352 351 351 351 350 349 348 347 346 346 345 345 344 343 342 342 341 340 339 339 339 339 339 340 341 341 342 343 345 345 347
324 323 322 322 321 320 320 320 322 322 323 324 324 325 326 327 327 328 330 333 336 340 345 351 355 356 357 357 356 356 356 355 355 354 353 353 352 351 350 349 348 347 346 345 345 344 344 343 342 342 341 341 341 340 340 340 340 342 343 343 344 345 348
325 325 324 323 322 321 320 320 320 321 323 323 323 323 325 325 325 327 329 332 335 337 340 345 351 354 357 358 358 358 357 357 356 356 355 355 354 353 353 352 350 350 348 347 346 345 345 344 343 343 342 342 343 342 342 342 341 342 344 344 345 347 349
322 323 323 323 323 322 321 320 320 320 321 322 322 322 323 323 324 326 328 331 334 335 336 340 344 348 352 355 356 358 360 359 359 359 357 357 356 356 355 354 354 352 351 350 349 347 347 346 345 344 344 344 344 344 345 344 344 344 345 345 347 349 350
318 319 320 322 323 323 321 321 321 320 321 321 321 321 322 322 323 325 327 330 332 333 334 337 339 342 346 350 352 355 357 359 361 360 360 359 359 358 358 357 356 355 354 353 352 350 349 348 347 347 346 346 345 345 346 346 346 346 346 347 348 350 351
315 316 317 318 321 322 322 322 322 321 321 321 321 321 321 322 323 324 327 330 331 331 334 335 336 338 340 343 347 350 353 356 358 359 361 361 361 360 359 359 358 358 356 355 354 353 352 351 350 349 348 348 348 348 348 347 347 348 348 349 350 350 352
314 315 316 316 317 320 322 322 322 321 321 320 320 321 321 321 323 324 326 328 330 331 333 333 335 336 337 339 342 345 349 352 355 356 358 360 361 361 361 360 359 358 358 357 356 355 354 353 351 351 350 350 350 349 350 349 350 350 350 350 350 351 352
313 314 315 315 316 318 321 322 322 321 321 321 321 320 320 321 322 323 325 327 328 330 331 332 334 335 335 338 340 342 345 349 352 355 356 357 359 361 361 361 360 359 359 358 357 356 355 354 353 353 352 352 352 351 351 351 351 351 351 352 352 352 353
313 313 313 314 315 316 319 320 321 321 321 321 321 321 320 320 321 323 325 326 327 329 330 331 333 335 336 338 340 341 343 346 350 354 356 355 356 359 360 361 361 361 359 359 358 357 356 356 355 354 354 353 353 352 353 353 352 352 353 352 353 353 353
312 312 313 313 314 315 317 318 319 320 321 321 321 321 320 319 321 323 324 326 327 327 328 330 334 336 338 340 342 343 344 346 350 354 357 357 356 357 359 360 361 361 361 360 359 358 357 356 356 355 354 354 354 354 354 354 354 354 354 354 354 354 354
311 311 312 313 313 315 316 317 317 318 320 321 321 321 320 319 320 322 324 325 326 326 327 330 334 337 339 341 344 345 346 348 351 355 359 361 359 357 358 360 360 361 361 360 359 358 357 357 356 356 355 355 354 355 354 355 355 355 355 355 356 355 355
310 310 311 311 313 314 315 315 316 316 318 320 320 321 320 319 319 321 323 324 325 325 327 330 334 338 341 342 344 347 348 351 354 357 360 362 362 360 359 359 360 361 360 360 359 358 358 357 356 356 355 355 355 355 355 355 355 355 356 356 356 356 355
309 310 310 311 312 312 313 314 315 316 317 319 320 321 320 319 319 320 322 324 325 325 326 330 334 337 340 342 345 348 351 353 354 355 357 359 361 361 360 359 361 361 360 360 360 359 359 358 356 356 356 356 355 355 355 356 355 355 356 356 356 356 356
309 309 310 310 310 311 312 313 314 315 316 318 319 320 320 319 318 319 321 323 324 324 325 329 333 336 337 339 343 348 351 353 353 354 355 357 360 361 361 360 361 361 361 360 359 359 359 358 358 357 356 355 356 355 355 356 355 355 356 356 356 357 356
309 309 309 309 309 311 312 313 314 315 315 317 319 320 320 319 318 318 320 323 324 323 325 328 331 334 336 337 340 345 350 352 353 353 355 357 359 361 362 361 361 361 360 361 360 360 359 359 358 357 357 356 356 356 355 355 355 356 356 356 356 356 356
308 308 309 309 309 310 311 312 313 314 315 317 318 320 320 319 317 318 320 322 323 323 324 327 330 332 334 336 339 344 348 351 352 353 355 357 359 361 362 362 362 361 361 361 361 361 360 360 359 359 358 358 357 356 355 355 355 356 357 356 356 357 356
308 308 308 308 309 310 310 311 313 314 315 317 319 320 320 319 317 318 320 322 323 323 324 327 329 332 334 336 339 343 347 350 352 352 353 356 358 361 362 362 362 361 361 361 361 361 361 360 360 360 359 359 358 357 357 357 357 356 356 356 357 357 357
307 307 308 308 309 310 310 311 313 314 316 318 319 320 320 318 317 318 320 321 322 323 324 326 329 331 333 335 338 342 346 349 351 351 351 354 358 361 362 362 362 362 362 362 361 361 361 361 361 361 360 359 359 358 357 357 357 357 356 356 356 357 357
307 308 308 309 310 311 312 313 314 316 317 318 319 320 319 317 317 319 321 321 321 323 325 327 329 332 333 335 337 341 345 348 351 351 351 353 357 360 361 361 361 361 361 361 361 360 361 361 360 361 361 360 359 359 359 358 357 357 356 356 356 357 357

ECMWFFLT1_925_thetae_066.txt.gz
Theta_e
353 350 349 349 350 350 350 351 349 348 347 346 345 345 344 344 344 345 346 348 349 349 349 349 349 350 350 350 351 351 352 352 352 351 350 349 348 346 345 345 345 345 345 346 346 348 348 348 349 348 348 349 350 352 353 353 353 354 354 355 355 355 354
351 351 351 349 348 350 349 350 350 348 348 346 346 345 344 343 344 344 346 347 349 349 349 349 349 349 350 350 350 351 351 351 351 350 350 348 346 345 345 345 345 345 345 346 346 348 348 349 349 349 348 349 351 352 353 354 354 354 354 354 354 355 355
343 347 351 350 349 350 349 350 349 349 348 347 346 345 344 344 344 344 345 346 348 348 348 349 349 349 349 349 350 350 350 350 350 349 349 348 347 345 345 344 345 345 344 346 347 347 347 348 349 348 348 350 351 353 353 353 354 354 354 353 353 354 356
336 339 346 351 350 349 349 348 349 349 349 347 347 346 344 344 344 344 345 346 347 348 348 348 348 349 349 349 349 349 349 349 349 349 349 348 347 346 345 344 344 344 344 346 347 347 347 347 347 347 347 348 349 351 353 353 353 354 354 354 353 353 354
334 335 341 349 351 350 350 349 349 349 349 349 347 347 346 344 343 344 345 346 347 347 348 348 348 349 349 349 349 349 349 349 349 349 348 347 347 346 345 345 344 343 343 345 347 347 346 345 346 347 347 346 347 348 352 354 353 353 353 354 354 353 354
333 333 335 344 350 351 349 348 349 349 349 349 348 348 346 345 344 343 344 346 346 347 347 348 348 348 349 348 348 348 348 348 348 348 347 347 347 346 345 344 343 343 343 344 345 346 346 345 345 346 347 346 347 347 349 351 353 353 353 353 354 353 354
331 331 330 335 344 351 351 348 349 349 349 349 348 348 347 345 344 343 344 345 346 346 347 347 348 348 349 348 349 348 348 348 347 347 347 347 347 347 345 345 344 343 343 343 344 345 345 345 345 344 344 345 346 346 347 349 350 351 352 352 352 353 354
329 330 329 330 334 342 347 349 349 348 349 348 348 349 348 346 345 343 344 345 345 347 346 347 348 348 349 349 348 348 348 348 348 347 347 347 346 346 346 345 344 343 343 342 343 344 345 344 344 343 342 342 344 345 346 347 348 349 350 351 352 352 353
327 327 328 328 328 331 336 342 346 347 348 348 347 349 348 347 345 344 344 344 345 346 347 347 348 347 348 349 348 348 348 348 347 347 347 346 346 346 346 345 344 343 343 342 342 342 343 343 343 343 342 342 343 343 344 345 346 347 348 349 350 351 352
326 326 326 326 327 329 330 333 336 339 344 347 347 348 348 348 347 345 345 344 344 345 346 347 347 347 348 349 348 349 348 348 348 347 346 346 345 345 345 344 344 343 343 343 344 344 343 343 343 342 342 342 342 342 342 343 345 346 346 347 347 348 349
325 325 325 325 326 327 328 329 331 332 335 339 343 347 348 348 347 346 346 345 344 345 346 347 347 347 348 348 349 349 348 348 348 347 347 346 346 345 345 344 343 343 342 343 344 345 344 344 343 343 342 343 343 342 342 342 343 344 345 344 344 345 345
324 324 325 324 325 325 326 328 329 330 331 332 335 339 344 348 348 348 347 346 345 345 345 347 346 347 348 348 349 349 348 348 347 347 347 346 346 345 345 344 343 342 343 343 344 344 344 344 343 342 342 343 343 343 342 342 342 343 343 342 343 343 342
324 323 323 323 323 324 325 326 327 328 329 330 331 333 336 341 345 348 348 347 347 346 345 346 346 347 347 347 349 348 348 348 348 347 347 346 346 346 345 344 344 343 343 343 344 344 343 343 342 342 342 343 343 344 343 343 344 343 343 343 343 342 341
323 322 322 322 322 322 323 324 325 327 328 328 329 330 332 334 337 342 347 348 349 348 346 347 346 346 347 347 348 348 348 348 348 347 348 347 346 346 346 345 344 343 343 343 344 344 343 343 342 341 342 342 342 343 343 344 344 344 344 343 343 342 340
322 322 322 321 321 321 322 322 323 325 327 327 328 329 330 331 332 335 339 343 347 349 348 348 347 346 347 347 348 348 349 349 348 348 347 347 347 347 346 346 344 343 344 343 343 343 343 343 343 342 342 341 342 341 342 342 343 343 343 343 342 341 339
322 321 322 321 321 321 321 322 323 324 325 326 327 328 328 329 330 331 332 336 341 345 348 350 349 348 347 347 347 348 348 349 349 348 348 347 347 347 346 346 345 344 344 343 343 343 343 343 343 343 342 342 342 341 341 341 341 341 341 340 340 340 340
322 321 321 321 321 321 320 321 322 322 323 325 326 326 327 328 329 329 330 331 335 340 344 347 350 350 349 348 348 348 349 349 349 349 349 348 348 347 347 347 346 345 344 343 343 342 342 342 342 343 343 343 343 342 342 342 341 341 339 339 339 339 339
322 322 321 321 321 321 320 320 321 321 322 323 325 325 325 326 327 327 328 329 332 336 340 344 348 350 350 349 349 349 349 349 350 349 349 349 348 348 348 347 346 346 345 344 343 342 342 342 341 341 342 342 342 342 342 342 341 340 340 339 340 339 340
320 320 321 321 321 321 321 320 321 321 322 322 324 324 323 325 325 326 327 328 330 333 336 339 345 349 352 351 350 350 349 349 349 350 349 349 349 349 348 347 347 347 345 345 344 343 342 341 341 341 340 341 341 341 341 341 341 340 340 340 340 340 340
318 318 319 319 319 321 322 322 322 321 321 322 323 323 322 323 324 324 326 327 329 332 333 336 340 346 351 353 351 351 351 350 350 350 350 350 350 349 349 348 347 347 346 346 345 344 343 342 341 341 341 340 340 340 340 339 339 339 339 339 339 339 340
317 317 317 317 317 319 321 322 322 321 321 322 322 321 322 322 322 323 324 326 328 331 332 334 337 341 348 353 353 352 351 351 351 350 349 350 350 349 349 349 348 348 347 346 346 345 344 343 342 342 341 341 340 339 339 339 339 338 338 338 338 338 339
316 316 316 316 316 317 318 320 321 322 322 321 321 321 321 321 321 321 323 325 328 330 331 332 335 337 341 348 352 354 353 352 351 351 350 350 350 349 349 349 349 348 348 347 346 346 345 345 344 343 342 342 341 340 339 339 339 339 338 338 338 338 339
315 315 315 315 316 316 317 318 320 322 322 322 321 321 321 321 320 321 322 325 327 328 329 331 333 335 337 340 345 350 353 353 353 352 351 351 350 349 349 349 349 349 348 348 347 346 346 345 345 344 343 343 342 341 341 341 341 340 339 339 338 338 339
312 312 313 314 315 315 315 316 319 321 322 321 321 321 321 321 320 320 322 324 326 327 328 330 332 333 334 336 339 342 346 351 353 354 353 352 351 351 350 350 350 349 348 348 348 347 347 346 346 345 344 344 343 343 343 343 343 342 341 341 340 340 340
311 311 312 312 313 313 314 315 317 318 319 320 320 320 320 321 320 320 322 324 324 326 328 329 331 331 331 333 336 339 342 345 350 353 355 355 353 353 352 352 351 350 350 349 349 348 348 347 347 346 346 345 345 345 344 344 344 344 343 342 342 341 341
311 311 311 311 311 312 313 314 315 316 317 318 318 319 320 321 320 320 321 322 323 325 327 328 328 328 329 331 335 338 340 343 346 350 354 356 356 356 354 353 353 352 352 352 350 350 349 349 349 348 348 347 347 346 346 346 345 346 345 344 343 343 342
310 311 311 310 311 311 312 312 313 314 316 316 316 317 318 320 321 320 320 321 322 323 325 326 326 326 327 330 334 338 341 342 344 347 350 354 356 358 358 357 356 355 354 354 353 353 352 351 351 350 350 349 349 348 348 347 348 347 347 346 345 345 344
310 310 310 310 310 310 310 311 312 313 314 314 315 316 317 319 320 320 320 320 321 321 322 324 325 326 327 329 332 337 340 342 344 347 349 351 354 355 358 359 359 358 357 357 356 355 354 354 354 353 353 352 352 351 350 350 350 349 349 348 347 346 345
309 309 310 309 309 310 310 311 311 312 312 313 314 314 316 318 320 320 320 320 320 320 320 322 324 325 326 328 332 336 340 343 346 348 349 351 352 353 355 357 359 360 359 358 358 358 356 356 356 355 354 354 354 353 352 352 352 351 350 350 349 348 348
309 309 309 309 309 309 310 310 310 310 311 311 312 313 314 316 319 320 321 320 320 319 319 321 323 325 325 327 331 336 339 341 346 348 349 350 353 354 355 356 357 359 360 360 359 359 358 358 357 357 356 356 355 355 354 353 353 352 352 352 351 350 349
308 308 308 308 308 309 309 310 310 310 310 310 311 313 314 315 317 320 321 320 320 319 318 320 322 324 325 327 330 335 338 340 343 347 349 351 353 356 357 358 357 357 358 359 359 359 359 359 358 357 357 356 356 355 355 355 354 353 353 353 352 352 352
308 308 308 308 308 308 308 309 309 309 310 310 311 312 313 314 316 318 319 320 320 319 318 319 322 324 325 327 329 332 335 338 341 346 349 351 352 355 356 358 359 358 357 358 359 359 359 358 358 358 357 357 357 356 356 355 355 355 354 354 353 353 352
307 307 307 308 308 308 308 308 308 309 309 310 310 311 313 314 315 316 318 319 320 319 319 320 323 324 325 326 328 331 333 335 338 344 348 350 351 352 354 355 358 359 358 358 358 359 359 359 359 358 358 357 357 356 356 356 356 355 355 355 354 353 354
307 307 307 307 307 308 308 308 308 308 309 310 310 310 312 313 314 316 317 319 320 319 319 321 323 324 325 326 328 330 332 334 336 341 346 349 350 351 353 355 356 359 359 358 359 359 359 359 358 359 358 358 358 357 357 357 356 356 355 355 355 354 354
306 307 307 307 307 307 308 307 308 308 308 309 310 310 312 313 314 316 318 319 319 318 319 321 323 324 325 326 327 329 332 334 336 340 345 348 349 350 352 354 356 358 359 359 359 359 359 359 359 359 358 358 358 358 357 356 357 357 357 356 356 355 355
306 307 307 307 307 307 307 307 307 307 308 309 310 311 312 314 315 317 318 319 319 318 319 321 322 323 324 326 327 330 332 334 337 340 344 347 349 349 350 351 353 356 358 359 360 360 359 359 359 359 359 358 358 358 358 358 359 358 358 357 357 356 356
306 306 306 306 306 306 307 307 307 307 308 309 310 312 313 314 316 317 318 318 318 318 319 320 321 322 324 325 327 329 331 334 336 339 343 346 347 348 349 350 352 354 356 357 359 360 360 360 359 359 359 358 359 358 359 359 358 358 358 357 356 356 356
305 306 306 306 306 307 307 307 308 309 310 311 312 312 313 314 315 316 317 318 318 318 319 320 321 322 324 325 327 329 331 334 336 338 342 344 346 347 348 349 351 353 355 357 358 360 360 360 359 360 359 359 358 359 358 358 359 358 358 357 356 356 356

ECMWFFLT1_925_thetae_069.txt.gz
Theta_e
345 347 349 351 351 350 351 353 352 351 352 351 350 350 349 349 350 350 352 351 351 352 351 350 351 351 351 351 351 350 351 351 350 350 350 350 349 349 349 349 349 348 347 347 346 346 345 345 347 348 347 346 346 346 349 352 353 354 355 355 355 355 354
338 340 343 346 350 351 352 353 353 352 352 351 351 350 349 350 350 350 351 351 350 351 350 350 350 350 350 351 351 351 350 350 350 350 350 350 350 349 349 349 349 347 346 346 346 345 345 345 347 347 348 346 346 346 347 350 352 353 355 354 354 355 354
336 336 337 340 345 349 352 354 353 352 352 351 351 350 349 350 350 350 350 351 351 351 351 350 350 351 350 350 351 350 350 350 350 350 350 351 350 350 349 349 349 348 347 346 345 345 345 345 346 347 348 348 348 347 346 349 352 354 354 354 355 355 354
335 335 336 337 340 346 350 353 353 353 352 351 350 350 349 350 349 349 349 350 351 352 352 351 351 351 351 351 350 350 349 349 349 349 350 350 351 351 350 349 349 348 347 345 345 345 344 345 346 347 348 349 349 348 347 349 352 353 353 353 354 355 353
333 334 334 336 338 343 349 351 353 353 352 352 350 349 350 349 348 349 348 350 351 352 351 351 351 352 351 351 351 350 350 348 348 349 350 350 351 351 350 350 349 348 347 346 345 344 344 345 346 347 348 348 349 348 348 349 351 352 353 353 354 355 355
331 332 333 334 335 340 346 350 352 352 352 352 350 350 350 349 349 348 348 350 350 351 351 351 351 352 352 351 351 350 349 349 349 348 349 350 350 350 350 350 349 348 347 345 345 344 344 344 345 347 347 347 347 348 348 348 349 352 353 353 353 355 356
329 330 331 332 334 336 342 347 350 350 352 352 351 350 349 348 348 347 347 348 350 351 352 352 351 352 352 352 351 351 350 349 349 348 349 350 349 350 349 349 349 348 347 346 344 344 344 344 344 346 345 346 346 347 347 347 347 349 351 353 353 352 353
327 328 328 330 331 332 336 341 344 345 349 351 351 351 349 348 347 347 347 347 349 350 351 351 351 352 352 351 351 351 350 350 350 349 349 350 350 349 348 349 348 347 347 345 344 344 343 343 343 344 345 345 344 345 345 345 346 347 349 351 352 353 354
326 326 326 327 329 331 334 337 338 339 342 345 349 351 350 349 347 347 348 347 347 349 349 350 351 352 352 351 351 351 351 351 351 350 350 350 350 349 348 348 347 347 347 346 345 344 343 343 343 343 344 344 344 344 343 343 344 345 347 348 350 351 354
325 325 325 325 326 329 332 333 335 336 337 339 341 346 349 350 348 346 346 346 346 347 347 348 349 351 351 352 352 352 352 352 351 351 350 350 350 349 349 348 347 347 346 346 346 345 344 343 342 342 343 343 343 343 343 343 342 342 344 345 347 348 349
325 324 324 324 324 326 328 329 332 333 334 335 337 338 342 347 350 347 345 344 345 346 346 346 348 349 350 351 351 351 351 352 351 351 350 350 350 349 349 348 348 347 346 346 346 345 344 343 342 342 341 341 342 342 342 342 341 341 343 343 344 345 346
324 324 324 323 323 324 325 327 329 330 331 332 333 334 336 340 345 347 346 346 346 346 346 345 346 348 349 351 351 351 352 351 351 351 350 350 349 349 349 348 348 347 346 345 346 345 345 344 342 341 340 339 341 341 342 343 341 341 341 342 343 343 345
324 323 323 323 323 323 324 325 326 327 328 329 329 331 333 335 338 341 345 346 347 347 346 346 347 347 349 349 350 351 352 352 351 351 351 350 350 349 349 348 348 348 347 346 345 345 345 344 343 341 341 341 341 342 341 342 342 341 340 342 343 342 343
324 322 322 323 323 323 323 324 325 325 326 327 327 328 330 332 333 335 338 341 343 346 347 347 346 347 349 350 350 351 352 351 351 352 351 351 349 349 349 348 348 348 347 346 345 344 344 344 343 342 341 342 343 343 342 341 342 341 341 340 342 342 342
323 322 322 322 322 323 322 323 324 325 324 325 326 326 327 328 330 331 333 335 338 342 344 346 347 348 349 350 351 351 352 351 351 351 351 351 350 349 348 348 348 347 347 346 346 345 344 344 344 343 342 342 342 342 342 343 342 341 340 340 341 342 342
320 321 321 320 321 322 322 323 324 324 324 325 325 325 325 326 327 328 331 333 335 337 341 344 347 349 349 349 350 352 351 351 350 350 351 350 349 349 349 349 349 348 347 346 346 345 345 344 343 344 344 343 343 342 342 343 342 340 339 339 340 340 342
318 319 319 319 319 319 320 322 324 323 323 324 324 324 324 325 325 326 328 330 333 335 338 341 344 348 350 350 351 352 352 351 350 350 350 350 349 349 348 348 349 348 347 347 346 345 345 345 344 343 344 344 344 344 344 343 342 339 338 339 340 340 341
316 317 317 317 318 318 318 319 322 323 323 323 324 324 324 324 324 325 325 327 330 333 337 339 341 345 349 351 352 352 351 351 350 351 350 350 349 349 348 348 348 348 347 347 346 346 345 346 345 344 344 345 345 345 345 344 342 339 339 339 340 341 341
314 314 315 316 317 317 317 318 319 320 322 324 323 323 323 323 324 324 324 325 328 331 334 337 340 343 347 351 354 353 351 350 351 351 350 350 349 349 349 349 349 348 348 348 347 346 346 346 346 345 345 345 345 345 345 344 342 341 340 340 340 341 341
314 313 314 314 315 316 317 317 317 318 320 323 324 323 322 322 323 323 323 324 326 330 331 334 338 342 344 348 352 354 354 352 351 352 351 350 349 350 350 350 349 349 350 349 348 347 346 346 346 346 345 345 346 346 345 345 344 342 341 341 341 341 341
313 313 313 313 314 315 316 316 316 316 319 321 322 322 322 322 322 323 323 324 326 327 329 331 336 340 342 343 346 350 354 354 353 352 352 352 351 351 351 351 350 350 350 350 350 349 348 347 347 346 345 345 345 346 346 346 344 343 343 341 341 341 341
313 313 313 313 314 315 315 315 315 315 317 319 320 321 321 321 322 322 323 324 325 325 327 330 334 336 338 339 341 344 347 351 353 354 353 353 353 353 353 352 351 350 351 351 350 350 349 348 347 347 346 345 345 345 345 345 344 344 342 342 342 341 341
313 313 313 313 314 314 314 313 314 314 316 317 317 319 320 320 321 322 323 324 324 324 326 329 332 333 333 334 335 338 341 344 348 352 354 355 355 354 354 354 352 351 351 351 351 350 350 350 349 348 347 347 346 345 345 345 345 344 344 342 341 340 340
313 313 313 313 313 313 313 313 313 314 314 315 315 317 317 318 319 321 323 324 324 324 325 328 329 330 330 331 331 333 336 340 342 346 350 354 356 355 354 354 354 353 353 352 351 351 351 350 350 349 349 348 347 347 346 346 346 345 344 344 342 340 340
312 312 312 312 312 312 312 312 313 313 313 314 314 315 315 316 318 320 322 323 323 323 325 326 327 327 328 329 329 330 333 337 340 343 345 349 353 356 355 354 354 354 353 353 352 352 351 351 351 350 350 349 349 348 347 346 347 346 346 345 344 342 340
312 312 312 312 311 312 312 312 312 312 312 313 313 314 314 315 316 318 321 323 323 323 324 325 325 325 326 327 328 329 331 334 338 341 343 345 348 352 355 355 354 353 354 353 353 352 352 352 351 351 350 350 349 349 348 348 347 347 347 346 345 344 342
311 311 311 311 311 311 311 311 312 312 312 312 313 313 313 313 315 317 319 321 323 323 324 324 323 324 325 327 328 328 330 333 337 340 342 344 346 348 352 354 355 354 354 353 353 353 353 352 352 351 352 351 351 351 349 349 349 348 348 347 346 346 344
310 310 310 310 311 311 311 311 311 311 312 311 312 312 312 312 314 316 318 320 321 323 323 323 323 324 324 326 327 329 330 332 336 339 341 343 345 347 348 350 354 355 356 355 355 354 354 354 354 353 353 352 352 352 351 351 350 349 349 349 348 347 346
310 309 309 310 310 309 310 310 310 311 311 311 311 312 312 312 313 315 317 319 320 321 322 323 323 323 324 326 327 329 330 331 334 338 341 342 344 345 346 349 353 356 357 357 357 357 357 356 356 355 355 355 355 354 353 353 352 351 350 349 349 349 347
309 309 309 309 309 309 310 310 310 311 311 311 311 311 312 312 313 315 317 317 318 320 321 322 323 323 324 325 327 329 330 331 333 336 339 341 343 345 347 349 352 356 358 358 358 359 359 359 359 359 358 358 358 357 356 356 356 355 354 352 351 350 349
309 309 309 309 309 309 309 310 310 311 311 311 311 311 312 312 313 314 315 316 317 318 320 322 322 323 324 325 327 329 329 330 332 334 336 338 341 344 348 350 352 356 358 359 359 359 361 361 361 360 360 360 360 360 360 359 358 358 356 355 354 353 352
308 309 308 308 309 309 309 310 310 310 311 311 311 311 312 312 312 313 314 314 316 317 320 321 322 323 323 325 327 327 329 330 331 333 335 336 338 341 346 350 353 356 358 359 359 360 361 362 362 362 361 361 361 361 361 361 360 360 359 358 356 355 354
308 308 308 308 308 309 309 309 310 310 311 311 311 311 312 312 312 312 313 314 315 316 319 321 322 323 323 325 326 327 328 329 331 332 334 335 337 339 343 348 352 354 357 358 359 359 360 361 361 361 361 361 362 362 362 362 362 362 361 360 358 357 355
308 308 308 308 308 309 309 309 310 310 310 311 311 311 312 312 311 312 313 314 315 316 319 321 322 322 323 324 325 327 327 329 331 332 334 335 336 338 341 345 349 351 354 356 358 360 360 361 361 362 362 362 362 362 362 363 363 362 362 361 360 359 357
308 308 308 308 308 308 308 309 309 310 310 310 311 311 311 311 311 312 313 314 315 317 319 321 321 322 323 323 324 326 327 329 331 332 333 335 336 337 339 343 346 349 351 353 356 359 360 360 361 362 363 363 363 364 364 364 363 361 361 360 359 359 358
308 308 307 307 307 307 308 308 309 309 309 310 310 311 311 312 312 313 314 315 315 317 319 320 320 321 323 323 324 325 327 329 330 331 333 335 336 337 339 340 343 346 348 350 352 354 357 358 360 362 362 362 363 363 364 364 362 359 359 360 359 359 358
307 307 307 307 307 307 307 308 308 309 309 310 311 311 311 312 312 313 314 315 315 316 317 319 320 321 322 323 323 324 325 327 329 330 332 334 335 337 338 340 342 344 346 347 348 349 351 353 356 358 359 360 361 361 362 362 361 359 359 359 358 359 358
307 307 307 307 307 308 308 308 308 309 309 310 311 311 312 312 312 313 313 314 314 315 317 318 319 321 321 322 322 323 324 326 328 330 331 333 335 336 338 340 343 345 345 346 347 348 349 351 353 355 357 358 358 359 360 360 360 360 359 359 359 358 358

ECMWFFLT1_925_thetae_072.txt.gz
Theta_e
348 348 351 352 352 352 354 355 356 355 356 355 355 354 354 354 354 355 357 359 361 362 363 363 362 362 361 361 361 361 360 358 358 357 356 356 355 355 355 354 355 354 353 352 354 355 356 356 357 357 359 358 357 357 358 359 360 360 362 361 361 362 361
345 345 347 348 349 351 354 356 355 355 356 355 355 356 354 355 354 356 357 359 360 362 363 363 362 362 362 361 361 361 361 359 358 358 357 356 356 356 356 355 354 354 354 352 353 355 356 357 357 357 358 357 356 356 357 357 358 360 360 361 361 362 362
342 343 343 345 347 349 353 356 356 355 355 354 355 355 355 354 355 355 357 359 361 361 362 362 362 361 361 361 361 361 361 359 358 358 356 355 356 355 355 355 354 354 354 353 353 354 354 355 357 357 357 357 356 356 357 357 357 358 359 360 360 360 361
339 341 342 343 345 347 351 355 357 356 356 354 354 354 355 355 355 356 356 358 360 360 361 361 361 361 361 361 361 361 362 360 358 357 355 352 353 354 353 354 355 354 353 353 353 353 353 353 356 357 357 356 355 357 357 356 356 357 358 359 359 359 360
337 338 340 342 344 346 350 353 355 356 355 354 354 355 355 355 354 355 357 357 358 359 360 360 360 359 360 361 361 360 361 360 359 357 355 352 352 354 354 354 354 353 353 353 353 353 354 353 354 356 357 356 356 356 357 356 356 357 358 358 358 358 359
334 336 337 340 341 343 348 351 353 355 354 354 355 355 354 354 355 354 355 356 356 357 358 357 357 358 360 360 359 360 360 360 359 358 356 354 353 355 354 354 354 353 353 353 353 353 354 354 352 354 356 355 354 355 355 356 354 355 357 357 357 357 357
331 333 334 337 338 340 344 347 349 351 352 354 354 355 355 354 355 354 354 355 354 355 355 355 355 355 357 358 358 359 359 359 360 359 356 355 354 355 355 354 354 353 352 353 354 353 354 354 353 353 355 354 353 353 354 355 355 354 356 357 358 358 357
330 331 331 333 335 336 340 344 344 346 348 349 351 354 354 354 354 352 353 354 353 354 354 354 354 354 356 358 357 359 359 358 359 359 356 355 354 355 354 354 355 354 353 353 353 353 353 352 352 353 354 353 353 354 354 355 356 355 354 356 357 358 357
329 329 329 330 332 335 338 339 341 341 343 343 346 350 353 354 352 352 353 352 353 353 353 353 354 354 355 357 356 357 358 358 357 359 358 355 353 354 352 352 354 354 354 352 351 353 353 351 351 352 354 354 354 355 355 355 356 354 353 355 357 358 356
329 329 329 328 330 334 335 335 336 338 338 338 340 343 347 352 354 354 355 354 352 352 352 352 353 353 355 356 356 355 357 357 357 357 358 355 352 352 352 351 352 353 354 352 350 350 351 352 351 352 355 356 354 356 357 355 355 355 353 355 356 357 357
329 329 328 327 329 330 331 333 334 334 334 334 335 336 341 347 352 354 353 353 353 351 352 353 352 352 353 354 354 356 356 357 357 356 356 355 353 352 351 350 349 351 353 352 349 348 350 352 352 351 355 356 355 355 356 356 356 355 354 354 355 356 355
328 328 328 328 327 327 328 330 330 331 331 331 332 333 334 339 347 351 351 351 351 349 351 352 351 351 352 352 353 356 356 356 356 356 355 355 354 352 351 350 349 349 352 352 350 348 348 351 352 352 354 356 354 353 356 356 356 356 355 353 352 354 354
327 326 326 326 326 326 327 328 328 329 330 329 330 330 331 333 337 344 348 350 350 349 350 351 351 351 350 351 352 354 355 355 355 355 355 355 355 353 352 351 350 350 351 352 351 350 347 348 351 352 353 354 354 352 353 356 356 356 356 353 352 353 354
326 324 324 324 324 325 325 326 327 328 327 328 328 328 329 330 331 335 340 345 347 348 348 350 350 351 350 351 352 353 354 354 355 355 355 355 355 354 354 352 352 351 351 352 352 350 349 348 349 352 351 351 352 351 351 354 355 356 356 355 352 351 353
324 323 323 323 322 322 323 324 325 327 326 327 327 327 327 328 328 330 333 337 341 343 346 348 349 350 350 351 352 352 353 354 354 355 355 356 356 356 355 354 354 353 352 353 353 351 351 350 349 350 351 351 350 351 350 351 352 353 355 356 354 351 351
321 321 321 322 322 321 321 322 323 324 325 327 326 326 326 326 326 328 330 332 335 339 342 345 348 349 350 350 350 351 353 354 355 355 355 356 357 357 357 355 354 355 354 354 354 353 352 352 350 350 350 351 351 351 349 348 349 350 351 351 351 352 351
320 319 319 320 320 320 320 321 322 321 323 325 326 325 325 325 325 326 328 329 331 334 339 342 346 348 350 351 351 351 352 354 356 356 356 357 358 358 359 356 356 355 355 355 354 354 353 353 352 351 350 351 351 351 351 348 346 348 347 344 341 344 350
319 319 318 319 319 319 319 320 320 320 321 322 324 324 324 324 324 325 326 327 328 331 334 339 344 347 350 352 352 352 353 353 356 357 357 357 358 359 359 358 357 356 356 355 355 355 355 354 353 352 351 350 350 350 350 349 347 347 346 342 336 335 341
318 318 318 318 318 319 319 319 320 319 319 320 322 322 323 323 323 323 325 326 327 329 332 336 342 346 349 351 352 353 354 353 355 356 357 357 358 359 360 359 358 357 356 356 355 356 355 355 354 354 352 352 351 351 351 350 349 348 346 344 339 335 337
317 317 317 317 317 319 319 320 319 318 319 319 319 320 322 322 321 322 324 325 327 328 330 333 339 344 346 348 350 353 353 353 354 355 357 358 358 359 359 359 359 358 356 356 355 356 356 355 355 355 354 353 352 352 352 351 350 349 348 346 344 341 340
318 317 317 317 317 318 319 318 318 319 319 319 319 319 320 320 320 321 323 324 326 328 328 332 336 339 341 343 345 348 350 351 353 354 355 357 358 358 358 359 359 359 357 356 355 355 356 356 355 355 354 355 354 353 353 352 351 350 349 348 346 345 344
317 317 316 317 317 318 318 318 317 317 318 318 318 318 318 318 319 319 321 323 326 327 328 330 333 335 336 338 340 341 343 346 350 353 355 355 356 358 358 358 359 359 358 357 355 355 356 355 355 356 355 354 354 354 353 353 352 350 349 348 347 346 346
316 317 317 317 316 316 316 316 316 316 317 317 317 318 318 318 318 319 320 322 324 326 327 329 331 331 332 334 337 338 338 340 345 350 354 355 355 357 357 357 358 359 360 358 356 356 356 355 356 356 355 355 355 355 355 354 353 352 351 349 348 347 346
316 316 316 316 316 316 316 316 316 316 317 316 316 317 317 317 317 318 319 321 323 325 326 328 329 329 330 331 333 336 337 338 340 344 349 352 354 355 356 356 355 357 358 359 357 356 356 356 356 356 356 355 355 355 355 355 354 353 351 351 349 348 347
315 315 315 315 315 314 315 315 315 316 316 315 316 316 316 317 317 317 318 320 321 323 325 327 328 329 328 329 331 334 336 338 338 340 342 347 351 353 354 354 353 354 355 356 356 356 356 356 356 356 356 356 356 355 354 355 355 353 352 351 349 348 346
315 314 314 314 314 314 314 314 315 315 315 315 315 316 316 316 317 317 318 319 319 321 323 325 327 328 328 328 329 332 335 337 338 339 341 344 347 349 351 351 352 352 353 353 353 352 353 355 356 357 357 356 356 356 355 354 354 354 353 351 350 349 347
313 313 313 312 312 313 313 313 314 314 314 315 315 315 315 315 316 317 318 318 318 320 321 323 326 327 328 328 329 330 333 336 338 339 341 343 345 347 348 348 349 351 352 353 353 352 352 354 356 358 357 356 356 357 356 356 355 354 354 352 351 350 348
312 312 312 311 312 312 312 312 313 313 313 314 314 314 315 315 316 317 318 319 319 319 319 321 323 325 327 329 329 329 331 335 337 338 340 342 344 346 347 346 347 348 350 352 353 354 353 352 353 355 357 357 358 357 358 357 355 355 355 353 352 352 349
312 312 311 311 311 311 311 311 312 313 313 314 314 314 315 315 316 317 318 318 319 319 318 319 321 324 327 328 329 329 331 333 335 337 339 341 343 344 346 347 347 347 349 351 354 356 355 354 354 356 357 358 358 358 359 359 358 357 355 354 353 352 351
312 311 311 311 311 311 310 311 312 312 313 313 314 314 315 316 316 317 318 319 320 319 318 319 320 323 326 327 328 329 330 331 333 335 337 339 341 343 345 346 347 348 348 350 353 356 357 357 357 357 358 359 359 359 358 359 360 359 357 356 354 353 352
311 311 311 310 310 311 311 311 312 312 312 313 313 314 315 316 316 318 318 319 319 318 318 319 320 322 325 326 328 329 330 331 332 333 336 337 339 341 343 344 347 348 349 350 353 356 358 359 359 359 359 360 361 361 360 360 361 362 361 358 356 355 354
311 311 311 311 310 311 311 311 312 312 313 314 314 314 315 315 316 317 317 318 318 318 318 319 320 322 324 326 328 329 329 330 331 333 335 336 338 340 341 343 345 347 349 350 353 356 358 359 360 361 360 361 361 362 361 360 359 361 364 363 361 358 357
312 311 311 311 311 311 312 312 312 313 314 314 315 315 315 315 316 317 317 318 318 317 317 318 320 322 323 325 327 328 328 329 330 332 333 335 337 339 341 342 344 346 348 350 352 354 357 358 359 361 361 361 361 361 362 361 358 358 361 364 362 361 360
311 311 311 311 311 311 312 312 312 313 313 314 315 315 315 316 316 316 316 317 317 317 317 318 319 321 323 324 325 326 327 328 328 330 332 334 336 339 339 341 343 345 347 349 350 353 355 356 357 359 358 356 356 356 357 359 359 358 359 360 362 363 362
310 310 310 310 311 311 311 312 312 312 313 313 313 314 315 315 316 316 316 316 317 317 318 319 320 321 323 323 324 325 326 327 327 329 331 334 335 336 338 339 341 342 344 346 347 349 352 353 354 355 354 353 354 354 354 357 361 360 359 359 359 360 361
310 309 310 310 310 310 310 311 311 312 312 312 313 313 314 315 316 316 316 316 316 317 318 319 320 321 322 323 324 325 326 327 327 327 330 332 334 335 336 338 339 339 340 342 342 343 345 347 348 349 349 349 351 353 354 356 359 360 360 360 358 356 359
309 309 309 309 309 309 310 310 310 311 311 311 312 313 313 314 315 316 316 316 316 317 318 319 320 320 320 321 323 325 326 326 326 327 329 331 333 334 335 337 338 339 339 340 340 340 342 343 344 345 345 345 346 349 350 352 356 357 358 359 359 358 359
308 308 308 309 309 309 310 310 310 310 310 311 311 312 312 313 314 315 316 316 316 317 318 318 319 319 319 320 322 324 325 325 326 327 329 331 333 334 335 336 337 339 340 341 342 343 344 344 345 346 346 346 346 347 349 350 351 354 355 357 358 358 359

ECMWFFLT1_925_thetae_075.txt.gz
Theta_e
353 354 353 353 355 355 355 357 357 356 358 358 359 357 356 355 355 356 358 361 363 364 364 362 361 361 360 359 359 358 357 357 356 356 357 357 356 355 354 353 354 354 354 353 354 356 357 356 357 358 359 359 357 358 360 362 363 362 364 363 362 363 360
350 352 353 352 352 354 356 358 357 357 357 358 359 358 356 356 355 356 358 361 362 363 364 364 363 363 362 360 360 359 359 357 357 357 356 356 356 355 354 354 354 353 354 353 353 355 357 356 356 358 359 358 357 357 358 359 361 361 363 364 361 363 364
347 350 351 349 350 352 356 358 358 357 357 357 357 358 356 356 357 357 358 361 362 362 365 365 364 364 364 362 361 361 360 358 357 356 355 355 355 355 354 354 354 353 353 353 353 355 356 356 356 356 357 357 356 356 356 357 358 359 362 364 361 360 364
345 347 348 349 351 353 355 357 356 356 356 357 357 357 357 357 357 357 358 360 362 363 364 364 364 363 362 364 363 362 362 360 357 356 354 352 353 354 353 353 355 353 352 353 352 353 354 354 355 355 356 357 356 355 356 356 357 357 359 361 360 357 361
343 346 347 349 351 351 353 356 358 358 357 357 357 356 356 357 357 357 358 357 358 361 359 360 363 362 361 363 364 363 363 362 359 356 354 351 351 352 352 352 354 352 351 352 351 352 352 353 354 355 356 356 356 355 355 356 356 357 357 359 359 357 359
340 341 344 346 349 349 351 353 356 359 358 357 357 355 354 354 355 356 355 355 355 355 353 354 359 360 360 361 361 362 363 364 362 358 355 353 350 351 352 351 353 352 350 351 351 351 352 353 353 354 355 355 355 354 354 355 355 355 357 357 358 357 356
337 338 341 343 344 345 347 350 353 357 357 356 357 356 354 353 353 354 353 354 355 355 354 356 359 359 360 361 360 360 362 363 364 360 357 354 351 351 351 351 351 351 350 350 351 351 352 354 354 354 354 353 353 352 352 353 354 354 355 356 357 358 357
336 337 338 339 340 341 344 348 348 352 354 354 355 356 354 353 353 352 352 352 354 356 356 357 358 357 358 361 362 362 361 361 363 362 358 354 352 352 351 351 351 352 350 349 350 351 352 353 354 353 353 353 352 352 351 352 354 354 353 354 356 357 356
335 336 335 336 337 339 343 345 344 345 347 347 348 350 352 354 353 352 352 353 354 356 355 356 357 356 357 359 362 362 360 359 360 361 359 355 352 352 349 350 351 351 351 350 349 350 352 352 353 352 352 354 353 353 351 352 355 355 353 353 355 356 355
335 334 334 333 335 339 342 341 341 342 342 342 343 342 345 350 353 354 353 353 354 354 354 355 355 356 357 357 360 361 359 359 360 360 359 355 351 351 348 348 348 350 351 350 348 348 350 351 351 352 352 354 354 354 353 353 355 356 354 354 354 356 356
333 334 333 333 333 334 337 338 339 340 339 340 340 340 341 344 349 353 353 352 353 352 352 353 353 355 355 355 358 358 357 358 359 358 358 355 351 350 349 347 347 347 350 349 346 345 347 350 351 351 352 354 354 354 355 356 356 356 355 354 353 355 355
332 333 332 332 332 331 332 334 337 337 337 337 337 338 339 340 342 347 350 352 353 351 351 353 354 354 354 355 357 357 355 356 357 358 357 355 352 351 349 347 346 346 348 348 346 344 345 348 350 351 352 354 355 355 355 356 356 357 356 354 352 353 353
330 331 330 330 331 330 330 332 334 335 334 334 335 336 337 338 338 340 344 348 350 352 351 353 354 353 353 355 355 354 353 354 356 358 357 356 354 352 351 348 346 346 346 347 347 345 344 344 348 351 351 352 354 355 355 356 356 356 357 356 351 350 352
330 329 328 329 329 329 330 329 331 332 332 332 333 333 334 335 336 337 339 341 344 348 350 351 352 352 353 354 353 354 354 355 355 357 357 355 354 354 353 351 348 347 346 346 345 346 345 343 345 350 352 352 353 354 353 353 355 356 357 357 355 351 350
329 327 327 327 327 327 327 327 328 329 330 329 330 331 331 331 333 335 335 337 340 342 344 347 350 351 352 352 352 353 354 355 356 355 356 356 356 357 357 354 352 349 347 346 346 346 344 343 342 346 349 351 352 353 352 351 352 355 356 357 356 353 350
326 325 325 325 325 325 326 326 326 327 327 328 328 329 329 329 329 331 332 334 336 338 339 343 347 350 351 352 353 353 353 355 355 355 356 357 359 358 358 356 355 352 350 349 348 347 346 346 343 344 346 349 350 351 350 348 347 350 353 354 356 355 351
324 324 324 324 324 324 324 325 325 325 325 326 325 327 328 327 327 328 330 332 333 335 337 340 345 349 350 351 352 353 353 354 355 355 355 357 358 360 360 358 358 356 354 353 351 350 350 349 348 346 344 346 348 348 348 346 344 346 348 351 352 353 353
324 324 323 323 323 323 323 324 324 324 324 324 323 325 325 325 325 326 327 330 331 333 335 339 343 348 350 351 353 354 354 354 356 356 357 358 358 358 358 356 357 357 356 355 355 354 353 352 352 351 349 347 346 347 347 345 343 343 344 347 348 350 350
323 323 323 322 323 323 323 323 324 323 323 323 323 323 322 322 322 324 325 327 330 332 333 337 341 345 348 349 352 353 353 353 354 354 356 357 357 357 356 353 352 354 355 356 356 356 356 356 355 355 354 352 349 348 346 345 344 344 343 344 345 345 345
322 322 322 321 322 323 323 323 323 322 322 323 322 322 321 320 321 322 323 325 328 331 332 334 338 341 342 343 346 349 350 351 351 351 354 356 354 355 356 355 353 351 352 353 355 356 358 357 356 357 356 355 354 352 351 348 346 346 345 344 345 345 344
322 322 321 321 321 322 322 322 322 321 322 322 322 323 322 320 320 321 321 323 326 328 330 332 335 337 338 339 342 344 345 348 349 349 352 353 352 352 353 353 352 352 351 351 352 355 357 357 357 357 358 358 357 355 354 352 350 349 348 348 347 346 346
322 320 320 321 320 321 322 321 320 320 321 321 322 322 322 322 321 320 320 322 324 326 328 331 333 335 336 335 337 339 340 343 345 347 350 350 351 353 353 353 353 352 352 353 352 352 353 354 354 356 357 358 358 357 356 354 353 352 351 351 350 348 348
320 320 320 320 320 320 320 320 319 319 320 320 320 321 321 321 321 321 321 321 321 322 325 329 331 334 335 334 334 335 337 340 343 346 347 348 349 351 352 352 353 352 352 353 353 353 352 352 353 353 356 358 358 358 358 357 355 354 352 353 352 350 350
320 320 319 319 318 318 318 319 318 318 319 319 319 320 320 320 321 321 321 321 320 320 323 325 328 331 332 332 332 333 334 337 341 344 345 346 348 349 349 350 351 353 353 353 353 354 354 354 354 353 354 357 358 358 359 358 358 357 355 354 353 352 351
319 318 318 318 317 317 317 317 318 318 319 318 319 319 319 319 320 321 321 322 321 319 320 323 325 327 328 331 332 332 333 334 336 341 343 344 344 347 348 348 349 351 353 353 353 353 353 353 354 353 353 354 356 358 358 358 359 358 357 356 355 353 352
317 317 317 316 316 316 316 316 317 317 317 317 318 318 318 319 320 320 322 323 322 321 321 321 322 324 325 328 330 332 332 332 334 338 341 342 341 344 347 347 347 348 350 351 353 354 354 354 355 356 355 354 355 357 357 357 357 358 358 357 356 355 353
315 316 315 314 315 315 315 315 315 316 316 316 317 317 317 318 319 320 322 322 323 322 322 321 321 322 323 325 328 330 332 333 333 336 339 341 341 341 343 345 347 348 348 349 351 352 355 356 356 357 357 357 356 357 357 355 356 357 359 357 356 356 354
315 315 315 315 314 314 314 314 314 315 315 315 315 316 317 317 318 320 321 322 323 323 322 322 322 322 322 323 325 328 330 333 334 335 337 340 341 342 341 342 346 348 348 348 351 352 353 355 356 357 358 358 357 358 359 358 356 356 358 357 357 357 355
315 315 315 314 313 313 314 313 314 314 315 315 315 316 316 317 318 320 321 322 323 323 323 323 323 323 322 323 324 326 328 331 333 335 335 337 339 341 342 343 345 347 347 348 350 352 354 355 356 356 358 359 359 357 359 359 358 357 358 357 357 356 355
316 315 315 314 314 313 313 313 314 314 314 314 315 315 316 317 318 319 321 322 323 323 323 324 323 323 323 323 323 324 325 327 330 331 333 334 336 338 340 343 344 345 347 349 351 351 353 354 355 355 356 358 359 358 357 357 358 359 359 359 358 357 356
315 315 315 315 314 314 314 314 314 314 314 314 315 315 316 317 318 319 320 321 322 322 323 324 323 323 323 323 324 324 324 326 327 329 331 332 334 336 338 340 342 343 346 349 350 351 352 352 354 355 356 358 359 358 356 355 355 357 359 360 360 359 357
315 316 316 315 315 315 315 314 314 314 314 315 315 316 316 317 318 319 320 321 321 322 322 323 324 324 323 323 324 325 326 326 327 328 329 330 332 335 337 338 340 342 343 346 348 350 351 351 354 354 356 358 358 354 352 353 354 356 358 360 360 360 358
315 315 315 315 315 315 315 315 315 316 316 316 316 317 317 317 318 319 320 320 320 320 321 321 322 323 323 323 323 324 326 327 328 328 329 329 331 333 334 336 339 342 344 345 346 348 349 351 353 355 357 358 356 353 353 354 354 354 356 359 360 359 357
315 314 314 314 314 314 314 315 315 316 316 316 316 317 317 317 318 318 319 320 320 320 321 321 321 322 323 323 323 322 323 324 326 327 328 328 327 328 330 335 337 340 343 344 346 347 349 349 350 353 356 358 355 353 353 352 353 353 354 358 360 357 357
314 313 313 313 313 313 314 314 314 315 315 315 316 316 316 317 317 317 318 319 319 320 320 321 321 322 322 323 323 323 323 323 324 326 326 327 327 327 330 334 336 337 339 339 340 342 343 345 345 346 349 351 353 354 354 354 355 355 356 357 358 356 355
312 312 312 312 312 313 313 313 314 314 314 315 315 315 316 316 316 317 317 318 319 319 320 321 321 321 322 323 324 324 324 323 323 324 326 327 328 328 328 329 332 334 335 335 335 335 336 337 339 339 340 342 344 346 349 350 354 356 356 355 356 355 354
311 311 311 311 311 312 312 312 312 313 314 314 314 314 315 315 315 316 316 317 318 318 320 320 321 321 322 322 323 323 323 323 323 324 326 328 329 328 327 328 329 332 334 335 334 334 334 335 336 337 339 341 341 342 342 344 346 348 350 351 352 353 352
310 310 310 310 311 311 311 312 312 312 313 313 313 314 314 314 315 315 315 316 316 317 318 319 320 320 321 321 323 323 323 323 323 324 326 328 328 328 329 329 331 332 334 335 335 336 337 337 338 340 342 343 343 343 343 344 344 345 345 346 347 348 349

ECMWFFLT1_925_thetae_078.txt.gz
Theta_e
356 356 357 357 359 359 359 360 359 357 356 354 354 354 354 355 357 358 360 360 359 359 359 358 360 360 359 357 357 357 356 356 356 356 356 358 358 357 357 356 355 355 356 356 357 358 356 356 356 358 359 358 360 360 360 361 360 359 359 357 356 357 358
355 355 356 357 358 358 358 360 360 359 358 358 358 356 354 356 357 359 361 361 361 361 360 359 361 361 360 358 358 359 358 357 357 356 356 357 358 357 356 355 354 354 355 354 354 356 356 355 355 357 359 359 359 360 360 362 361 360 360 360 358 358 358
354 355 355 355 357 356 357 359 360 359 358 357 358 357 354 354 355 357 360 360 361 360 359 360 362 361 360 359 359 359 358 357 358 356 356 357 358 357 356 354 353 353 355 353 352 354 355 356 356 356 359 359 357 358 359 360 361 360 361 360 359 359 358
352 354 353 354 357 355 356 359 359 359 358 358 358 355 353 352 353 355 357 357 356 355 356 360 362 361 361 361 360 359 359 358 357 357 356 356 356 357 356 354 354 353 354 353 353 354 354 356 357 356 358 358 357 357 358 359 359 360 360 360 360 358 355
349 354 353 354 356 355 356 358 360 361 361 359 357 355 354 353 353 355 357 358 357 356 357 360 362 361 360 361 360 360 360 360 358 357 356 354 354 355 355 354 355 354 353 354 353 353 354 355 356 356 356 357 357 356 356 357 357 358 359 359 360 358 356
346 351 352 354 355 353 355 357 358 360 360 358 357 356 354 352 353 355 357 359 359 358 360 362 362 361 359 361 361 360 360 361 359 358 356 354 352 353 353 354 354 355 354 352 353 352 352 354 356 356 356 357 357 356 356 357 357 357 357 358 358 358 357
344 347 350 350 350 350 351 356 358 358 358 360 359 357 352 352 354 355 354 356 357 358 360 362 363 362 359 360 362 362 359 358 358 358 356 354 352 352 353 352 353 354 352 352 352 351 351 353 354 355 356 356 356 355 355 356 356 356 357 357 358 358 357
342 345 347 346 345 344 346 350 354 355 356 357 359 357 353 353 357 357 355 356 357 358 360 360 360 361 360 360 363 361 358 357 356 356 356 355 352 351 352 352 352 353 353 351 351 351 352 352 353 354 355 355 355 354 353 354 355 355 356 356 358 359 358
341 343 343 343 342 343 344 345 348 351 351 351 355 356 354 355 357 357 356 357 358 359 358 357 358 359 359 360 362 360 359 357 356 356 356 355 353 351 351 352 352 352 352 352 350 351 351 352 353 353 354 355 354 353 353 352 354 354 354 355 356 358 358
339 340 341 341 341 342 343 343 344 346 346 346 349 352 355 356 357 356 355 354 356 356 355 356 356 357 358 358 359 358 358 357 355 357 358 356 352 352 350 350 352 351 352 351 350 350 351 352 353 354 353 354 354 354 353 353 353 354 354 354 354 355 357
337 338 339 339 339 340 339 340 342 343 343 345 345 347 350 353 355 357 355 353 352 353 353 355 354 355 355 355 355 357 358 358 357 357 359 358 354 351 350 349 350 351 352 352 351 349 350 351 352 353 353 353 354 354 354 353 353 355 355 354 354 355 355
335 336 337 337 337 337 337 338 338 339 341 342 342 343 346 347 349 352 353 353 354 353 353 353 353 353 353 352 352 353 355 358 357 356 358 359 356 353 350 349 347 348 350 351 350 348 350 350 351 352 353 354 354 354 355 354 354 355 356 355 355 354 354
336 335 334 334 334 334 335 335 336 336 337 338 339 340 341 343 344 344 346 347 349 351 352 351 351 352 352 352 351 351 353 355 354 354 356 358 358 355 353 351 347 347 347 349 350 348 347 348 350 351 352 353 354 354 355 355 355 355 356 356 355 354 354
335 334 332 333 332 332 333 333 333 334 334 335 336 337 338 339 340 341 341 341 342 344 346 348 349 352 353 352 351 350 351 352 352 352 353 357 359 357 355 352 349 347 346 347 349 348 346 346 347 350 350 352 353 354 355 355 355 356 356 357 356 355 354
331 331 331 331 330 330 330 331 331 331 332 333 333 333 334 335 337 338 338 339 340 341 342 345 347 350 352 351 351 351 351 351 351 352 354 355 356 357 357 358 356 353 350 347 346 347 347 345 345 347 350 350 351 353 354 355 355 356 356 357 358 357 355
329 329 329 329 328 328 328 329 329 329 329 330 330 330 331 331 333 335 336 338 339 339 341 343 345 349 351 351 351 352 351 352 351 352 354 353 351 351 354 357 358 355 351 350 349 347 346 346 344 344 347 350 351 352 353 354 355 354 355 356 356 357 357
328 327 327 327 326 327 326 327 328 327 327 327 326 326 327 329 330 332 333 335 336 337 340 342 345 349 350 350 351 351 351 352 353 353 354 353 352 352 353 355 356 355 353 353 354 352 349 347 345 344 344 346 349 351 353 353 352 351 352 354 355 356 357
327 327 326 326 326 325 324 325 326 326 326 325 324 324 324 326 327 327 330 333 334 335 338 341 346 347 346 347 348 349 348 350 351 351 351 351 351 353 355 356 356 355 354 353 353 354 353 351 349 348 346 345 346 348 350 351 350 349 349 349 351 353 354
326 326 325 325 325 325 324 324 324 325 325 325 325 324 323 324 324 325 328 331 332 333 335 339 343 343 342 343 345 344 345 347 349 347 348 351 353 353 354 355 355 355 355 355 353 353 353 352 351 351 350 350 348 347 348 348 349 348 347 346 347 349 350
325 324 324 324 324 325 325 324 323 324 325 324 325 323 322 323 323 323 325 328 329 330 333 337 339 339 338 339 341 340 341 344 347 347 348 350 351 352 353 353 353 353 354 355 355 354 354 352 352 352 352 352 352 352 352 350 349 348 346 345 344 346 347
324 323 323 323 323 324 324 323 323 323 324 324 324 324 323 323 323 323 323 324 324 327 330 335 338 337 335 334 335 337 338 342 345 348 349 347 346 350 352 353 353 354 355 355 355 355 354 353 351 351 352 352 353 354 355 354 352 350 348 346 344 343 344
323 322 322 322 322 323 323 322 321 322 323 323 324 324 323 323 323 323 323 322 322 324 327 332 336 336 335 333 331 332 334 338 342 345 348 346 344 346 348 350 351 353 354 355 355 354 354 354 354 352 352 352 352 353 355 357 356 354 353 350 347 344 343
322 321 321 321 321 321 322 320 320 321 321 321 322 322 322 322 323 323 324 323 322 322 324 327 329 330 332 334 332 330 331 334 336 342 346 346 344 343 343 347 350 350 352 354 355 355 354 353 354 354 353 353 352 352 353 356 357 356 355 355 352 348 345
321 321 320 319 320 320 319 318 319 320 320 320 321 321 320 321 321 323 324 325 323 322 323 324 325 324 327 330 331 332 333 333 333 337 341 343 344 344 344 348 349 348 348 350 353 355 356 355 355 355 355 355 354 353 353 356 358 357 357 357 355 353 350
320 319 319 318 319 317 317 318 318 319 318 318 319 319 319 320 321 322 324 325 324 323 323 323 324 324 324 325 325 329 334 335 334 334 334 335 337 340 342 344 344 344 345 348 350 350 352 355 355 356 356 356 356 355 355 356 357 358 358 357 357 356 354
319 318 317 317 317 316 316 317 317 317 317 318 318 317 318 319 320 322 323 324 324 324 324 324 324 324 324 324 324 325 328 332 334 335 334 333 333 334 334 336 338 338 339 342 348 350 350 352 354 355 356 356 356 357 357 356 356 357 359 359 357 358 356
317 317 317 317 316 316 315 316 316 316 316 317 317 317 317 319 320 321 323 323 324 325 324 324 325 325 325 325 324 324 325 327 331 335 336 336 337 336 334 332 334 334 332 334 342 347 349 350 351 353 355 356 357 357 357 356 354 354 354 355 356 357 355
317 317 316 316 316 316 316 316 316 316 316 316 316 317 317 318 320 321 322 322 323 324 324 325 326 326 326 326 324 324 325 326 328 331 334 335 336 338 338 337 337 339 337 338 341 343 346 349 350 350 352 353 355 357 357 355 353 352 353 353 354 356 355
318 317 316 316 316 316 316 316 316 317 316 315 316 316 317 318 319 321 322 322 323 324 324 325 326 326 326 325 325 325 325 325 325 326 327 329 331 333 335 337 339 340 342 342 344 345 347 349 351 351 351 352 353 355 355 355 355 355 353 351 353 355 356
318 317 317 317 317 317 317 317 317 317 316 316 317 318 318 318 319 320 322 322 323 323 324 324 324 325 326 326 326 326 325 324 324 323 324 325 328 329 332 334 336 338 340 342 345 347 349 351 352 352 352 352 352 354 355 354 354 354 354 353 354 354 356
317 318 318 317 317 318 317 317 317 317 317 318 318 318 319 319 320 320 321 322 322 323 323 323 323 324 325 326 326 326 326 324 325 325 325 326 326 327 329 331 333 335 338 341 342 344 347 350 351 351 351 352 352 354 356 356 354 354 355 354 353 354 355
318 318 317 317 318 317 317 316 317 317 318 318 318 319 319 319 319 320 321 321 321 321 322 322 323 323 324 324 325 326 326 325 325 325 327 328 328 329 329 330 332 335 337 339 341 343 344 347 349 351 351 352 353 354 356 357 356 356 356 355 355 354 356
317 317 317 317 316 316 316 317 317 317 317 318 318 318 318 318 319 320 320 320 320 320 320 321 323 323 324 324 324 325 325 325 325 325 326 326 328 328 329 329 330 333 335 337 340 344 346 347 348 349 349 349 350 352 353 355 356 356 355 354 354 354 356
317 316 316 316 315 315 315 315 316 316 316 317 317 317 317 318 318 319 319 319 319 319 320 321 322 323 323 324 323 323 324 324 325 325 324 324 325 326 327 328 327 327 329 333 338 342 343 343 342 342 342 343 345 347 348 350 351 353 354 355 355 355 356
316 315 315 314 314 314 314 315 315 315 315 316 316 316 317 317 317 318 318 318 318 318 319 320 321 321 322 323 323 323 323 324 325 325 324 324 324 325 326 327 327 328 329 331 334 335 333 333 333 332 330 331 333 338 341 341 341 345 348 350 352 353 353
314 314 314 314 313 313 314 314 314 314 314 315 315 315 316 316 317 317 317 317 317 317 318 319 319 320 321 322 322 323 324 324 324 324 325 325 324 324 325 325 326 328 328 327 327 325 324 324 325 325 325 326 328 330 333 334 335 337 338 340 342 344 346
313 313 313 313 312 313 312 312 313 313 313 314 314 314 315 315 315 316 316 316 316 316 316 317 318 318 319 319 320 321 321 322 323 324 325 325 324 325 325 326 327 327 326 325 325 324 323 324 325 326 329 332 332 330 331 333 336 337 339 340 341 341 343
312 312 312 311 311 312 312 312 312 312 312 313 313 314 314 314 314 314 315 315 315 315 315 316 316 317 317 318 319 319 320 320 321 323 324 325 325 325 325 326 327 327 327 327 327 327 328 328 329 332 333 334 334 334 335 337 339 339 340 340 340 340 341

ECMWFFLT1_925_thetae_081.txt.gz
Theta_e
360 360 362 363 363 367 367 361 357 353 352 353 353 352 352 351 351 354 355 353 355 354 353 356 357 355 355 356 357 355 352 352 354 354 355 355 354 353 351 353 356 357 356 356 356 357 357 356 356 357 356 357 358 356 354 353 354 355 355 354 355 355 357
360 360 360 360 361 365 363 357 358 357 353 354 354 351 351 351 351 354 356 354 355 356 354 357 357 355 355 356 356 356 354 353 354 354 355 356 356 355 354 354 356 356 356 356 355 357 358 356 356 358 357 356 358 358 357 356 355 356 356 355 354 356 357
361 362 361 361 363 366 360 354 357 358 354 353 353 351 352 353 352 354 357 356 355 356 355 357 358 357 356 357 357 356 356 355 354 354 355 356 357 357 356 356 356 355 355 355 355 356 357 356 355 357 358 356 358 359 358 357 355 356 359 356 353 355 356
359 360 360 361 363 362 359 356 357 358 356 356 354 352 352 354 354 355 358 357 357 357 356 356 359 358 357 357 357 357 356 356 355 355 355 355 356 358 358 357 356 355 355 354 355 355 355 355 355 355 358 357 357 359 358 356 354 355 359 360 356 353 354
356 356 357 359 360 360 359 358 358 357 355 354 353 353 353 354 355 356 358 359 358 359 358 356 359 359 359 359 358 358 357 357 356 356 356 355 355 357 357 357 355 355 354 353 354 355 354 355 355 355 358 358 357 358 358 357 356 354 356 360 358 354 353
354 353 355 358 359 360 359 356 355 353 353 352 352 353 352 353 354 355 357 359 360 360 359 358 360 361 361 360 359 358 358 357 357 356 356 356 355 356 356 356 355 354 354 352 353 353 353 355 355 355 357 357 357 358 357 357 358 357 356 357 357 355 354
350 352 356 358 356 357 357 355 351 349 352 353 352 353 353 352 353 355 356 358 358 360 360 358 359 360 360 361 360 359 360 359 358 357 357 356 355 356 356 356 355 354 354 354 353 352 353 355 355 355 356 356 356 357 357 356 357 357 357 356 356 356 355
346 352 357 353 347 348 352 353 351 349 350 353 354 354 353 353 354 355 357 358 356 357 359 358 359 359 359 359 359 360 360 360 359 358 358 357 356 356 355 354 355 354 354 354 354 352 352 353 355 356 356 355 356 356 356 356 356 356 357 356 357 356 356
343 347 349 344 341 345 347 348 350 350 349 352 353 354 353 353 355 356 357 358 356 357 359 359 360 361 360 359 359 359 359 360 361 360 359 358 357 356 354 353 353 353 354 354 353 353 352 352 353 355 355 355 355 356 355 356 356 356 356 356 356 356 356
342 342 342 340 338 341 342 344 348 349 349 350 351 353 355 356 357 357 357 357 357 359 359 358 358 360 360 358 357 357 357 359 360 359 358 357 356 355 353 352 351 352 352 353 353 352 351 351 351 352 354 355 355 355 354 354 355 355 354 355 355 355 355
340 340 340 338 336 337 339 342 344 346 348 348 349 352 355 356 357 357 356 357 357 358 358 355 354 356 355 354 352 351 352 353 354 354 354 354 353 352 350 350 351 351 351 352 353 352 351 351 352 351 352 354 355 355 355 354 353 354 353 353 354 355 355
338 338 338 336 336 336 337 338 340 342 344 346 347 349 350 350 352 353 354 355 355 355 354 352 351 352 351 349 349 347 347 348 351 353 354 354 354 354 352 349 348 349 351 351 351 352 351 350 351 351 352 352 353 354 354 354 353 354 354 353 353 354 355
336 336 336 335 335 335 336 336 337 337 338 339 341 343 344 345 345 345 346 348 349 350 351 351 352 352 350 350 349 349 348 349 352 354 354 355 355 354 353 351 349 348 350 352 351 351 351 351 350 351 352 353 353 353 353 353 353 354 354 354 354 354 354
334 333 333 333 333 333 333 333 334 335 335 336 336 337 339 340 341 341 341 342 343 345 347 350 351 351 351 351 351 350 350 350 351 352 352 353 353 354 354 353 351 348 349 352 352 350 350 350 350 350 350 352 353 352 352 352 353 353 353 354 355 354 354
333 331 331 331 331 331 331 331 332 332 333 333 333 334 334 336 337 338 338 339 341 343 345 349 351 351 350 351 351 350 350 350 350 351 352 351 351 353 353 352 351 349 350 353 353 350 350 350 349 350 350 350 352 353 353 352 352 353 352 353 354 354 355
332 330 330 328 328 328 328 328 329 329 329 330 331 331 332 333 334 335 335 337 339 342 345 347 349 350 349 349 350 350 350 351 351 352 353 353 352 353 353 353 353 352 353 355 353 350 351 349 348 350 349 350 351 352 353 353 353 353 354 353 353 354 355
329 328 328 327 326 326 326 327 327 326 326 326 327 328 329 330 332 333 333 334 338 342 344 344 345 346 346 346 348 348 349 350 350 351 352 353 353 353 353 354 353 354 355 355 352 351 352 351 350 350 350 350 350 350 352 352 352 353 353 354 354 354 355
328 327 325 325 325 325 325 326 326 325 324 324 324 325 325 327 331 332 331 333 337 340 340 340 341 341 341 342 344 347 347 347 348 348 350 352 353 353 353 353 353 354 355 355 353 352 352 351 352 351 351 351 350 350 350 351 351 351 351 353 354 354 355
327 326 325 325 324 324 324 325 325 325 324 323 323 323 323 325 328 329 328 331 336 337 334 333 336 338 337 338 341 344 346 346 346 347 347 348 351 353 353 353 354 354 354 355 354 353 353 352 352 352 351 351 351 351 351 351 352 351 351 351 353 353 354
326 325 325 324 324 325 325 324 325 325 324 323 323 323 323 324 324 324 324 327 333 336 333 329 330 332 333 335 338 341 344 345 346 347 346 345 348 351 350 350 353 353 353 355 355 355 355 354 353 353 352 351 350 351 351 351 351 352 352 352 352 351 352
326 325 324 324 324 324 324 323 324 325 324 322 322 322 322 323 323 322 322 323 329 335 334 330 329 328 328 329 332 335 339 342 344 345 344 343 344 345 345 347 351 352 353 355 355 355 355 354 354 355 354 353 352 351 351 350 351 352 353 354 353 352 350
326 324 323 323 322 322 321 321 322 324 323 321 320 322 322 322 323 323 322 322 326 330 330 329 330 330 329 329 330 330 331 335 339 341 342 342 343 343 343 346 349 350 351 352 353 354 355 355 354 354 354 354 353 352 351 351 350 351 352 353 354 354 352
324 322 322 321 320 319 319 319 320 322 321 319 318 320 321 322 324 324 323 323 324 325 324 324 326 327 326 327 331 332 331 332 334 336 338 339 337 338 342 346 348 347 347 348 350 351 353 354 354 355 355 355 354 354 353 352 352 352 352 351 353 355 355
320 320 319 318 318 317 318 318 318 319 318 317 317 319 321 323 324 324 323 323 324 324 324 323 324 323 321 322 325 329 331 332 333 333 334 334 331 332 337 340 341 341 342 344 347 349 350 351 352 352 354 355 355 355 355 355 355 354 353 351 351 353 355
318 317 317 316 316 317 317 317 317 317 317 316 317 318 320 322 323 323 323 323 324 325 324 324 324 324 322 321 321 324 325 328 331 333 334 334 333 334 335 334 334 334 335 336 340 343 346 348 350 351 353 354 355 356 355 356 355 354 353 352 352 352 354
317 317 316 316 316 316 316 316 316 316 316 316 317 318 319 321 322 322 322 323 324 324 324 325 325 325 324 323 321 322 323 324 326 330 332 333 335 335 335 335 335 335 335 335 334 336 338 339 341 343 344 346 349 353 355 355 355 354 354 354 354 353 354
316 316 316 316 316 316 316 316 316 316 316 316 317 318 318 320 321 321 322 323 323 324 324 325 325 325 326 325 323 322 323 324 324 325 326 328 330 330 331 333 334 336 338 338 338 338 338 337 336 338 338 339 343 346 349 350 351 354 355 355 355 354 353
317 316 316 317 317 316 317 317 316 316 316 317 318 318 318 319 320 321 323 323 323 323 324 323 324 324 325 325 324 324 324 324 324 323 321 320 322 324 326 328 330 332 335 337 338 339 340 340 340 342 343 345 347 348 348 347 348 351 353 354 355 354 354
317 317 317 318 317 317 317 317 317 317 318 318 318 318 319 319 320 321 322 322 322 323 322 322 323 323 324 324 325 325 325 325 324 322 321 320 321 323 324 325 327 330 332 335 338 340 341 341 342 344 347 348 349 350 350 350 350 351 352 353 354 354 354
318 317 317 318 317 317 317 316 317 317 318 318 318 318 319 319 320 321 321 320 320 321 321 321 322 322 322 323 324 324 324 325 324 323 322 323 324 324 325 325 326 327 329 330 333 337 341 342 343 345 348 350 350 349 350 351 353 354 355 355 355 354 354
318 318 317 317 317 316 316 317 317 317 317 318 318 318 318 318 319 320 320 319 320 320 320 320 321 321 322 323 323 323 323 324 324 324 324 324 324 325 326 327 326 327 327 328 329 333 337 338 339 342 346 349 350 350 350 351 351 352 352 353 353 354 355
317 317 317 316 316 316 316 316 316 316 316 316 316 316 317 317 318 319 319 318 319 319 319 319 320 321 322 322 323 323 323 323 323 324 324 324 324 325 325 325 326 327 328 329 330 333 336 338 341 342 344 346 347 346 344 340 338 339 340 342 344 347 350
317 316 316 315 315 315 315 315 315 315 315 315 315 315 315 316 317 317 317 317 318 318 318 319 320 320 320 321 321 322 323 323 324 324 324 324 324 324 324 324 325 326 328 329 331 332 333 335 337 336 336 336 335 333 331 328 329 329 329 333 339 341 343
316 315 315 314 314 314 314 314 314 314 314 314 314 314 315 315 316 316 316 316 317 317 317 317 318 318 319 319 320 321 322 322 323 323 323 324 324 324 324 324 324 324 325 325 325 326 327 327 326 325 325 325 325 324 323 323 325 326 325 329 337 340 340
315 314 314 314 314 313 313 313 313 313 313 313 314 314 314 314 314 314 315 315 315 316 316 316 316 316 316 317 318 319 320 320 320 320 320 321 322 323 323 323 323 322 323 321 321 321 323 324 323 321 320 320 320 321 323 323 325 327 327 328 332 335 335
314 314 313 313 313 312 312 312 312 312 313 313 313 313 313 313 313 314 314 314 314 314 314 315 315 315 316 316 317 317 318 318 319 319 319 320 321 322 322 323 322 323 324 324 323 322 321 321 320 319 318 318 319 321 324 326 327 329 330 330 331 332 334
313 313 312 312 311 311 311 312 312 312 312 312 312 312 312 312 313 313 313 313 313 313 314 314 315 315 315 315 316 316 316 317 318 318 319 319 320 320 321 322 322 323 323 323 323 323 322 322 322 322 322 323 324 326 326 327 329 330 330 331 333 334 335
312 312 311 311 311 311 312 312 312 311 311 311 311 311 311 311 312 312 312 312 313 313 313 314 314 315 315 315 315 315 316 316 317 317 317 318 319 319 320 320 321 322 322 322 322 323 324 324 324 326 327 327 327 326 324 324 325 325 327 331 335 335 333

ECMWFFLT1_925_thetae_084.txt.gz
Theta_e
363 363 367 367 368 366 357 349 344 344 345 345 346 347 346 347 349 350 350 349 350 350 351 351 351 350 348 350 351 350 349 350 353 353 352 353 352 349 351 353 353 353 354 355 355 354 355 355 356 356 356 356 355 355 354 353 353 354 355 354 354 356 355
360 361 364 362 365 369 360 352 351 349 348 348 347 347 348 348 350 351 350 351 350 350 351 352 351 350 348 349 350 350 350 350 352 353 352 353 352 349 350 351 353 354 355 355 355 355 355 356 356 356 356 356 355 356 357 354 352 353 355 354 354 354 355
358 361 361 358 361 365 355 349 350 351 351 350 348 348 348 349 350 350 351 352 351 351 352 353 352 351 350 350 351 350 349 350 352 354 353 354 352 351 350 351 351 353 356 356 355 356 356 356 357 355 356 356 355 355 357 356 353 354 355 355 354 354 355
360 359 357 355 356 357 353 350 350 350 351 350 348 348 349 349 351 351 351 352 352 352 352 353 353 353 352 352 352 352 350 350 351 353 354 354 353 353 353 352 351 352 355 356 355 355 355 356 357 356 355 356 356 354 355 357 356 355 356 356 356 355 354
355 353 352 352 354 357 355 353 351 350 350 351 350 349 349 349 351 352 352 352 353 352 352 352 354 353 354 353 353 354 353 352 351 351 354 354 355 356 356 355 354 353 354 355 355 355 355 356 356 356 356 356 357 355 355 356 356 356 357 357 358 357 355
351 351 351 352 354 358 357 354 352 352 351 351 351 350 349 350 350 352 354 353 353 353 353 353 354 355 355 354 354 354 355 355 353 352 353 354 355 356 356 357 356 355 355 354 355 354 354 356 356 355 355 355 357 356 356 356 357 355 355 356 358 358 357
348 349 351 353 354 355 355 355 354 353 352 352 351 352 352 352 351 353 355 355 355 355 355 355 356 357 356 355 356 356 356 356 355 355 354 353 354 355 355 356 357 357 355 354 354 354 354 355 356 355 354 354 356 356 356 357 357 356 355 355 356 356 355
342 343 346 350 352 352 353 354 354 353 354 353 353 353 353 353 353 354 356 357 356 357 356 355 356 356 355 354 355 356 356 357 357 356 356 356 355 355 355 355 356 356 356 355 354 353 353 353 354 355 355 354 356 356 356 357 357 356 355 355 355 355 355
339 339 340 342 346 349 351 352 351 353 354 353 354 354 353 354 354 353 354 354 354 355 355 353 352 353 355 355 357 356 355 356 355 355 356 357 356 356 355 355 355 355 355 355 354 353 352 353 352 354 355 355 355 355 355 356 357 356 355 355 356 356 355
337 338 338 337 340 343 347 349 350 352 352 353 354 354 353 354 353 352 352 351 351 353 353 351 352 354 356 356 357 355 354 355 354 355 355 355 356 355 355 355 354 355 355 354 354 353 353 353 351 352 354 355 355 355 354 356 356 356 356 355 355 355 355
337 337 336 335 336 337 340 343 344 347 349 350 352 352 351 352 352 353 353 352 352 353 352 351 353 355 354 354 355 354 354 355 353 353 354 355 355 355 354 354 353 353 354 354 354 353 353 353 352 351 353 354 355 354 355 355 355 355 355 356 355 354 354
336 335 334 334 335 335 336 337 337 340 341 343 346 347 346 346 347 349 350 351 352 352 350 351 354 355 352 353 355 354 355 355 354 353 354 354 355 354 353 353 351 351 352 352 353 353 353 353 352 351 352 352 353 353 354 355 354 354 355 355 355 354 353
335 334 333 333 333 333 334 334 335 336 336 337 339 340 341 342 343 344 346 349 352 350 349 350 353 354 352 351 353 354 354 353 354 354 354 354 354 354 353 353 352 350 349 350 351 352 352 352 352 352 351 351 350 351 353 353 354 354 354 354 355 354 354
333 331 330 331 331 332 332 332 333 333 334 334 334 335 336 338 339 342 344 347 349 349 350 352 352 351 351 350 351 352 353 353 353 353 353 354 355 354 355 354 353 352 349 349 349 350 351 351 352 351 351 351 351 351 351 352 353 354 354 353 354 354 353
331 329 329 329 329 330 330 329 330 331 331 332 332 333 334 334 336 339 342 345 349 350 351 351 351 351 351 350 350 351 351 350 350 350 351 353 353 354 354 354 354 353 350 347 347 349 350 351 351 351 351 350 351 350 350 351 352 352 353 353 353 353 354
329 328 327 326 327 327 328 328 328 329 330 330 330 331 332 334 337 339 341 345 349 351 351 350 350 350 349 350 350 350 350 350 350 350 351 351 351 351 352 352 352 352 352 350 348 348 351 352 351 351 350 351 351 351 351 351 351 352 351 352 352 352 353
328 327 326 325 326 326 325 325 326 327 328 328 328 329 330 333 337 340 341 342 345 347 348 349 349 349 349 350 350 350 350 351 351 352 352 352 352 351 352 353 352 352 351 350 349 352 353 352 352 350 350 350 350 351 352 351 351 352 351 351 351 351 351
328 327 326 326 326 325 324 324 324 324 326 327 327 329 330 331 335 338 338 339 340 341 344 345 346 347 348 348 348 348 348 348 349 351 352 352 352 352 353 354 353 353 353 351 352 353 354 352 352 351 350 350 350 351 352 352 353 353 352 352 352 351 351
326 326 325 326 326 325 324 323 324 323 323 324 326 327 327 328 332 335 334 333 336 338 339 341 343 344 345 346 346 345 346 346 346 346 347 350 352 352 353 353 353 353 353 354 353 354 354 353 353 352 351 351 350 350 350 351 353 354 353 354 353 352 353
325 324 324 324 325 326 325 324 322 322 322 323 323 323 324 326 330 334 331 328 330 331 331 333 336 337 339 342 343 345 346 346 345 343 343 345 347 348 349 350 351 352 353 355 355 355 354 354 353 354 353 353 352 351 351 350 351 352 352 352 352 352 353
324 323 322 323 324 324 325 324 322 322 321 321 322 323 323 324 328 332 331 328 327 328 327 328 329 331 332 334 337 340 342 342 342 342 343 342 342 344 346 348 349 350 351 352 353 355 355 355 355 354 354 354 353 353 352 351 351 351 351 351 352 352 352
324 322 321 322 321 321 323 323 321 320 320 320 322 324 324 322 325 330 331 327 326 328 327 326 325 325 327 329 331 333 335 336 336 337 337 336 335 337 343 346 348 349 349 349 350 351 353 354 354 354 354 354 354 354 353 352 351 351 350 350 350 351 352
322 320 319 319 318 319 321 321 319 318 319 321 323 324 323 322 323 327 327 324 324 324 324 323 321 321 321 323 325 327 329 330 332 334 334 333 332 333 337 339 340 341 343 344 346 348 349 350 351 352 352 353 354 354 354 354 353 352 353 352 351 351 351
319 318 318 317 317 318 318 318 317 318 320 323 323 324 322 321 322 324 324 324 323 324 324 323 323 322 321 320 319 322 324 325 327 331 332 332 332 334 335 335 335 335 336 337 338 340 343 346 347 347 350 353 353 353 353 353 353 354 354 354 353 353 353
316 316 317 316 316 316 316 316 317 318 319 321 322 323 322 320 320 323 324 324 324 324 324 325 325 325 325 322 319 319 322 323 324 325 326 325 326 327 330 331 333 334 335 335 335 335 335 337 338 338 340 345 349 352 353 353 354 355 355 355 354 354 354
315 316 316 316 316 316 316 316 317 317 318 319 320 321 321 320 321 323 323 324 324 324 324 324 324 325 325 324 321 320 322 323 324 324 323 321 320 320 322 325 327 329 332 334 336 336 335 336 336 336 337 337 339 342 345 346 348 349 350 352 352 353 355
316 316 317 316 316 316 316 317 318 318 318 319 319 320 321 321 322 322 323 323 323 322 322 322 323 323 323 323 323 323 324 323 323 323 321 319 319 320 321 322 324 325 327 329 332 335 337 338 338 340 340 338 335 337 340 343 344 344 345 347 349 351 353
317 317 317 317 316 316 317 318 318 318 319 319 319 320 321 322 321 321 322 321 321 321 321 321 322 322 322 322 323 323 324 323 322 322 321 321 322 322 323 323 324 325 326 327 329 331 333 335 337 339 341 340 339 340 343 345 347 348 348 349 350 351 353
317 317 317 317 316 316 317 318 318 318 318 318 318 319 319 320 320 319 319 319 319 320 320 320 320 320 321 321 322 322 323 322 322 322 322 323 323 324 324 324 324 324 325 325 327 328 329 329 331 334 338 338 338 340 343 347 349 350 351 352 353 353 353
316 316 316 316 317 317 317 317 317 317 317 317 317 318 318 319 319 318 318 318 318 319 319 319 320 320 321 321 322 322 322 322 322 323 323 324 324 324 324 324 324 324 324 325 326 328 329 330 333 335 338 340 340 342 346 348 346 341 338 339 341 342 341
316 316 316 316 316 316 316 316 316 316 316 316 316 316 317 317 318 317 317 317 317 318 318 318 319 320 320 320 320 321 321 321 322 323 323 323 323 323 324 324 324 324 324 324 325 327 327 328 331 333 334 334 336 338 339 338 334 328 323 323 325 328 332
315 316 316 315 315 315 316 315 315 315 315 314 314 315 316 316 316 316 316 316 317 318 317 317 318 318 317 318 319 319 319 320 320 322 321 321 321 321 321 322 322 323 323 323 323 323 323 324 326 326 326 326 326 326 326 325 325 324 322 320 320 324 329
315 315 315 314 315 315 315 314 314 314 314 313 314 314 315 315 315 315 315 316 316 316 316 316 316 316 315 316 316 317 318 318 318 319 319 319 319 320 319 320 321 321 322 322 323 324 324 324 324 324 324 323 323 322 321 321 321 321 321 322 323 326 329
314 314 314 314 314 314 314 313 312 312 313 313 313 313 314 314 313 314 314 314 314 314 314 314 314 314 315 315 315 316 316 316 317 317 317 317 318 318 318 318 318 319 319 320 322 323 323 323 323 323 322 322 322 322 322 322 322 322 323 325 327 328 329
314 314 314 314 314 313 312 312 311 312 313 313 313 312 313 313 313 312 313 313 313 313 313 313 314 314 315 315 315 314 315 315 315 316 316 316 316 316 316 316 316 317 318 318 318 320 320 321 322 322 322 322 322 322 323 323 324 325 327 327 327 326 326
313 314 314 313 312 312 311 311 312 312 313 312 312 312 312 311 311 311 311 312 312 313 313 313 313 314 314 314 314 314 314 315 315 315 316 316 316 316 316 316 316 316 317 317 317 317 318 320 321 321 321 322 322 322 322 323 325 326 326 326 325 325 326
313 313 313 312 311 311 311 312 312 311 311 311 310 310 310 310 311 311 311 311 312 312 312 312 313 313 313 313 313 314 314 315 315 315 316 316 316 316 316 316 317 317 317 317 318 318 318 319 320 320 321 322 323 322 322 322 324 324 324 325 327 327 328
312 312 311 311 311 311 311 311 310 310 310 309 310 310 310 310 311 311 311 312 312 312 312 312 312 312 312 312 312 313 314 315 315 315 315 314 315 315 315 316 316 316 316 316 316 317 318 318 319 319 321 323 324 324 324 324 325 325 325 326 327 327 327

ECMWFFLT1_925_thetae_087.txt.gz
Theta_e
357 357 357 359 359 353 344 341 342 342 342 343 343 344 344 346 348 348 349 349 350 349 349 349 349 348 350 351 351 351 351 350 349 348 349 350 350 351 352 351 351 351 351 351 351 352 353 353 354 354 355 355 354 352 351 351 352 352 352 353 354 355 354
357 355 354 355 360 361 351 343 342 343 343 343 343 343 344 345 348 347 348 349 349 349 348 348 349 348 348 349 349 350 351 350 350 350 350 350 350 350 350 350 350 351 350 350 352 353 354 354 354 354 355 355 354 354 354 353 353 352 352 353 354 353 354
356 354 355 356 360 362 356 348 346 344 343 343 343 343 343 345 346 347 348 348 348 349 349 348 349 349 348 348 348 349 351 350 350 350 351 351 351 351 351 351 350 351 352 351 352 353 354 355 354 355 355 355 355 354 354 355 355 354 351 352 354 353 354
354 355 357 358 358 357 355 350 349 347 345 344 344 344 343 344 346 347 347 347 348 349 349 348 349 349 349 349 348 348 349 350 349 350 351 351 352 352 352 352 350 351 352 353 353 354 354 354 354 355 355 355 355 355 354 355 355 355 353 352 353 354 354
355 356 357 357 357 358 355 352 351 349 347 345 344 345 344 344 346 347 347 347 348 348 348 348 349 349 349 350 348 347 347 349 350 349 350 351 352 352 353 351 350 350 351 352 353 355 355 355 355 355 356 355 355 355 355 355 355 356 356 353 353 354 354
355 355 356 356 358 359 356 353 352 350 348 348 347 347 346 346 347 349 348 349 349 349 349 351 351 351 351 351 350 348 347 349 348 348 349 351 353 353 354 352 352 351 351 351 352 353 355 354 354 354 355 356 356 355 356 356 355 356 357 355 354 353 354
353 354 354 354 356 357 356 354 353 351 351 350 350 349 348 349 350 350 350 350 349 350 350 352 353 352 352 352 351 350 350 350 350 349 349 351 352 353 353 354 354 354 354 353 353 354 354 355 354 354 355 355 356 355 355 355 355 355 356 357 355 353 353
350 352 354 354 354 355 356 355 354 353 352 351 351 350 350 351 352 353 352 351 351 350 351 351 351 352 353 353 353 352 352 352 351 350 350 351 351 352 353 354 354 355 355 356 355 355 354 353 354 353 354 355 356 354 355 355 356 355 356 356 355 354 353
344 345 348 351 352 353 353 352 352 353 353 353 353 352 352 352 352 354 354 352 352 352 352 351 350 352 353 353 353 353 353 353 353 351 351 351 351 352 353 353 354 354 355 356 356 356 354 353 353 353 353 354 355 354 354 355 355 355 356 356 356 354 354
340 340 342 344 346 349 349 349 348 350 350 352 354 353 352 350 350 353 354 353 353 353 353 352 352 353 354 353 354 355 354 354 353 353 352 353 353 353 354 354 353 354 354 354 355 355 355 355 354 353 352 353 353 354 354 354 355 355 356 356 356 355 354
338 338 339 339 339 341 344 345 345 345 346 347 351 352 351 350 350 352 352 351 351 353 354 353 353 353 355 355 355 355 355 355 354 355 354 355 355 355 355 355 355 355 354 353 354 355 355 355 354 353 353 352 352 353 354 354 355 355 355 355 355 355 355
336 336 337 338 337 336 338 340 339 339 340 342 346 349 350 350 351 351 351 349 350 352 353 353 353 353 354 355 356 355 355 355 354 355 355 354 355 355 355 355 355 355 355 354 354 355 354 355 354 353 353 353 352 352 353 354 354 354 354 354 354 354 355
334 334 334 335 334 334 335 335 335 336 336 338 341 344 347 348 349 351 350 349 350 351 352 352 352 352 353 355 355 355 355 355 354 355 354 354 354 354 355 355 355 354 354 353 352 353 354 354 354 353 353 353 353 351 352 353 354 354 354 354 353 353 354
331 331 332 332 332 332 333 332 333 334 335 335 337 340 344 346 348 349 349 350 350 350 350 351 351 351 352 351 352 354 355 355 355 354 354 354 353 353 354 354 354 354 353 351 350 350 351 352 352 353 352 353 353 352 352 352 352 353 353 354 354 353 353
329 329 330 331 331 332 332 331 332 333 334 335 337 339 341 343 345 346 348 349 349 348 349 350 349 350 350 348 349 349 351 351 353 354 354 354 354 354 355 354 353 354 353 352 351 350 349 349 350 351 351 352 352 352 352 351 352 352 351 352 352 353 353
328 327 328 329 329 329 329 329 330 331 333 335 337 339 340 342 343 346 348 348 348 348 349 348 348 349 350 349 348 347 348 348 349 351 351 351 352 353 353 353 354 354 354 354 354 352 350 348 348 349 350 350 350 351 351 352 351 350 350 350 351 352 353
326 326 326 326 326 327 327 328 329 329 332 334 336 338 339 340 343 345 347 347 346 347 349 349 349 349 349 350 349 348 349 349 349 350 349 350 351 350 351 352 352 352 352 352 352 353 350 348 348 349 350 350 350 350 351 351 351 351 350 350 350 351 352
326 325 324 324 325 325 326 326 327 328 330 331 334 336 338 339 342 343 344 344 344 344 346 347 348 348 347 348 348 348 349 350 349 350 350 350 351 351 352 353 352 352 352 352 351 351 351 349 350 351 351 351 350 350 350 350 351 350 350 350 350 350 352
326 325 324 324 325 325 324 323 325 327 327 328 331 333 335 337 338 340 340 341 342 342 343 344 345 345 346 347 346 346 346 346 347 347 348 349 349 350 351 353 353 353 353 354 353 352 353 352 352 353 352 351 350 350 349 350 350 350 349 350 350 350 352
325 325 324 324 324 324 322 322 324 325 325 326 329 330 332 333 334 335 335 336 339 340 341 342 342 342 342 342 342 342 343 342 343 342 343 343 344 346 348 349 351 352 352 353 354 355 355 354 354 353 352 352 352 351 350 349 349 350 350 350 351 351 352
326 325 324 324 324 323 323 322 323 323 323 326 329 329 329 330 331 331 330 330 331 333 333 333 333 333 334 334 334 335 336 336 337 337 336 336 337 341 344 346 348 350 349 350 351 353 353 354 354 355 354 354 354 352 352 351 351 351 351 351 351 352 352
326 324 322 323 324 323 322 321 322 323 323 323 326 328 330 331 331 330 330 327 324 324 323 323 323 323 324 326 327 328 329 331 334 334 333 333 334 336 339 340 341 342 343 343 343 345 348 350 351 352 353 353 354 353 354 353 353 353 352 352 351 351 351
322 320 320 320 320 320 320 321 322 323 323 323 324 327 330 330 328 327 327 324 323 323 323 323 323 322 321 321 322 324 325 327 329 329 327 327 329 330 332 334 336 336 337 337 337 338 341 344 347 348 349 350 351 351 352 352 353 353 353 353 353 352 352
317 317 317 317 318 319 320 321 323 322 322 323 323 325 326 326 325 324 324 324 324 324 324 324 324 324 322 321 322 324 324 324 324 324 322 322 322 322 324 327 330 331 332 334 335 337 337 338 340 342 344 345 345 345 346 349 351 352 353 353 353 353 354
315 316 316 316 318 319 319 320 321 321 321 322 322 323 324 323 324 324 323 323 323 322 323 323 323 323 323 322 323 323 323 323 322 322 321 320 319 320 322 323 324 325 327 329 332 335 336 337 338 337 336 336 336 337 338 341 344 346 348 349 349 349 352
315 315 316 317 317 318 318 319 320 320 320 321 322 322 323 323 323 323 322 322 321 321 321 321 321 322 322 322 322 323 322 321 321 321 321 321 321 322 323 324 324 324 325 326 327 329 331 334 336 336 334 333 334 336 335 336 339 342 343 343 344 346 349
315 316 316 317 317 317 318 318 319 320 320 321 321 321 321 322 322 321 321 320 320 320 320 320 320 320 320 321 321 322 321 321 322 322 323 323 324 323 324 324 324 324 324 325 326 327 328 330 331 333 334 334 337 338 338 338 343 345 344 345 347 349 351
317 318 317 318 317 318 318 318 319 320 320 320 321 321 320 321 320 320 320 319 319 319 319 319 319 320 320 320 321 321 321 322 323 323 323 323 323 324 324 324 324 324 324 325 326 327 328 329 331 333 334 335 338 340 341 344 347 343 336 337 341 342 345
316 317 318 318 317 317 318 317 318 318 318 319 320 320 320 320 319 318 318 318 318 318 318 319 319 320 320 320 320 320 320 321 322 321 321 321 322 322 322 322 322 323 323 323 324 324 324 325 326 328 328 329 331 334 335 337 337 331 323 324 326 327 332
316 316 317 317 317 317 317 317 317 317 317 317 318 318 318 318 317 316 316 317 317 317 317 318 318 319 318 318 318 318 318 319 320 320 319 320 320 320 321 320 321 321 321 321 322 322 323 323 323 324 324 323 325 326 327 327 328 326 323 322 322 322 326
315 316 316 317 317 317 317 316 316 315 316 316 316 316 316 316 316 316 316 316 317 317 317 317 316 316 316 316 316 317 317 317 318 318 318 318 318 318 318 318 318 319 319 319 319 320 320 321 321 321 321 322 322 323 324 325 325 325 325 324 323 325 326
315 316 316 316 316 316 316 315 314 314 314 315 315 315 315 315 315 315 315 315 315 316 316 316 315 315 314 314 315 315 315 316 316 316 315 315 315 315 315 315 316 316 316 316 317 318 318 319 320 320 320 321 321 321 322 323 323 324 324 325 325 326 326
315 315 315 315 315 315 315 314 313 313 314 314 315 314 314 314 314 313 313 313 314 314 314 314 314 314 314 314 314 314 314 314 315 315 314 315 315 315 315 315 315 316 316 316 317 317 318 318 319 319 320 320 320 320 320 321 321 322 322 324 325 325 324
314 314 315 315 315 314 313 312 312 313 314 313 314 313 313 313 313 312 312 312 313 313 313 313 313 314 314 313 313 313 313 313 314 315 315 314 315 315 315 315 315 315 316 317 317 318 318 318 318 319 319 319 319 320 321 321 321 322 323 323 324 324 325
313 314 314 314 314 313 312 311 312 313 313 313 313 313 313 312 312 312 311 311 312 312 312 312 313 313 313 313 312 312 312 313 314 314 314 314 314 314 314 314 314 314 314 315 316 316 317 317 317 317 318 318 319 320 321 322 322 323 323 323 323 323 323
313 314 314 314 313 312 311 311 313 313 312 312 311 311 311 311 310 310 311 311 312 312 311 312 312 312 311 311 311 311 312 312 313 313 313 313 313 313 313 312 312 312 312 313 313 313 313 314 314 314 316 318 319 320 320 321 321 322 322 323 323 323 322
313 313 314 313 312 311 311 312 312 312 311 310 310 310 310 310 310 310 311 311 312 311 311 311 311 311 311 310 310 311 312 312 312 312 312 312 312 312 311 311 311 311 311 312 312 311 311 312 312 313 315 316 318 319 319 320 319 320 320 321 322 322 322
313 313 313 312 311 311 312 312 312 311 310 309 309 309 310 310 310 311 311 311 311 311 311 311 310 310 310 310 310 311 312 311 311 310 310 311 311 311 311 312 312 312 312 311 312 312 311 312 313 314 315 315 316 317 317 317 317 317 319 321 322 322 322

ECMWFFLT1_925_thetae_090.txt.gz
Theta_e
358 359 362 361 351 343 341 341 341 341 342 344 345 345 346 347 348 349 350 350 351 350 350 350 350 351 351 350 350 350 350 350 350 350 349 349 349 349 349 350 351 351 351 351 351 351 350 351 352 353 354 354 355 354 351 350 352 353 352 352 352 353 354
358 358 362 363 359 350 342 340 341 341 341 343 344 345 346 347 348 349 349 350 350 350 349 349 350 350 349 349 350 349 349 350 350 350 349 348 349 349 348 350 350 350 351 350 350 350 350 351 352 353 354 354 354 355 353 351 351 351 352 352 352 353 353
357 357 358 361 363 357 345 340 341 341 341 342 343 344 345 346 348 348 349 349 349 349 349 349 349 349 349 349 348 348 349 350 351 350 349 348 348 349 348 349 350 350 350 349 349 350 350 351 352 353 353 353 354 355 354 353 352 353 353 352 352 352 353
357 358 358 359 362 358 349 342 341 341 341 342 342 344 344 345 347 348 348 348 349 349 349 349 348 349 348 348 347 347 348 350 350 350 350 349 349 349 349 349 350 350 350 349 350 350 351 352 353 354 354 354 354 354 354 354 354 354 355 353 352 352 353
356 357 358 359 360 359 353 347 343 342 341 341 342 343 343 344 346 347 347 348 349 349 349 349 349 348 348 347 346 346 348 350 350 349 350 349 349 350 350 350 350 350 351 350 349 350 351 352 353 354 354 354 355 355 355 354 354 354 355 355 353 352 353
356 356 358 360 358 357 355 351 348 346 344 342 342 342 343 343 345 346 346 347 348 348 348 349 349 348 348 347 347 347 348 349 349 349 350 349 350 350 350 350 350 351 351 350 350 350 351 352 353 354 354 354 355 355 355 355 355 355 355 355 356 355 354
355 356 357 358 358 357 355 353 351 350 347 344 343 343 343 342 344 346 346 347 347 348 348 348 348 349 348 348 348 348 348 348 347 348 349 349 349 349 349 350 350 351 351 350 350 350 350 351 352 353 354 354 354 355 355 355 355 355 355 355 355 356 355
354 355 355 356 357 357 355 354 353 352 350 347 346 346 345 344 344 345 346 347 347 347 347 348 348 348 348 348 349 349 348 348 348 347 348 349 349 349 349 350 351 352 352 353 353 352 352 352 352 353 354 354 354 354 354 355 355 355 355 355 355 355 356
350 353 354 353 355 355 354 354 353 352 351 350 349 347 347 347 346 347 347 347 347 347 346 347 347 347 349 349 349 349 349 349 349 348 347 347 347 347 348 349 352 353 353 354 354 354 354 354 354 354 353 353 353 353 353 354 354 355 355 355 355 355 355
346 349 351 351 352 352 351 351 351 351 351 350 350 348 348 350 349 349 349 347 348 348 347 347 346 347 350 350 350 350 350 350 350 349 348 348 348 348 348 349 351 352 352 353 353 354 354 355 355 355 354 353 353 353 352 353 353 354 354 354 355 355 355
343 345 347 347 348 347 346 347 347 349 350 351 350 349 349 351 351 350 349 348 348 348 348 348 347 347 350 351 351 351 351 351 351 350 350 350 351 350 349 349 349 350 351 352 353 353 353 354 355 354 355 354 353 353 352 352 352 352 353 354 354 354 354
341 342 343 342 341 340 340 341 344 346 349 351 351 351 350 350 350 350 350 350 350 350 349 349 348 349 350 350 352 353 353 353 353 353 353 353 353 352 352 351 351 351 352 352 353 353 353 353 353 354 354 355 354 353 352 352 352 351 352 353 354 354 354
337 338 338 338 337 336 337 339 341 343 346 349 350 351 349 349 349 349 349 350 352 351 350 350 350 350 350 350 351 353 353 353 354 354 354 353 353 353 354 354 354 354 353 353 354 354 354 353 353 353 354 354 354 353 353 353 352 352 351 352 353 353 353
335 334 335 335 335 335 336 337 338 338 340 344 347 348 350 349 349 349 350 351 352 352 352 351 351 351 351 351 351 352 353 353 354 354 354 354 353 352 353 353 354 354 354 354 353 353 353 353 353 353 353 353 353 353 353 352 352 352 352 352 352 353 353
334 333 333 333 333 335 336 336 336 336 337 340 343 345 347 348 348 349 350 350 350 350 351 351 351 351 350 350 350 351 351 351 352 353 353 353 353 352 352 352 352 353 353 353 353 352 352 351 350 350 350 351 351 351 351 351 351 352 352 352 351 352 352
333 331 331 331 332 333 334 334 334 335 337 339 340 342 344 346 347 347 348 349 349 349 349 350 350 349 349 349 349 349 348 347 349 350 349 350 350 350 351 351 352 352 352 353 353 353 352 351 351 350 349 349 349 349 350 350 350 351 351 351 352 351 352
330 329 329 328 329 330 330 332 334 335 336 338 339 341 342 344 346 346 347 348 347 348 348 347 348 348 347 348 348 347 347 346 347 348 347 347 348 348 349 350 350 350 350 352 352 352 353 352 352 351 350 349 348 348 349 349 349 350 350 350 351 351 351
328 327 327 327 327 328 329 331 333 333 334 335 337 339 340 341 343 344 345 345 345 346 346 345 346 346 346 348 347 346 347 347 347 347 347 348 348 349 349 350 350 350 350 351 352 352 352 352 352 351 351 350 350 350 350 350 349 349 350 350 350 350 350
326 325 325 325 326 327 328 329 329 328 330 333 335 336 337 339 340 340 341 342 343 343 342 342 344 345 345 346 346 346 346 347 347 346 347 348 349 350 351 351 351 351 351 353 353 352 352 352 352 352 352 352 352 351 351 351 350 349 349 349 349 350 350
325 324 324 323 324 325 325 325 326 327 329 332 333 333 333 336 336 336 337 338 338 338 337 336 337 338 340 342 342 342 342 342 341 341 342 344 346 347 349 349 349 349 350 352 353 353 353 353 353 353 353 353 353 352 352 352 351 350 350 350 350 350 351
325 323 322 323 324 324 324 324 326 328 328 329 330 330 331 331 330 329 329 329 329 330 330 329 329 330 331 334 335 336 337 336 335 335 336 338 341 342 342 343 343 344 346 348 350 351 351 351 351 351 352 353 353 353 353 352 352 351 351 351 350 350 351
326 324 323 323 323 323 323 324 326 327 327 328 330 331 329 327 325 324 324 324 324 324 324 324 324 325 326 327 328 329 329 328 328 328 330 331 334 335 336 337 338 339 341 343 344 346 347 347 347 348 349 350 352 352 353 353 352 352 352 352 352 352 352
323 323 322 321 322 322 323 324 326 327 328 329 329 328 326 324 323 324 324 323 323 323 322 322 323 324 324 324 324 324 324 323 323 323 323 324 325 328 329 331 333 334 336 338 339 339 340 341 341 343 345 347 348 350 351 350 349 349 351 352 352 352 353
319 319 319 320 321 322 322 323 325 327 329 328 325 325 324 323 323 323 322 322 322 322 322 322 322 323 322 322 322 322 322 322 321 321 321 322 323 323 324 326 327 328 331 334 336 336 337 338 338 338 339 340 341 343 346 346 345 345 347 350 350 350 351
317 318 319 321 321 321 322 323 324 326 327 325 324 323 323 323 323 322 321 321 321 321 321 321 321 322 322 321 321 321 321 321 321 321 322 323 323 323 324 324 325 325 327 329 331 333 334 336 337 338 337 337 338 340 339 338 340 341 344 346 347 346 346
316 317 319 320 320 321 321 322 323 324 324 324 323 323 323 323 322 321 320 320 320 320 320 321 321 321 321 321 321 321 321 321 322 322 323 323 323 323 323 324 324 325 326 327 328 329 331 333 335 336 335 335 338 341 340 339 342 343 343 343 344 345 346
317 318 319 319 320 320 321 321 322 322 322 322 323 322 322 322 321 320 319 319 319 319 320 320 320 320 320 320 321 321 321 321 321 322 322 322 322 322 323 323 323 324 325 326 327 328 330 331 332 334 336 337 338 340 340 338 338 337 333 333 336 339 341
317 318 318 319 319 320 320 320 320 321 320 321 321 321 321 321 320 319 318 318 318 319 319 319 319 319 319 319 320 320 320 319 320 320 320 320 321 321 321 321 322 322 323 324 324 325 326 326 326 328 332 334 333 332 331 329 327 327 326 325 326 327 329
317 318 318 318 319 319 319 320 319 319 319 319 319 319 319 319 318 318 318 318 317 318 318 317 318 317 317 318 318 318 318 317 317 318 318 318 319 319 319 319 319 320 321 321 322 322 322 322 323 323 325 326 326 325 325 323 323 324 325 325 325 325 325
317 317 317 317 318 318 318 319 318 318 318 318 318 318 317 317 317 317 317 317 317 316 316 316 316 316 316 316 316 316 316 316 316 316 316 316 317 317 317 317 317 317 318 318 319 319 319 319 320 321 321 322 322 323 323 322 321 322 323 324 325 325 324
316 317 317 316 317 317 317 318 317 317 317 317 317 316 316 316 315 315 315 315 315 315 315 315 314 314 314 314 314 314 315 314 314 314 314 314 315 315 315 315 315 316 316 317 317 317 318 318 318 318 319 319 319 320 320 320 321 321 322 323 323 324 324
316 316 316 316 316 316 317 316 316 316 315 315 315 315 315 315 314 314 314 313 314 314 314 314 314 314 313 313 313 313 313 313 314 313 313 314 314 314 314 314 314 315 315 316 316 316 317 317 317 317 317 317 318 318 318 319 320 321 321 322 322 323 323
316 315 315 315 315 315 316 315 315 315 314 314 314 314 314 314 313 313 313 313 313 313 313 313 313 313 313 313 312 312 312 313 314 313 313 313 313 313 313 313 313 313 313 314 315 315 315 315 314 314 315 316 317 318 318 319 320 320 320 321 321 321 322
314 315 315 315 315 315 315 314 314 314 314 313 313 313 313 313 313 313 313 313 312 312 312 313 312 312 312 311 311 311 312 312 313 312 312 312 312 312 312 312 311 311 312 312 313 313 313 312 312 313 314 315 316 317 318 319 319 319 319 319 319 320 320
315 315 314 314 314 314 313 313 314 314 313 313 313 313 313 312 312 311 311 311 311 311 312 312 311 311 311 310 310 311 311 311 311 311 311 311 311 310 310 310 310 310 310 310 311 311 311 311 312 313 314 314 315 316 317 317 317 317 317 317 317 318 318
314 315 314 314 313 312 312 313 313 313 313 313 312 312 312 311 310 310 309 310 311 311 311 311 311 310 310 310 310 311 311 311 310 310 309 309 309 309 308 309 309 310 310 310 310 309 310 310 312 313 314 315 315 315 316 316 316 315 315 315 315 316 317
314 314 314 313 311 312 312 313 313 312 312 312 312 311 311 310 309 309 310 310 311 310 310 310 310 310 310 309 310 311 311 310 309 308 308 308 308 309 309 309 310 310 310 310 310 309 309 310 311 313 314 315 315 315 315 315 315 315 314 314 314 315 316
314 314 313 312 311 311 312 312 312 312 311 311 311 310 309 309 310 310 311 311 311 310 310 310 309 310 309 309 310 311 311 309 308 308 308 307 308 308 309 310 311 311 311 310 310 309 309 310 312 313 314 314 315 315 315 315 315 315 315 315 315 315 315

ECMWFFLT1_925_thetae_093.txt.gz
Theta_e
350 350 350 348 345 345 346 348 348 348 349 350 350 350 350 351 351 352 352 351 351 351 351 352 352 352 352 352 351 350 350 350 351 351 351 351 350 349 349 349 349 351 352 353 353 352 351 351 352 352 353 353 354 354 355 354 352 352 354 354 352 352 353
350 350 351 349 345 344 346 347 348 348 349 349 350 350 350 352 351 351 351 350 350 350 350 350 352 352 352 352 351 350 351 350 350 350 351 351 350 349 348 348 349 349 350 351 351 351 350 351 351 351 352 353 354 354 354 354 352 352 353 352 352 352 353
353 352 353 351 347 345 347 348 347 347 348 348 349 350 350 350 349 349 349 349 349 350 350 350 351 351 351 351 351 351 350 350 351 350 351 351 350 349 348 348 348 348 350 351 350 350 350 350 350 350 352 352 354 354 354 355 354 352 353 352 354 354 353
356 355 354 353 349 346 346 347 347 347 347 348 348 349 349 349 349 349 350 350 350 351 351 351 351 351 351 351 350 351 350 350 350 350 351 351 350 348 348 348 348 349 349 350 350 349 349 350 350 351 352 353 354 354 354 355 354 353 354 354 355 354 352
358 357 357 355 352 349 347 346 347 347 347 347 348 349 349 349 350 350 350 351 351 352 351 351 352 352 350 350 351 351 350 349 349 350 350 351 350 348 348 348 348 349 349 350 350 350 350 350 351 352 353 353 354 354 354 354 354 354 354 354 355 355 355
357 357 358 358 355 353 351 349 347 346 347 347 346 347 348 348 349 350 350 350 350 351 352 351 351 351 350 350 351 350 349 348 348 348 349 350 350 349 349 349 349 350 351 351 350 351 350 350 350 352 353 354 355 356 356 355 355 355 354 354 355 356 357
356 355 354 355 355 354 353 352 351 348 347 345 344 344 345 346 348 349 350 350 349 350 351 351 350 350 349 349 350 350 349 348 347 346 348 349 349 349 349 349 350 350 350 350 350 350 350 350 350 351 352 354 355 356 355 355 355 355 355 355 355 355 356
354 354 353 354 354 353 353 353 353 352 348 346 345 343 343 344 346 347 348 349 350 350 351 351 350 349 349 348 348 349 348 348 347 346 348 350 350 350 350 350 350 349 349 350 351 351 351 351 351 351 352 353 354 354 354 354 354 355 355 355 355 355 357
352 353 354 356 356 355 355 355 354 352 348 348 347 344 342 344 345 345 346 347 348 350 350 349 349 348 348 349 349 349 349 348 347 347 348 350 351 351 352 352 351 349 348 351 353 353 353 353 354 353 353 354 354 354 353 353 353 353 354 354 354 355 357
352 352 353 355 355 356 356 356 355 352 349 349 349 346 345 346 345 345 345 346 346 347 347 347 348 348 348 348 349 350 351 350 349 349 348 349 350 351 351 352 352 350 349 352 354 354 354 354 355 355 355 355 354 354 353 353 353 352 353 353 353 354 356
352 352 353 353 353 354 355 354 354 353 351 351 350 349 348 347 345 344 345 345 345 346 346 347 348 348 347 346 346 346 348 350 351 351 350 349 349 349 350 352 352 351 351 352 354 355 354 354 353 353 354 355 355 355 354 354 353 352 352 353 353 353 355
351 351 351 351 351 351 351 352 352 352 351 351 351 350 349 348 345 344 344 345 345 346 346 347 348 348 348 346 345 344 345 349 352 352 351 351 350 349 349 351 353 353 353 353 353 354 354 354 353 353 353 353 353 354 354 354 354 353 352 353 353 353 354
347 346 345 346 346 346 348 349 351 351 351 352 352 351 350 349 348 348 347 347 347 347 347 347 346 346 347 346 346 345 346 349 353 354 353 352 352 351 351 352 354 354 353 353 353 353 354 354 354 353 353 353 353 353 353 353 354 353 352 353 353 353 353
344 343 342 343 344 345 347 347 348 348 348 350 352 352 351 351 351 350 350 350 349 349 349 348 346 346 348 348 347 347 348 351 352 352 353 353 352 353 353 353 353 354 354 354 353 353 353 353 354 354 354 353 353 353 353 353 353 353 352 352 352 352 352
343 342 342 343 344 344 344 343 343 343 344 347 349 350 351 350 351 351 351 351 351 351 351 351 350 349 350 349 348 348 349 350 351 351 352 351 351 352 353 353 353 354 353 354 354 354 353 353 353 353 353 352 351 351 352 352 352 352 351 351 351 352 353
342 342 342 342 342 341 340 341 341 342 343 345 346 347 348 349 350 350 349 350 350 351 352 352 351 350 351 351 349 349 349 349 350 351 351 350 350 352 352 352 353 353 353 354 353 353 353 352 352 352 353 352 351 351 351 351 352 350 349 350 350 351 354
340 340 340 339 338 339 339 341 342 342 343 344 344 345 346 348 349 348 347 348 349 350 351 350 350 350 349 350 349 348 349 349 349 350 349 348 349 351 351 350 351 352 352 353 352 353 353 352 352 353 354 353 352 352 352 352 351 349 348 348 348 350 352
339 338 337 336 337 338 339 340 340 340 341 341 341 342 343 343 344 345 346 346 347 349 349 349 350 349 349 349 348 348 347 347 347 347 347 346 348 349 350 350 351 351 351 352 351 352 353 354 354 354 354 354 354 354 354 352 350 349 348 348 348 349 350
338 337 337 336 336 336 336 338 339 338 338 338 338 338 338 339 340 341 342 343 344 345 346 347 347 347 347 348 348 348 348 347 347 346 346 346 347 348 349 350 351 351 352 353 353 352 353 354 355 355 355 355 355 355 355 352 350 350 350 349 349 349 349
335 335 335 334 333 333 334 337 337 336 335 335 335 334 334 335 335 335 337 338 339 341 341 341 341 342 343 344 345 345 345 346 345 345 346 347 347 349 349 350 351 351 351 352 353 353 353 353 354 354 354 355 355 356 354 352 351 351 350 350 350 349 349
332 333 333 332 331 332 334 334 335 334 333 332 331 329 329 330 330 330 330 331 333 334 335 335 335 335 336 337 339 340 341 341 342 342 343 344 345 346 347 349 349 349 350 351 351 351 351 351 351 352 351 352 354 355 353 350 351 351 351 351 350 350 349
329 330 331 331 330 331 333 332 332 332 331 329 327 326 326 326 326 326 326 326 327 328 329 329 329 328 328 328 329 332 335 336 337 338 339 339 340 341 343 344 345 344 346 347 348 349 349 349 349 350 349 350 350 352 351 349 349 350 350 351 351 351 351
327 328 329 329 329 330 330 330 330 329 328 326 325 324 324 324 323 323 323 323 324 324 325 325 325 324 323 323 323 325 327 329 330 332 334 335 335 336 337 338 340 340 341 342 343 344 346 347 348 347 347 347 347 348 348 347 346 347 348 350 351 351 351
325 326 326 326 328 329 328 329 329 327 325 324 323 323 323 323 323 322 322 321 321 321 322 323 324 323 322 322 322 322 323 324 324 326 329 329 329 329 330 332 333 335 338 340 341 341 342 344 345 343 342 342 342 343 344 344 344 344 345 346 348 349 349
324 325 325 326 327 328 328 329 328 326 325 324 323 323 323 323 322 322 321 321 321 320 320 321 321 322 322 322 322 322 323 323 323 324 325 325 325 325 326 327 328 330 333 337 340 341 341 342 343 342 341 341 342 341 342 343 342 342 343 343 344 346 347
324 325 325 325 327 327 328 327 327 326 326 324 324 323 322 321 321 321 321 322 322 322 322 320 319 319 321 321 321 322 322 322 323 323 323 323 324 324 325 326 327 328 330 333 336 339 339 340 341 341 340 340 340 340 340 340 338 337 338 339 340 343 346
324 324 324 325 326 326 326 326 325 325 324 323 322 321 320 320 320 320 320 321 321 321 321 320 319 318 319 320 320 321 320 320 321 321 321 321 322 322 323 324 325 326 328 330 332 334 336 336 336 335 333 333 333 333 333 333 332 331 331 330 332 335 337
323 324 324 325 325 325 324 324 324 323 323 322 321 320 320 319 319 319 319 318 319 319 318 319 319 319 319 319 319 319 319 319 320 320 320 320 321 321 321 321 322 324 325 326 327 328 330 331 331 330 328 326 326 326 326 327 327 327 326 326 326 327 328
324 324 324 324 324 323 323 323 322 322 322 321 321 321 320 319 319 319 318 317 317 317 317 318 318 318 318 318 317 317 317 317 318 318 318 318 319 319 319 319 320 320 321 322 323 324 324 325 327 328 327 325 325 324 324 324 324 324 325 325 325 326 326
323 323 323 323 323 323 322 321 320 320 319 319 319 320 320 319 319 319 317 316 316 316 316 316 316 316 317 317 317 316 316 315 316 316 317 317 317 318 318 318 318 318 319 320 321 322 324 324 325 327 327 326 325 323 322 322 322 322 322 322 322 323 324
322 322 322 322 321 321 321 320 319 318 317 317 317 317 318 318 318 318 316 315 315 314 314 314 314 315 317 317 318 317 316 315 315 316 316 316 316 316 316 318 319 319 319 320 321 323 324 324 324 325 325 324 324 323 322 321 321 321 321 320 321 321 322
321 321 321 320 320 320 319 319 319 317 317 316 315 315 316 315 316 316 315 314 314 314 314 313 314 315 317 317 317 318 317 316 316 316 315 315 315 316 315 316 318 319 319 320 321 321 322 322 322 323 323 323 323 323 322 321 322 322 320 318 319 319 320
320 320 320 319 318 318 318 319 319 318 317 316 315 315 314 314 314 314 314 314 315 314 313 313 314 315 316 317 317 317 317 317 316 316 315 315 315 316 315 315 316 317 318 319 319 319 319 319 320 320 321 321 322 322 322 322 322 321 319 317 317 317 317
321 320 319 318 317 317 318 319 319 318 317 316 315 314 314 314 314 313 313 314 315 314 313 313 314 314 315 316 316 316 315 316 315 315 315 314 314 314 315 315 315 316 316 316 317 318 317 317 319 319 319 319 320 321 322 322 322 320 317 315 315 315 316
320 319 318 317 316 316 317 317 317 317 316 315 314 314 313 313 312 313 313 314 314 314 314 314 314 314 314 315 315 315 314 314 313 313 313 313 313 313 313 312 313 315 316 315 313 313 314 315 317 318 317 318 319 319 320 321 320 317 315 315 315 315 315
320 319 317 316 315 315 315 315 315 315 315 313 313 313 312 311 311 312 313 314 314 314 314 314 314 313 314 314 315 315 313 312 312 312 312 312 312 313 313 311 309 310 312 312 310 309 311 313 315 315 316 317 318 318 317 318 317 316 315 315 315 315 315
320 319 317 315 314 314 314 313 313 314 313 313 313 313 312 310 310 311 312 312 313 313 313 313 313 313 313 314 315 314 313 312 312 313 312 312 312 312 313 313 311 309 308 308 307 308 309 311 313 314 315 315 316 316 315 315 315 315 315 315 315 315 314
319 318 317 315 314 314 313 313 313 313 313 313 313 312 311 310 309 310 310 311 311 312 312 312 312 312 312 313 314 313 313 313 313 313 312 312 312 312 313 314 314 313 311 309 307 308 310 312 313 314 313 312 312 313 314 314 313 314 313 313 314 313 313

ECMWFFLT1_925_thetae_096.txt.gz
Theta_e
353 353 353 351 351 351 351 352 351 351 351 352 353 352 352 351 352 353 355 357 357 358 358 358 358 358 358 358 358 357 357 356 356 357 357 357 356 357 356 356 357 357 356 356 356 357 357 358 358 357 359 360 361 363 362 360 360 360 360 360 359 359 359
356 352 353 353 351 351 352 352 351 351 352 352 353 353 353 352 354 356 357 359 359 358 358 357 358 358 357 358 358 358 357 356 356 356 355 356 357 356 356 355 356 356 357 356 356 357 357 358 358 358 359 359 359 363 362 361 360 359 360 360 359 360 360
360 355 354 354 352 352 353 352 351 351 351 352 352 353 353 355 357 359 360 360 360 360 359 357 357 357 357 358 357 357 358 356 356 356 355 355 355 355 354 354 355 355 355 356 356 356 355 357 358 358 359 359 359 361 361 361 361 359 360 360 359 360 361
359 357 354 354 354 353 353 353 352 352 351 352 352 352 355 357 358 360 360 360 360 360 359 357 356 354 355 358 358 357 357 356 356 356 354 353 353 353 353 354 354 353 354 355 355 354 354 356 357 358 358 359 360 361 361 362 361 360 361 360 359 361 360
356 355 354 355 355 352 353 353 353 352 352 353 353 353 355 357 359 360 360 360 360 360 360 357 353 352 354 356 356 356 357 356 356 356 354 352 353 353 353 354 353 353 353 354 354 355 355 356 356 357 358 359 359 360 360 361 360 360 362 361 360 360 358
355 356 356 356 355 353 353 353 353 353 353 354 355 354 355 357 358 359 359 359 360 359 359 357 352 351 353 353 353 353 355 356 356 355 354 353 354 354 353 353 353 353 353 353 353 355 355 355 355 356 357 358 358 358 359 360 360 360 361 362 361 360 358
356 360 361 358 355 353 353 352 351 353 353 354 355 354 356 357 357 357 357 358 359 359 358 357 353 353 354 352 351 352 353 354 355 355 354 353 353 353 352 352 353 353 353 354 354 354 355 355 355 356 356 356 357 358 359 361 361 360 361 362 363 361 359
355 358 362 362 357 354 356 354 352 352 353 353 354 355 356 356 355 355 354 355 357 358 358 358 356 356 357 355 353 353 353 353 352 353 353 351 351 352 351 352 353 353 353 353 353 353 354 355 355 356 357 356 357 358 359 361 361 360 360 361 363 362 359
352 354 358 360 356 353 353 353 353 353 352 351 351 353 354 354 353 353 354 355 356 356 357 358 358 359 360 359 357 356 355 353 352 352 351 349 349 349 349 350 350 352 352 351 350 351 354 355 355 357 358 358 359 360 360 361 361 359 360 361 362 362 360
353 352 354 355 354 352 351 351 351 351 352 352 352 352 351 351 351 352 354 355 356 356 357 357 359 361 361 361 360 359 357 356 354 353 351 349 348 347 347 346 347 349 350 349 347 348 353 355 355 358 360 360 360 360 360 360 360 360 360 360 361 361 360
352 352 353 353 354 355 355 355 353 353 354 354 353 352 351 351 352 353 354 356 356 356 356 358 359 360 361 361 361 360 359 358 356 355 354 353 352 350 348 346 345 346 347 348 346 346 351 356 356 358 360 360 359 360 359 359 360 360 359 358 359 360 360
352 352 352 353 354 355 356 356 355 355 356 354 350 348 349 352 354 355 355 356 356 355 356 358 357 358 358 357 357 357 356 355 354 354 355 356 356 354 352 349 347 346 347 347 347 346 348 353 354 356 358 358 358 359 359 360 360 360 360 358 358 359 359
353 353 352 352 353 354 355 355 354 355 355 355 353 350 351 352 352 352 350 350 353 355 357 357 356 357 355 352 351 351 350 352 355 356 356 358 358 358 356 353 349 348 349 349 348 348 347 349 352 353 355 356 356 356 358 360 360 360 360 359 358 358 359
353 353 353 352 352 353 354 353 353 354 353 353 354 353 353 351 351 351 349 348 351 354 356 354 352 355 354 349 348 348 347 348 352 354 356 357 358 358 358 357 354 353 353 352 351 350 349 348 349 351 352 353 353 354 356 359 359 359 359 358 358 358 358
351 351 351 351 350 349 349 349 350 352 352 352 353 352 352 350 350 351 351 351 351 353 354 352 350 353 354 349 346 346 345 344 345 349 351 352 352 353 355 357 358 356 356 355 354 352 351 349 349 350 352 352 353 353 354 356 357 357 357 357 357 357 357
351 350 350 348 346 346 347 348 349 349 350 351 351 350 350 350 350 351 351 352 353 353 354 353 351 352 351 348 346 344 344 343 344 347 349 348 348 348 350 353 356 357 357 357 356 355 354 353 352 352 352 352 354 353 353 353 353 354 355 355 356 356 357
350 349 348 346 345 345 345 346 347 347 348 349 348 347 348 349 350 350 350 352 353 353 353 353 353 352 350 349 348 347 347 346 347 349 350 350 349 347 348 350 352 354 356 356 356 356 356 357 356 354 353 353 353 352 351 352 352 353 353 352 351 351 354
349 347 346 346 346 345 344 345 346 347 346 346 345 345 346 348 349 349 349 350 350 352 352 352 353 353 352 351 351 351 351 349 349 351 351 350 350 349 349 350 350 352 354 355 356 356 357 358 358 357 357 355 354 353 352 353 354 353 352 352 350 349 350
347 346 346 346 345 344 344 344 344 344 343 343 343 343 344 345 346 346 347 348 349 350 350 351 351 352 352 352 352 352 352 351 350 350 350 351 351 351 351 351 351 352 353 354 355 355 356 358 358 359 359 357 357 357 356 356 355 354 352 352 350 349 348
345 344 344 343 343 344 343 342 341 340 340 340 340 338 338 339 339 340 341 343 343 344 345 345 346 346 347 348 349 350 351 351 351 350 350 350 350 350 351 352 352 352 352 353 355 355 356 358 358 358 359 358 359 359 357 355 354 353 352 351 350 350 348
344 343 341 341 342 343 342 341 339 337 336 336 336 334 333 333 333 335 336 336 336 337 337 338 338 339 340 341 343 345 346 346 347 347 348 349 349 349 349 351 352 351 351 353 354 355 356 357 357 358 357 357 358 357 354 351 352 352 351 351 351 350 349
342 340 339 340 342 342 342 341 338 336 333 332 332 332 331 330 330 331 331 331 332 331 331 332 333 333 334 335 336 338 340 341 342 343 344 345 346 348 348 349 350 350 351 352 353 354 354 354 354 355 355 355 356 354 350 349 350 350 350 351 352 351 352
339 339 338 340 341 340 340 338 336 334 332 330 329 329 329 329 329 328 327 328 328 328 328 328 328 328 329 330 332 334 335 337 338 339 339 340 340 342 344 346 346 347 349 350 351 352 352 351 351 351 352 352 354 353 350 347 348 347 348 350 351 351 355
336 337 337 337 338 338 336 334 333 332 330 329 328 327 327 327 327 326 325 325 325 326 326 327 326 326 326 327 329 330 331 334 335 335 334 335 335 336 337 339 341 343 344 346 347 348 349 349 348 348 348 348 350 350 347 344 344 344 345 348 349 350 355
331 333 334 335 336 335 334 333 331 329 328 327 327 326 326 326 326 325 324 324 324 324 325 325 325 324 323 323 324 326 327 329 331 331 332 332 333 333 334 335 336 338 340 342 343 344 345 347 346 346 346 346 346 345 342 339 340 341 342 344 346 347 351
329 330 332 333 334 333 332 331 329 328 327 326 326 326 326 325 325 325 325 324 324 323 324 324 324 324 323 322 323 325 326 326 326 328 330 331 331 331 333 334 334 335 337 340 341 342 343 344 344 344 344 343 342 341 338 336 335 335 336 339 341 344 348
328 330 331 332 331 330 329 329 328 327 327 326 326 325 325 325 326 326 326 325 324 324 322 322 323 325 326 325 324 324 325 325 325 326 327 328 329 329 330 333 333 333 334 336 338 340 340 339 339 339 339 340 340 339 336 333 330 329 329 331 334 337 341
328 329 331 332 331 329 328 327 327 326 326 326 325 324 325 326 326 325 325 324 324 325 324 322 322 323 324 326 325 325 325 323 323 324 325 326 328 328 328 330 331 332 333 335 336 336 335 333 334 335 335 336 336 336 334 330 327 327 328 327 328 330 331
329 328 330 331 331 329 328 327 326 326 325 324 324 323 324 325 325 324 324 324 323 324 324 324 324 322 322 323 324 325 325 323 322 323 325 325 326 327 328 328 329 330 332 334 335 335 334 333 333 333 333 334 334 335 333 329 325 325 326 327 327 327 327
328 328 328 330 330 329 328 328 327 326 325 325 325 324 324 324 324 324 323 323 322 322 323 324 324 323 322 322 322 322 323 323 323 323 323 323 324 326 327 327 327 329 331 332 333 334 334 334 334 333 332 332 332 332 333 331 327 324 322 323 324 324 325
328 327 328 327 328 328 327 327 326 325 324 324 324 325 324 324 324 324 323 322 322 322 322 322 322 322 322 322 322 321 321 321 321 321 321 321 322 323 324 325 326 326 328 329 331 332 332 332 332 332 331 331 331 331 331 332 331 328 324 322 321 321 321
328 328 328 327 327 326 325 324 324 323 323 322 322 323 323 323 323 323 322 321 321 321 321 321 321 322 321 321 321 320 320 320 320 319 319 319 319 319 319 322 324 325 326 326 326 328 329 329 329 330 330 330 330 330 330 330 330 329 326 324 322 322 321
329 328 327 327 326 325 324 323 323 322 321 321 321 321 322 322 322 322 321 321 321 321 321 321 321 321 321 321 321 321 320 319 319 319 319 318 318 319 318 319 320 321 323 324 324 324 324 325 326 327 327 328 328 329 329 329 328 326 324 323 322 322 323
329 328 328 327 326 325 324 323 322 322 321 321 320 320 320 321 322 321 321 321 320 320 321 320 320 320 320 320 320 320 319 318 317 318 318 317 317 318 318 319 320 320 320 321 321 322 322 323 324 325 324 325 326 326 327 328 327 322 319 318 317 317 319
329 329 328 327 326 325 325 324 323 322 322 321 320 320 320 320 320 320 320 319 319 319 319 318 318 318 318 319 319 318 317 317 316 316 316 316 317 317 316 315 316 320 322 318 315 315 318 322 323 322 322 324 325 324 326 327 324 318 316 315 315 315 316
328 328 327 326 325 325 325 324 323 322 321 321 321 320 320 319 319 318 318 318 318 319 318 318 318 318 318 319 318 317 316 316 316 316 316 316 316 317 317 314 311 313 317 316 311 309 311 315 317 317 318 322 324 321 320 321 318 316 315 315 315 315 314
327 326 325 324 325 325 323 322 321 321 321 321 320 319 319 318 318 317 317 317 318 318 318 318 318 317 318 319 317 315 315 316 316 316 316 316 316 317 318 318 315 312 311 310 308 308 309 311 313 312 313 317 320 319 318 316 315 315 314 314 314 314 314
325 324 324 324 324 324 323 322 321 321 321 320 319 318 318 318 317 317 317 316 316 317 317 316 317 316 317 317 316 315 315 316 316 316 316 316 317 317 317 318 319 318 315 310 307 307 310 312 313 313 312 312 314 315 316 315 314 313 313 313 313 312 312

ECMWFFLT1_925_thetae_099.txt.gz
Theta_e
354 352 351 352 352 351 351 351 351 350 350 350 350 350 349 349 349 351 352 354 354 357 358 358 357 358 359 360 359 358 359 358 358 360 359 358 357 358 357 357 357 357 355 354 355 357 358 357 358 358 360 360 361 364 363 361 361 361 360 360 359 361 360
355 353 351 352 352 351 351 352 352 351 352 350 350 351 350 350 351 351 352 353 354 356 357 357 358 359 359 361 360 359 358 358 358 358 358 359 359 359 357 356 356 357 357 356 356 357 359 359 359 360 361 359 360 364 364 361 360 360 361 362 360 361 361
357 356 356 354 353 352 352 353 353 352 352 352 352 351 352 351 351 351 353 354 353 354 355 355 357 357 358 359 360 359 359 358 358 357 356 357 357 358 357 357 356 356 356 357 357 357 356 357 358 360 361 359 358 362 363 362 360 359 361 362 359 360 361
359 359 358 356 353 352 354 352 353 352 352 352 352 352 351 352 353 354 355 354 353 353 353 353 354 354 355 358 359 359 359 357 357 357 355 353 354 355 356 356 356 355 355 356 356 355 355 356 358 359 359 359 360 362 362 362 360 359 361 361 359 361 361
358 358 359 359 355 354 354 352 353 353 352 353 352 352 353 353 353 355 355 356 354 352 352 352 351 351 352 355 357 357 358 357 356 356 355 353 353 354 354 354 354 353 354 356 354 355 356 356 357 358 358 359 360 361 362 362 360 361 362 359 359 360 358
358 359 361 362 359 353 354 352 352 354 352 353 352 352 354 354 354 355 355 357 357 354 352 351 348 348 351 352 354 355 356 357 356 356 355 355 354 353 353 353 353 353 353 353 353 354 356 355 355 356 358 358 358 358 359 360 359 360 361 361 360 359 357
359 360 360 361 360 355 354 353 351 352 353 353 353 352 354 356 355 355 357 358 359 356 354 352 349 348 349 350 352 354 355 355 356 355 354 354 353 353 353 353 353 353 352 353 353 354 355 355 355 357 356 356 356 357 358 361 361 360 361 363 362 360 358
357 358 358 358 359 356 356 356 354 355 353 353 354 352 352 354 355 356 356 358 358 358 356 353 350 349 349 349 350 351 353 353 354 354 353 352 352 352 353 353 352 353 353 352 354 353 355 355 355 356 356 355 356 356 358 362 362 360 360 361 363 362 359
353 356 358 358 357 357 358 357 357 354 354 356 355 353 353 352 351 354 357 359 360 359 358 357 353 351 350 350 350 349 350 351 351 351 352 350 349 349 349 350 350 351 352 352 352 353 353 354 355 356 357 356 358 358 359 362 363 359 360 361 363 363 359
354 356 359 358 357 358 358 356 354 353 353 355 356 356 355 353 352 355 358 358 359 359 359 359 358 356 355 354 352 350 349 350 349 349 349 348 348 347 347 346 346 349 350 350 350 350 351 353 353 357 359 359 359 361 360 361 361 359 360 362 362 361 360
354 357 358 356 355 354 353 352 352 355 354 355 356 357 355 353 353 355 356 357 359 360 360 361 362 363 363 360 358 354 352 352 350 349 350 349 347 345 346 345 344 347 348 348 348 346 348 352 354 358 361 360 359 360 360 359 360 359 361 360 360 360 359
352 355 355 355 354 352 352 351 351 352 351 351 356 357 355 355 354 355 357 359 359 359 361 361 362 366 367 363 362 361 358 355 353 352 351 351 350 349 347 346 344 345 346 346 348 345 345 349 353 358 361 360 359 360 361 360 359 359 360 360 360 360 359
353 353 352 353 353 352 353 354 354 354 351 351 355 356 355 356 357 358 358 358 358 358 361 362 361 363 364 362 361 361 360 357 354 353 353 353 354 354 351 348 344 344 344 345 346 347 344 347 351 355 358 360 359 358 360 362 361 360 361 360 359 359 359
353 353 351 352 353 354 354 354 355 356 355 355 356 355 354 355 357 359 359 357 356 356 359 360 360 360 361 361 361 359 359 357 354 354 356 355 356 357 355 353 347 344 345 344 345 346 345 344 347 352 354 356 357 357 357 359 359 359 361 361 359 358 359
353 352 351 351 353 354 354 354 355 355 355 355 355 355 354 355 354 355 354 355 354 355 356 358 359 358 358 360 361 360 359 357 356 357 359 360 360 361 360 359 355 351 347 346 347 348 347 345 344 347 351 352 353 353 352 354 356 358 358 359 359 357 357
354 354 352 353 353 353 352 354 355 353 354 354 354 354 355 354 352 351 351 352 352 352 353 354 357 358 356 357 359 359 358 358 358 358 359 358 359 360 362 362 360 358 356 354 353 352 350 348 346 345 348 349 351 352 350 349 351 353 355 357 358 357 356
354 354 352 350 351 350 350 352 353 352 354 354 352 353 353 354 353 352 352 352 351 350 349 350 353 357 355 356 357 356 354 354 356 357 356 355 353 354 358 358 357 357 358 358 358 357 355 352 350 349 348 348 351 352 350 349 350 351 352 354 356 357 356
353 350 347 346 348 349 349 349 350 351 351 351 350 351 351 353 354 353 352 352 351 350 350 350 352 354 355 355 354 352 350 349 350 353 355 353 349 350 353 353 352 353 356 358 358 358 357 355 354 353 351 349 350 350 349 350 354 353 352 353 354 354 355
349 347 346 347 348 348 347 347 348 348 348 348 348 348 348 350 350 350 351 352 351 351 352 353 353 353 354 353 352 352 352 351 349 349 351 351 349 349 351 352 352 353 354 356 357 357 357 355 354 355 354 352 352 353 352 352 354 354 353 353 352 352 351
346 347 347 347 346 346 345 345 345 345 345 344 344 344 344 344 345 344 345 347 349 350 350 350 350 349 349 349 351 353 353 353 352 351 351 351 351 352 353 354 354 354 354 355 356 356 356 355 353 355 357 356 355 355 353 353 354 354 354 353 353 352 352
346 348 347 345 344 344 343 343 344 343 342 340 339 340 340 340 339 338 338 339 342 343 343 343 343 343 343 344 347 350 350 351 351 351 351 351 351 352 355 355 355 355 355 356 355 355 356 355 353 354 355 355 354 354 352 351 354 355 355 354 353 353 352
347 347 345 344 344 343 342 341 341 340 338 337 337 337 336 335 334 333 333 333 334 335 336 338 338 338 339 341 342 344 346 346 346 347 348 349 350 351 352 352 354 355 355 355 353 352 353 354 355 355 352 349 349 351 350 350 351 352 353 354 353 352 351
345 344 344 344 343 342 341 340 338 336 335 335 335 334 333 332 332 332 331 331 330 330 331 333 334 334 335 337 338 340 341 341 341 342 343 344 345 346 346 347 348 350 352 353 353 353 352 352 353 353 350 347 349 350 348 348 349 350 350 352 352 351 352
342 342 342 341 341 340 339 339 337 334 333 333 333 332 332 331 330 330 329 329 328 327 327 328 328 329 331 333 335 336 337 338 339 339 340 339 340 340 341 342 343 345 346 348 349 350 350 349 349 350 348 348 349 348 346 347 348 349 350 350 350 351 352
340 340 339 338 338 338 337 337 335 333 333 332 331 331 331 330 329 328 327 327 326 325 325 325 325 326 328 330 331 332 333 335 337 337 337 337 337 337 337 338 340 342 342 343 345 347 348 348 348 349 347 346 346 344 344 345 345 346 347 347 349 349 350
339 339 338 337 336 335 335 334 334 332 331 331 329 328 328 327 328 328 327 327 326 326 327 327 325 325 326 327 328 329 330 332 333 334 335 335 336 336 336 336 337 340 342 342 343 344 346 346 346 347 346 344 343 340 339 339 338 339 341 342 343 344 346
337 337 337 335 334 334 332 331 330 329 328 328 327 326 327 327 328 328 327 326 324 324 326 327 325 324 325 326 326 327 329 329 329 331 333 333 333 335 335 335 336 338 340 341 341 340 341 342 343 344 344 343 341 339 336 334 332 333 336 336 335 337 341
335 334 334 334 333 332 330 330 329 328 327 327 326 326 327 328 328 327 327 326 324 323 324 326 326 325 326 327 326 324 323 324 325 327 330 331 331 333 334 335 335 336 337 338 337 333 332 336 339 341 342 342 340 338 335 332 329 330 331 331 330 332 334
334 334 333 333 332 330 329 329 329 328 327 326 325 325 326 326 327 327 327 327 326 326 325 325 325 324 325 326 326 325 324 324 323 324 327 329 330 330 331 332 333 334 334 337 336 332 330 334 337 338 339 340 338 337 334 330 327 327 327 327 328 329 329
333 333 334 333 331 329 329 329 328 328 327 326 326 325 325 325 326 326 326 326 326 326 326 326 325 325 324 324 326 326 326 325 323 321 322 326 329 330 330 331 333 334 334 334 336 335 334 335 337 336 336 336 335 335 335 332 330 328 326 324 324 325 325
331 333 333 331 330 329 329 329 328 327 327 328 327 326 325 325 325 325 325 325 324 324 325 325 325 326 325 324 325 324 323 324 324 322 321 323 324 323 323 324 327 330 332 333 334 334 334 334 335 335 334 334 334 334 335 335 334 333 329 325 323 324 323
331 331 331 330 330 329 328 327 326 326 326 326 326 326 326 325 325 325 325 324 324 324 324 324 324 324 324 324 324 323 322 322 322 322 322 322 321 318 316 316 318 320 324 327 329 332 333 333 333 333 333 333 334 334 334 334 334 333 330 327 326 326 326
332 330 330 330 329 328 327 325 324 324 325 325 325 325 325 325 324 324 324 324 323 323 324 324 324 324 324 324 323 323 322 320 320 320 321 321 322 322 320 318 318 319 321 323 325 327 329 329 330 331 332 333 333 333 333 333 331 329 326 324 323 322 324
332 330 330 330 328 327 326 325 324 323 324 324 325 325 325 325 325 324 325 324 323 323 324 324 324 324 324 323 323 321 320 319 319 320 320 319 320 322 322 322 323 323 323 323 324 325 326 327 329 329 329 330 330 331 332 330 326 324 323 320 317 315 317
332 331 331 329 328 327 327 325 324 324 324 324 324 323 324 324 324 323 324 323 322 323 322 321 321 322 322 322 321 320 320 319 319 319 319 319 320 320 319 318 321 324 324 322 321 322 322 326 328 327 327 328 328 329 330 328 322 321 321 318 315 313 313
332 332 331 330 329 328 328 326 325 325 325 324 324 323 322 322 322 322 322 321 322 322 322 321 322 321 321 321 320 318 319 321 319 319 319 319 320 321 319 313 312 318 321 318 314 313 315 319 321 320 322 326 326 323 323 321 318 318 317 315 314 314 313
332 332 331 330 329 329 327 326 326 326 325 325 324 323 322 322 322 322 321 321 321 321 321 322 322 321 321 322 319 316 317 321 320 319 320 320 319 321 321 318 316 316 317 313 309 307 307 310 312 312 314 320 323 320 319 317 316 316 315 314 313 314 313
331 331 330 329 329 329 328 326 325 326 325 325 324 322 321 321 321 320 320 320 321 321 321 321 321 320 320 321 318 315 318 320 320 319 321 321 320 319 320 321 322 321 318 315 312 309 307 307 308 308 309 313 317 319 318 317 315 314 313 312 312 311 310

ECMWFFLT1_925_thetae_102.txt.gz
Theta_e
355 353 353 352 351 349 349 349 348 348 350 349 348 349 349 350 351 355 357 359 360 360 360 360 359 359 358 358 358 358 356 356 359 359 359 358 356 356 357 357 357 356 357 357 356 356 355 354 355 356 355 357 359 357 356 358 358 358 360 359 357 358 358
356 354 354 353 353 352 350 350 349 349 350 350 349 348 348 350 351 354 357 359 360 360 360 360 359 358 359 359 358 357 358 359 359 359 358 357 356 356 356 356 356 355 356 355 353 355 356 356 356 356 357 358 358 358 357 359 359 359 360 359 358 359 358
357 356 356 356 356 354 354 352 350 350 350 350 349 349 349 350 352 354 356 358 359 360 360 359 358 357 358 359 358 357 358 358 357 357 358 358 358 357 356 355 355 355 355 354 353 355 356 357 357 358 359 358 358 358 358 359 360 358 359 359 358 359 359
359 356 355 357 360 358 355 353 352 351 351 351 350 349 350 351 352 353 356 357 358 359 359 358 358 358 358 359 359 358 358 357 356 357 358 358 358 357 357 357 356 355 355 355 354 355 355 355 355 358 358 357 359 360 358 359 359 358 359 360 358 358 359
358 359 360 362 365 364 357 353 353 353 352 352 350 350 351 352 352 353 355 356 357 358 359 357 356 356 358 358 358 358 358 357 356 356 356 356 355 355 355 356 356 355 355 355 355 353 353 354 355 357 358 357 359 360 359 361 359 357 358 360 358 358 358
360 363 363 362 363 361 357 352 353 353 352 353 352 351 352 352 352 352 353 354 355 356 357 355 355 354 355 357 356 356 357 357 357 356 355 354 353 353 354 355 354 353 353 354 355 354 354 355 355 357 358 358 358 358 359 360 359 357 359 359 358 358 358
360 362 360 362 363 360 358 354 351 352 353 354 353 353 353 353 353 353 353 353 353 354 354 353 352 352 353 355 355 355 356 356 357 356 355 354 354 354 354 353 353 353 352 353 354 354 355 356 354 355 357 356 356 356 356 357 358 359 359 359 359 358 359
360 361 360 360 361 359 357 355 353 353 353 353 354 354 354 353 353 353 353 353 353 351 351 350 349 350 350 352 352 353 355 356 356 356 355 354 354 354 353 352 352 353 352 352 353 353 354 354 353 354 355 355 356 356 355 356 359 359 358 359 361 360 359
361 360 359 358 359 359 356 354 354 353 351 353 354 354 355 355 355 355 355 355 355 353 351 350 349 349 349 350 351 352 354 355 355 355 354 353 352 352 351 352 352 353 353 353 352 352 353 354 354 354 355 355 355 355 355 357 361 360 358 359 361 361 359
358 357 355 354 356 357 357 357 357 355 354 354 351 351 352 351 353 356 356 355 356 355 354 352 350 349 349 349 350 352 353 353 354 355 354 352 351 350 349 349 350 351 352 352 351 352 353 353 354 354 355 356 356 356 357 358 361 361 358 358 359 360 361
353 355 354 355 355 356 357 359 358 357 356 354 351 352 354 351 350 354 354 354 356 355 355 355 353 351 350 350 350 350 351 351 352 352 352 351 351 350 348 347 347 348 349 350 350 350 351 351 352 352 356 358 357 358 359 359 360 360 358 358 358 360 360
351 353 354 354 354 354 356 355 356 357 356 354 352 352 355 355 353 354 355 356 358 357 356 358 358 354 352 351 351 350 350 350 351 351 350 350 350 349 348 347 345 345 346 347 348 348 348 348 350 352 356 359 359 358 359 359 358 358 358 359 358 358 359
353 352 353 353 351 351 352 352 353 355 355 356 354 351 355 357 355 355 357 359 360 360 359 358 359 361 360 357 355 354 353 351 351 350 350 349 349 349 348 348 347 345 344 345 346 348 347 346 348 351 354 359 360 358 358 358 359 359 358 359 359 358 359
354 353 352 353 352 350 350 351 352 352 353 357 357 355 356 357 355 355 357 359 360 361 361 358 358 363 366 363 361 360 358 355 353 353 352 351 351 351 351 352 352 349 345 344 344 345 346 346 346 348 352 357 360 359 358 358 359 360 359 359 359 358 357
355 354 353 353 353 352 351 352 354 353 352 356 358 357 356 357 357 357 357 358 358 359 360 361 360 362 363 362 362 361 360 358 357 355 354 353 353 353 354 354 355 353 350 348 346 344 345 345 344 345 348 352 357 358 357 356 357 360 359 359 360 359 357
355 354 354 354 355 354 353 354 356 355 354 355 356 356 356 357 357 357 357 358 357 357 359 360 360 361 361 362 362 361 361 360 358 357 358 358 360 361 360 360 360 359 357 356 352 348 346 347 347 346 346 347 351 354 354 353 353 354 355 355 358 358 357
354 354 355 354 354 353 352 353 355 355 355 355 354 355 355 355 356 355 356 357 356 357 358 359 359 360 359 360 361 361 361 361 360 360 360 361 362 363 364 364 363 362 360 358 356 354 352 352 352 351 348 346 346 348 350 350 350 351 352 354 355 356 355
351 352 353 353 353 352 352 353 354 354 355 354 353 354 353 353 354 353 354 355 355 355 354 354 355 356 356 356 357 358 359 359 359 360 359 360 360 360 360 359 357 357 357 357 358 358 357 356 356 355 353 350 348 350 350 349 350 352 352 352 353 354 355
346 349 351 351 351 351 350 351 351 351 352 351 350 350 349 349 348 348 350 352 353 353 353 353 353 354 354 353 353 355 356 356 357 357 357 356 356 357 357 354 351 351 352 353 354 355 356 356 358 358 356 353 349 349 351 352 351 353 353 352 352 353 354
345 349 350 348 348 348 348 348 347 346 347 347 346 345 344 343 343 344 346 348 349 350 350 350 350 351 352 352 353 353 353 353 354 354 354 353 352 354 354 353 352 351 352 351 350 352 354 356 358 358 357 355 351 348 350 353 353 353 353 353 353 353 354
348 348 347 346 345 345 346 344 343 342 342 342 342 341 339 339 339 340 342 342 343 343 343 344 344 345 347 348 350 351 351 351 352 352 351 351 352 354 354 353 353 352 353 354 352 352 354 355 357 357 355 353 351 350 350 351 353 354 354 354 354 353 353
350 347 344 344 344 344 344 343 341 341 340 339 339 338 337 337 336 337 337 337 337 337 338 339 339 340 342 343 344 345 346 347 349 349 349 349 350 351 351 351 352 352 352 352 352 352 354 356 357 356 355 353 351 350 350 351 352 353 353 354 354 353 353
346 345 344 344 342 341 341 340 340 339 338 337 337 336 336 336 335 334 333 333 333 334 334 335 336 336 337 338 340 341 342 343 344 345 345 345 346 346 346 347 348 349 350 351 352 352 354 355 355 354 354 354 351 350 349 350 351 351 351 351 352 352 353
343 343 344 343 342 340 339 338 338 336 335 335 335 334 334 334 333 331 330 329 330 330 331 331 332 332 332 334 336 337 338 340 341 341 341 340 339 340 343 344 344 346 348 348 349 350 351 353 354 353 353 352 350 348 347 346 347 349 349 350 351 351 352
342 342 342 341 341 340 338 337 335 334 334 334 333 332 331 331 330 329 329 329 329 329 329 329 328 328 329 331 332 333 334 336 337 338 338 337 336 337 339 341 342 343 344 345 346 347 349 351 351 350 350 348 346 344 344 344 344 345 345 347 348 349 350
341 340 340 339 338 337 337 336 334 332 331 330 330 329 329 329 330 329 329 330 329 328 328 328 327 327 328 329 329 330 331 333 334 335 335 335 336 336 338 341 342 343 343 344 345 345 346 348 348 347 346 343 341 340 340 340 340 340 341 342 344 346 347
338 337 337 337 337 337 336 334 331 328 327 327 328 329 328 329 328 326 326 326 327 326 326 326 327 326 326 326 327 328 330 331 331 332 333 334 335 335 336 339 341 343 342 341 342 345 346 345 345 343 341 339 338 338 337 337 337 336 335 335 337 340 343
337 336 335 335 335 333 331 330 328 326 326 328 327 327 328 329 328 326 324 324 326 327 327 327 328 327 324 323 322 322 325 326 326 327 329 331 333 334 335 335 336 338 339 336 336 340 341 340 341 342 340 338 337 335 334 333 333 332 330 331 333 334 336
336 335 334 333 332 330 330 329 328 326 327 326 326 326 327 328 329 329 327 327 327 326 325 325 326 326 327 326 325 323 322 323 324 325 327 329 331 332 333 334 334 336 337 335 333 335 336 336 338 341 341 338 335 333 332 331 330 329 328 328 329 329 329
335 335 334 332 331 330 330 329 328 327 327 326 325 326 328 329 329 328 328 328 327 326 326 326 325 325 325 327 327 326 324 324 325 324 324 327 330 332 332 333 334 334 334 335 334 335 335 335 335 337 340 339 335 333 333 333 331 329 327 326 326 326 326
335 335 333 331 331 330 329 329 328 328 328 327 325 325 326 327 327 327 326 326 326 327 327 327 327 326 325 324 324 324 324 325 324 322 320 321 322 322 324 328 331 331 330 332 333 333 334 335 335 335 336 338 337 335 335 335 333 330 328 327 327 327 327
334 334 332 331 331 330 328 328 328 327 327 327 326 326 326 326 326 326 326 325 326 326 326 325 325 325 325 324 324 322 322 324 323 322 321 320 318 315 314 317 321 321 322 324 328 330 330 332 333 333 333 335 336 335 335 334 332 329 328 327 327 326 326
333 333 332 331 330 329 327 327 327 326 326 326 327 327 327 326 326 326 326 325 325 325 326 326 325 325 324 324 323 321 318 318 321 322 321 321 322 321 319 317 317 318 320 322 324 326 327 329 331 330 330 332 332 333 334 333 330 328 327 326 325 324 321
332 332 332 330 329 328 326 326 326 327 327 328 327 326 325 325 326 327 326 325 324 325 326 326 325 325 325 324 323 321 319 318 321 323 320 319 320 322 321 322 323 324 324 324 323 323 325 328 328 328 328 329 330 331 331 329 327 327 326 325 325 321 315
332 332 331 329 328 328 326 325 326 327 327 327 327 326 327 326 327 327 326 324 324 324 324 324 324 324 325 323 321 320 320 320 320 320 320 320 321 321 317 317 321 325 323 321 320 319 320 323 324 324 325 326 326 327 327 326 324 325 324 323 322 317 311
333 333 331 329 329 328 327 326 326 326 326 326 326 326 326 325 325 324 323 323 323 323 323 323 323 323 323 322 319 319 322 323 320 319 320 321 323 323 319 315 315 317 317 316 313 311 311 315 318 319 321 323 323 324 324 323 322 321 320 319 316 312 309
333 333 332 330 330 329 328 327 327 327 327 327 326 325 324 324 324 324 323 322 323 323 324 325 325 324 323 321 317 316 320 323 321 320 321 321 321 323 322 321 319 317 315 316 313 308 305 307 310 311 314 318 321 322 320 318 317 316 314 313 311 309 308
333 333 332 331 330 330 329 328 328 328 328 327 326 324 324 324 324 323 323 323 322 322 323 324 324 323 323 322 318 316 320 322 321 321 322 322 321 321 321 322 324 323 321 320 318 313 309 307 306 306 307 310 314 316 316 316 314 312 311 309 308 308 308

ECMWFFLT1_925_thetae_105.txt.gz
Theta_e
357 355 353 352 351 351 349 346 347 346 346 348 348 348 351 355 357 357 359 358 356 358 358 357 357 357 359 360 358 357 356 356 357 357 355 357 356 355 357 357 356 357 357 355 354 355 355 356 357 357 355 354 357 358 354 353 354 355 358 358 357 358 357
357 356 354 354 353 352 349 345 347 348 347 349 349 348 350 354 356 358 359 359 357 359 359 357 357 357 358 359 358 358 357 356 358 356 354 356 357 356 357 356 356 357 357 356 356 356 355 355 355 356 355 353 355 357 354 352 352 355 358 357 354 356 355
358 357 356 355 354 353 350 346 347 349 348 349 348 348 351 354 357 357 358 359 358 359 360 359 359 357 357 358 359 358 356 355 356 355 355 356 356 356 357 357 356 355 355 355 356 355 354 355 355 355 355 356 356 357 355 354 354 356 359 358 355 355 355
359 360 359 359 356 353 350 347 348 349 349 349 348 349 353 355 357 357 358 359 359 360 360 359 359 358 356 356 358 358 355 355 355 354 356 357 356 356 356 356 355 355 354 354 354 353 354 356 357 356 357 358 358 358 356 357 358 357 357 359 358 356 358
359 360 361 361 362 359 351 347 349 350 349 349 348 349 353 354 356 357 358 360 359 360 360 359 359 358 357 357 357 357 356 357 357 355 355 357 357 357 356 356 356 355 355 355 354 353 355 357 356 356 358 358 357 358 358 358 359 358 357 359 358 356 358
359 363 364 361 363 365 359 350 350 351 349 349 349 350 352 353 356 357 358 359 360 359 360 359 359 358 358 358 358 357 356 357 357 355 356 357 357 358 357 357 357 355 355 355 354 354 354 354 354 355 357 357 356 358 359 359 360 358 356 358 359 356 357
359 362 364 361 361 364 359 352 351 351 350 351 352 352 353 354 357 357 358 359 359 359 360 358 358 358 358 358 359 358 357 357 357 355 356 357 356 355 355 356 356 355 354 354 355 354 353 353 354 354 356 357 357 357 358 359 360 359 357 357 358 356 357
361 360 361 364 363 362 358 352 351 351 350 351 352 353 353 354 356 357 357 359 358 359 359 358 357 357 358 358 359 358 358 357 356 356 356 356 355 353 353 354 354 354 353 353 354 354 353 353 354 354 356 357 357 357 357 357 358 358 358 358 358 357 358
362 361 361 363 360 357 355 351 350 351 351 352 352 352 353 354 355 356 357 357 357 358 359 357 356 356 356 357 357 357 357 357 357 356 356 356 355 354 353 353 353 352 352 353 353 353 353 354 354 354 354 355 356 356 356 355 355 357 359 359 358 359 359
360 359 360 360 357 356 355 351 350 351 351 351 352 352 353 355 354 355 356 356 355 357 357 355 354 354 354 355 355 355 356 356 356 356 356 355 354 354 354 353 352 352 352 352 352 352 352 354 354 354 354 354 354 355 355 355 355 358 360 359 358 359 359
356 357 358 359 358 358 357 354 353 352 351 350 352 352 351 353 353 354 355 355 354 355 355 354 353 353 352 353 353 352 353 355 355 356 355 355 354 352 351 351 351 352 352 352 352 352 351 353 353 353 354 354 355 355 356 356 357 359 360 359 358 358 358
354 356 357 357 358 359 359 356 354 353 352 352 353 353 351 352 354 354 354 355 354 353 353 353 354 353 351 351 352 351 352 354 354 355 355 354 353 352 351 350 349 349 350 351 351 350 350 351 352 352 352 353 354 356 356 357 358 359 360 359 358 358 358
353 355 355 356 357 358 358 356 354 354 354 354 355 354 352 352 353 354 354 354 354 354 353 352 353 354 351 350 352 352 352 353 353 353 354 353 352 351 350 349 348 348 349 349 349 349 348 349 350 349 350 352 354 356 356 357 358 358 358 358 358 358 358
352 353 352 353 355 356 356 356 356 354 352 353 354 354 353 351 352 354 355 356 355 354 353 352 352 355 354 351 349 350 350 350 350 350 351 352 350 350 350 349 348 349 351 350 349 348 347 346 347 348 350 351 352 354 356 357 358 358 357 358 358 358 359
351 352 350 351 352 353 354 354 353 353 351 351 353 355 357 356 355 357 359 358 358 357 355 355 355 357 358 356 353 353 353 352 352 352 351 350 350 349 349 349 348 348 351 351 350 350 349 347 346 348 350 351 352 354 356 358 358 357 357 358 358 358 358
351 350 350 352 352 353 354 352 350 351 352 353 354 356 359 357 357 358 358 355 354 355 356 357 358 359 359 357 354 354 355 354 354 354 354 355 356 353 350 349 349 350 352 352 352 352 351 349 348 349 350 350 353 354 357 358 357 356 355 356 358 358 359
353 352 352 352 353 353 354 353 351 350 350 351 351 352 353 352 352 353 353 352 351 352 354 354 353 354 355 355 355 354 353 353 354 353 354 357 360 359 358 357 355 354 355 355 354 352 351 349 349 350 351 350 350 351 353 355 354 352 351 351 354 357 358
354 353 353 353 352 352 352 351 350 349 348 347 348 349 349 349 349 350 351 353 352 351 352 352 352 351 350 353 355 353 349 350 353 354 353 355 357 359 361 362 361 360 359 358 357 355 353 352 352 352 353 353 351 349 349 350 350 348 348 349 352 356 357
352 351 351 351 351 350 349 348 348 348 346 345 345 346 347 348 348 349 350 352 352 351 351 351 350 349 348 350 353 352 350 352 355 355 354 355 356 357 359 360 360 359 356 354 352 351 352 353 354 354 355 355 353 351 348 348 348 347 348 350 352 354 356
349 350 350 348 347 347 346 345 345 345 343 342 342 342 344 346 346 347 349 350 351 351 350 349 349 349 349 350 352 353 352 354 355 356 355 355 355 355 355 355 355 353 352 349 348 347 348 350 352 354 356 357 354 352 350 349 349 349 350 351 352 352 353
348 349 348 346 345 343 343 342 341 340 339 338 339 339 340 342 344 345 346 347 348 348 348 348 347 347 348 349 350 351 352 353 353 353 354 354 352 352 352 353 353 352 351 351 350 349 350 350 350 351 353 354 354 353 351 350 350 350 351 351 352 352 353
348 346 345 344 343 341 341 340 339 338 338 337 337 338 338 339 341 342 341 342 343 343 344 345 344 344 345 345 346 347 348 350 351 351 351 352 351 351 352 352 353 353 353 352 352 352 353 352 351 352 351 348 349 352 352 350 350 350 350 350 351 353 354
346 344 343 342 340 340 340 339 338 338 337 337 337 336 336 337 339 340 339 338 339 339 339 340 339 339 340 341 342 344 344 346 347 348 348 349 349 350 350 350 351 351 352 352 352 352 353 352 352 355 354 349 348 350 350 349 349 350 350 351 352 353 353
341 341 341 340 340 339 338 337 337 337 336 336 335 334 334 335 336 336 336 335 335 335 335 335 335 335 337 337 338 341 342 341 341 341 342 343 344 345 346 347 347 348 348 348 348 349 349 350 351 352 352 349 347 348 349 349 349 349 350 351 352 352 352
341 339 339 338 338 337 336 336 335 335 334 333 332 332 331 331 332 332 331 331 331 331 331 331 331 332 333 334 336 338 339 338 337 337 337 338 340 341 342 342 343 344 345 344 345 346 346 347 348 349 348 346 346 347 347 346 346 346 347 349 349 351 351
340 338 338 337 337 335 334 334 333 332 332 331 331 330 330 330 330 330 329 329 328 329 329 329 329 330 331 332 334 335 335 335 335 336 336 337 338 339 341 343 344 343 344 344 344 344 345 345 346 346 344 341 342 343 342 342 344 344 345 347 348 349 349
338 337 336 336 335 332 329 329 330 330 330 330 329 329 329 329 328 327 327 327 326 327 327 326 326 328 329 332 333 333 333 334 334 335 335 335 335 336 339 342 341 338 338 341 343 343 343 342 341 341 338 335 334 336 337 337 337 336 336 339 342 344 345
336 336 336 336 332 328 326 327 328 327 327 328 328 326 325 325 326 326 326 326 326 327 326 324 323 323 324 326 329 330 331 332 332 332 333 334 334 334 336 338 337 335 335 337 340 341 341 340 337 335 334 332 330 331 332 331 330 328 327 329 332 334 335
334 334 334 332 329 327 326 326 327 326 326 327 328 328 326 325 327 327 326 325 326 327 327 327 327 326 325 324 324 324 324 326 328 330 331 333 333 334 334 335 335 335 335 336 337 339 341 341 337 332 330 329 327 328 328 327 327 326 326 326 327 327 328
333 332 331 329 328 328 327 326 325 325 327 328 329 329 329 328 328 327 326 325 325 325 325 326 326 327 327 327 325 323 322 321 322 325 327 330 332 332 333 333 333 334 334 334 335 335 337 340 339 335 332 329 327 327 327 327 327 327 327 327 328 328 328
333 332 331 330 329 328 327 326 325 325 326 327 328 327 327 327 326 326 326 326 327 327 326 326 325 325 324 324 324 324 323 322 320 320 320 321 322 324 326 326 325 326 329 331 331 332 333 335 337 338 335 331 329 328 327 328 328 328 328 328 327 327 327
333 331 330 329 328 328 327 327 326 325 325 325 326 326 326 325 324 325 326 326 326 326 324 323 324 324 324 323 323 323 324 322 320 320 320 320 318 318 319 318 318 319 323 326 328 330 331 331 333 335 337 335 333 330 329 329 328 328 328 328 328 328 327
334 331 330 329 328 327 327 326 326 326 326 326 326 326 325 325 324 324 324 323 323 323 322 321 321 322 322 321 320 320 321 321 321 321 323 324 323 322 320 320 320 320 320 322 325 328 329 328 328 330 333 333 332 330 328 327 327 327 327 328 328 328 329
333 331 329 328 327 327 326 326 326 327 327 326 326 325 324 325 325 325 324 324 324 325 325 325 325 325 324 322 320 319 319 321 321 322 321 321 322 322 323 324 325 324 322 321 322 325 326 326 326 327 329 330 329 328 327 327 327 326 326 327 327 326 327
332 331 329 328 327 327 326 327 327 327 326 326 325 325 325 327 327 326 324 324 324 325 325 324 325 325 324 323 322 321 320 320 320 321 321 321 320 318 319 322 322 321 319 317 317 318 320 322 322 322 323 324 323 322 321 320 319 318 318 321 323 321 318
330 329 328 326 325 325 326 327 327 327 327 326 326 326 327 327 326 324 323 322 323 322 322 323 323 322 321 321 321 322 322 320 318 319 320 321 322 320 317 316 315 315 315 314 311 310 310 313 316 318 319 319 319 318 317 316 316 315 314 317 317 313 308
331 330 329 327 326 326 326 326 326 326 327 326 326 326 325 324 324 323 322 322 322 322 323 325 324 322 321 319 318 320 323 320 318 320 320 320 321 322 321 319 318 318 318 317 313 308 305 306 309 311 313 314 316 316 316 317 316 314 312 312 310 307 305
332 331 329 328 327 326 326 326 326 326 326 325 325 325 324 323 324 323 322 321 322 322 323 324 324 324 323 319 315 318 322 322 320 321 322 321 321 321 321 321 322 322 321 320 318 314 310 306 306 307 308 309 309 309 309 310 310 309 308 307 306 306 307

ECMWFFLT1_925_thetae_111.txt.gz
Theta_e
355 348 340 341 345 346 347 345 346 347 347 347 348 349 350 352 352 352 352 352 352 353 353 355 355 354 354 354 353 353 352 350 349 351 352 352 353 353 353 353 353 353 354 355 355 355 354 356 356 354 354 354 354 355 355 355 355 355 355 356 356 354 354
355 351 344 341 343 346 346 346 346 347 347 348 348 349 349 351 352 352 353 353 353 353 353 355 355 354 355 354 354 354 353 352 352 352 353 353 353 352 351 352 352 352 353 353 354 354 353 354 355 354 354 355 355 354 354 356 356 356 356 356 355 356 356
354 354 350 344 342 344 344 345 347 347 347 348 348 349 349 350 352 353 353 353 353 354 354 354 355 355 355 356 355 354 354 354 354 353 353 353 353 351 351 351 352 353 353 354 354 354 353 353 354 354 354 355 355 354 354 356 356 355 354 354 355 356 356
353 354 353 348 343 342 342 343 346 347 347 348 348 349 350 350 351 352 352 354 354 354 354 354 355 356 356 356 355 355 355 354 353 353 353 353 353 353 352 353 353 354 354 354 354 354 354 354 353 354 354 354 355 355 354 354 355 354 352 352 355 357 355
353 353 354 351 346 343 341 341 345 347 347 348 348 349 350 350 351 352 352 353 354 354 354 354 355 356 356 356 356 356 356 354 352 353 352 352 353 353 354 354 355 355 355 355 355 354 354 354 353 354 354 354 355 355 354 354 355 355 354 353 355 357 357
354 353 354 354 350 346 341 339 343 346 347 348 348 348 350 351 351 352 352 353 354 354 354 354 355 356 356 356 356 356 357 355 353 353 353 353 353 353 354 355 355 354 355 355 355 355 354 354 354 354 354 353 353 354 354 354 356 356 356 355 355 356 357
358 355 356 357 354 349 342 338 341 345 346 347 348 348 350 352 352 353 353 353 354 354 355 355 355 356 356 356 356 357 358 357 355 354 354 354 354 354 355 355 355 354 355 355 355 354 354 353 353 353 354 354 354 354 355 356 356 357 357 357 356 356 356
363 361 361 360 357 352 346 342 341 343 344 345 347 348 351 352 352 353 354 354 354 355 355 355 355 356 356 355 356 356 357 358 357 355 354 355 354 354 355 355 355 355 355 355 355 354 354 353 353 353 353 354 355 355 356 356 356 357 357 357 357 357 356
362 362 361 358 357 354 348 346 346 345 345 345 346 348 351 353 353 354 354 354 354 355 355 355 355 356 356 356 356 356 357 358 357 356 355 355 354 354 354 355 354 354 355 355 355 354 354 354 353 353 353 354 354 354 355 355 355 355 357 357 358 357 356
360 360 357 354 355 354 348 347 349 348 347 347 347 349 351 353 353 354 354 355 354 355 355 355 355 356 356 356 356 356 357 358 357 356 355 354 353 353 354 355 354 355 355 355 355 355 354 354 353 353 353 353 352 353 354 355 355 355 356 356 356 356 356
359 358 355 353 355 357 355 352 350 349 348 348 348 348 350 351 353 354 355 355 355 355 356 356 356 356 356 355 356 356 357 357 357 356 354 354 353 353 353 354 355 356 356 356 356 355 355 354 354 353 353 353 352 352 353 354 355 355 355 355 355 354 355
357 357 354 353 355 357 359 356 350 348 348 348 348 348 348 349 351 352 354 355 356 356 356 356 356 356 356 356 356 356 356 356 355 354 353 353 354 354 353 353 354 356 356 355 355 355 355 354 353 353 353 353 352 352 353 353 354 354 354 355 354 353 355
356 356 353 352 353 355 357 355 351 348 349 348 348 348 348 349 349 349 351 354 355 355 356 357 357 357 356 357 356 356 356 355 354 354 353 354 354 354 354 354 354 355 355 354 353 353 353 353 352 352 352 353 352 352 353 353 353 354 354 354 354 354 356
357 356 353 352 353 353 354 354 352 349 349 349 348 348 349 350 350 349 351 354 354 355 355 356 356 357 357 357 357 357 356 356 355 355 356 356 355 355 354 355 355 355 354 353 352 352 353 352 352 352 352 352 352 352 353 353 353 354 353 354 354 355 356
357 355 354 353 353 352 352 353 352 350 349 349 348 349 350 350 350 351 352 354 355 355 355 355 356 357 356 356 357 357 357 356 356 356 357 357 356 355 355 355 355 354 353 352 351 351 351 350 351 351 351 352 351 351 352 352 353 353 353 354 354 355 356
356 355 354 354 353 352 352 352 350 349 350 349 348 349 350 350 351 351 352 353 354 354 355 355 356 356 355 356 356 356 356 356 356 356 356 357 356 356 356 355 355 354 352 350 350 350 350 350 350 350 350 350 350 350 351 351 352 353 353 353 354 355 356
356 355 354 353 353 353 352 352 350 348 349 349 347 348 349 350 351 351 351 352 353 354 354 353 355 354 354 355 355 355 355 354 354 355 354 355 355 355 355 355 355 354 351 350 350 350 349 349 349 350 349 349 348 348 349 350 352 352 353 353 354 355 356
355 354 354 353 352 352 352 351 349 348 348 347 346 347 348 349 350 350 350 350 350 353 353 353 354 353 353 353 353 353 353 352 352 353 353 354 354 354 354 354 354 353 351 351 351 351 350 350 349 349 349 349 349 348 349 351 352 353 353 354 355 356 357
353 352 352 352 351 351 350 347 346 345 345 346 346 347 347 348 349 348 348 349 349 351 352 352 354 353 352 352 351 351 352 352 352 353 352 353 353 354 355 354 355 354 354 354 355 354 354 353 352 352 352 351 350 349 350 351 353 354 354 355 356 356 357
350 348 347 346 347 347 344 342 342 342 343 344 345 346 347 347 348 347 348 348 348 349 350 351 352 352 352 352 351 351 352 352 352 352 353 353 353 354 356 356 357 357 357 357 357 356 355 355 354 353 352 352 352 351 351 351 352 354 355 356 356 355 355
346 344 343 341 342 341 340 339 339 339 340 342 344 346 347 347 347 347 347 348 348 348 348 349 349 350 350 352 352 352 352 353 353 353 353 354 353 353 354 355 357 358 358 358 357 356 355 353 352 351 350 349 350 351 352 351 351 351 352 353 353 352 350
344 342 341 339 338 338 338 337 336 337 337 339 342 345 346 347 347 346 346 347 347 347 347 347 347 347 348 349 350 351 351 352 353 353 353 353 352 353 353 354 355 356 356 355 355 355 353 351 350 350 351 351 351 351 352 351 350 350 349 349 349 348 348
340 339 339 337 336 336 335 334 335 336 336 336 338 340 341 343 344 344 343 344 345 345 345 345 344 345 346 346 347 348 350 351 351 352 352 352 351 351 352 352 353 352 349 349 350 350 349 348 348 348 350 351 352 351 352 351 351 350 349 349 350 349 349
338 337 337 335 335 334 333 333 335 336 338 337 337 338 339 340 341 341 340 341 342 343 343 342 342 343 345 345 346 347 348 348 349 349 349 349 348 348 349 349 348 346 345 346 347 348 347 348 348 348 348 349 350 351 352 351 351 351 350 350 349 348 347
336 336 335 334 334 333 331 332 333 335 337 337 335 337 340 341 341 340 338 338 340 340 340 341 341 342 343 343 343 344 345 345 346 346 346 345 344 344 345 345 344 344 344 344 345 345 345 345 345 345 345 346 347 348 348 347 347 347 347 348 347 346 345
335 334 334 333 332 331 330 331 331 331 332 332 332 334 336 338 339 337 336 337 338 338 338 338 339 340 340 339 339 339 340 340 341 342 341 342 342 342 343 343 343 343 343 343 343 343 343 344 344 343 341 341 342 342 342 341 340 340 341 342 343 343 342
334 333 332 331 330 329 330 330 330 330 330 331 331 332 333 335 334 333 333 336 336 336 336 337 338 338 337 336 336 336 336 337 337 339 340 340 340 339 338 339 341 341 341 342 341 340 341 342 341 338 336 336 337 337 336 334 334 335 335 336 337 338 337
331 330 330 329 329 329 329 328 328 328 328 329 330 330 331 332 330 328 330 331 332 333 334 335 335 335 335 334 334 334 334 334 335 337 338 337 336 335 335 336 338 340 340 339 339 339 338 337 336 334 333 333 332 332 331 329 329 330 330 331 333 334 334
329 328 328 327 327 327 326 326 325 325 326 327 327 327 327 327 325 324 324 324 324 326 329 331 331 332 332 331 331 331 332 333 333 334 335 335 334 334 335 335 337 339 339 336 336 336 336 334 333 331 330 329 329 328 328 328 327 327 326 325 326 328 330
327 326 326 326 326 326 325 325 325 325 326 326 326 326 326 326 325 326 325 325 325 325 326 327 327 328 327 326 325 325 325 326 328 329 330 331 332 333 333 334 335 338 338 335 333 333 332 331 330 329 328 327 327 326 326 327 326 325 325 323 321 321 321
326 325 326 326 327 328 327 326 326 326 326 326 325 325 325 324 325 325 326 326 326 325 324 324 324 323 322 322 320 320 320 320 321 323 323 323 325 328 330 332 333 335 337 335 332 331 331 329 327 327 328 327 326 326 326 325 325 325 325 324 321 319 316
325 325 325 326 327 328 328 327 327 327 326 325 325 325 325 324 324 324 325 325 325 324 322 322 322 322 322 321 320 320 321 321 321 321 320 319 319 321 324 327 330 333 335 336 334 332 330 328 327 327 328 327 327 326 325 324 325 324 322 318 316 314 311
326 325 325 326 327 327 327 327 327 326 326 325 326 326 325 325 325 325 325 325 325 323 321 320 322 323 322 321 321 321 321 322 322 321 321 321 321 321 321 322 325 328 331 334 334 334 333 331 329 327 328 328 328 326 325 325 323 320 316 314 314 313 309
326 325 325 325 325 324 325 325 324 325 325 325 324 324 323 323 324 324 324 324 324 324 323 322 323 322 320 319 320 320 320 322 323 322 322 322 322 322 321 320 320 322 325 328 331 333 335 335 333 330 329 329 329 328 326 323 319 316 314 314 315 314 310
325 325 324 324 323 322 322 323 323 324 323 323 323 323 323 323 323 323 324 325 325 325 324 324 324 323 322 321 321 320 320 321 322 321 321 321 322 323 322 318 315 315 317 320 324 328 332 334 335 333 331 331 329 326 323 319 316 316 316 314 312 309 307
325 325 325 324 323 323 323 324 325 324 322 322 324 324 325 324 323 323 324 323 324 324 323 322 322 323 323 322 320 320 320 320 320 321 321 320 320 319 318 316 315 314 312 311 313 317 322 326 329 329 328 326 323 320 318 317 316 314 312 310 307 307 306
326 325 325 324 324 325 325 325 325 323 322 323 325 326 326 324 323 322 321 320 320 322 323 322 321 322 322 321 320 319 319 319 319 320 321 321 320 318 317 318 319 319 317 312 308 306 310 316 319 318 317 315 314 313 313 313 311 310 308 307 307 308 308
326 325 325 325 325 326 326 325 325 324 323 323 325 326 326 324 323 322 322 320 319 320 323 323 323 322 321 320 320 320 319 319 319 319 320 320 321 320 320 320 321 321 320 318 313 307 306 309 311 311 311 310 309 309 309 309 310 310 310 311 313 314 314

ECMWFFLT1_925_thetae_114.txt.gz
Theta_e
346 339 340 345 346 346 345 344 345 346 346 346 347 348 349 349 350 351 351 351 351 351 351 351 352 353 353 353 353 353 352 351 350 350 350 350 350 350 349 351 353 352 352 353 352 353 354 355 355 355 356 356 355 354 354 354 355 354 354 354 354 355 354
348 341 339 343 346 347 345 344 345 346 345 347 347 348 349 349 350 351 351 351 352 352 351 351 351 351 352 352 352 353 352 351 350 349 349 350 350 350 350 352 352 351 352 353 353 353 353 354 354 354 356 356 355 355 355 355 355 355 355 355 354 355 355
350 344 340 342 345 347 345 344 345 345 345 346 347 348 349 349 350 350 351 351 351 352 351 351 350 350 351 352 353 353 352 352 352 351 350 349 350 350 351 352 352 351 352 352 353 353 353 354 354 354 354 355 354 354 355 355 354 355 356 356 355 354 354
352 347 342 341 344 345 344 344 344 345 346 346 346 348 348 349 350 350 351 351 351 352 352 351 350 350 351 352 353 353 353 352 353 352 351 350 351 351 352 352 352 351 352 351 352 352 353 354 354 353 354 353 354 354 354 354 354 354 355 355 354 353 354
352 350 345 341 343 345 344 344 344 345 346 346 346 347 348 349 350 350 351 351 351 351 351 350 350 351 352 353 353 353 353 353 353 353 353 352 353 352 353 353 352 351 351 351 352 353 354 354 354 354 353 353 353 353 354 354 354 353 354 355 354 354 354
351 351 349 343 342 344 344 343 344 345 345 346 346 347 348 348 349 351 351 351 351 351 351 351 351 352 353 353 353 353 353 353 353 353 353 353 353 353 353 353 353 352 352 353 354 354 354 355 354 354 353 353 353 353 353 353 353 354 354 356 355 355 355
351 351 350 346 342 343 343 342 344 345 345 346 346 346 347 348 348 350 351 351 352 352 351 352 352 353 353 353 353 354 354 354 353 353 353 353 352 352 352 352 353 353 354 354 354 354 355 355 354 354 353 353 353 354 353 353 354 354 355 356 356 356 356
351 351 351 347 343 341 341 341 343 345 346 346 346 347 347 348 348 349 351 351 352 352 352 352 353 353 353 354 354 354 354 354 354 353 353 353 352 352 352 352 353 353 354 354 353 354 354 354 354 353 353 353 353 353 354 354 354 355 355 356 356 356 356
353 351 351 349 346 342 339 339 341 344 345 346 346 347 347 348 348 349 350 351 352 352 352 352 353 353 353 354 354 354 354 354 354 353 354 354 353 353 353 353 353 353 353 354 353 354 355 354 354 353 353 353 352 353 353 354 354 355 355 355 355 356 356
358 355 353 352 350 345 340 338 341 343 344 345 346 346 347 348 349 350 350 351 351 352 352 353 353 353 354 354 354 354 355 354 353 353 354 355 355 354 354 353 352 352 353 353 354 354 354 354 354 353 353 353 353 352 353 353 353 354 354 354 355 356 356
359 358 357 355 354 351 347 344 343 343 344 345 345 346 347 348 349 350 351 351 352 352 353 353 353 354 354 354 354 355 355 354 354 353 354 355 355 354 354 353 352 352 353 353 353 354 354 354 354 354 354 354 353 353 352 352 352 353 354 354 355 355 355
357 357 356 355 354 351 350 348 345 344 344 345 345 347 348 349 350 351 351 352 352 352 353 354 354 354 354 354 355 355 355 355 354 353 353 354 354 354 354 354 352 352 353 353 354 354 355 355 355 355 355 354 353 353 352 352 352 352 353 354 354 355 355
355 354 353 353 353 351 350 350 347 345 345 346 346 346 348 349 350 351 351 352 353 353 353 354 354 354 354 355 355 355 355 355 355 354 353 353 352 352 353 353 352 352 352 353 354 354 355 355 355 355 354 354 353 352 352 352 352 352 352 352 353 354 354
355 354 352 352 353 352 352 351 349 346 346 347 347 347 348 349 350 351 352 353 353 353 353 354 354 355 355 355 355 355 355 355 355 354 354 352 351 351 352 352 353 353 353 352 353 354 354 354 354 353 353 353 352 352 351 351 352 352 352 352 352 353 353
355 354 353 353 353 353 354 354 351 348 347 347 347 347 348 349 350 351 352 352 353 353 354 354 354 355 355 355 355 355 355 355 355 355 354 353 352 351 352 352 353 354 353 353 353 354 354 354 353 352 351 351 351 351 351 351 351 351 351 352 352 352 353
353 352 352 353 353 353 355 355 351 348 348 348 347 348 349 349 350 351 352 353 353 354 354 354 355 355 355 355 355 355 355 355 355 355 355 354 353 353 354 355 355 354 354 354 354 354 354 352 351 351 349 349 350 350 350 350 351 351 350 350 351 352 353
352 353 353 353 353 353 353 353 350 348 348 348 348 348 349 349 350 351 352 353 353 354 354 355 355 355 355 355 355 356 355 355 356 356 355 355 355 354 355 356 356 355 354 354 355 355 353 351 350 350 349 350 349 349 350 349 349 349 348 348 350 351 352
354 354 354 353 352 353 353 353 350 348 348 348 348 349 349 349 350 350 352 352 353 354 354 354 355 355 355 354 354 355 356 356 356 355 355 356 356 355 356 356 356 356 355 355 355 353 351 351 350 350 349 349 349 348 349 348 348 347 348 348 350 352 353
354 354 354 353 352 352 351 350 349 348 347 348 348 349 349 350 350 350 351 351 352 352 352 352 353 353 353 352 351 353 355 354 355 354 354 354 354 354 354 354 355 355 354 354 353 351 351 351 352 352 351 351 350 350 349 349 348 348 349 350 352 353 354
350 350 349 348 348 348 346 345 346 346 347 347 347 348 348 349 349 349 349 350 349 350 350 351 351 350 349 350 349 350 352 352 353 353 352 353 353 353 354 354 354 355 354 353 351 350 350 350 351 353 353 352 352 351 351 350 350 350 349 351 353 354 354
345 344 343 343 343 343 342 341 343 344 345 346 346 346 347 347 348 348 348 347 347 348 348 349 349 348 348 349 349 349 350 351 351 351 351 352 352 352 353 354 352 350 351 351 350 350 350 350 350 352 352 352 351 351 352 351 350 350 350 350 351 353 353
341 340 340 340 339 339 339 339 340 341 342 344 345 346 346 347 347 346 347 347 347 347 347 347 347 347 347 348 349 350 350 350 350 351 351 352 352 352 352 352 348 346 349 350 348 347 349 350 350 350 351 351 349 348 349 351 351 350 349 349 349 349 349
338 337 337 337 336 336 336 337 338 338 339 341 342 344 345 346 346 346 346 346 346 346 347 346 346 346 346 347 349 350 350 350 349 349 349 349 350 351 349 349 349 348 350 350 346 345 347 348 348 349 350 350 348 346 347 350 350 349 349 348 348 348 348
336 335 335 334 334 334 334 335 335 336 337 338 338 340 342 342 343 344 344 344 345 345 345 344 344 345 346 347 348 348 348 348 348 347 347 348 348 347 345 347 349 348 348 347 345 345 347 347 346 346 347 348 347 347 347 348 348 348 348 348 349 348 348
334 333 332 332 331 331 332 333 333 334 335 335 335 337 339 339 339 339 338 338 340 342 342 342 343 344 345 345 346 346 346 346 346 346 346 347 346 344 344 345 346 346 345 344 344 344 345 344 344 344 344 345 345 344 345 345 345 344 345 346 347 346 347
333 332 331 331 330 330 331 332 332 332 332 332 333 336 336 337 336 334 333 334 335 335 335 335 337 340 341 341 341 341 341 341 342 342 343 344 343 343 343 343 343 343 343 342 342 342 342 342 342 341 341 340 340 340 340 339 339 339 339 339 340 340 340
331 330 330 330 329 328 329 329 329 329 329 330 333 334 335 335 333 331 331 332 332 331 331 332 334 335 336 336 337 337 338 339 340 340 339 338 339 339 339 339 341 341 341 340 340 340 340 339 339 339 337 336 336 336 334 333 332 332 331 331 332 334 334
329 329 328 328 327 326 326 326 326 327 327 328 330 332 334 334 331 328 329 329 328 328 330 331 331 331 332 333 334 335 337 338 338 337 336 335 335 336 337 338 340 341 340 338 338 338 337 337 335 335 333 332 332 331 330 329 327 326 325 325 326 327 327
328 327 327 327 326 325 325 325 326 326 325 326 327 327 330 330 327 326 326 326 325 327 329 328 327 328 329 330 331 332 334 334 334 333 333 334 334 335 337 338 339 338 336 335 335 336 335 334 333 331 330 330 329 328 327 326 326 326 326 325 324 321 320
326 326 326 326 325 325 326 326 326 326 326 325 325 325 326 327 325 325 325 324 325 326 326 325 324 325 325 326 327 329 329 329 329 328 329 330 331 333 335 336 338 337 334 332 332 332 331 331 330 329 328 328 327 326 326 326 326 327 326 323 320 315 313
325 325 326 325 325 326 326 325 325 325 325 325 325 325 325 325 325 325 325 324 324 323 323 323 322 321 321 322 323 323 323 323 322 322 323 325 326 328 331 333 335 336 334 332 332 331 330 329 328 328 327 326 326 326 326 325 326 326 321 316 314 312 310
325 326 326 325 325 326 326 325 324 325 325 325 325 325 325 325 325 325 324 323 322 322 322 322 321 321 321 321 322 321 321 321 320 320 320 320 321 322 325 328 331 334 335 334 333 331 330 329 327 327 327 326 326 326 325 325 326 324 319 314 314 315 312
324 325 326 326 326 326 326 325 325 325 325 325 325 325 325 325 324 324 324 323 322 322 322 321 320 320 320 320 321 321 322 322 322 321 321 321 321 321 321 322 325 329 332 334 333 332 332 332 330 328 327 328 328 327 326 325 324 321 317 315 315 314 311
323 325 326 326 326 326 326 325 325 325 324 324 324 324 324 324 324 324 324 324 323 322 321 320 320 320 320 320 320 321 322 322 321 321 321 321 322 322 321 319 319 320 324 328 331 332 334 334 333 330 328 328 329 328 326 323 320 318 316 314 312 309 307
323 324 324 324 325 325 324 324 324 323 323 323 323 322 323 324 324 324 324 323 323 323 322 321 322 322 320 320 320 320 320 320 320 320 320 321 321 320 319 317 316 315 315 317 322 327 330 332 332 332 330 330 329 326 323 320 317 315 312 310 308 307 306
324 323 323 323 324 324 323 322 322 323 324 324 323 323 323 323 322 321 320 319 321 323 322 321 322 322 321 319 319 319 319 319 320 320 321 321 319 317 316 316 317 317 314 311 311 314 320 325 328 328 327 325 322 319 316 314 312 310 308 307 307 307 307
324 323 323 324 324 324 323 322 322 323 325 326 324 323 323 322 321 321 319 318 319 321 322 322 322 321 320 320 320 319 318 318 319 319 319 320 319 318 318 319 320 320 318 314 308 306 308 314 317 318 316 314 313 311 310 310 310 310 310 310 310 311 313
325 324 324 324 325 325 324 322 321 322 324 325 325 324 323 322 322 321 321 320 319 319 320 322 322 322 320 319 320 320 319 319 319 319 319 319 319 319 319 319 320 321 320 318 314 310 308 309 310 311 312 311 311 311 312 314 315 315 316 316 317 319 320

ECMWFFLT1_925_thetae_117.txt.gz
Theta_e
339 338 339 343 345 345 347 349 349 350 350 350 350 350 351 351 352 353 353 353 353 352 351 349 350 350 350 350 349 350 350 350 351 351 351 351 352 352 351 352 352 351 354 355 355 355 354 354 355 357 356 355 357 356 354 354 355 356 357 355 355 356 355
339 338 340 342 345 345 347 349 349 349 350 350 350 351 351 352 353 354 353 353 352 352 351 350 350 350 350 351 351 351 351 351 352 352 352 351 350 351 351 352 352 351 352 353 353 353 352 353 354 355 355 356 358 357 355 355 355 357 357 356 356 357 356
342 340 341 343 345 346 348 350 349 349 350 350 350 351 351 352 352 352 353 353 353 353 353 351 350 350 351 351 352 351 351 352 352 352 352 352 351 352 351 350 350 352 353 353 352 352 353 353 353 353 354 356 358 357 356 356 356 357 357 355 357 358 357
346 342 342 344 346 347 348 349 349 350 350 350 350 351 351 352 351 351 352 353 353 354 354 354 352 352 352 351 353 353 352 352 352 352 353 354 353 352 351 350 350 352 353 352 352 352 353 352 352 353 354 354 355 356 355 356 356 356 355 354 357 358 357
349 344 342 344 346 347 348 349 349 350 350 350 350 351 352 351 351 352 353 353 354 354 354 354 355 355 353 352 354 355 354 352 352 353 353 353 353 352 352 353 353 353 353 353 352 351 350 352 353 355 354 354 355 355 355 355 355 355 354 354 357 358 358
351 347 344 344 345 347 348 349 349 349 350 350 351 351 352 352 352 353 353 354 354 354 354 355 355 355 354 353 355 354 353 352 352 353 353 353 353 353 354 354 354 354 355 354 353 352 352 353 355 356 356 356 356 357 356 356 356 357 356 355 356 357 358
350 351 347 344 345 346 348 348 348 349 350 350 350 351 352 352 352 352 353 353 354 354 355 355 356 355 354 354 354 354 353 353 353 353 353 354 354 355 356 356 355 355 355 355 354 354 355 355 355 356 356 357 357 356 356 355 355 356 357 355 355 357 358
349 352 348 344 343 344 347 349 348 349 350 350 350 351 351 352 352 353 354 354 354 354 354 355 356 354 353 353 353 352 353 354 354 354 354 356 356 356 356 356 356 354 354 355 355 355 356 357 357 356 356 357 356 355 355 354 353 355 357 357 357 358 358
350 351 350 346 343 344 348 349 349 350 350 349 350 351 351 352 352 353 354 354 354 355 354 354 354 352 351 351 351 352 354 355 355 355 355 356 356 356 356 356 356 355 355 356 357 356 356 356 357 356 355 355 355 354 353 353 353 355 356 356 356 358 359
352 352 352 349 345 345 347 348 350 351 351 351 351 351 351 352 352 353 354 354 354 354 353 353 353 352 351 351 351 354 355 355 355 356 356 357 357 356 354 355 356 355 355 356 357 357 356 355 355 355 354 354 354 353 353 352 352 354 355 355 355 356 358
354 352 352 351 348 346 345 347 350 352 351 352 352 351 352 351 352 352 352 353 352 352 353 353 353 353 352 353 355 356 356 355 355 356 356 356 356 356 355 354 356 356 356 356 356 357 357 356 355 354 354 354 354 354 354 353 352 352 354 356 355 355 356
355 353 352 353 351 348 346 347 349 351 352 352 352 352 352 352 352 352 352 352 351 351 352 353 353 353 354 355 357 358 358 357 357 357 356 355 355 356 356 356 356 356 356 356 355 356 356 356 356 355 354 355 354 355 354 354 353 352 352 354 355 354 354
354 353 352 352 352 350 348 347 348 349 351 352 352 352 352 352 352 352 352 351 351 351 351 351 352 352 353 354 356 358 359 358 358 358 357 355 354 354 356 357 356 356 356 356 355 355 356 356 357 356 355 355 354 354 354 353 353 352 351 352 353 353 353
354 354 352 351 351 351 350 348 348 349 350 351 352 352 352 352 353 353 352 352 352 352 351 351 351 352 352 353 355 357 357 358 358 357 355 354 353 352 354 356 356 356 356 355 355 355 355 355 356 356 356 356 354 353 353 352 352 351 351 351 351 352 352
354 354 354 352 351 351 351 349 350 350 350 351 352 352 353 353 354 354 354 354 353 352 351 352 352 353 354 354 355 355 354 355 356 355 353 353 353 353 353 354 355 355 354 354 354 354 354 354 355 356 355 355 353 352 351 352 351 351 350 351 352 352 353
353 353 354 354 353 353 351 350 352 352 352 352 352 352 353 353 354 355 355 356 355 353 352 353 353 354 356 356 355 354 354 354 354 354 354 354 354 354 354 353 354 353 352 352 353 354 353 354 354 355 354 354 352 351 351 352 352 351 349 350 350 351 353
351 352 353 353 353 354 353 352 353 354 353 353 352 352 352 352 352 353 354 355 354 354 353 352 352 354 356 357 357 357 357 356 355 355 355 354 354 354 354 354 353 352 353 354 355 354 354 354 354 354 353 353 352 352 352 352 352 350 348 348 348 349 352
351 352 352 351 351 352 353 352 352 353 353 353 352 352 351 350 350 350 351 353 353 353 352 352 353 354 356 357 356 356 355 356 357 357 356 355 355 355 355 354 354 354 355 356 356 355 354 353 353 352 352 352 352 352 352 351 349 349 348 348 348 348 351
352 352 352 352 351 350 350 350 350 351 352 351 351 351 350 349 348 349 350 352 352 353 353 353 354 354 355 355 354 353 353 353 353 354 355 355 354 354 355 355 355 355 355 354 354 353 351 351 351 352 351 351 351 351 351 350 350 350 349 349 349 349 350
349 349 349 349 350 349 348 349 349 350 350 350 350 350 349 349 350 350 350 351 352 353 353 353 353 353 353 353 353 353 351 350 348 347 350 351 348 349 352 354 353 353 352 352 352 352 351 350 350 350 350 351 351 351 351 351 351 351 350 350 349 349 350
344 344 345 344 345 344 344 346 346 347 347 348 349 349 349 349 350 350 350 350 351 351 351 352 351 352 353 352 352 351 349 348 347 345 346 347 345 346 349 349 350 351 351 351 351 351 350 349 349 349 349 350 351 351 350 350 350 350 350 349 349 349 349
341 341 340 340 339 340 340 341 341 342 343 345 347 347 348 349 349 350 350 350 350 350 350 350 349 349 350 350 349 348 347 347 346 346 345 345 346 347 349 349 349 350 351 351 351 350 350 350 350 350 350 351 351 350 349 348 348 348 348 349 349 348 348
337 337 337 336 336 337 338 338 339 340 340 341 343 343 344 346 347 348 348 347 348 348 348 348 347 347 347 347 346 347 347 346 346 346 345 344 346 348 349 350 348 348 350 350 350 350 349 350 351 351 350 350 350 349 348 347 346 346 346 347 347 348 348
335 335 335 335 335 336 336 336 337 338 338 337 338 339 341 343 344 344 343 343 343 343 342 342 343 344 345 346 346 347 347 347 347 347 345 345 346 347 347 347 347 348 349 348 348 347 348 348 348 348 347 347 347 347 346 345 344 344 344 345 345 346 346
334 334 333 333 334 333 333 334 335 336 336 335 335 337 339 340 340 339 338 337 338 338 337 337 338 340 342 344 346 346 345 345 345 345 344 344 344 345 345 345 346 347 346 345 345 344 344 345 345 344 344 344 344 343 343 342 341 341 341 341 341 341 341
334 334 333 332 331 330 330 331 332 333 333 334 334 334 335 336 336 334 332 332 333 332 331 332 334 336 338 340 342 342 343 343 343 342 342 343 343 343 343 343 344 344 343 342 343 342 342 343 343 342 342 340 339 339 338 337 336 335 334 334 334 334 335
332 332 332 331 330 329 328 328 328 329 330 330 332 332 332 333 332 329 328 329 328 327 328 331 333 335 337 338 339 339 339 339 338 338 339 340 340 340 341 340 341 342 341 341 341 341 341 340 339 339 338 336 335 334 332 331 330 328 327 326 325 324 323
330 330 331 330 330 329 328 327 327 327 327 328 329 329 331 331 329 327 327 326 324 325 329 333 334 334 335 335 335 334 334 335 335 336 336 337 339 339 339 338 338 338 338 338 338 338 337 336 335 334 333 332 330 329 327 327 326 324 323 321 319 316 314
328 329 330 330 329 328 327 327 326 326 326 327 328 327 328 329 328 326 325 324 324 327 330 332 332 332 332 331 330 330 331 332 333 334 334 335 337 338 338 336 335 336 336 336 336 335 334 333 333 332 330 329 327 326 326 327 326 323 320 317 314 313 312
328 328 329 329 328 328 327 327 326 325 325 326 326 326 327 327 327 326 324 323 324 326 327 327 327 327 327 326 325 325 325 326 327 329 330 331 333 335 336 335 334 333 333 333 334 334 333 332 332 331 330 328 327 327 327 326 327 325 321 316 314 314 314
328 329 328 327 327 327 327 327 326 326 325 325 324 324 324 325 325 325 323 322 321 322 322 322 321 322 321 321 320 320 320 321 322 324 325 326 327 330 332 333 333 332 332 332 333 333 333 333 332 332 331 330 329 328 327 327 327 325 320 316 316 315 314
328 329 328 327 327 327 326 326 326 326 326 326 324 323 323 323 324 324 322 321 320 321 321 321 321 321 321 321 321 320 320 320 321 321 321 321 321 323 325 328 332 333 333 333 333 333 333 333 332 332 331 331 330 329 328 327 325 321 318 316 315 312 309
329 329 328 328 328 328 327 327 327 326 326 326 325 324 323 323 323 323 321 320 320 320 320 320 320 321 322 322 321 321 321 321 321 321 321 321 320 319 319 320 324 327 330 332 333 334 334 334 333 333 332 331 331 330 330 328 325 320 316 313 311 308 306
330 329 328 326 327 327 328 327 326 326 326 325 324 322 321 321 322 322 321 321 320 320 320 319 320 320 320 321 320 320 320 321 321 320 320 318 317 316 316 316 316 316 320 324 328 330 332 333 332 332 332 332 331 331 330 328 324 318 312 308 307 307 306
330 329 328 326 325 324 326 327 326 326 326 325 322 320 319 320 321 321 322 321 321 321 320 319 319 319 319 319 320 320 320 320 320 319 318 317 316 317 318 318 317 315 313 313 315 319 324 328 330 330 330 329 327 325 324 321 317 312 308 308 310 312 313
328 328 327 326 324 323 324 326 327 327 326 324 322 320 320 320 320 321 321 321 321 322 321 320 321 321 321 321 321 320 319 318 318 319 319 318 319 319 319 319 319 319 316 311 308 308 312 318 321 321 320 319 316 313 313 313 311 311 312 314 316 318 318
327 326 326 326 325 325 325 325 326 325 325 324 323 322 322 321 320 320 320 319 320 320 321 321 322 323 324 324 322 320 319 319 319 318 318 319 319 319 320 321 321 321 320 317 314 311 309 311 313 313 313 313 312 311 312 314 315 317 319 320 321 321 320
327 327 326 326 326 327 327 327 326 325 324 323 323 324 324 323 321 321 320 320 319 319 319 320 320 322 324 324 323 322 322 321 320 320 319 320 319 319 321 323 324 323 322 320 319 317 315 315 315 315 314 313 313 315 316 318 319 320 321 322 322 322 321

ECMWFFLT1_925_thetae_120.txt.gz
Theta_e
346 342 341 342 343 344 345 346 347 348 349 351 352 352 352 351 351 352 354 355 356 357 357 357 356 356 357 357 357 356 355 354 355 355 355 356 356 356 357 356 356 356 356 356 356 356 356 356 357 358 360 361 361 362 362 360 360 359 360 363 361 360 361
347 344 341 343 344 344 346 347 348 348 349 351 352 351 351 352 352 354 354 355 356 357 357 357 357 357 357 357 357 357 356 355 355 356 355 356 357 357 356 356 356 357 357 356 356 357 358 357 358 359 360 360 359 362 362 361 360 359 360 363 362 361 363
349 345 343 343 344 346 347 348 348 348 349 350 350 350 352 352 354 355 356 356 356 356 356 357 357 357 357 357 357 357 358 356 356 356 355 355 357 356 356 356 356 356 357 357 357 357 357 357 358 359 359 359 358 360 361 360 360 359 361 364 361 361 364
351 345 344 345 345 348 349 349 349 349 350 350 349 349 352 354 355 357 357 356 356 356 356 356 357 356 356 357 357 357 358 357 356 356 355 354 355 356 356 356 356 355 356 357 357 356 356 357 358 359 360 360 359 360 361 361 360 359 362 363 360 361 362
351 345 345 346 347 349 350 350 350 350 351 351 351 350 353 355 356 358 357 356 355 355 355 355 355 355 355 356 356 356 357 356 355 355 355 354 355 356 356 356 356 355 356 356 357 357 357 357 357 358 359 360 359 359 359 360 359 359 362 362 359 359 359
350 349 347 348 350 350 350 350 351 352 352 353 354 352 353 355 356 357 356 355 355 355 355 354 354 354 355 355 355 355 356 356 356 355 355 356 357 356 356 356 355 355 355 356 356 357 357 357 356 356 358 358 357 357 357 358 357 357 360 361 360 359 357
350 352 350 349 350 350 350 350 349 351 353 354 354 354 354 355 355 355 355 355 356 354 354 354 354 354 356 356 355 355 355 356 355 355 355 355 356 357 356 356 356 355 356 356 357 357 357 357 357 357 357 356 356 356 357 359 360 358 358 361 362 361 358
353 353 350 348 349 347 349 350 348 350 354 354 354 354 355 355 355 354 354 355 356 355 354 354 354 354 356 357 356 356 356 356 355 355 354 355 356 356 355 355 356 356 356 357 357 357 357 357 357 357 357 357 357 358 358 360 361 359 358 359 360 361 359
355 354 350 348 348 348 350 351 350 350 353 353 353 355 355 356 356 355 355 356 357 357 355 355 355 356 358 358 357 357 357 356 355 355 354 354 355 354 354 354 355 357 356 357 356 356 357 356 356 357 358 359 359 360 359 360 361 358 358 360 360 360 360
354 353 352 351 349 349 350 351 351 352 354 355 355 355 356 356 356 357 357 358 359 359 358 357 357 359 361 360 359 358 357 356 356 355 354 354 354 354 354 353 354 356 356 355 355 355 356 356 355 358 361 360 360 361 360 360 360 358 357 359 360 360 360
352 352 353 353 351 350 350 352 354 354 355 357 356 356 356 356 358 359 359 360 360 360 360 360 359 361 363 361 358 357 357 357 357 356 355 356 355 355 354 352 352 355 355 355 355 354 356 356 356 359 360 360 359 359 360 360 360 359 358 357 358 359 359
351 352 353 354 353 353 352 353 356 356 357 357 357 357 357 357 358 359 360 361 361 361 362 362 361 363 364 362 359 357 358 357 357 357 356 357 357 356 355 353 352 354 354 355 355 355 355 356 357 358 359 359 358 357 359 360 360 360 359 357 356 358 358
354 354 354 355 355 354 354 354 356 357 358 358 358 358 358 358 359 359 361 361 361 361 362 362 362 363 364 363 360 358 358 358 357 357 357 357 358 357 356 354 353 353 354 354 355 355 354 355 356 357 358 359 358 357 358 359 360 360 360 358 357 357 357
355 355 355 356 356 356 355 354 354 356 356 357 358 358 358 358 359 360 361 361 361 361 362 362 363 364 364 363 362 361 360 359 358 359 359 359 360 360 357 355 354 354 354 354 355 354 353 354 355 356 356 357 357 357 356 357 358 359 359 359 357 356 356
355 354 354 356 356 356 356 354 354 354 354 355 357 358 358 358 359 360 360 360 361 361 361 362 362 364 364 364 364 363 363 362 361 362 362 362 362 362 359 356 355 355 355 355 355 354 353 353 353 354 354 355 356 356 355 355 354 354 356 357 356 356 355
354 354 354 355 356 357 357 355 355 355 353 354 355 356 357 358 358 359 359 360 360 360 361 362 362 364 364 364 365 364 364 365 365 365 366 366 365 364 361 358 355 355 356 357 356 355 355 355 354 354 354 354 355 355 354 354 353 352 353 353 353 354 356
352 353 353 354 354 356 356 356 357 357 356 355 354 355 356 357 358 359 359 359 360 360 361 361 361 363 363 364 364 364 364 365 365 365 365 364 363 363 363 362 359 359 359 358 357 357 358 357 356 356 355 354 355 354 352 354 354 352 351 349 348 350 353
352 352 352 353 353 353 354 354 355 356 356 356 355 355 356 357 358 358 359 359 360 360 360 360 360 361 361 363 363 362 362 362 362 362 361 358 358 359 363 364 363 363 362 360 359 360 359 359 358 358 357 355 354 353 353 353 353 350 349 348 348 347 350
352 351 351 352 353 352 352 353 354 355 355 355 354 354 355 356 356 357 358 359 359 360 359 359 360 360 361 361 361 361 361 360 359 357 355 355 356 357 359 362 362 362 360 359 360 361 361 360 358 357 357 356 356 356 353 351 351 350 349 349 349 348 349
347 347 348 349 350 350 351 352 352 353 353 354 354 353 354 354 354 355 356 356 357 358 358 359 359 359 359 360 359 359 359 358 356 354 353 353 354 356 357 359 359 359 358 358 359 359 360 358 357 358 359 359 359 357 351 349 350 350 350 350 350 349 349
343 343 343 343 344 345 347 348 348 349 351 352 352 353 353 353 353 353 354 354 354 355 357 357 357 357 358 358 359 358 357 356 355 354 353 352 352 354 355 355 356 356 356 356 355 355 357 356 357 359 359 358 358 355 349 347 349 349 349 349 349 348 349
340 340 339 339 340 340 342 343 344 345 346 347 349 351 351 352 352 353 353 353 353 353 355 358 358 357 358 357 357 355 354 354 353 352 352 351 350 350 351 351 352 353 354 353 352 352 354 355 356 359 358 357 358 355 350 348 349 348 347 348 348 347 349
339 338 338 338 337 338 340 340 341 341 342 344 345 347 349 350 350 351 350 351 351 351 353 355 355 355 355 354 353 352 351 349 348 348 349 349 347 346 347 348 349 351 353 353 353 352 353 354 355 356 356 355 355 353 349 346 346 346 345 346 346 346 348
338 337 337 336 336 337 338 338 339 339 340 341 342 343 345 346 346 345 344 344 345 346 346 346 347 349 351 352 351 350 348 346 345 346 347 347 346 345 346 346 348 350 351 352 353 353 353 354 353 352 351 350 350 349 345 342 342 342 342 343 343 343 345
336 336 335 335 335 335 336 337 337 337 338 339 339 340 340 341 340 339 338 338 338 338 338 338 338 341 344 347 348 347 346 344 345 346 345 345 345 345 345 346 347 348 348 349 349 348 349 349 348 346 346 344 343 343 340 338 337 337 337 336 335 336 338
336 336 335 334 333 334 334 334 335 336 337 338 337 337 337 337 336 335 334 334 333 333 333 334 335 337 339 343 346 346 345 345 344 344 344 345 345 344 344 344 344 344 345 344 344 344 345 345 344 342 341 339 339 338 337 334 331 329 329 327 326 326 326
336 335 334 333 333 333 333 333 333 334 335 336 335 335 335 335 335 333 333 333 332 332 332 332 334 336 337 339 341 342 343 343 343 343 343 343 343 342 342 342 341 341 342 341 341 341 340 340 340 339 338 337 336 334 331 329 326 324 323 321 319 317 316
335 335 334 334 334 334 334 334 333 332 333 334 334 334 334 334 333 332 332 332 330 330 330 332 333 335 335 337 338 338 340 340 340 341 341 340 340 339 339 339 339 339 339 339 338 338 337 337 337 336 335 334 332 330 327 326 325 323 320 317 316 315 314
335 335 335 335 334 334 333 333 332 331 331 332 332 332 333 332 332 331 331 330 329 327 327 328 329 330 331 332 332 334 336 337 338 339 337 337 337 336 335 336 336 336 336 336 335 335 334 334 334 333 332 331 330 330 328 327 327 324 319 316 316 316 314
333 333 333 332 332 332 331 331 330 330 329 330 330 331 332 331 330 329 329 328 325 323 321 321 322 325 326 326 326 327 330 332 335 336 335 335 335 334 334 335 335 334 335 335 334 333 332 332 333 333 333 332 332 333 331 330 330 327 322 318 317 316 313
331 331 330 329 329 328 327 327 327 326 327 328 328 328 329 329 329 328 328 327 325 324 323 323 324 325 326 326 326 326 325 326 328 330 332 334 335 335 335 335 334 334 334 335 335 334 333 333 334 334 334 334 334 334 333 332 332 331 327 323 319 316 312
329 328 328 327 327 326 326 325 325 324 325 325 326 326 326 327 327 328 328 328 327 327 326 325 326 326 327 327 326 325 325 324 325 324 325 327 329 330 331 333 334 334 334 334 335 335 335 335 335 334 334 333 333 333 332 331 331 331 328 323 318 316 313
329 329 328 327 327 326 326 326 326 325 325 325 326 326 326 326 327 327 326 327 327 328 327 327 326 327 328 327 325 324 324 324 323 322 321 321 322 323 324 327 330 332 333 333 334 334 334 334 333 333 333 332 332 332 331 331 330 327 322 317 316 317 317
331 331 330 329 328 327 326 326 326 326 327 327 327 327 327 327 328 327 326 326 326 327 328 328 326 325 325 324 323 323 323 322 320 320 320 320 320 320 321 321 322 323 324 325 328 330 332 332 332 332 332 331 330 329 328 326 323 320 316 315 317 319 318
329 331 331 330 328 327 327 326 326 326 326 327 328 328 328 327 327 327 326 326 327 327 328 327 325 324 322 322 322 321 321 321 321 321 320 320 319 320 321 321 320 319 316 313 314 318 322 326 327 326 326 326 323 321 322 322 319 317 317 319 321 320 318
326 327 329 330 329 328 327 327 325 325 326 326 327 327 326 326 326 326 326 326 327 328 328 326 325 324 323 322 322 321 320 320 322 322 323 322 321 320 320 320 320 320 317 313 312 312 314 317 318 318 320 322 319 315 316 318 318 319 321 322 322 321 320
325 326 327 328 329 329 328 328 327 327 326 326 326 325 324 324 325 325 326 326 327 328 328 327 325 324 324 324 324 324 323 323 323 324 325 325 325 325 324 323 322 321 320 318 318 317 317 318 318 316 317 318 318 317 317 318 320 321 322 322 322 322 322
326 327 327 327 328 329 329 330 330 329 328 328 327 326 326 326 325 325 325 325 326 327 327 327 326 325 325 325 325 325 325 324 324 324 324 325 326 326 326 326 325 324 323 321 320 319 319 319 319 318 317 316 317 319 319 318 318 318 319 319 321 322 323

ECMWFFLT1_925_thetae_123.txt.gz
Theta_e
349 346 342 342 342 343 345 347 349 348 349 352 352 352 350 348 348 350 352 355 356 357 357 357 357 357 356 356 356 356 355 355 355 356 356 356 356 357 357 357 357 357 357 355 355 356 356 355 356 358 361 362 362 363 362 361 361 359 361 363 360 359 360
350 346 341 342 343 343 345 346 347 348 348 351 353 352 351 349 350 351 353 355 357 358 358 358 357 357 357 357 357 357 356 355 356 356 356 356 357 358 358 357 357 357 357 357 357 357 357 357 356 357 361 361 360 363 362 361 361 359 360 365 363 361 362
354 352 344 343 344 343 345 346 347 348 348 350 352 352 351 350 351 352 353 355 357 357 358 357 357 357 357 358 358 358 357 355 355 356 355 356 357 357 356 357 357 357 356 356 357 357 357 357 357 358 360 360 359 361 361 361 361 359 360 363 362 360 363
357 357 348 343 345 344 344 346 347 348 348 349 350 351 351 352 352 353 354 356 357 357 357 356 356 356 356 358 358 358 358 356 355 355 354 355 356 356 356 356 356 355 356 356 356 356 356 357 358 360 360 360 359 361 361 361 361 360 362 365 361 359 363
358 355 351 344 345 345 345 346 348 349 348 349 349 350 351 351 353 354 355 356 356 356 356 354 354 354 355 356 357 357 357 356 356 356 355 355 354 355 356 356 355 355 355 356 356 356 357 358 358 359 360 359 359 359 360 360 359 359 362 363 361 360 360
354 353 353 347 346 345 345 346 347 349 349 349 349 349 350 351 352 353 354 355 354 354 354 354 353 353 354 354 354 355 355 355 356 356 356 355 355 356 356 356 356 355 354 355 356 357 358 358 357 358 359 358 357 356 357 357 357 357 359 360 361 360 357
353 352 353 350 347 345 345 346 347 348 348 349 349 348 349 350 351 351 352 353 353 353 353 353 352 352 353 353 354 355 354 354 356 355 355 356 356 356 356 356 355 354 354 354 355 356 358 358 356 356 357 357 356 355 355 357 358 357 358 360 362 362 359
353 352 352 349 346 345 346 347 347 349 348 348 350 349 349 349 350 351 352 352 352 352 352 352 351 352 353 353 353 354 354 354 354 354 353 354 355 356 356 356 355 355 355 355 355 356 357 357 356 356 357 356 355 355 356 359 360 358 358 358 360 361 360
353 355 358 355 349 346 349 349 347 349 349 348 350 350 349 350 352 352 353 353 352 351 351 351 352 353 354 354 355 355 355 355 354 354 352 352 353 354 354 355 355 355 355 355 356 355 356 357 356 356 358 356 357 358 358 360 361 359 358 358 360 361 360
353 357 361 358 352 350 351 351 350 351 350 350 350 350 350 351 352 353 353 354 354 353 353 352 353 354 355 356 357 356 355 355 355 354 353 352 352 353 353 353 353 355 355 354 354 354 355 356 355 357 360 359 360 362 361 360 360 359 358 358 359 360 360
353 356 359 357 353 351 351 352 353 353 352 352 351 351 351 352 353 354 354 354 356 356 355 355 355 356 356 357 358 357 356 356 355 355 354 353 353 352 353 353 352 353 354 354 353 352 353 354 354 357 360 359 359 360 360 359 359 359 359 357 357 358 359
353 356 359 358 355 352 352 352 353 353 351 352 354 354 354 355 355 356 356 356 357 358 358 357 357 357 358 359 359 358 358 356 355 355 354 354 355 354 353 353 352 352 352 353 354 352 352 354 354 355 358 359 359 358 359 359 358 360 360 357 355 356 356
355 356 356 359 359 355 353 352 352 354 353 354 358 356 356 358 358 359 360 359 358 359 360 360 359 359 360 362 361 358 357 357 355 355 354 355 356 355 355 354 352 351 351 352 353 353 352 352 352 354 356 357 358 357 357 358 357 359 360 357 357 356 355
356 356 355 359 360 357 356 355 356 358 357 357 360 357 356 357 358 360 362 362 361 361 362 362 361 361 363 363 362 359 357 357 355 355 355 356 357 357 356 355 353 352 352 352 352 353 353 352 352 353 354 354 356 356 356 357 357 357 356 356 358 357 356
354 356 355 356 357 357 354 355 359 361 359 359 361 360 359 359 359 361 363 364 363 362 364 363 362 363 362 362 363 360 359 358 357 357 359 359 360 360 359 357 355 353 353 353 353 353 354 353 351 351 352 353 354 353 354 354 356 356 354 355 357 357 356
355 356 355 352 353 354 353 354 358 360 359 360 361 361 361 361 361 362 363 364 364 363 364 363 363 364 362 362 363 361 361 361 360 360 362 362 361 361 360 358 355 354 355 356 355 355 355 354 353 351 351 352 353 352 353 353 353 354 353 353 355 356 357
356 357 355 351 350 351 352 352 354 357 358 360 361 361 361 361 362 362 363 364 364 364 364 363 364 365 364 364 362 360 363 367 366 366 366 363 362 360 359 358 356 355 356 357 357 357 357 356 355 354 352 352 352 351 352 353 353 352 351 352 352 352 354
355 355 354 352 350 351 352 350 351 356 359 359 359 359 361 361 362 362 363 363 363 363 364 363 363 363 365 366 363 363 369 371 369 369 367 364 362 360 358 357 358 358 358 358 358 358 358 357 356 356 355 354 350 349 350 352 352 352 351 351 350 348 350
353 352 352 351 350 350 350 349 350 355 357 358 359 359 360 361 362 362 362 363 363 363 362 362 363 362 363 364 365 366 369 370 368 367 365 363 362 359 357 357 358 359 360 360 358 357 359 359 357 358 358 355 352 349 349 349 350 350 350 349 349 348 349
350 350 348 347 347 347 347 347 348 351 353 355 358 358 358 359 360 360 360 361 361 361 361 360 361 360 361 362 361 360 364 368 367 365 364 362 360 358 357 359 359 359 361 360 357 357 359 358 358 360 359 356 355 352 348 349 350 350 349 350 350 350 349
348 347 345 345 345 345 345 346 347 348 351 353 355 356 356 357 357 357 357 358 358 358 358 359 359 358 359 360 356 355 361 367 365 362 361 360 358 356 356 357 359 359 359 357 356 358 361 358 359 361 360 358 355 349 346 347 349 349 350 349 349 349 349
346 344 343 344 344 344 344 345 345 346 349 351 353 354 355 356 356 356 356 356 357 357 357 358 359 358 358 359 358 358 362 365 362 359 359 358 357 357 356 356 358 357 356 357 358 361 361 359 359 359 357 354 351 346 344 346 347 349 348 348 349 348 350
343 342 342 342 342 344 343 342 343 345 346 348 350 352 353 353 353 354 354 354 354 355 355 356 357 357 357 359 362 361 361 361 358 357 357 356 355 356 356 357 357 355 354 356 358 359 359 359 357 352 349 349 348 347 345 345 346 347 347 347 347 347 348
342 342 342 341 341 342 341 341 343 344 345 346 346 347 349 349 349 349 349 349 349 349 349 350 350 352 354 357 359 357 355 353 353 353 354 353 353 353 354 354 354 354 354 354 354 354 356 356 353 349 348 348 347 346 345 344 344 345 344 342 342 343 346
341 341 341 340 339 340 340 341 342 342 342 343 343 343 343 344 344 344 343 344 344 344 344 344 344 346 349 352 353 351 349 348 349 349 350 351 351 350 350 351 351 351 352 352 349 349 349 349 347 346 346 345 343 342 341 340 339 337 335 332 332 335 337
340 340 340 339 338 338 339 339 339 339 340 340 339 340 339 339 340 339 339 339 339 339 340 340 341 342 344 348 350 349 347 346 347 347 348 349 349 348 348 349 349 348 348 346 345 345 345 344 342 341 341 341 340 338 336 334 330 327 325 321 320 322 323
338 339 339 338 337 337 337 338 337 338 338 338 337 337 336 336 336 336 336 337 337 337 338 338 339 340 342 345 347 347 345 345 345 345 345 345 345 344 344 345 344 344 343 343 342 342 341 340 340 339 338 337 336 334 332 330 325 321 319 318 316 317 317
338 338 339 338 337 337 337 337 337 337 338 338 337 336 335 335 335 335 335 336 336 336 336 336 338 339 340 343 344 343 343 343 343 342 341 341 341 341 340 340 340 340 340 340 340 339 338 338 338 337 336 335 334 332 329 326 324 320 319 319 319 320 319
338 338 338 337 337 337 337 336 336 336 337 337 337 336 335 334 334 333 333 333 334 333 334 335 337 338 339 340 340 340 340 340 340 339 338 338 338 337 337 337 337 337 336 336 336 335 334 334 333 333 332 331 331 331 329 328 327 326 326 326 323 320 317
338 338 337 336 336 336 336 335 335 335 335 335 334 333 333 331 330 330 330 331 331 331 331 332 333 334 336 336 337 338 338 338 338 337 337 337 337 336 336 334 333 333 333 332 333 333 333 333 333 332 332 331 332 333 332 330 329 330 332 328 321 316 314
336 335 335 335 334 334 333 333 333 332 332 332 331 330 329 329 328 328 328 329 330 330 330 329 329 330 330 332 333 333 334 335 337 337 336 336 335 335 336 334 333 333 333 333 333 333 333 333 333 333 334 334 334 333 330 327 328 331 331 324 319 318 317
333 332 333 332 331 331 331 330 330 330 329 329 329 328 328 329 328 328 328 328 329 329 330 329 329 328 328 328 327 327 327 329 331 332 332 332 331 332 333 335 335 335 334 334 335 335 334 333 333 333 333 332 332 332 330 329 330 330 326 320 318 319 319
330 329 329 328 328 328 328 327 326 327 327 326 326 326 327 328 328 327 326 327 328 328 328 328 328 328 328 327 325 324 324 324 324 325 326 327 329 329 331 332 333 333 334 334 335 335 335 334 334 333 333 333 332 332 331 330 329 325 318 315 316 317 318
330 329 328 327 327 328 327 326 326 327 327 328 327 327 327 328 328 327 328 328 327 327 326 325 324 324 324 324 323 323 322 322 322 323 323 324 325 324 325 325 326 326 326 328 331 333 332 332 332 331 330 329 328 328 327 326 323 319 315 316 317 318 318
330 329 328 327 327 328 328 329 329 329 329 329 329 328 328 328 328 329 329 329 328 327 325 324 323 322 322 321 321 322 321 321 320 320 321 322 322 321 321 321 321 320 318 319 324 328 328 326 326 326 326 323 321 322 325 324 321 318 319 321 322 321 320
330 329 328 327 327 328 329 330 331 330 330 329 329 329 328 328 328 328 329 329 328 327 326 325 324 323 322 322 322 322 323 323 323 322 321 321 320 320 319 319 319 319 317 315 317 320 321 319 318 320 324 323 319 316 318 320 320 320 322 322 322 322 322
330 329 328 327 328 329 329 329 330 329 328 328 329 329 328 328 329 329 330 330 328 327 327 326 326 325 324 324 324 324 324 325 326 327 327 325 324 323 322 320 319 319 319 319 318 318 319 319 318 319 321 322 321 319 317 317 318 318 319 320 322 323 323
329 329 329 328 328 328 328 328 329 328 327 327 327 327 327 327 328 329 330 330 330 329 328 328 327 327 326 326 326 326 325 324 326 327 328 329 329 328 327 325 323 321 320 320 320 320 320 320 320 319 318 317 320 322 319 316 315 314 314 315 317 319 322